<?xml version="1.0" encoding="UTF-8" standalone="no" ?>
<gpx xmlns="http://www.topografix.com/GPX/1/1" xmlns:xsi="http://www.w3.org/2001/XMLSchema-instance" xsi:schemaLocation="http://www.topografix.com/GPX/1/1 http://www.topografix.com/GPX/1/1/gpx.xsd" version="1.1" creator="VisuGPX - https://www.visugpx.com">
  <metadata>
    <name>Compostelle Nasbinals-St Chely</name>
  </metadata>
  <wpt lat="44.58848" lon="2.91977">
    <ele>791.2</ele>
  </wpt>
  <trk>
    <name><![CDATA[Compostelle Nasbinals-St Chely_1]]></name>
    <trkseg>
      <trkpt lat="44.67106" lon="3.03861">
        <ele>1213.32</ele>
        <time>2012-08-09T15:19:24Z</time>
      </trkpt>
      <trkpt lat="44.67084" lon="3.03887">
        <ele>1176.31</ele>
        <time>2012-08-09T15:19:46Z</time>
      </trkpt>
      <trkpt lat="44.67084" lon="3.03886">
        <ele>1172.95</ele>
        <time>2012-08-09T15:20:20Z</time>
      </trkpt>
      <trkpt lat="44.67086" lon="3.03883">
        <ele>1170.54</ele>
        <time>2012-08-09T15:20:53Z</time>
      </trkpt>
      <trkpt lat="44.67083" lon="3.03883">
        <ele>1168.62</ele>
        <time>2012-08-09T15:21:21Z</time>
      </trkpt>
      <trkpt lat="44.67083" lon="3.03885">
        <ele>1169.1</ele>
        <time>2012-08-09T15:21:54Z</time>
      </trkpt>
      <trkpt lat="44.67083" lon="3.03885">
        <ele>1170.06</ele>
        <time>2012-08-09T15:22:10Z</time>
      </trkpt>
      <trkpt lat="44.67077" lon="3.03882">
        <ele>1160.45</ele>
        <time>2012-08-09T17:53:44Z</time>
      </trkpt>
      <trkpt lat="44.67077" lon="3.03882">
        <ele>1170.54</ele>
        <time>2012-08-09T17:54:12Z</time>
      </trkpt>
      <trkpt lat="44.67081" lon="3.03885">
        <ele>1171.98</ele>
        <time>2012-08-09T17:54:42Z</time>
      </trkpt>
      <trkpt lat="44.67081" lon="3.03884">
        <ele>1175.83</ele>
        <time>2012-08-09T17:55:07Z</time>
      </trkpt>
      <trkpt lat="44.67079" lon="3.03881">
        <ele>1177.75</ele>
        <time>2012-08-09T17:55:37Z</time>
      </trkpt>
      <trkpt lat="44.67079" lon="3.03881">
        <ele>1177.75</ele>
        <time>2012-08-09T17:56:06Z</time>
      </trkpt>
      <trkpt lat="44.67078" lon="3.0388">
        <ele>1177.75</ele>
        <time>2012-08-09T17:56:40Z</time>
      </trkpt>
      <trkpt lat="44.67078" lon="3.0388">
        <ele>1176.31</ele>
        <time>2012-08-09T17:57:10Z</time>
      </trkpt>
      <trkpt lat="44.67078" lon="3.0388">
        <ele>1175.83</ele>
        <time>2012-08-09T17:57:41Z</time>
      </trkpt>
      <trkpt lat="44.67079" lon="3.0388">
        <ele>1175.83</ele>
        <time>2012-08-09T17:58:08Z</time>
      </trkpt>
      <trkpt lat="44.6708" lon="3.0388">
        <ele>1175.83</ele>
        <time>2012-08-09T17:58:41Z</time>
      </trkpt>
      <trkpt lat="44.67079" lon="3.03881">
        <ele>1176.79</ele>
        <time>2012-08-09T17:59:09Z</time>
      </trkpt>
      <trkpt lat="44.6708" lon="3.0388">
        <ele>1176.31</ele>
        <time>2012-08-09T17:59:38Z</time>
      </trkpt>
      <trkpt lat="44.6708" lon="3.0388">
        <ele>1175.83</ele>
        <time>2012-08-09T18:00:07Z</time>
      </trkpt>
      <trkpt lat="44.6708" lon="3.0388">
        <ele>1174.87</ele>
        <time>2012-08-09T18:00:37Z</time>
      </trkpt>
      <trkpt lat="44.6708" lon="3.0388">
        <ele>1174.87</ele>
        <time>2012-08-09T18:01:09Z</time>
      </trkpt>
      <trkpt lat="44.6708" lon="3.03879">
        <ele>1174.87</ele>
        <time>2012-08-09T18:01:40Z</time>
      </trkpt>
      <trkpt lat="44.6708" lon="3.03879">
        <ele>1175.35</ele>
        <time>2012-08-09T18:02:05Z</time>
      </trkpt>
      <trkpt lat="44.66226" lon="3.04639">
        <ele>1178.71</ele>
        <time>2012-08-10T05:49:14Z</time>
      </trkpt>
      <trkpt lat="44.66232" lon="3.04639">
        <ele>1189.29</ele>
        <time>2012-08-10T05:49:39Z</time>
      </trkpt>
      <trkpt lat="44.66234" lon="3.04637">
        <ele>1195.54</ele>
        <time>2012-08-10T05:50:10Z</time>
      </trkpt>
      <trkpt lat="44.66229" lon="3.04641">
        <ele>1196.02</ele>
        <time>2012-08-10T05:50:40Z</time>
      </trkpt>
      <trkpt lat="44.66224" lon="3.04639">
        <ele>1186.4</ele>
        <time>2012-08-10T05:50:55Z</time>
      </trkpt>
      <trkpt lat="44.66223" lon="3.0464">
        <ele>1182.56</ele>
        <time>2012-08-10T05:51:06Z</time>
      </trkpt>
      <trkpt lat="44.6622" lon="3.04628">
        <ele>1181.12</ele>
        <time>2012-08-10T05:51:20Z</time>
      </trkpt>
      <trkpt lat="44.6622" lon="3.04628">
        <ele>1182.08</ele>
        <time>2012-08-10T05:51:32Z</time>
      </trkpt>
      <trkpt lat="44.66216" lon="3.04629">
        <ele>1180.64</ele>
        <time>2012-08-10T05:51:44Z</time>
      </trkpt>
      <trkpt lat="44.66216" lon="3.04627">
        <ele>1182.08</ele>
        <time>2012-08-10T05:52:01Z</time>
      </trkpt>
      <trkpt lat="44.66219" lon="3.04626">
        <ele>1181.6</ele>
        <time>2012-08-10T05:52:04Z</time>
      </trkpt>
      <trkpt lat="44.66221" lon="3.04625">
        <ele>1181.12</ele>
        <time>2012-08-10T05:52:19Z</time>
      </trkpt>
      <trkpt lat="44.6622" lon="3.04625">
        <ele>1182.08</ele>
        <time>2012-08-10T05:52:52Z</time>
      </trkpt>
      <trkpt lat="44.66221" lon="3.04625">
        <ele>1181.6</ele>
        <time>2012-08-10T05:53:23Z</time>
      </trkpt>
      <trkpt lat="44.66222" lon="3.04624">
        <ele>1183.52</ele>
        <time>2012-08-10T05:53:58Z</time>
      </trkpt>
      <trkpt lat="44.66222" lon="3.04623">
        <ele>1184</ele>
        <time>2012-08-10T05:54:34Z</time>
      </trkpt>
      <trkpt lat="44.66221" lon="3.04624">
        <ele>1184</ele>
        <time>2012-08-10T05:55:07Z</time>
      </trkpt>
      <trkpt lat="44.66221" lon="3.04625">
        <ele>1184.48</ele>
        <time>2012-08-10T05:55:35Z</time>
      </trkpt>
      <trkpt lat="44.66221" lon="3.04625">
        <ele>1184</ele>
        <time>2012-08-10T05:56:06Z</time>
      </trkpt>
      <trkpt lat="44.66221" lon="3.04625">
        <ele>1183.52</ele>
        <time>2012-08-10T05:56:31Z</time>
      </trkpt>
      <trkpt lat="44.6622" lon="3.04624">
        <ele>1183.04</ele>
        <time>2012-08-10T05:56:40Z</time>
      </trkpt>
      <trkpt lat="44.66216" lon="3.0462">
        <ele>1182.56</ele>
        <time>2012-08-10T05:56:44Z</time>
      </trkpt>
      <trkpt lat="44.66217" lon="3.04607">
        <ele>1182.08</ele>
        <time>2012-08-10T05:56:49Z</time>
      </trkpt>
      <trkpt lat="44.66226" lon="3.0456">
        <ele>1182.56</ele>
        <time>2012-08-10T05:57:03Z</time>
      </trkpt>
      <trkpt lat="44.66242" lon="3.04512">
        <ele>1186.4</ele>
        <time>2012-08-10T05:57:17Z</time>
      </trkpt>
      <trkpt lat="44.66256" lon="3.04466">
        <ele>1191.69</ele>
        <time>2012-08-10T05:57:30Z</time>
      </trkpt>
      <trkpt lat="44.66265" lon="3.04444">
        <ele>1192.65</ele>
        <time>2012-08-10T05:57:39Z</time>
      </trkpt>
      <trkpt lat="44.66255" lon="3.04357">
        <ele>1189.29</ele>
        <time>2012-08-10T05:57:54Z</time>
      </trkpt>
      <trkpt lat="44.66254" lon="3.04352">
        <ele>1189.29</ele>
        <time>2012-08-10T05:57:55Z</time>
      </trkpt>
      <trkpt lat="44.66244" lon="3.04328">
        <ele>1189.29</ele>
        <time>2012-08-10T05:58:00Z</time>
      </trkpt>
      <trkpt lat="44.66241" lon="3.04324">
        <ele>1189.29</ele>
        <time>2012-08-10T05:58:01Z</time>
      </trkpt>
      <trkpt lat="44.66211" lon="3.04274">
        <ele>1189.29</ele>
        <time>2012-08-10T05:58:13Z</time>
      </trkpt>
      <trkpt lat="44.66169" lon="3.04202">
        <ele>1190.25</ele>
        <time>2012-08-10T05:58:29Z</time>
      </trkpt>
      <trkpt lat="44.66166" lon="3.04198">
        <ele>1190.25</ele>
        <time>2012-08-10T05:58:30Z</time>
      </trkpt>
      <trkpt lat="44.66112" lon="3.0412">
        <ele>1189.29</ele>
        <time>2012-08-10T05:58:48Z</time>
      </trkpt>
      <trkpt lat="44.66096" lon="3.04099">
        <ele>1189.77</ele>
        <time>2012-08-10T05:58:53Z</time>
      </trkpt>
      <trkpt lat="44.66081" lon="3.04077">
        <ele>1189.29</ele>
        <time>2012-08-10T05:58:58Z</time>
      </trkpt>
      <trkpt lat="44.66079" lon="3.04072">
        <ele>1189.29</ele>
        <time>2012-08-10T05:58:59Z</time>
      </trkpt>
      <trkpt lat="44.6604" lon="3.04017">
        <ele>1189.29</ele>
        <time>2012-08-10T05:59:15Z</time>
      </trkpt>
      <trkpt lat="44.66027" lon="3.03994">
        <ele>1190.73</ele>
        <time>2012-08-10T05:59:24Z</time>
      </trkpt>
      <trkpt lat="44.66027" lon="3.03991">
        <ele>1190.73</ele>
        <time>2012-08-10T05:59:25Z</time>
      </trkpt>
      <trkpt lat="44.66042" lon="3.03949">
        <ele>1192.65</ele>
        <time>2012-08-10T05:59:41Z</time>
      </trkpt>
      <trkpt lat="44.66053" lon="3.03915">
        <ele>1196.98</ele>
        <time>2012-08-10T05:59:55Z</time>
      </trkpt>
      <trkpt lat="44.66068" lon="3.03887">
        <ele>1198.42</ele>
        <time>2012-08-10T06:00:09Z</time>
      </trkpt>
      <trkpt lat="44.66071" lon="3.03884">
        <ele>1197.94</ele>
        <time>2012-08-10T06:00:11Z</time>
      </trkpt>
      <trkpt lat="44.66072" lon="3.03882">
        <ele>1198.42</ele>
        <time>2012-08-10T06:00:12Z</time>
      </trkpt>
      <trkpt lat="44.66073" lon="3.0388">
        <ele>1198.42</ele>
        <time>2012-08-10T06:00:13Z</time>
      </trkpt>
      <trkpt lat="44.66073" lon="3.03877">
        <ele>1198.9</ele>
        <time>2012-08-10T06:00:14Z</time>
      </trkpt>
      <trkpt lat="44.66074" lon="3.03876">
        <ele>1198.9</ele>
        <time>2012-08-10T06:00:15Z</time>
      </trkpt>
      <trkpt lat="44.66077" lon="3.03872">
        <ele>1199.38</ele>
        <time>2012-08-10T06:00:17Z</time>
      </trkpt>
      <trkpt lat="44.66078" lon="3.03871">
        <ele>1199.86</ele>
        <time>2012-08-10T06:00:18Z</time>
      </trkpt>
      <trkpt lat="44.66079" lon="3.0387">
        <ele>1199.86</ele>
        <time>2012-08-10T06:00:19Z</time>
      </trkpt>
      <trkpt lat="44.6608" lon="3.03869">
        <ele>1199.86</ele>
        <time>2012-08-10T06:00:20Z</time>
      </trkpt>
      <trkpt lat="44.66081" lon="3.03867">
        <ele>1200.34</ele>
        <time>2012-08-10T06:00:21Z</time>
      </trkpt>
      <trkpt lat="44.66083" lon="3.03866">
        <ele>1200.34</ele>
        <time>2012-08-10T06:00:22Z</time>
      </trkpt>
      <trkpt lat="44.66092" lon="3.03856">
        <ele>1203.23</ele>
        <time>2012-08-10T06:00:32Z</time>
      </trkpt>
      <trkpt lat="44.66093" lon="3.03855">
        <ele>1203.71</ele>
        <time>2012-08-10T06:00:33Z</time>
      </trkpt>
      <trkpt lat="44.6611" lon="3.03847">
        <ele>1206.59</ele>
        <time>2012-08-10T06:00:43Z</time>
      </trkpt>
      <trkpt lat="44.66118" lon="3.03845">
        <ele>1208.51</ele>
        <time>2012-08-10T06:00:47Z</time>
      </trkpt>
      <trkpt lat="44.66131" lon="3.03825">
        <ele>1210.92</ele>
        <time>2012-08-10T06:00:56Z</time>
      </trkpt>
      <trkpt lat="44.66132" lon="3.03823">
        <ele>1210.92</ele>
        <time>2012-08-10T06:00:57Z</time>
      </trkpt>
      <trkpt lat="44.66132" lon="3.0382">
        <ele>1210.92</ele>
        <time>2012-08-10T06:00:58Z</time>
      </trkpt>
      <trkpt lat="44.66131" lon="3.03819">
        <ele>1210.92</ele>
        <time>2012-08-10T06:00:59Z</time>
      </trkpt>
      <trkpt lat="44.6613" lon="3.03817">
        <ele>1210.92</ele>
        <time>2012-08-10T06:01:00Z</time>
      </trkpt>
      <trkpt lat="44.66125" lon="3.03805">
        <ele>1210.92</ele>
        <time>2012-08-10T06:01:10Z</time>
      </trkpt>
      <trkpt lat="44.66123" lon="3.03799">
        <ele>1210.44</ele>
        <time>2012-08-10T06:01:13Z</time>
      </trkpt>
      <trkpt lat="44.66122" lon="3.03796">
        <ele>1210.92</ele>
        <time>2012-08-10T06:01:14Z</time>
      </trkpt>
      <trkpt lat="44.66121" lon="3.03794">
        <ele>1210.92</ele>
        <time>2012-08-10T06:01:15Z</time>
      </trkpt>
      <trkpt lat="44.6612" lon="3.03792">
        <ele>1210.92</ele>
        <time>2012-08-10T06:01:16Z</time>
      </trkpt>
      <trkpt lat="44.66118" lon="3.0379">
        <ele>1211.4</ele>
        <time>2012-08-10T06:01:17Z</time>
      </trkpt>
      <trkpt lat="44.66117" lon="3.03789">
        <ele>1211.4</ele>
        <time>2012-08-10T06:01:18Z</time>
      </trkpt>
      <trkpt lat="44.66108" lon="3.03772">
        <ele>1213.8</ele>
        <time>2012-08-10T06:01:28Z</time>
      </trkpt>
      <trkpt lat="44.66107" lon="3.03771">
        <ele>1213.8</ele>
        <time>2012-08-10T06:01:29Z</time>
      </trkpt>
      <trkpt lat="44.66102" lon="3.03762">
        <ele>1213.8</ele>
        <time>2012-08-10T06:01:35Z</time>
      </trkpt>
      <trkpt lat="44.66092" lon="3.03732">
        <ele>1213.8</ele>
        <time>2012-08-10T06:01:48Z</time>
      </trkpt>
      <trkpt lat="44.6609" lon="3.03724">
        <ele>1214.28</ele>
        <time>2012-08-10T06:01:51Z</time>
      </trkpt>
      <trkpt lat="44.66089" lon="3.03722">
        <ele>1214.76</ele>
        <time>2012-08-10T06:01:52Z</time>
      </trkpt>
      <trkpt lat="44.66088" lon="3.0372">
        <ele>1214.76</ele>
        <time>2012-08-10T06:01:53Z</time>
      </trkpt>
      <trkpt lat="44.66088" lon="3.03718">
        <ele>1214.76</ele>
        <time>2012-08-10T06:01:54Z</time>
      </trkpt>
      <trkpt lat="44.66087" lon="3.03715">
        <ele>1215.24</ele>
        <time>2012-08-10T06:01:55Z</time>
      </trkpt>
      <trkpt lat="44.66086" lon="3.03713">
        <ele>1215.72</ele>
        <time>2012-08-10T06:01:56Z</time>
      </trkpt>
      <trkpt lat="44.66086" lon="3.03711">
        <ele>1216.21</ele>
        <time>2012-08-10T06:01:57Z</time>
      </trkpt>
      <trkpt lat="44.66085" lon="3.03709">
        <ele>1216.21</ele>
        <time>2012-08-10T06:01:58Z</time>
      </trkpt>
      <trkpt lat="44.66084" lon="3.03708">
        <ele>1216.21</ele>
        <time>2012-08-10T06:01:59Z</time>
      </trkpt>
      <trkpt lat="44.6606" lon="3.03695">
        <ele>1218.61</ele>
        <time>2012-08-10T06:02:11Z</time>
      </trkpt>
      <trkpt lat="44.66031" lon="3.03684">
        <ele>1217.65</ele>
        <time>2012-08-10T06:02:23Z</time>
      </trkpt>
      <trkpt lat="44.65996" lon="3.03675">
        <ele>1218.13</ele>
        <time>2012-08-10T06:02:37Z</time>
      </trkpt>
      <trkpt lat="44.65957" lon="3.03663">
        <ele>1218.13</ele>
        <time>2012-08-10T06:02:52Z</time>
      </trkpt>
      <trkpt lat="44.65936" lon="3.03626">
        <ele>1219.09</ele>
        <time>2012-08-10T06:03:05Z</time>
      </trkpt>
      <trkpt lat="44.6593" lon="3.03596">
        <ele>1219.57</ele>
        <time>2012-08-10T06:03:17Z</time>
      </trkpt>
      <trkpt lat="44.65931" lon="3.03594">
        <ele>1219.09</ele>
        <time>2012-08-10T06:03:32Z</time>
      </trkpt>
      <trkpt lat="44.65931" lon="3.03594">
        <ele>1218.61</ele>
        <time>2012-08-10T06:04:06Z</time>
      </trkpt>
      <trkpt lat="44.65932" lon="3.03595">
        <ele>1218.13</ele>
        <time>2012-08-10T06:04:45Z</time>
      </trkpt>
      <trkpt lat="44.65932" lon="3.03596">
        <ele>1216.69</ele>
        <time>2012-08-10T06:05:22Z</time>
      </trkpt>
      <trkpt lat="44.65932" lon="3.03595">
        <ele>1217.17</ele>
        <time>2012-08-10T06:05:57Z</time>
      </trkpt>
      <trkpt lat="44.65932" lon="3.03595">
        <ele>1216.21</ele>
        <time>2012-08-10T06:06:36Z</time>
      </trkpt>
      <trkpt lat="44.65932" lon="3.03595">
        <ele>1216.69</ele>
        <time>2012-08-10T06:07:11Z</time>
      </trkpt>
      <trkpt lat="44.65931" lon="3.03595">
        <ele>1216.69</ele>
        <time>2012-08-10T06:07:37Z</time>
      </trkpt>
      <trkpt lat="44.6593" lon="3.03593">
        <ele>1216.69</ele>
        <time>2012-08-10T06:07:39Z</time>
      </trkpt>
      <trkpt lat="44.65929" lon="3.03591">
        <ele>1216.69</ele>
        <time>2012-08-10T06:07:40Z</time>
      </trkpt>
      <trkpt lat="44.65913" lon="3.03549">
        <ele>1217.17</ele>
        <time>2012-08-10T06:07:54Z</time>
      </trkpt>
      <trkpt lat="44.65897" lon="3.03518">
        <ele>1217.17</ele>
        <time>2012-08-10T06:08:02Z</time>
      </trkpt>
      <trkpt lat="44.65889" lon="3.03495">
        <ele>1217.17</ele>
        <time>2012-08-10T06:08:06Z</time>
      </trkpt>
      <trkpt lat="44.65862" lon="3.03416">
        <ele>1217.17</ele>
        <time>2012-08-10T06:08:18Z</time>
      </trkpt>
      <trkpt lat="44.6586" lon="3.03409">
        <ele>1217.65</ele>
        <time>2012-08-10T06:08:19Z</time>
      </trkpt>
      <trkpt lat="44.65854" lon="3.03389">
        <ele>1217.65</ele>
        <time>2012-08-10T06:08:22Z</time>
      </trkpt>
      <trkpt lat="44.65849" lon="3.0337">
        <ele>1218.13</ele>
        <time>2012-08-10T06:08:25Z</time>
      </trkpt>
      <trkpt lat="44.65848" lon="3.03364">
        <ele>1218.61</ele>
        <time>2012-08-10T06:08:26Z</time>
      </trkpt>
      <trkpt lat="44.6584" lon="3.03332">
        <ele>1219.09</ele>
        <time>2012-08-10T06:08:31Z</time>
      </trkpt>
      <trkpt lat="44.65838" lon="3.03325">
        <ele>1219.57</ele>
        <time>2012-08-10T06:08:32Z</time>
      </trkpt>
      <trkpt lat="44.65821" lon="3.0327">
        <ele>1219.09</ele>
        <time>2012-08-10T06:08:40Z</time>
      </trkpt>
      <trkpt lat="44.6582" lon="3.03263">
        <ele>1219.09</ele>
        <time>2012-08-10T06:08:41Z</time>
      </trkpt>
      <trkpt lat="44.65817" lon="3.03213">
        <ele>1218.61</ele>
        <time>2012-08-10T06:08:47Z</time>
      </trkpt>
      <trkpt lat="44.65817" lon="3.03179">
        <ele>1218.61</ele>
        <time>2012-08-10T06:08:51Z</time>
      </trkpt>
      <trkpt lat="44.65818" lon="3.03171">
        <ele>1218.13</ele>
        <time>2012-08-10T06:08:52Z</time>
      </trkpt>
      <trkpt lat="44.65819" lon="3.03059">
        <ele>1214.28</ele>
        <time>2012-08-10T06:09:04Z</time>
      </trkpt>
      <trkpt lat="44.65808" lon="3.03009">
        <ele>1212.84</ele>
        <time>2012-08-10T06:09:09Z</time>
      </trkpt>
      <trkpt lat="44.65797" lon="3.02951">
        <ele>1210.44</ele>
        <time>2012-08-10T06:09:14Z</time>
      </trkpt>
      <trkpt lat="44.65793" lon="3.0294">
        <ele>1209.96</ele>
        <time>2012-08-10T06:09:15Z</time>
      </trkpt>
      <trkpt lat="44.65788" lon="3.02931">
        <ele>1209.48</ele>
        <time>2012-08-10T06:09:16Z</time>
      </trkpt>
      <trkpt lat="44.65783" lon="3.02922">
        <ele>1209.48</ele>
        <time>2012-08-10T06:09:17Z</time>
      </trkpt>
      <trkpt lat="44.65778" lon="3.02914">
        <ele>1209</ele>
        <time>2012-08-10T06:09:18Z</time>
      </trkpt>
      <trkpt lat="44.65765" lon="3.02895">
        <ele>1209.48</ele>
        <time>2012-08-10T06:09:21Z</time>
      </trkpt>
      <trkpt lat="44.65744" lon="3.02862">
        <ele>1211.88</ele>
        <time>2012-08-10T06:09:31Z</time>
      </trkpt>
      <trkpt lat="44.65717" lon="3.02811">
        <ele>1212.36</ele>
        <time>2012-08-10T06:09:44Z</time>
      </trkpt>
      <trkpt lat="44.65711" lon="3.02763">
        <ele>1214.76</ele>
        <time>2012-08-10T06:09:56Z</time>
      </trkpt>
      <trkpt lat="44.657" lon="3.02721">
        <ele>1214.76</ele>
        <time>2012-08-10T06:10:04Z</time>
      </trkpt>
      <trkpt lat="44.65695" lon="3.02662">
        <ele>1215.72</ele>
        <time>2012-08-10T06:10:17Z</time>
      </trkpt>
      <trkpt lat="44.65689" lon="3.0264">
        <ele>1218.61</ele>
        <time>2012-08-10T06:10:25Z</time>
      </trkpt>
      <trkpt lat="44.65687" lon="3.02639">
        <ele>1219.09</ele>
        <time>2012-08-10T06:10:26Z</time>
      </trkpt>
      <trkpt lat="44.65667" lon="3.02613">
        <ele>1221.97</ele>
        <time>2012-08-10T06:10:40Z</time>
      </trkpt>
      <trkpt lat="44.65651" lon="3.02579">
        <ele>1225.82</ele>
        <time>2012-08-10T06:10:55Z</time>
      </trkpt>
      <trkpt lat="44.65637" lon="3.02542">
        <ele>1228.7</ele>
        <time>2012-08-10T06:11:10Z</time>
      </trkpt>
      <trkpt lat="44.65636" lon="3.02538">
        <ele>1228.7</ele>
        <time>2012-08-10T06:11:12Z</time>
      </trkpt>
      <trkpt lat="44.65634" lon="3.02537">
        <ele>1228.7</ele>
        <time>2012-08-10T06:11:13Z</time>
      </trkpt>
      <trkpt lat="44.65632" lon="3.02533">
        <ele>1229.18</ele>
        <time>2012-08-10T06:11:15Z</time>
      </trkpt>
      <trkpt lat="44.6563" lon="3.02532">
        <ele>1229.66</ele>
        <time>2012-08-10T06:11:16Z</time>
      </trkpt>
      <trkpt lat="44.65629" lon="3.02531">
        <ele>1229.66</ele>
        <time>2012-08-10T06:11:17Z</time>
      </trkpt>
      <trkpt lat="44.65628" lon="3.02529">
        <ele>1229.66</ele>
        <time>2012-08-10T06:11:18Z</time>
      </trkpt>
      <trkpt lat="44.65627" lon="3.02528">
        <ele>1229.66</ele>
        <time>2012-08-10T06:11:19Z</time>
      </trkpt>
      <trkpt lat="44.65626" lon="3.02526">
        <ele>1230.14</ele>
        <time>2012-08-10T06:11:20Z</time>
      </trkpt>
      <trkpt lat="44.65615" lon="3.02501">
        <ele>1232.07</ele>
        <time>2012-08-10T06:11:34Z</time>
      </trkpt>
      <trkpt lat="44.65615" lon="3.02499">
        <ele>1232.07</ele>
        <time>2012-08-10T06:11:35Z</time>
      </trkpt>
      <trkpt lat="44.65614" lon="3.02497">
        <ele>1232.07</ele>
        <time>2012-08-10T06:11:36Z</time>
      </trkpt>
      <trkpt lat="44.65612" lon="3.02466">
        <ele>1234.95</ele>
        <time>2012-08-10T06:11:51Z</time>
      </trkpt>
      <trkpt lat="44.65608" lon="3.02424">
        <ele>1235.91</ele>
        <time>2012-08-10T06:12:08Z</time>
      </trkpt>
      <trkpt lat="44.65608" lon="3.02412">
        <ele>1237.35</ele>
        <time>2012-08-10T06:12:13Z</time>
      </trkpt>
      <trkpt lat="44.65608" lon="3.02409">
        <ele>1237.83</ele>
        <time>2012-08-10T06:12:14Z</time>
      </trkpt>
      <trkpt lat="44.65609" lon="3.02406">
        <ele>1238.32</ele>
        <time>2012-08-10T06:12:15Z</time>
      </trkpt>
      <trkpt lat="44.65609" lon="3.02403">
        <ele>1238.8</ele>
        <time>2012-08-10T06:12:16Z</time>
      </trkpt>
      <trkpt lat="44.65608" lon="3.024">
        <ele>1238.8</ele>
        <time>2012-08-10T06:12:17Z</time>
      </trkpt>
      <trkpt lat="44.65608" lon="3.02396">
        <ele>1239.76</ele>
        <time>2012-08-10T06:12:19Z</time>
      </trkpt>
      <trkpt lat="44.65607" lon="3.02394">
        <ele>1239.76</ele>
        <time>2012-08-10T06:12:20Z</time>
      </trkpt>
      <trkpt lat="44.65607" lon="3.02392">
        <ele>1239.76</ele>
        <time>2012-08-10T06:12:21Z</time>
      </trkpt>
      <trkpt lat="44.65606" lon="3.02391">
        <ele>1239.76</ele>
        <time>2012-08-10T06:12:22Z</time>
      </trkpt>
      <trkpt lat="44.65605" lon="3.02389">
        <ele>1239.76</ele>
        <time>2012-08-10T06:12:23Z</time>
      </trkpt>
      <trkpt lat="44.65604" lon="3.02387">
        <ele>1239.76</ele>
        <time>2012-08-10T06:12:24Z</time>
      </trkpt>
      <trkpt lat="44.65603" lon="3.02385">
        <ele>1239.76</ele>
        <time>2012-08-10T06:12:25Z</time>
      </trkpt>
      <trkpt lat="44.65602" lon="3.02384">
        <ele>1239.28</ele>
        <time>2012-08-10T06:12:26Z</time>
      </trkpt>
      <trkpt lat="44.656" lon="3.02383">
        <ele>1239.28</ele>
        <time>2012-08-10T06:12:27Z</time>
      </trkpt>
      <trkpt lat="44.65589" lon="3.02365">
        <ele>1239.28</ele>
        <time>2012-08-10T06:12:39Z</time>
      </trkpt>
      <trkpt lat="44.65586" lon="3.02359">
        <ele>1240.72</ele>
        <time>2012-08-10T06:12:43Z</time>
      </trkpt>
      <trkpt lat="44.65585" lon="3.02357">
        <ele>1240.72</ele>
        <time>2012-08-10T06:12:44Z</time>
      </trkpt>
      <trkpt lat="44.65576" lon="3.02322">
        <ele>1242.64</ele>
        <time>2012-08-10T06:13:01Z</time>
      </trkpt>
      <trkpt lat="44.65575" lon="3.02317">
        <ele>1242.64</ele>
        <time>2012-08-10T06:13:04Z</time>
      </trkpt>
      <trkpt lat="44.65575" lon="3.02315">
        <ele>1242.64</ele>
        <time>2012-08-10T06:13:05Z</time>
      </trkpt>
      <trkpt lat="44.65574" lon="3.02302">
        <ele>1242.16</ele>
        <time>2012-08-10T06:13:12Z</time>
      </trkpt>
      <trkpt lat="44.65573" lon="3.023">
        <ele>1242.16</ele>
        <time>2012-08-10T06:13:13Z</time>
      </trkpt>
      <trkpt lat="44.65573" lon="3.02298">
        <ele>1242.16</ele>
        <time>2012-08-10T06:13:14Z</time>
      </trkpt>
      <trkpt lat="44.65573" lon="3.02292">
        <ele>1242.16</ele>
        <time>2012-08-10T06:13:16Z</time>
      </trkpt>
      <trkpt lat="44.65573" lon="3.02289">
        <ele>1242.64</ele>
        <time>2012-08-10T06:13:17Z</time>
      </trkpt>
      <trkpt lat="44.6557" lon="3.0224">
        <ele>1245.53</ele>
        <time>2012-08-10T06:13:30Z</time>
      </trkpt>
      <trkpt lat="44.65561" lon="3.02169">
        <ele>1246.97</ele>
        <time>2012-08-10T06:13:41Z</time>
      </trkpt>
      <trkpt lat="44.65558" lon="3.02138">
        <ele>1246.97</ele>
        <time>2012-08-10T06:13:45Z</time>
      </trkpt>
      <trkpt lat="44.6556" lon="3.0213">
        <ele>1246.97</ele>
        <time>2012-08-10T06:13:46Z</time>
      </trkpt>
      <trkpt lat="44.65565" lon="3.02106">
        <ele>1246.49</ele>
        <time>2012-08-10T06:13:49Z</time>
      </trkpt>
      <trkpt lat="44.65568" lon="3.021">
        <ele>1246.49</ele>
        <time>2012-08-10T06:13:50Z</time>
      </trkpt>
      <trkpt lat="44.65571" lon="3.02093">
        <ele>1246.49</ele>
        <time>2012-08-10T06:13:51Z</time>
      </trkpt>
      <trkpt lat="44.65585" lon="3.02049">
        <ele>1245.53</ele>
        <time>2012-08-10T06:13:56Z</time>
      </trkpt>
      <trkpt lat="44.65586" lon="3.0204">
        <ele>1245.53</ele>
        <time>2012-08-10T06:13:57Z</time>
      </trkpt>
      <trkpt lat="44.65587" lon="3.0203">
        <ele>1245.04</ele>
        <time>2012-08-10T06:13:58Z</time>
      </trkpt>
      <trkpt lat="44.65587" lon="3.02021">
        <ele>1245.04</ele>
        <time>2012-08-10T06:13:59Z</time>
      </trkpt>
      <trkpt lat="44.65586" lon="3.02013">
        <ele>1244.56</ele>
        <time>2012-08-10T06:14:00Z</time>
      </trkpt>
      <trkpt lat="44.65585" lon="3.02005">
        <ele>1244.56</ele>
        <time>2012-08-10T06:14:01Z</time>
      </trkpt>
      <trkpt lat="44.65583" lon="3.01998">
        <ele>1244.08</ele>
        <time>2012-08-10T06:14:02Z</time>
      </trkpt>
      <trkpt lat="44.6558" lon="3.01991">
        <ele>1243.6</ele>
        <time>2012-08-10T06:14:03Z</time>
      </trkpt>
      <trkpt lat="44.65561" lon="3.01931">
        <ele>1240.24</ele>
        <time>2012-08-10T06:14:11Z</time>
      </trkpt>
      <trkpt lat="44.65557" lon="3.01923">
        <ele>1239.76</ele>
        <time>2012-08-10T06:14:12Z</time>
      </trkpt>
      <trkpt lat="44.65535" lon="3.0181">
        <ele>1232.07</ele>
        <time>2012-08-10T06:14:23Z</time>
      </trkpt>
      <trkpt lat="44.65534" lon="3.01799">
        <ele>1231.59</ele>
        <time>2012-08-10T06:14:24Z</time>
      </trkpt>
      <trkpt lat="44.6553" lon="3.01728">
        <ele>1228.7</ele>
        <time>2012-08-10T06:14:31Z</time>
      </trkpt>
      <trkpt lat="44.65531" lon="3.01719">
        <ele>1228.7</ele>
        <time>2012-08-10T06:14:32Z</time>
      </trkpt>
      <trkpt lat="44.65533" lon="3.01689">
        <ele>1227.74</ele>
        <time>2012-08-10T06:14:36Z</time>
      </trkpt>
      <trkpt lat="44.65533" lon="3.01682">
        <ele>1227.74</ele>
        <time>2012-08-10T06:14:37Z</time>
      </trkpt>
      <trkpt lat="44.65533" lon="3.01676">
        <ele>1227.26</ele>
        <time>2012-08-10T06:14:38Z</time>
      </trkpt>
      <trkpt lat="44.65532" lon="3.01668">
        <ele>1227.26</ele>
        <time>2012-08-10T06:14:39Z</time>
      </trkpt>
      <trkpt lat="44.65531" lon="3.01661">
        <ele>1226.78</ele>
        <time>2012-08-10T06:14:40Z</time>
      </trkpt>
      <trkpt lat="44.65529" lon="3.01654">
        <ele>1226.3</ele>
        <time>2012-08-10T06:14:41Z</time>
      </trkpt>
      <trkpt lat="44.65526" lon="3.01646">
        <ele>1225.82</ele>
        <time>2012-08-10T06:14:42Z</time>
      </trkpt>
      <trkpt lat="44.65523" lon="3.0164">
        <ele>1225.34</ele>
        <time>2012-08-10T06:14:43Z</time>
      </trkpt>
      <trkpt lat="44.65516" lon="3.01627">
        <ele>1224.86</ele>
        <time>2012-08-10T06:14:45Z</time>
      </trkpt>
      <trkpt lat="44.65492" lon="3.01591">
        <ele>1221.97</ele>
        <time>2012-08-10T06:14:51Z</time>
      </trkpt>
      <trkpt lat="44.65486" lon="3.01578">
        <ele>1221.01</ele>
        <time>2012-08-10T06:14:53Z</time>
      </trkpt>
      <trkpt lat="44.65477" lon="3.01558">
        <ele>1220.53</ele>
        <time>2012-08-10T06:14:56Z</time>
      </trkpt>
      <trkpt lat="44.65475" lon="3.0155">
        <ele>1220.53</ele>
        <time>2012-08-10T06:14:57Z</time>
      </trkpt>
      <trkpt lat="44.65461" lon="3.01501">
        <ele>1219.57</ele>
        <time>2012-08-10T06:15:04Z</time>
      </trkpt>
      <trkpt lat="44.65459" lon="3.01494">
        <ele>1220.05</ele>
        <time>2012-08-10T06:15:05Z</time>
      </trkpt>
      <trkpt lat="44.65457" lon="3.01487">
        <ele>1219.57</ele>
        <time>2012-08-10T06:15:06Z</time>
      </trkpt>
      <trkpt lat="44.65456" lon="3.0148">
        <ele>1219.57</ele>
        <time>2012-08-10T06:15:07Z</time>
      </trkpt>
      <trkpt lat="44.65456" lon="3.01472">
        <ele>1219.09</ele>
        <time>2012-08-10T06:15:08Z</time>
      </trkpt>
      <trkpt lat="44.65456" lon="3.01465">
        <ele>1218.61</ele>
        <time>2012-08-10T06:15:09Z</time>
      </trkpt>
      <trkpt lat="44.65458" lon="3.01458">
        <ele>1218.61</ele>
        <time>2012-08-10T06:15:10Z</time>
      </trkpt>
      <trkpt lat="44.65459" lon="3.01451">
        <ele>1218.13</ele>
        <time>2012-08-10T06:15:11Z</time>
      </trkpt>
      <trkpt lat="44.65472" lon="3.01412">
        <ele>1215.72</ele>
        <time>2012-08-10T06:15:17Z</time>
      </trkpt>
      <trkpt lat="44.65476" lon="3.01407">
        <ele>1215.72</ele>
        <time>2012-08-10T06:15:18Z</time>
      </trkpt>
      <trkpt lat="44.65479" lon="3.01402">
        <ele>1215.24</ele>
        <time>2012-08-10T06:15:19Z</time>
      </trkpt>
      <trkpt lat="44.65481" lon="3.01396">
        <ele>1215.24</ele>
        <time>2012-08-10T06:15:20Z</time>
      </trkpt>
      <trkpt lat="44.65483" lon="3.0139">
        <ele>1215.24</ele>
        <time>2012-08-10T06:15:21Z</time>
      </trkpt>
      <trkpt lat="44.65483" lon="3.01385">
        <ele>1214.76</ele>
        <time>2012-08-10T06:15:22Z</time>
      </trkpt>
      <trkpt lat="44.65482" lon="3.0138">
        <ele>1214.76</ele>
        <time>2012-08-10T06:15:23Z</time>
      </trkpt>
      <trkpt lat="44.65481" lon="3.01376">
        <ele>1214.76</ele>
        <time>2012-08-10T06:15:24Z</time>
      </trkpt>
      <trkpt lat="44.65479" lon="3.01372">
        <ele>1214.76</ele>
        <time>2012-08-10T06:15:25Z</time>
      </trkpt>
      <trkpt lat="44.65478" lon="3.01369">
        <ele>1214.76</ele>
        <time>2012-08-10T06:15:26Z</time>
      </trkpt>
      <trkpt lat="44.65475" lon="3.01362">
        <ele>1215.72</ele>
        <time>2012-08-10T06:15:38Z</time>
      </trkpt>
      <trkpt lat="44.65474" lon="3.0136">
        <ele>1216.69</ele>
        <time>2012-08-10T06:16:08Z</time>
      </trkpt>
      <trkpt lat="44.65473" lon="3.01355">
        <ele>1218.13</ele>
        <time>2012-08-10T06:16:33Z</time>
      </trkpt>
      <trkpt lat="44.65466" lon="3.0134">
        <ele>1219.09</ele>
        <time>2012-08-10T06:16:40Z</time>
      </trkpt>
      <trkpt lat="44.65466" lon="3.01338">
        <ele>1219.09</ele>
        <time>2012-08-10T06:16:41Z</time>
      </trkpt>
      <trkpt lat="44.65465" lon="3.01335">
        <ele>1219.57</ele>
        <time>2012-08-10T06:16:42Z</time>
      </trkpt>
      <trkpt lat="44.65455" lon="3.01298">
        <ele>1221.97</ele>
        <time>2012-08-10T06:17:00Z</time>
      </trkpt>
      <trkpt lat="44.65445" lon="3.01266">
        <ele>1225.34</ele>
        <time>2012-08-10T06:17:15Z</time>
      </trkpt>
      <trkpt lat="44.65436" lon="3.01229">
        <ele>1229.66</ele>
        <time>2012-08-10T06:17:32Z</time>
      </trkpt>
      <trkpt lat="44.65426" lon="3.01197">
        <ele>1233.99</ele>
        <time>2012-08-10T06:17:49Z</time>
      </trkpt>
      <trkpt lat="44.65415" lon="3.0117">
        <ele>1235.91</ele>
        <time>2012-08-10T06:18:05Z</time>
      </trkpt>
      <trkpt lat="44.65402" lon="3.01147">
        <ele>1235.43</ele>
        <time>2012-08-10T06:18:19Z</time>
      </trkpt>
      <trkpt lat="44.65386" lon="3.0112">
        <ele>1236.39</ele>
        <time>2012-08-10T06:18:35Z</time>
      </trkpt>
      <trkpt lat="44.65384" lon="3.01116">
        <ele>1236.39</ele>
        <time>2012-08-10T06:18:37Z</time>
      </trkpt>
      <trkpt lat="44.65384" lon="3.01113">
        <ele>1236.39</ele>
        <time>2012-08-10T06:18:38Z</time>
      </trkpt>
      <trkpt lat="44.65383" lon="3.01111">
        <ele>1236.39</ele>
        <time>2012-08-10T06:18:39Z</time>
      </trkpt>
      <trkpt lat="44.65382" lon="3.01108">
        <ele>1236.39</ele>
        <time>2012-08-10T06:18:40Z</time>
      </trkpt>
      <trkpt lat="44.65381" lon="3.01106">
        <ele>1236.39</ele>
        <time>2012-08-10T06:18:41Z</time>
      </trkpt>
      <trkpt lat="44.6538" lon="3.01103">
        <ele>1236.39</ele>
        <time>2012-08-10T06:18:42Z</time>
      </trkpt>
      <trkpt lat="44.65374" lon="3.01066">
        <ele>1234.95</ele>
        <time>2012-08-10T06:18:58Z</time>
      </trkpt>
      <trkpt lat="44.65372" lon="3.01054">
        <ele>1235.91</ele>
        <time>2012-08-10T06:19:11Z</time>
      </trkpt>
      <trkpt lat="44.65372" lon="3.01053">
        <ele>1236.39</ele>
        <time>2012-08-10T06:19:25Z</time>
      </trkpt>
      <trkpt lat="44.65375" lon="3.0105">
        <ele>1235.91</ele>
        <time>2012-08-10T06:19:38Z</time>
      </trkpt>
      <trkpt lat="44.65376" lon="3.01049">
        <ele>1235.91</ele>
        <time>2012-08-10T06:19:47Z</time>
      </trkpt>
      <trkpt lat="44.65377" lon="3.01048">
        <ele>1235.43</ele>
        <time>2012-08-10T06:19:48Z</time>
      </trkpt>
      <trkpt lat="44.65378" lon="3.01046">
        <ele>1235.91</ele>
        <time>2012-08-10T06:19:49Z</time>
      </trkpt>
      <trkpt lat="44.65378" lon="3.01045">
        <ele>1235.91</ele>
        <time>2012-08-10T06:19:50Z</time>
      </trkpt>
      <trkpt lat="44.65379" lon="3.01029">
        <ele>1238.32</ele>
        <time>2012-08-10T06:20:02Z</time>
      </trkpt>
      <trkpt lat="44.6538" lon="3.01004">
        <ele>1240.24</ele>
        <time>2012-08-10T06:20:18Z</time>
      </trkpt>
      <trkpt lat="44.65381" lon="3.00998">
        <ele>1240.72</ele>
        <time>2012-08-10T06:20:22Z</time>
      </trkpt>
      <trkpt lat="44.65384" lon="3.00975">
        <ele>1243.6</ele>
        <time>2012-08-10T06:20:39Z</time>
      </trkpt>
      <trkpt lat="44.65389" lon="3.00951">
        <ele>1246.49</ele>
        <time>2012-08-10T06:20:57Z</time>
      </trkpt>
      <trkpt lat="44.6539" lon="3.00939">
        <ele>1248.41</ele>
        <time>2012-08-10T06:21:07Z</time>
      </trkpt>
      <trkpt lat="44.6539" lon="3.00937">
        <ele>1248.41</ele>
        <time>2012-08-10T06:21:08Z</time>
      </trkpt>
      <trkpt lat="44.65394" lon="3.00913">
        <ele>1248.89</ele>
        <time>2012-08-10T06:21:25Z</time>
      </trkpt>
      <trkpt lat="44.65394" lon="3.00895">
        <ele>1251.29</ele>
        <time>2012-08-10T06:21:40Z</time>
      </trkpt>
      <trkpt lat="44.65394" lon="3.00891">
        <ele>1251.29</ele>
        <time>2012-08-10T06:21:43Z</time>
      </trkpt>
      <trkpt lat="44.65398" lon="3.00877">
        <ele>1252.74</ele>
        <time>2012-08-10T06:21:56Z</time>
      </trkpt>
      <trkpt lat="44.65403" lon="3.00862">
        <ele>1256.1</ele>
        <time>2012-08-10T06:22:11Z</time>
      </trkpt>
      <trkpt lat="44.65402" lon="3.00848">
        <ele>1258.02</ele>
        <time>2012-08-10T06:22:24Z</time>
      </trkpt>
      <trkpt lat="44.65401" lon="3.00833">
        <ele>1259.94</ele>
        <time>2012-08-10T06:22:39Z</time>
      </trkpt>
      <trkpt lat="44.65401" lon="3.00826">
        <ele>1260.91</ele>
        <time>2012-08-10T06:22:46Z</time>
      </trkpt>
      <trkpt lat="44.654" lon="3.00816">
        <ele>1262.35</ele>
        <time>2012-08-10T06:22:58Z</time>
      </trkpt>
      <trkpt lat="44.65398" lon="3.00804">
        <ele>1264.27</ele>
        <time>2012-08-10T06:23:14Z</time>
      </trkpt>
      <trkpt lat="44.65396" lon="3.00791">
        <ele>1265.71</ele>
        <time>2012-08-10T06:23:26Z</time>
      </trkpt>
      <trkpt lat="44.65394" lon="3.00773">
        <ele>1266.19</ele>
        <time>2012-08-10T06:23:41Z</time>
      </trkpt>
      <trkpt lat="44.65395" lon="3.00759">
        <ele>1268.6</ele>
        <time>2012-08-10T06:23:56Z</time>
      </trkpt>
      <trkpt lat="44.65398" lon="3.00749">
        <ele>1268.6</ele>
        <time>2012-08-10T06:24:06Z</time>
      </trkpt>
      <trkpt lat="44.65397" lon="3.00738">
        <ele>1270.04</ele>
        <time>2012-08-10T06:24:20Z</time>
      </trkpt>
      <trkpt lat="44.65395" lon="3.00739">
        <ele>1269.08</ele>
        <time>2012-08-10T06:25:10Z</time>
      </trkpt>
      <trkpt lat="44.65394" lon="3.00739">
        <ele>1269.56</ele>
        <time>2012-08-10T06:25:59Z</time>
      </trkpt>
      <trkpt lat="44.65396" lon="3.0074">
        <ele>1269.08</ele>
        <time>2012-08-10T06:26:45Z</time>
      </trkpt>
      <trkpt lat="44.65396" lon="3.00739">
        <ele>1269.08</ele>
        <time>2012-08-10T06:27:36Z</time>
      </trkpt>
      <trkpt lat="44.65396" lon="3.00738">
        <ele>1267.64</ele>
        <time>2012-08-10T06:28:22Z</time>
      </trkpt>
      <trkpt lat="44.65395" lon="3.00735">
        <ele>1269.08</ele>
        <time>2012-08-10T06:28:37Z</time>
      </trkpt>
      <trkpt lat="44.65395" lon="3.00731">
        <ele>1270.04</ele>
        <time>2012-08-10T06:28:50Z</time>
      </trkpt>
      <trkpt lat="44.65395" lon="3.00731">
        <ele>1270.04</ele>
        <time>2012-08-10T06:28:53Z</time>
      </trkpt>
      <trkpt lat="44.65394" lon="3.00729">
        <ele>1270.04</ele>
        <time>2012-08-10T06:28:54Z</time>
      </trkpt>
      <trkpt lat="44.65377" lon="3.00701">
        <ele>1272.92</ele>
        <time>2012-08-10T06:29:09Z</time>
      </trkpt>
      <trkpt lat="44.6536" lon="3.00664">
        <ele>1273.4</ele>
        <time>2012-08-10T06:29:22Z</time>
      </trkpt>
      <trkpt lat="44.6533" lon="3.00617">
        <ele>1272.92</ele>
        <time>2012-08-10T06:29:37Z</time>
      </trkpt>
      <trkpt lat="44.65308" lon="3.006">
        <ele>1273.88</ele>
        <time>2012-08-10T06:29:47Z</time>
      </trkpt>
      <trkpt lat="44.65284" lon="3.00586">
        <ele>1272.44</ele>
        <time>2012-08-10T06:29:58Z</time>
      </trkpt>
      <trkpt lat="44.65251" lon="3.0058">
        <ele>1272.92</ele>
        <time>2012-08-10T06:30:12Z</time>
      </trkpt>
      <trkpt lat="44.65246" lon="3.0058">
        <ele>1273.88</ele>
        <time>2012-08-10T06:30:15Z</time>
      </trkpt>
      <trkpt lat="44.65244" lon="3.00581">
        <ele>1273.88</ele>
        <time>2012-08-10T06:30:16Z</time>
      </trkpt>
      <trkpt lat="44.6523" lon="3.00582">
        <ele>1274.36</ele>
        <time>2012-08-10T06:30:25Z</time>
      </trkpt>
      <trkpt lat="44.65227" lon="3.00584">
        <ele>1274.36</ele>
        <time>2012-08-10T06:30:26Z</time>
      </trkpt>
      <trkpt lat="44.6521" lon="3.00594">
        <ele>1273.88</ele>
        <time>2012-08-10T06:30:38Z</time>
      </trkpt>
      <trkpt lat="44.6521" lon="3.00596">
        <ele>1274.36</ele>
        <time>2012-08-10T06:30:55Z</time>
      </trkpt>
      <trkpt lat="44.65208" lon="3.00597">
        <ele>1274.36</ele>
        <time>2012-08-10T06:30:56Z</time>
      </trkpt>
      <trkpt lat="44.65209" lon="3.00596">
        <ele>1273.88</ele>
        <time>2012-08-10T06:31:06Z</time>
      </trkpt>
      <trkpt lat="44.65202" lon="3.00594">
        <ele>1275.33</ele>
        <time>2012-08-10T06:31:25Z</time>
      </trkpt>
      <trkpt lat="44.65188" lon="3.00587">
        <ele>1276.29</ele>
        <time>2012-08-10T06:31:37Z</time>
      </trkpt>
      <trkpt lat="44.65175" lon="3.00579">
        <ele>1276.77</ele>
        <time>2012-08-10T06:31:50Z</time>
      </trkpt>
      <trkpt lat="44.65159" lon="3.00575">
        <ele>1278.21</ele>
        <time>2012-08-10T06:32:05Z</time>
      </trkpt>
      <trkpt lat="44.65145" lon="3.0057">
        <ele>1280.61</ele>
        <time>2012-08-10T06:32:20Z</time>
      </trkpt>
      <trkpt lat="44.6513" lon="3.00569">
        <ele>1283.02</ele>
        <time>2012-08-10T06:32:35Z</time>
      </trkpt>
      <trkpt lat="44.65129" lon="3.00569">
        <ele>1283.02</ele>
        <time>2012-08-10T06:32:36Z</time>
      </trkpt>
      <trkpt lat="44.65125" lon="3.00568">
        <ele>1283.02</ele>
        <time>2012-08-10T06:32:43Z</time>
      </trkpt>
      <trkpt lat="44.65095" lon="3.00573">
        <ele>1283.98</ele>
        <time>2012-08-10T06:32:58Z</time>
      </trkpt>
      <trkpt lat="44.65063" lon="3.00575">
        <ele>1285.42</ele>
        <time>2012-08-10T06:33:12Z</time>
      </trkpt>
      <trkpt lat="44.65039" lon="3.00576">
        <ele>1288.3</ele>
        <time>2012-08-10T06:33:26Z</time>
      </trkpt>
      <trkpt lat="44.65009" lon="3.00573">
        <ele>1290.71</ele>
        <time>2012-08-10T06:33:41Z</time>
      </trkpt>
      <trkpt lat="44.64987" lon="3.00559">
        <ele>1292.15</ele>
        <time>2012-08-10T06:33:54Z</time>
      </trkpt>
      <trkpt lat="44.64969" lon="3.00535">
        <ele>1294.55</ele>
        <time>2012-08-10T06:34:06Z</time>
      </trkpt>
      <trkpt lat="44.64953" lon="3.00511">
        <ele>1294.55</ele>
        <time>2012-08-10T06:34:17Z</time>
      </trkpt>
      <trkpt lat="44.64939" lon="3.00477">
        <ele>1295.03</ele>
        <time>2012-08-10T06:34:30Z</time>
      </trkpt>
      <trkpt lat="44.64928" lon="3.00442">
        <ele>1295.51</ele>
        <time>2012-08-10T06:34:42Z</time>
      </trkpt>
      <trkpt lat="44.64918" lon="3.00397">
        <ele>1295.99</ele>
        <time>2012-08-10T06:34:58Z</time>
      </trkpt>
      <trkpt lat="44.64905" lon="3.00357">
        <ele>1297.44</ele>
        <time>2012-08-10T06:35:12Z</time>
      </trkpt>
      <trkpt lat="44.64894" lon="3.00301">
        <ele>1295.99</ele>
        <time>2012-08-10T06:35:26Z</time>
      </trkpt>
      <trkpt lat="44.64882" lon="3.00264">
        <ele>1296.96</ele>
        <time>2012-08-10T06:35:39Z</time>
      </trkpt>
      <trkpt lat="44.64881" lon="3.0026">
        <ele>1296.96</ele>
        <time>2012-08-10T06:35:50Z</time>
      </trkpt>
      <trkpt lat="44.64881" lon="3.00259">
        <ele>1295.51</ele>
        <time>2012-08-10T06:36:03Z</time>
      </trkpt>
      <trkpt lat="44.64881" lon="3.00259">
        <ele>1295.51</ele>
        <time>2012-08-10T06:36:05Z</time>
      </trkpt>
      <trkpt lat="44.64877" lon="3.00236">
        <ele>1297.44</ele>
        <time>2012-08-10T06:36:15Z</time>
      </trkpt>
      <trkpt lat="44.64877" lon="3.00234">
        <ele>1297.44</ele>
        <time>2012-08-10T06:36:16Z</time>
      </trkpt>
      <trkpt lat="44.64878" lon="3.00231">
        <ele>1296.96</ele>
        <time>2012-08-10T06:36:17Z</time>
      </trkpt>
      <trkpt lat="44.64878" lon="3.00229">
        <ele>1296.96</ele>
        <time>2012-08-10T06:36:18Z</time>
      </trkpt>
      <trkpt lat="44.64878" lon="3.00226">
        <ele>1296.96</ele>
        <time>2012-08-10T06:36:19Z</time>
      </trkpt>
      <trkpt lat="44.64877" lon="3.00223">
        <ele>1296.96</ele>
        <time>2012-08-10T06:36:20Z</time>
      </trkpt>
      <trkpt lat="44.64876" lon="3.00221">
        <ele>1296.48</ele>
        <time>2012-08-10T06:36:21Z</time>
      </trkpt>
      <trkpt lat="44.64875" lon="3.00218">
        <ele>1296.48</ele>
        <time>2012-08-10T06:36:22Z</time>
      </trkpt>
      <trkpt lat="44.64867" lon="3.0016">
        <ele>1295.99</ele>
        <time>2012-08-10T06:36:38Z</time>
      </trkpt>
      <trkpt lat="44.64857" lon="3.00117">
        <ele>1296.96</ele>
        <time>2012-08-10T06:36:51Z</time>
      </trkpt>
      <trkpt lat="44.64851" lon="3.00079">
        <ele>1294.55</ele>
        <time>2012-08-10T06:37:02Z</time>
      </trkpt>
      <trkpt lat="44.64848" lon="3.00069">
        <ele>1293.11</ele>
        <time>2012-08-10T06:37:06Z</time>
      </trkpt>
      <trkpt lat="44.64847" lon="3.00066">
        <ele>1292.63</ele>
        <time>2012-08-10T06:37:07Z</time>
      </trkpt>
      <trkpt lat="44.64842" lon="3.00023">
        <ele>1292.15</ele>
        <time>2012-08-10T06:37:17Z</time>
      </trkpt>
      <trkpt lat="44.64837" lon="2.99975">
        <ele>1292.63</ele>
        <time>2012-08-10T06:37:29Z</time>
      </trkpt>
      <trkpt lat="44.64842" lon="2.99916">
        <ele>1291.67</ele>
        <time>2012-08-10T06:37:42Z</time>
      </trkpt>
      <trkpt lat="44.64846" lon="2.9989">
        <ele>1292.63</ele>
        <time>2012-08-10T06:37:50Z</time>
      </trkpt>
      <trkpt lat="44.64838" lon="2.99859">
        <ele>1294.55</ele>
        <time>2012-08-10T06:38:01Z</time>
      </trkpt>
      <trkpt lat="44.64832" lon="2.99844">
        <ele>1294.55</ele>
        <time>2012-08-10T06:38:06Z</time>
      </trkpt>
      <trkpt lat="44.64822" lon="2.99795">
        <ele>1295.03</ele>
        <time>2012-08-10T06:38:21Z</time>
      </trkpt>
      <trkpt lat="44.64828" lon="2.99767">
        <ele>1295.99</ele>
        <time>2012-08-10T06:38:32Z</time>
      </trkpt>
      <trkpt lat="44.64828" lon="2.99767">
        <ele>1295.99</ele>
        <time>2012-08-10T06:38:49Z</time>
      </trkpt>
      <trkpt lat="44.64828" lon="2.99766">
        <ele>1296.48</ele>
        <time>2012-08-10T06:39:04Z</time>
      </trkpt>
      <trkpt lat="44.64825" lon="2.99762">
        <ele>1295.99</ele>
        <time>2012-08-10T06:39:21Z</time>
      </trkpt>
      <trkpt lat="44.64824" lon="2.9976">
        <ele>1295.51</ele>
        <time>2012-08-10T06:39:38Z</time>
      </trkpt>
      <trkpt lat="44.64824" lon="2.9976">
        <ele>1295.03</ele>
        <time>2012-08-10T06:40:23Z</time>
      </trkpt>
      <trkpt lat="44.64825" lon="2.9976">
        <ele>1294.55</ele>
        <time>2012-08-10T06:41:00Z</time>
      </trkpt>
      <trkpt lat="44.64825" lon="2.9976">
        <ele>1294.55</ele>
        <time>2012-08-10T06:41:03Z</time>
      </trkpt>
      <trkpt lat="44.64827" lon="2.99758">
        <ele>1295.03</ele>
        <time>2012-08-10T06:41:08Z</time>
      </trkpt>
      <trkpt lat="44.6483" lon="2.99719">
        <ele>1295.51</ele>
        <time>2012-08-10T06:41:22Z</time>
      </trkpt>
      <trkpt lat="44.64831" lon="2.9969">
        <ele>1296.96</ele>
        <time>2012-08-10T06:41:32Z</time>
      </trkpt>
      <trkpt lat="44.64834" lon="2.99679">
        <ele>1299.36</ele>
        <time>2012-08-10T06:41:38Z</time>
      </trkpt>
      <trkpt lat="44.64835" lon="2.9967">
        <ele>1299.36</ele>
        <time>2012-08-10T06:41:42Z</time>
      </trkpt>
      <trkpt lat="44.64836" lon="2.99653">
        <ele>1298.88</ele>
        <time>2012-08-10T06:41:49Z</time>
      </trkpt>
      <trkpt lat="44.64837" lon="2.99644">
        <ele>1298.88</ele>
        <time>2012-08-10T06:41:52Z</time>
      </trkpt>
      <trkpt lat="44.64842" lon="2.996">
        <ele>1299.36</ele>
        <time>2012-08-10T06:42:04Z</time>
      </trkpt>
      <trkpt lat="44.64843" lon="2.99587">
        <ele>1300.8</ele>
        <time>2012-08-10T06:42:08Z</time>
      </trkpt>
      <trkpt lat="44.64842" lon="2.99543">
        <ele>1299.84</ele>
        <time>2012-08-10T06:42:21Z</time>
      </trkpt>
      <trkpt lat="44.64842" lon="2.99522">
        <ele>1299.36</ele>
        <time>2012-08-10T06:42:27Z</time>
      </trkpt>
      <trkpt lat="44.6484" lon="2.99466">
        <ele>1302.24</ele>
        <time>2012-08-10T06:42:42Z</time>
      </trkpt>
      <trkpt lat="44.64839" lon="2.99451">
        <ele>1302.24</ele>
        <time>2012-08-10T06:42:47Z</time>
      </trkpt>
      <trkpt lat="44.64839" lon="2.99441">
        <ele>1302.24</ele>
        <time>2012-08-10T06:42:51Z</time>
      </trkpt>
      <trkpt lat="44.64835" lon="2.99405">
        <ele>1303.69</ele>
        <time>2012-08-10T06:43:06Z</time>
      </trkpt>
      <trkpt lat="44.64833" lon="2.99359">
        <ele>1306.09</ele>
        <time>2012-08-10T06:43:21Z</time>
      </trkpt>
      <trkpt lat="44.64832" lon="2.99333">
        <ele>1306.09</ele>
        <time>2012-08-10T06:43:32Z</time>
      </trkpt>
      <trkpt lat="44.64828" lon="2.99296">
        <ele>1307.53</ele>
        <time>2012-08-10T06:43:43Z</time>
      </trkpt>
      <trkpt lat="44.64828" lon="2.99293">
        <ele>1307.53</ele>
        <time>2012-08-10T06:43:44Z</time>
      </trkpt>
      <trkpt lat="44.64819" lon="2.99263">
        <ele>1306.09</ele>
        <time>2012-08-10T06:43:56Z</time>
      </trkpt>
      <trkpt lat="44.64815" lon="2.9925">
        <ele>1305.61</ele>
        <time>2012-08-10T06:44:00Z</time>
      </trkpt>
      <trkpt lat="44.64818" lon="2.9924">
        <ele>1306.57</ele>
        <time>2012-08-10T06:44:10Z</time>
      </trkpt>
      <trkpt lat="44.64818" lon="2.99223">
        <ele>1308.97</ele>
        <time>2012-08-10T06:44:23Z</time>
      </trkpt>
      <trkpt lat="44.64815" lon="2.99206">
        <ele>1308.49</ele>
        <time>2012-08-10T06:44:36Z</time>
      </trkpt>
      <trkpt lat="44.64817" lon="2.99201">
        <ele>1308.01</ele>
        <time>2012-08-10T06:44:39Z</time>
      </trkpt>
      <trkpt lat="44.64817" lon="2.99198">
        <ele>1308.01</ele>
        <time>2012-08-10T06:44:41Z</time>
      </trkpt>
      <trkpt lat="44.64816" lon="2.99193">
        <ele>1308.49</ele>
        <time>2012-08-10T06:44:44Z</time>
      </trkpt>
      <trkpt lat="44.64811" lon="2.99187">
        <ele>1309.45</ele>
        <time>2012-08-10T06:44:59Z</time>
      </trkpt>
      <trkpt lat="44.64807" lon="2.99177">
        <ele>1309.45</ele>
        <time>2012-08-10T06:45:03Z</time>
      </trkpt>
      <trkpt lat="44.64803" lon="2.99164">
        <ele>1308.01</ele>
        <time>2012-08-10T06:45:10Z</time>
      </trkpt>
      <trkpt lat="44.64802" lon="2.9916">
        <ele>1308.01</ele>
        <time>2012-08-10T06:45:25Z</time>
      </trkpt>
      <trkpt lat="44.64798" lon="2.99147">
        <ele>1308.97</ele>
        <time>2012-08-10T06:45:35Z</time>
      </trkpt>
      <trkpt lat="44.64786" lon="2.99117">
        <ele>1309.45</ele>
        <time>2012-08-10T06:45:47Z</time>
      </trkpt>
      <trkpt lat="44.64769" lon="2.99079">
        <ele>1311.38</ele>
        <time>2012-08-10T06:46:00Z</time>
      </trkpt>
      <trkpt lat="44.64759" lon="2.9905">
        <ele>1314.26</ele>
        <time>2012-08-10T06:46:14Z</time>
      </trkpt>
      <trkpt lat="44.64755" lon="2.99043">
        <ele>1314.74</ele>
        <time>2012-08-10T06:46:18Z</time>
      </trkpt>
      <trkpt lat="44.64732" lon="2.9902">
        <ele>1312.82</ele>
        <time>2012-08-10T06:46:30Z</time>
      </trkpt>
      <trkpt lat="44.64728" lon="2.99016">
        <ele>1312.34</ele>
        <time>2012-08-10T06:46:32Z</time>
      </trkpt>
      <trkpt lat="44.64719" lon="2.9901">
        <ele>1310.41</ele>
        <time>2012-08-10T06:46:44Z</time>
      </trkpt>
      <trkpt lat="44.64717" lon="2.99009">
        <ele>1310.41</ele>
        <time>2012-08-10T06:47:05Z</time>
      </trkpt>
      <trkpt lat="44.64717" lon="2.99009">
        <ele>1309.93</ele>
        <time>2012-08-10T06:47:25Z</time>
      </trkpt>
      <trkpt lat="44.64716" lon="2.99009">
        <ele>1310.9</ele>
        <time>2012-08-10T06:47:47Z</time>
      </trkpt>
      <trkpt lat="44.64715" lon="2.99008">
        <ele>1310.9</ele>
        <time>2012-08-10T06:48:10Z</time>
      </trkpt>
      <trkpt lat="44.64711" lon="2.99005">
        <ele>1310.9</ele>
        <time>2012-08-10T06:48:14Z</time>
      </trkpt>
      <trkpt lat="44.64689" lon="2.98999">
        <ele>1309.93</ele>
        <time>2012-08-10T06:48:24Z</time>
      </trkpt>
      <trkpt lat="44.64676" lon="2.98997">
        <ele>1308.97</ele>
        <time>2012-08-10T06:48:30Z</time>
      </trkpt>
      <trkpt lat="44.64663" lon="2.98987">
        <ele>1310.9</ele>
        <time>2012-08-10T06:48:38Z</time>
      </trkpt>
      <trkpt lat="44.64657" lon="2.98983">
        <ele>1311.86</ele>
        <time>2012-08-10T06:48:42Z</time>
      </trkpt>
      <trkpt lat="44.6465" lon="2.98974">
        <ele>1313.78</ele>
        <time>2012-08-10T06:48:53Z</time>
      </trkpt>
      <trkpt lat="44.6464" lon="2.98962">
        <ele>1316.18</ele>
        <time>2012-08-10T06:49:06Z</time>
      </trkpt>
      <trkpt lat="44.64634" lon="2.98953">
        <ele>1316.18</ele>
        <time>2012-08-10T06:49:20Z</time>
      </trkpt>
      <trkpt lat="44.64615" lon="2.98944">
        <ele>1315.22</ele>
        <time>2012-08-10T06:49:29Z</time>
      </trkpt>
      <trkpt lat="44.64606" lon="2.98935">
        <ele>1314.74</ele>
        <time>2012-08-10T06:49:34Z</time>
      </trkpt>
      <trkpt lat="44.64604" lon="2.98932">
        <ele>1314.26</ele>
        <time>2012-08-10T06:49:36Z</time>
      </trkpt>
      <trkpt lat="44.64591" lon="2.98928">
        <ele>1313.78</ele>
        <time>2012-08-10T06:49:44Z</time>
      </trkpt>
      <trkpt lat="44.64571" lon="2.98911">
        <ele>1311.38</ele>
        <time>2012-08-10T06:49:53Z</time>
      </trkpt>
      <trkpt lat="44.64554" lon="2.98905">
        <ele>1308.97</ele>
        <time>2012-08-10T06:50:04Z</time>
      </trkpt>
      <trkpt lat="44.64549" lon="2.98898">
        <ele>1309.45</ele>
        <time>2012-08-10T06:50:17Z</time>
      </trkpt>
      <trkpt lat="44.64548" lon="2.98897">
        <ele>1309.45</ele>
        <time>2012-08-10T06:50:23Z</time>
      </trkpt>
      <trkpt lat="44.64544" lon="2.98892">
        <ele>1309.45</ele>
        <time>2012-08-10T06:50:27Z</time>
      </trkpt>
      <trkpt lat="44.64538" lon="2.9888">
        <ele>1309.45</ele>
        <time>2012-08-10T06:50:35Z</time>
      </trkpt>
      <trkpt lat="44.64537" lon="2.98872">
        <ele>1309.93</ele>
        <time>2012-08-10T06:50:44Z</time>
      </trkpt>
      <trkpt lat="44.64523" lon="2.9887">
        <ele>1307.53</ele>
        <time>2012-08-10T06:50:56Z</time>
      </trkpt>
      <trkpt lat="44.64513" lon="2.98867">
        <ele>1307.53</ele>
        <time>2012-08-10T06:51:06Z</time>
      </trkpt>
      <trkpt lat="44.6451" lon="2.98867">
        <ele>1307.05</ele>
        <time>2012-08-10T06:51:11Z</time>
      </trkpt>
      <trkpt lat="44.64501" lon="2.9887">
        <ele>1307.05</ele>
        <time>2012-08-10T06:51:23Z</time>
      </trkpt>
      <trkpt lat="44.64491" lon="2.98872">
        <ele>1305.61</ele>
        <time>2012-08-10T06:51:35Z</time>
      </trkpt>
      <trkpt lat="44.6448" lon="2.98873">
        <ele>1307.05</ele>
        <time>2012-08-10T06:51:47Z</time>
      </trkpt>
      <trkpt lat="44.64467" lon="2.98873">
        <ele>1306.57</ele>
        <time>2012-08-10T06:52:02Z</time>
      </trkpt>
      <trkpt lat="44.64464" lon="2.98873">
        <ele>1306.57</ele>
        <time>2012-08-10T06:52:05Z</time>
      </trkpt>
      <trkpt lat="44.64455" lon="2.98874">
        <ele>1306.09</ele>
        <time>2012-08-10T06:52:18Z</time>
      </trkpt>
      <trkpt lat="44.64441" lon="2.98864">
        <ele>1306.09</ele>
        <time>2012-08-10T06:52:31Z</time>
      </trkpt>
      <trkpt lat="44.64427" lon="2.98855">
        <ele>1307.53</ele>
        <time>2012-08-10T06:52:44Z</time>
      </trkpt>
      <trkpt lat="44.64421" lon="2.98841">
        <ele>1309.45</ele>
        <time>2012-08-10T06:52:55Z</time>
      </trkpt>
      <trkpt lat="44.64417" lon="2.98827">
        <ele>1310.41</ele>
        <time>2012-08-10T06:53:08Z</time>
      </trkpt>
      <trkpt lat="44.64417" lon="2.9882">
        <ele>1310.41</ele>
        <time>2012-08-10T06:53:13Z</time>
      </trkpt>
      <trkpt lat="44.6442" lon="2.98812">
        <ele>1310.9</ele>
        <time>2012-08-10T06:53:19Z</time>
      </trkpt>
      <trkpt lat="44.6442" lon="2.98806">
        <ele>1311.86</ele>
        <time>2012-08-10T06:53:24Z</time>
      </trkpt>
      <trkpt lat="44.64418" lon="2.98796">
        <ele>1312.34</ele>
        <time>2012-08-10T06:53:31Z</time>
      </trkpt>
      <trkpt lat="44.64419" lon="2.98791">
        <ele>1313.3</ele>
        <time>2012-08-10T06:53:34Z</time>
      </trkpt>
      <trkpt lat="44.64428" lon="2.98775">
        <ele>1317.14</ele>
        <time>2012-08-10T06:53:50Z</time>
      </trkpt>
      <trkpt lat="44.64434" lon="2.98755">
        <ele>1320.03</ele>
        <time>2012-08-10T06:54:06Z</time>
      </trkpt>
      <trkpt lat="44.64437" lon="2.98729">
        <ele>1320.99</ele>
        <time>2012-08-10T06:54:23Z</time>
      </trkpt>
      <trkpt lat="44.64435" lon="2.98707">
        <ele>1322.43</ele>
        <time>2012-08-10T06:54:37Z</time>
      </trkpt>
      <trkpt lat="44.64433" lon="2.98693">
        <ele>1320.99</ele>
        <time>2012-08-10T06:54:48Z</time>
      </trkpt>
      <trkpt lat="44.64422" lon="2.98664">
        <ele>1319.07</ele>
        <time>2012-08-10T06:54:56Z</time>
      </trkpt>
      <trkpt lat="44.64421" lon="2.98658">
        <ele>1319.07</ele>
        <time>2012-08-10T06:54:57Z</time>
      </trkpt>
      <trkpt lat="44.64416" lon="2.98639">
        <ele>1317.62</ele>
        <time>2012-08-10T06:55:01Z</time>
      </trkpt>
      <trkpt lat="44.64414" lon="2.98637">
        <ele>1317.14</ele>
        <time>2012-08-10T06:55:02Z</time>
      </trkpt>
      <trkpt lat="44.64412" lon="2.98637">
        <ele>1316.66</ele>
        <time>2012-08-10T06:55:03Z</time>
      </trkpt>
      <trkpt lat="44.6441" lon="2.98637">
        <ele>1316.18</ele>
        <time>2012-08-10T06:55:04Z</time>
      </trkpt>
      <trkpt lat="44.64408" lon="2.98638">
        <ele>1316.18</ele>
        <time>2012-08-10T06:55:05Z</time>
      </trkpt>
      <trkpt lat="44.64407" lon="2.98638">
        <ele>1316.18</ele>
        <time>2012-08-10T06:55:06Z</time>
      </trkpt>
      <trkpt lat="44.64405" lon="2.98637">
        <ele>1316.18</ele>
        <time>2012-08-10T06:55:07Z</time>
      </trkpt>
      <trkpt lat="44.64403" lon="2.98637">
        <ele>1315.7</ele>
        <time>2012-08-10T06:55:08Z</time>
      </trkpt>
      <trkpt lat="44.64401" lon="2.98638">
        <ele>1316.18</ele>
        <time>2012-08-10T06:55:09Z</time>
      </trkpt>
      <trkpt lat="44.64399" lon="2.98639">
        <ele>1316.18</ele>
        <time>2012-08-10T06:55:10Z</time>
      </trkpt>
      <trkpt lat="44.64396" lon="2.9864">
        <ele>1315.7</ele>
        <time>2012-08-10T06:55:11Z</time>
      </trkpt>
      <trkpt lat="44.64394" lon="2.9864">
        <ele>1315.7</ele>
        <time>2012-08-10T06:55:12Z</time>
      </trkpt>
      <trkpt lat="44.64392" lon="2.98641">
        <ele>1315.22</ele>
        <time>2012-08-10T06:55:13Z</time>
      </trkpt>
      <trkpt lat="44.64389" lon="2.98642">
        <ele>1315.22</ele>
        <time>2012-08-10T06:55:14Z</time>
      </trkpt>
      <trkpt lat="44.64387" lon="2.98642">
        <ele>1315.22</ele>
        <time>2012-08-10T06:55:15Z</time>
      </trkpt>
      <trkpt lat="44.64384" lon="2.98643">
        <ele>1314.74</ele>
        <time>2012-08-10T06:55:16Z</time>
      </trkpt>
      <trkpt lat="44.64365" lon="2.98651">
        <ele>1315.22</ele>
        <time>2012-08-10T06:55:27Z</time>
      </trkpt>
      <trkpt lat="44.64332" lon="2.98666">
        <ele>1314.26</ele>
        <time>2012-08-10T06:55:41Z</time>
      </trkpt>
      <trkpt lat="44.64318" lon="2.98674">
        <ele>1312.82</ele>
        <time>2012-08-10T06:55:53Z</time>
      </trkpt>
      <trkpt lat="44.64318" lon="2.98674">
        <ele>1313.78</ele>
        <time>2012-08-10T06:56:09Z</time>
      </trkpt>
      <trkpt lat="44.64319" lon="2.98673">
        <ele>1313.78</ele>
        <time>2012-08-10T06:56:28Z</time>
      </trkpt>
      <trkpt lat="44.64317" lon="2.98674">
        <ele>1314.26</ele>
        <time>2012-08-10T06:56:42Z</time>
      </trkpt>
      <trkpt lat="44.64316" lon="2.98674">
        <ele>1314.26</ele>
        <time>2012-08-10T06:57:05Z</time>
      </trkpt>
      <trkpt lat="44.64295" lon="2.98682">
        <ele>1313.78</ele>
        <time>2012-08-10T06:57:17Z</time>
      </trkpt>
      <trkpt lat="44.64259" lon="2.987">
        <ele>1311.38</ele>
        <time>2012-08-10T06:57:32Z</time>
      </trkpt>
      <trkpt lat="44.64222" lon="2.98719">
        <ele>1309.45</ele>
        <time>2012-08-10T06:57:43Z</time>
      </trkpt>
      <trkpt lat="44.64175" lon="2.98739">
        <ele>1305.61</ele>
        <time>2012-08-10T06:57:56Z</time>
      </trkpt>
      <trkpt lat="44.64159" lon="2.98747">
        <ele>1306.57</ele>
        <time>2012-08-10T06:58:03Z</time>
      </trkpt>
      <trkpt lat="44.64156" lon="2.98749">
        <ele>1306.57</ele>
        <time>2012-08-10T06:58:04Z</time>
      </trkpt>
      <trkpt lat="44.64154" lon="2.98751">
        <ele>1306.57</ele>
        <time>2012-08-10T06:58:05Z</time>
      </trkpt>
      <trkpt lat="44.64151" lon="2.98753">
        <ele>1306.57</ele>
        <time>2012-08-10T06:58:06Z</time>
      </trkpt>
      <trkpt lat="44.64148" lon="2.98753">
        <ele>1306.57</ele>
        <time>2012-08-10T06:58:07Z</time>
      </trkpt>
      <trkpt lat="44.64144" lon="2.98753">
        <ele>1306.09</ele>
        <time>2012-08-10T06:58:08Z</time>
      </trkpt>
      <trkpt lat="44.64141" lon="2.98753">
        <ele>1306.09</ele>
        <time>2012-08-10T06:58:09Z</time>
      </trkpt>
      <trkpt lat="44.64139" lon="2.98752">
        <ele>1306.57</ele>
        <time>2012-08-10T06:58:10Z</time>
      </trkpt>
      <trkpt lat="44.64137" lon="2.98753">
        <ele>1306.57</ele>
        <time>2012-08-10T06:58:11Z</time>
      </trkpt>
      <trkpt lat="44.64135" lon="2.98753">
        <ele>1306.57</ele>
        <time>2012-08-10T06:58:12Z</time>
      </trkpt>
      <trkpt lat="44.64133" lon="2.98754">
        <ele>1306.09</ele>
        <time>2012-08-10T06:58:13Z</time>
      </trkpt>
      <trkpt lat="44.64132" lon="2.98755">
        <ele>1306.09</ele>
        <time>2012-08-10T06:58:14Z</time>
      </trkpt>
      <trkpt lat="44.6413" lon="2.98754">
        <ele>1305.13</ele>
        <time>2012-08-10T06:58:25Z</time>
      </trkpt>
      <trkpt lat="44.64129" lon="2.98756">
        <ele>1304.65</ele>
        <time>2012-08-10T06:58:34Z</time>
      </trkpt>
      <trkpt lat="44.64121" lon="2.98768">
        <ele>1306.09</ele>
        <time>2012-08-10T06:58:43Z</time>
      </trkpt>
      <trkpt lat="44.6412" lon="2.9877">
        <ele>1306.09</ele>
        <time>2012-08-10T06:58:45Z</time>
      </trkpt>
      <trkpt lat="44.64119" lon="2.98771">
        <ele>1306.09</ele>
        <time>2012-08-10T06:58:46Z</time>
      </trkpt>
      <trkpt lat="44.64118" lon="2.98772">
        <ele>1306.09</ele>
        <time>2012-08-10T06:58:47Z</time>
      </trkpt>
      <trkpt lat="44.64103" lon="2.98788">
        <ele>1307.05</ele>
        <time>2012-08-10T06:59:05Z</time>
      </trkpt>
      <trkpt lat="44.6409" lon="2.98803">
        <ele>1309.93</ele>
        <time>2012-08-10T06:59:20Z</time>
      </trkpt>
      <trkpt lat="44.64086" lon="2.98807">
        <ele>1310.9</ele>
        <time>2012-08-10T06:59:24Z</time>
      </trkpt>
      <trkpt lat="44.64079" lon="2.98817">
        <ele>1312.34</ele>
        <time>2012-08-10T06:59:39Z</time>
      </trkpt>
      <trkpt lat="44.64063" lon="2.98832">
        <ele>1312.82</ele>
        <time>2012-08-10T06:59:51Z</time>
      </trkpt>
      <trkpt lat="44.64035" lon="2.98855">
        <ele>1314.74</ele>
        <time>2012-08-10T07:00:07Z</time>
      </trkpt>
      <trkpt lat="44.64007" lon="2.98878">
        <ele>1317.62</ele>
        <time>2012-08-10T07:00:24Z</time>
      </trkpt>
      <trkpt lat="44.63986" lon="2.98894">
        <ele>1318.59</ele>
        <time>2012-08-10T07:00:39Z</time>
      </trkpt>
      <trkpt lat="44.63962" lon="2.9891">
        <ele>1320.51</ele>
        <time>2012-08-10T07:00:56Z</time>
      </trkpt>
      <trkpt lat="44.63936" lon="2.98928">
        <ele>1322.91</ele>
        <time>2012-08-10T07:01:14Z</time>
      </trkpt>
      <trkpt lat="44.63916" lon="2.98946">
        <ele>1323.39</ele>
        <time>2012-08-10T07:01:30Z</time>
      </trkpt>
      <trkpt lat="44.63897" lon="2.98965">
        <ele>1325.31</ele>
        <time>2012-08-10T07:01:45Z</time>
      </trkpt>
      <trkpt lat="44.63876" lon="2.98987">
        <ele>1328.2</ele>
        <time>2012-08-10T07:02:01Z</time>
      </trkpt>
      <trkpt lat="44.63865" lon="2.98997">
        <ele>1329.16</ele>
        <time>2012-08-10T07:02:14Z</time>
      </trkpt>
      <trkpt lat="44.63851" lon="2.9901">
        <ele>1332.04</ele>
        <time>2012-08-10T07:02:30Z</time>
      </trkpt>
      <trkpt lat="44.63838" lon="2.99022">
        <ele>1332.52</ele>
        <time>2012-08-10T07:02:45Z</time>
      </trkpt>
      <trkpt lat="44.63824" lon="2.99033">
        <ele>1334.93</ele>
        <time>2012-08-10T07:02:59Z</time>
      </trkpt>
      <trkpt lat="44.63823" lon="2.99033">
        <ele>1334.45</ele>
        <time>2012-08-10T07:03:00Z</time>
      </trkpt>
      <trkpt lat="44.63822" lon="2.99034">
        <ele>1334.45</ele>
        <time>2012-08-10T07:03:01Z</time>
      </trkpt>
      <trkpt lat="44.63821" lon="2.99035">
        <ele>1334.45</ele>
        <time>2012-08-10T07:03:02Z</time>
      </trkpt>
      <trkpt lat="44.63802" lon="2.99049">
        <ele>1335.41</ele>
        <time>2012-08-10T07:03:20Z</time>
      </trkpt>
      <trkpt lat="44.63783" lon="2.99061">
        <ele>1338.29</ele>
        <time>2012-08-10T07:03:38Z</time>
      </trkpt>
      <trkpt lat="44.63767" lon="2.99074">
        <ele>1340.22</ele>
        <time>2012-08-10T07:03:55Z</time>
      </trkpt>
      <trkpt lat="44.63758" lon="2.99083">
        <ele>1341.66</ele>
        <time>2012-08-10T07:04:09Z</time>
      </trkpt>
      <trkpt lat="44.63748" lon="2.99093">
        <ele>1342.62</ele>
        <time>2012-08-10T07:04:22Z</time>
      </trkpt>
      <trkpt lat="44.63738" lon="2.99101">
        <ele>1346.94</ele>
        <time>2012-08-10T07:04:35Z</time>
      </trkpt>
      <trkpt lat="44.63732" lon="2.99109">
        <ele>1348.87</ele>
        <time>2012-08-10T07:04:45Z</time>
      </trkpt>
      <trkpt lat="44.6372" lon="2.99122">
        <ele>1348.39</ele>
        <time>2012-08-10T07:05:00Z</time>
      </trkpt>
      <trkpt lat="44.63707" lon="2.99136">
        <ele>1348.39</ele>
        <time>2012-08-10T07:05:15Z</time>
      </trkpt>
      <trkpt lat="44.63693" lon="2.99154">
        <ele>1351.27</ele>
        <time>2012-08-10T07:05:33Z</time>
      </trkpt>
      <trkpt lat="44.63681" lon="2.99167">
        <ele>1352.71</ele>
        <time>2012-08-10T07:05:49Z</time>
      </trkpt>
      <trkpt lat="44.63669" lon="2.9918">
        <ele>1352.71</ele>
        <time>2012-08-10T07:06:03Z</time>
      </trkpt>
      <trkpt lat="44.63667" lon="2.99182">
        <ele>1353.67</ele>
        <time>2012-08-10T07:06:05Z</time>
      </trkpt>
      <trkpt lat="44.63662" lon="2.99185">
        <ele>1354.63</ele>
        <time>2012-08-10T07:06:12Z</time>
      </trkpt>
      <trkpt lat="44.63658" lon="2.99187">
        <ele>1355.12</ele>
        <time>2012-08-10T07:06:26Z</time>
      </trkpt>
      <trkpt lat="44.63651" lon="2.99197">
        <ele>1355.12</ele>
        <time>2012-08-10T07:06:36Z</time>
      </trkpt>
      <trkpt lat="44.63649" lon="2.99199">
        <ele>1355.12</ele>
        <time>2012-08-10T07:06:37Z</time>
      </trkpt>
      <trkpt lat="44.63648" lon="2.992">
        <ele>1355.6</ele>
        <time>2012-08-10T07:06:38Z</time>
      </trkpt>
      <trkpt lat="44.63625" lon="2.99226">
        <ele>1355.12</ele>
        <time>2012-08-10T07:06:53Z</time>
      </trkpt>
      <trkpt lat="44.63604" lon="2.99251">
        <ele>1358</ele>
        <time>2012-08-10T07:07:08Z</time>
      </trkpt>
      <trkpt lat="44.636" lon="2.99258">
        <ele>1358</ele>
        <time>2012-08-10T07:07:15Z</time>
      </trkpt>
      <trkpt lat="44.63599" lon="2.99259">
        <ele>1358</ele>
        <time>2012-08-10T07:07:16Z</time>
      </trkpt>
      <trkpt lat="44.63598" lon="2.99261">
        <ele>1358</ele>
        <time>2012-08-10T07:07:17Z</time>
      </trkpt>
      <trkpt lat="44.63597" lon="2.99263">
        <ele>1358</ele>
        <time>2012-08-10T07:07:18Z</time>
      </trkpt>
      <trkpt lat="44.63596" lon="2.99265">
        <ele>1358</ele>
        <time>2012-08-10T07:07:19Z</time>
      </trkpt>
      <trkpt lat="44.63595" lon="2.99267">
        <ele>1358.48</ele>
        <time>2012-08-10T07:07:20Z</time>
      </trkpt>
      <trkpt lat="44.63593" lon="2.99269">
        <ele>1358.48</ele>
        <time>2012-08-10T07:07:21Z</time>
      </trkpt>
      <trkpt lat="44.63592" lon="2.9927">
        <ele>1358.48</ele>
        <time>2012-08-10T07:07:22Z</time>
      </trkpt>
      <trkpt lat="44.6359" lon="2.99272">
        <ele>1358.48</ele>
        <time>2012-08-10T07:07:23Z</time>
      </trkpt>
      <trkpt lat="44.63589" lon="2.99273">
        <ele>1358.48</ele>
        <time>2012-08-10T07:07:24Z</time>
      </trkpt>
      <trkpt lat="44.63569" lon="2.99297">
        <ele>1359.44</ele>
        <time>2012-08-10T07:07:38Z</time>
      </trkpt>
      <trkpt lat="44.6355" lon="2.99318">
        <ele>1359.44</ele>
        <time>2012-08-10T07:07:50Z</time>
      </trkpt>
      <trkpt lat="44.63525" lon="2.99343">
        <ele>1361.36</ele>
        <time>2012-08-10T07:08:03Z</time>
      </trkpt>
      <trkpt lat="44.63501" lon="2.99367">
        <ele>1363.29</ele>
        <time>2012-08-10T07:08:16Z</time>
      </trkpt>
      <trkpt lat="44.63473" lon="2.99388">
        <ele>1364.73</ele>
        <time>2012-08-10T07:08:31Z</time>
      </trkpt>
      <trkpt lat="44.63465" lon="2.99392">
        <ele>1365.69</ele>
        <time>2012-08-10T07:08:42Z</time>
      </trkpt>
      <trkpt lat="44.63463" lon="2.99393">
        <ele>1365.21</ele>
        <time>2012-08-10T07:09:00Z</time>
      </trkpt>
      <trkpt lat="44.63464" lon="2.99393">
        <ele>1365.69</ele>
        <time>2012-08-10T07:09:17Z</time>
      </trkpt>
      <trkpt lat="44.63459" lon="2.99393">
        <ele>1364.73</ele>
        <time>2012-08-10T07:09:39Z</time>
      </trkpt>
      <trkpt lat="44.63459" lon="2.99394">
        <ele>1364.73</ele>
        <time>2012-08-10T07:09:41Z</time>
      </trkpt>
      <trkpt lat="44.63458" lon="2.99396">
        <ele>1364.73</ele>
        <time>2012-08-10T07:09:42Z</time>
      </trkpt>
      <trkpt lat="44.63456" lon="2.99397">
        <ele>1364.73</ele>
        <time>2012-08-10T07:09:43Z</time>
      </trkpt>
      <trkpt lat="44.63454" lon="2.99397">
        <ele>1364.73</ele>
        <time>2012-08-10T07:09:44Z</time>
      </trkpt>
      <trkpt lat="44.63452" lon="2.99398">
        <ele>1365.21</ele>
        <time>2012-08-10T07:09:45Z</time>
      </trkpt>
      <trkpt lat="44.6345" lon="2.99399">
        <ele>1365.21</ele>
        <time>2012-08-10T07:09:46Z</time>
      </trkpt>
      <trkpt lat="44.63447" lon="2.994">
        <ele>1365.69</ele>
        <time>2012-08-10T07:09:47Z</time>
      </trkpt>
      <trkpt lat="44.63408" lon="2.99416">
        <ele>1366.17</ele>
        <time>2012-08-10T07:10:04Z</time>
      </trkpt>
      <trkpt lat="44.63381" lon="2.99428">
        <ele>1370.98</ele>
        <time>2012-08-10T07:10:20Z</time>
      </trkpt>
      <trkpt lat="44.63369" lon="2.9943">
        <ele>1370.5</ele>
        <time>2012-08-10T07:10:27Z</time>
      </trkpt>
      <trkpt lat="44.63368" lon="2.9943">
        <ele>1370.5</ele>
        <time>2012-08-10T07:10:28Z</time>
      </trkpt>
      <trkpt lat="44.63367" lon="2.99429">
        <ele>1370.5</ele>
        <time>2012-08-10T07:10:29Z</time>
      </trkpt>
      <trkpt lat="44.63367" lon="2.99429">
        <ele>1369.54</ele>
        <time>2012-08-10T07:10:44Z</time>
      </trkpt>
      <trkpt lat="44.63367" lon="2.99428">
        <ele>1370.02</ele>
        <time>2012-08-10T07:11:13Z</time>
      </trkpt>
      <trkpt lat="44.63367" lon="2.99429">
        <ele>1370.98</ele>
        <time>2012-08-10T07:11:50Z</time>
      </trkpt>
      <trkpt lat="44.63367" lon="2.99429">
        <ele>1370.5</ele>
        <time>2012-08-10T07:12:07Z</time>
      </trkpt>
      <trkpt lat="44.63367" lon="2.99428">
        <ele>1369.54</ele>
        <time>2012-08-10T07:12:54Z</time>
      </trkpt>
      <trkpt lat="44.63367" lon="2.99428">
        <ele>1369.05</ele>
        <time>2012-08-10T07:13:35Z</time>
      </trkpt>
      <trkpt lat="44.63367" lon="2.99428">
        <ele>1368.57</ele>
        <time>2012-08-10T07:14:16Z</time>
      </trkpt>
      <trkpt lat="44.63366" lon="2.99427">
        <ele>1368.57</ele>
        <time>2012-08-10T07:14:58Z</time>
      </trkpt>
      <trkpt lat="44.63366" lon="2.99427">
        <ele>1368.09</ele>
        <time>2012-08-10T07:15:41Z</time>
      </trkpt>
      <trkpt lat="44.63366" lon="2.99427">
        <ele>1366.17</ele>
        <time>2012-08-10T07:16:19Z</time>
      </trkpt>
      <trkpt lat="44.63365" lon="2.99426">
        <ele>1365.21</ele>
        <time>2012-08-10T07:16:53Z</time>
      </trkpt>
      <trkpt lat="44.63365" lon="2.99427">
        <ele>1364.73</ele>
        <time>2012-08-10T07:17:23Z</time>
      </trkpt>
      <trkpt lat="44.63364" lon="2.99427">
        <ele>1364.73</ele>
        <time>2012-08-10T07:17:51Z</time>
      </trkpt>
      <trkpt lat="44.63364" lon="2.99426">
        <ele>1364.73</ele>
        <time>2012-08-10T07:18:02Z</time>
      </trkpt>
      <trkpt lat="44.63364" lon="2.99427">
        <ele>1364.73</ele>
        <time>2012-08-10T07:18:03Z</time>
      </trkpt>
      <trkpt lat="44.63362" lon="2.99427">
        <ele>1364.73</ele>
        <time>2012-08-10T07:18:04Z</time>
      </trkpt>
      <trkpt lat="44.63361" lon="2.99427">
        <ele>1364.73</ele>
        <time>2012-08-10T07:18:05Z</time>
      </trkpt>
      <trkpt lat="44.6336" lon="2.99427">
        <ele>1364.73</ele>
        <time>2012-08-10T07:18:06Z</time>
      </trkpt>
      <trkpt lat="44.63359" lon="2.99426">
        <ele>1364.25</ele>
        <time>2012-08-10T07:18:07Z</time>
      </trkpt>
      <trkpt lat="44.63356" lon="2.99425">
        <ele>1364.73</ele>
        <time>2012-08-10T07:18:22Z</time>
      </trkpt>
      <trkpt lat="44.63355" lon="2.99425">
        <ele>1364.73</ele>
        <time>2012-08-10T07:18:23Z</time>
      </trkpt>
      <trkpt lat="44.63353" lon="2.99425">
        <ele>1364.73</ele>
        <time>2012-08-10T07:18:24Z</time>
      </trkpt>
      <trkpt lat="44.63351" lon="2.99424">
        <ele>1364.73</ele>
        <time>2012-08-10T07:18:25Z</time>
      </trkpt>
      <trkpt lat="44.63348" lon="2.99423">
        <ele>1364.73</ele>
        <time>2012-08-10T07:18:26Z</time>
      </trkpt>
      <trkpt lat="44.63345" lon="2.99422">
        <ele>1364.25</ele>
        <time>2012-08-10T07:18:27Z</time>
      </trkpt>
      <trkpt lat="44.63342" lon="2.9942">
        <ele>1364.25</ele>
        <time>2012-08-10T07:18:28Z</time>
      </trkpt>
      <trkpt lat="44.63338" lon="2.99418">
        <ele>1363.77</ele>
        <time>2012-08-10T07:18:29Z</time>
      </trkpt>
      <trkpt lat="44.63335" lon="2.99416">
        <ele>1363.77</ele>
        <time>2012-08-10T07:18:30Z</time>
      </trkpt>
      <trkpt lat="44.63331" lon="2.99412">
        <ele>1363.29</ele>
        <time>2012-08-10T07:18:31Z</time>
      </trkpt>
      <trkpt lat="44.63327" lon="2.99409">
        <ele>1363.29</ele>
        <time>2012-08-10T07:18:32Z</time>
      </trkpt>
      <trkpt lat="44.63323" lon="2.99405">
        <ele>1362.81</ele>
        <time>2012-08-10T07:18:33Z</time>
      </trkpt>
      <trkpt lat="44.63305" lon="2.99389">
        <ele>1362.81</ele>
        <time>2012-08-10T07:18:37Z</time>
      </trkpt>
      <trkpt lat="44.63296" lon="2.99381">
        <ele>1362.81</ele>
        <time>2012-08-10T07:18:39Z</time>
      </trkpt>
      <trkpt lat="44.63292" lon="2.99376">
        <ele>1362.81</ele>
        <time>2012-08-10T07:18:40Z</time>
      </trkpt>
      <trkpt lat="44.63284" lon="2.99366">
        <ele>1361.84</ele>
        <time>2012-08-10T07:18:42Z</time>
      </trkpt>
      <trkpt lat="44.6328" lon="2.99363">
        <ele>1361.84</ele>
        <time>2012-08-10T07:18:43Z</time>
      </trkpt>
      <trkpt lat="44.63274" lon="2.9936">
        <ele>1361.84</ele>
        <time>2012-08-10T07:18:44Z</time>
      </trkpt>
      <trkpt lat="44.63269" lon="2.99359">
        <ele>1361.84</ele>
        <time>2012-08-10T07:18:45Z</time>
      </trkpt>
      <trkpt lat="44.63264" lon="2.99357">
        <ele>1361.84</ele>
        <time>2012-08-10T07:18:46Z</time>
      </trkpt>
      <trkpt lat="44.63259" lon="2.99354">
        <ele>1361.84</ele>
        <time>2012-08-10T07:18:47Z</time>
      </trkpt>
      <trkpt lat="44.63254" lon="2.99352">
        <ele>1361.36</ele>
        <time>2012-08-10T07:18:48Z</time>
      </trkpt>
      <trkpt lat="44.63249" lon="2.99349">
        <ele>1360.88</ele>
        <time>2012-08-10T07:18:49Z</time>
      </trkpt>
      <trkpt lat="44.63239" lon="2.99342">
        <ele>1359.92</ele>
        <time>2012-08-10T07:18:51Z</time>
      </trkpt>
      <trkpt lat="44.63234" lon="2.99339">
        <ele>1359.92</ele>
        <time>2012-08-10T07:18:52Z</time>
      </trkpt>
      <trkpt lat="44.63229" lon="2.99335">
        <ele>1359.92</ele>
        <time>2012-08-10T07:18:53Z</time>
      </trkpt>
      <trkpt lat="44.63222" lon="2.99328">
        <ele>1359.92</ele>
        <time>2012-08-10T07:18:55Z</time>
      </trkpt>
      <trkpt lat="44.63218" lon="2.99326">
        <ele>1359.92</ele>
        <time>2012-08-10T07:18:56Z</time>
      </trkpt>
      <trkpt lat="44.63214" lon="2.99324">
        <ele>1359.44</ele>
        <time>2012-08-10T07:18:57Z</time>
      </trkpt>
      <trkpt lat="44.63211" lon="2.99324">
        <ele>1359.44</ele>
        <time>2012-08-10T07:18:58Z</time>
      </trkpt>
      <trkpt lat="44.63208" lon="2.99323">
        <ele>1358.96</ele>
        <time>2012-08-10T07:18:59Z</time>
      </trkpt>
      <trkpt lat="44.63205" lon="2.99322">
        <ele>1358.96</ele>
        <time>2012-08-10T07:19:00Z</time>
      </trkpt>
      <trkpt lat="44.63203" lon="2.9932">
        <ele>1358.96</ele>
        <time>2012-08-10T07:19:01Z</time>
      </trkpt>
      <trkpt lat="44.63192" lon="2.99311">
        <ele>1358</ele>
        <time>2012-08-10T07:19:04Z</time>
      </trkpt>
      <trkpt lat="44.63185" lon="2.99304">
        <ele>1357.52</ele>
        <time>2012-08-10T07:19:06Z</time>
      </trkpt>
      <trkpt lat="44.63154" lon="2.99276">
        <ele>1356.56</ele>
        <time>2012-08-10T07:19:13Z</time>
      </trkpt>
      <trkpt lat="44.63149" lon="2.99273">
        <ele>1356.56</ele>
        <time>2012-08-10T07:19:14Z</time>
      </trkpt>
      <trkpt lat="44.63121" lon="2.99249">
        <ele>1357.04</ele>
        <time>2012-08-10T07:19:24Z</time>
      </trkpt>
      <trkpt lat="44.63081" lon="2.99216">
        <ele>1358.48</ele>
        <time>2012-08-10T07:19:37Z</time>
      </trkpt>
      <trkpt lat="44.63046" lon="2.99163">
        <ele>1359.92</ele>
        <time>2012-08-10T07:19:51Z</time>
      </trkpt>
      <trkpt lat="44.63038" lon="2.99149">
        <ele>1359.44</ele>
        <time>2012-08-10T07:19:54Z</time>
      </trkpt>
      <trkpt lat="44.63035" lon="2.99143">
        <ele>1358.96</ele>
        <time>2012-08-10T07:19:55Z</time>
      </trkpt>
      <trkpt lat="44.63029" lon="2.99121">
        <ele>1357.52</ele>
        <time>2012-08-10T07:19:58Z</time>
      </trkpt>
      <trkpt lat="44.63022" lon="2.991">
        <ele>1357.04</ele>
        <time>2012-08-10T07:20:01Z</time>
      </trkpt>
      <trkpt lat="44.63016" lon="2.99087">
        <ele>1356.56</ele>
        <time>2012-08-10T07:20:03Z</time>
      </trkpt>
      <trkpt lat="44.63008" lon="2.99064">
        <ele>1356.08</ele>
        <time>2012-08-10T07:20:06Z</time>
      </trkpt>
      <trkpt lat="44.62981" lon="2.99015">
        <ele>1354.15</ele>
        <time>2012-08-10T07:20:14Z</time>
      </trkpt>
      <trkpt lat="44.62976" lon="2.99009">
        <ele>1353.67</ele>
        <time>2012-08-10T07:20:15Z</time>
      </trkpt>
      <trkpt lat="44.62962" lon="2.98988">
        <ele>1351.75</ele>
        <time>2012-08-10T07:20:18Z</time>
      </trkpt>
      <trkpt lat="44.62942" lon="2.98966">
        <ele>1350.31</ele>
        <time>2012-08-10T07:20:21Z</time>
      </trkpt>
      <trkpt lat="44.62915" lon="2.98938">
        <ele>1348.39</ele>
        <time>2012-08-10T07:20:25Z</time>
      </trkpt>
      <trkpt lat="44.62909" lon="2.98933">
        <ele>1347.91</ele>
        <time>2012-08-10T07:20:26Z</time>
      </trkpt>
      <trkpt lat="44.62904" lon="2.98927">
        <ele>1347.91</ele>
        <time>2012-08-10T07:20:27Z</time>
      </trkpt>
      <trkpt lat="44.62894" lon="2.98914">
        <ele>1347.43</ele>
        <time>2012-08-10T07:20:29Z</time>
      </trkpt>
      <trkpt lat="44.62871" lon="2.98891">
        <ele>1347.91</ele>
        <time>2012-08-10T07:20:34Z</time>
      </trkpt>
      <trkpt lat="44.62836" lon="2.98869">
        <ele>1346.46</ele>
        <time>2012-08-10T07:20:43Z</time>
      </trkpt>
      <trkpt lat="44.62832" lon="2.98868">
        <ele>1346.46</ele>
        <time>2012-08-10T07:20:44Z</time>
      </trkpt>
      <trkpt lat="44.62828" lon="2.98866">
        <ele>1346.46</ele>
        <time>2012-08-10T07:20:45Z</time>
      </trkpt>
      <trkpt lat="44.62808" lon="2.98853">
        <ele>1346.46</ele>
        <time>2012-08-10T07:20:56Z</time>
      </trkpt>
      <trkpt lat="44.62805" lon="2.98852">
        <ele>1345.98</ele>
        <time>2012-08-10T07:21:10Z</time>
      </trkpt>
      <trkpt lat="44.62804" lon="2.98853">
        <ele>1346.46</ele>
        <time>2012-08-10T07:21:47Z</time>
      </trkpt>
      <trkpt lat="44.62805" lon="2.98854">
        <ele>1347.43</ele>
        <time>2012-08-10T07:22:26Z</time>
      </trkpt>
      <trkpt lat="44.62806" lon="2.98854">
        <ele>1348.39</ele>
        <time>2012-08-10T07:22:59Z</time>
      </trkpt>
      <trkpt lat="44.62806" lon="2.98854">
        <ele>1348.39</ele>
        <time>2012-08-10T07:23:39Z</time>
      </trkpt>
      <trkpt lat="44.62807" lon="2.98854">
        <ele>1348.39</ele>
        <time>2012-08-10T07:24:12Z</time>
      </trkpt>
      <trkpt lat="44.62807" lon="2.98854">
        <ele>1348.87</ele>
        <time>2012-08-10T07:24:46Z</time>
      </trkpt>
      <trkpt lat="44.62806" lon="2.98855">
        <ele>1349.35</ele>
        <time>2012-08-10T07:25:23Z</time>
      </trkpt>
      <trkpt lat="44.62807" lon="2.98854">
        <ele>1349.83</ele>
        <time>2012-08-10T07:25:51Z</time>
      </trkpt>
      <trkpt lat="44.6279" lon="2.98843">
        <ele>1348.39</ele>
        <time>2012-08-10T07:26:00Z</time>
      </trkpt>
      <trkpt lat="44.62757" lon="2.98816">
        <ele>1345.02</ele>
        <time>2012-08-10T07:26:11Z</time>
      </trkpt>
      <trkpt lat="44.6272" lon="2.98794">
        <ele>1338.77</ele>
        <time>2012-08-10T07:26:22Z</time>
      </trkpt>
      <trkpt lat="44.62717" lon="2.98794">
        <ele>1338.29</ele>
        <time>2012-08-10T07:26:23Z</time>
      </trkpt>
      <trkpt lat="44.62713" lon="2.98794">
        <ele>1337.81</ele>
        <time>2012-08-10T07:26:24Z</time>
      </trkpt>
      <trkpt lat="44.6271" lon="2.98793">
        <ele>1337.33</ele>
        <time>2012-08-10T07:26:25Z</time>
      </trkpt>
      <trkpt lat="44.62707" lon="2.9879">
        <ele>1336.37</ele>
        <time>2012-08-10T07:26:26Z</time>
      </trkpt>
      <trkpt lat="44.62704" lon="2.98786">
        <ele>1335.89</ele>
        <time>2012-08-10T07:26:27Z</time>
      </trkpt>
      <trkpt lat="44.62672" lon="2.9878">
        <ele>1329.16</ele>
        <time>2012-08-10T07:26:36Z</time>
      </trkpt>
      <trkpt lat="44.62645" lon="2.98777">
        <ele>1322.91</ele>
        <time>2012-08-10T07:26:45Z</time>
      </trkpt>
      <trkpt lat="44.62621" lon="2.98773">
        <ele>1317.62</ele>
        <time>2012-08-10T07:26:54Z</time>
      </trkpt>
      <trkpt lat="44.62617" lon="2.98772">
        <ele>1316.66</ele>
        <time>2012-08-10T07:27:04Z</time>
      </trkpt>
      <trkpt lat="44.62616" lon="2.98773">
        <ele>1316.66</ele>
        <time>2012-08-10T07:27:21Z</time>
      </trkpt>
      <trkpt lat="44.62615" lon="2.98771">
        <ele>1317.62</ele>
        <time>2012-08-10T07:27:33Z</time>
      </trkpt>
      <trkpt lat="44.62613" lon="2.98771">
        <ele>1317.14</ele>
        <time>2012-08-10T07:27:49Z</time>
      </trkpt>
      <trkpt lat="44.62613" lon="2.98771">
        <ele>1317.14</ele>
        <time>2012-08-10T07:28:06Z</time>
      </trkpt>
      <trkpt lat="44.62611" lon="2.98767">
        <ele>1317.62</ele>
        <time>2012-08-10T07:28:18Z</time>
      </trkpt>
      <trkpt lat="44.62609" lon="2.98762">
        <ele>1317.62</ele>
        <time>2012-08-10T07:28:21Z</time>
      </trkpt>
      <trkpt lat="44.62609" lon="2.9876">
        <ele>1317.62</ele>
        <time>2012-08-10T07:28:22Z</time>
      </trkpt>
      <trkpt lat="44.62607" lon="2.98755">
        <ele>1317.62</ele>
        <time>2012-08-10T07:28:24Z</time>
      </trkpt>
      <trkpt lat="44.62605" lon="2.98753">
        <ele>1317.14</ele>
        <time>2012-08-10T07:28:25Z</time>
      </trkpt>
      <trkpt lat="44.62602" lon="2.98753">
        <ele>1317.14</ele>
        <time>2012-08-10T07:28:26Z</time>
      </trkpt>
      <trkpt lat="44.626" lon="2.98752">
        <ele>1316.66</ele>
        <time>2012-08-10T07:28:27Z</time>
      </trkpt>
      <trkpt lat="44.62598" lon="2.98752">
        <ele>1316.66</ele>
        <time>2012-08-10T07:28:28Z</time>
      </trkpt>
      <trkpt lat="44.62596" lon="2.98751">
        <ele>1316.18</ele>
        <time>2012-08-10T07:28:29Z</time>
      </trkpt>
      <trkpt lat="44.62594" lon="2.98751">
        <ele>1315.7</ele>
        <time>2012-08-10T07:28:30Z</time>
      </trkpt>
      <trkpt lat="44.62592" lon="2.98751">
        <ele>1315.22</ele>
        <time>2012-08-10T07:28:31Z</time>
      </trkpt>
      <trkpt lat="44.6259" lon="2.98751">
        <ele>1315.22</ele>
        <time>2012-08-10T07:28:32Z</time>
      </trkpt>
      <trkpt lat="44.62588" lon="2.98751">
        <ele>1314.74</ele>
        <time>2012-08-10T07:28:33Z</time>
      </trkpt>
      <trkpt lat="44.62582" lon="2.98749">
        <ele>1313.78</ele>
        <time>2012-08-10T07:28:35Z</time>
      </trkpt>
      <trkpt lat="44.62577" lon="2.9875">
        <ele>1312.82</ele>
        <time>2012-08-10T07:28:36Z</time>
      </trkpt>
      <trkpt lat="44.62566" lon="2.98751">
        <ele>1311.38</ele>
        <time>2012-08-10T07:28:38Z</time>
      </trkpt>
      <trkpt lat="44.62527" lon="2.98745">
        <ele>1307.05</ele>
        <time>2012-08-10T07:28:47Z</time>
      </trkpt>
      <trkpt lat="44.62494" lon="2.98734">
        <ele>1303.69</ele>
        <time>2012-08-10T07:28:57Z</time>
      </trkpt>
      <trkpt lat="44.62464" lon="2.9873">
        <ele>1302.72</ele>
        <time>2012-08-10T07:29:08Z</time>
      </trkpt>
      <trkpt lat="44.62439" lon="2.98726">
        <ele>1305.61</ele>
        <time>2012-08-10T07:29:18Z</time>
      </trkpt>
      <trkpt lat="44.62405" lon="2.98721">
        <ele>1307.53</ele>
        <time>2012-08-10T07:29:32Z</time>
      </trkpt>
      <trkpt lat="44.624" lon="2.9872">
        <ele>1307.53</ele>
        <time>2012-08-10T07:29:34Z</time>
      </trkpt>
      <trkpt lat="44.62393" lon="2.98716">
        <ele>1308.01</ele>
        <time>2012-08-10T07:29:45Z</time>
      </trkpt>
      <trkpt lat="44.62393" lon="2.98717">
        <ele>1308.01</ele>
        <time>2012-08-10T07:30:10Z</time>
      </trkpt>
      <trkpt lat="44.62393" lon="2.98717">
        <ele>1308.01</ele>
        <time>2012-08-10T07:30:45Z</time>
      </trkpt>
      <trkpt lat="44.62393" lon="2.98717">
        <ele>1308.01</ele>
        <time>2012-08-10T07:31:09Z</time>
      </trkpt>
      <trkpt lat="44.62392" lon="2.98716">
        <ele>1307.05</ele>
        <time>2012-08-10T07:31:23Z</time>
      </trkpt>
      <trkpt lat="44.62374" lon="2.98707">
        <ele>1308.01</ele>
        <time>2012-08-10T07:31:34Z</time>
      </trkpt>
      <trkpt lat="44.62373" lon="2.98707">
        <ele>1307.53</ele>
        <time>2012-08-10T07:31:35Z</time>
      </trkpt>
      <trkpt lat="44.62371" lon="2.98706">
        <ele>1307.05</ele>
        <time>2012-08-10T07:31:38Z</time>
      </trkpt>
      <trkpt lat="44.62351" lon="2.98702">
        <ele>1304.17</ele>
        <time>2012-08-10T07:31:48Z</time>
      </trkpt>
      <trkpt lat="44.62331" lon="2.98713">
        <ele>1298.88</ele>
        <time>2012-08-10T07:31:58Z</time>
      </trkpt>
      <trkpt lat="44.62319" lon="2.98729">
        <ele>1299.36</ele>
        <time>2012-08-10T07:32:12Z</time>
      </trkpt>
      <trkpt lat="44.62304" lon="2.98755">
        <ele>1299.84</ele>
        <time>2012-08-10T07:32:22Z</time>
      </trkpt>
      <trkpt lat="44.62303" lon="2.98758">
        <ele>1299.84</ele>
        <time>2012-08-10T07:32:24Z</time>
      </trkpt>
      <trkpt lat="44.62302" lon="2.98759">
        <ele>1299.36</ele>
        <time>2012-08-10T07:32:25Z</time>
      </trkpt>
      <trkpt lat="44.623" lon="2.9876">
        <ele>1298.88</ele>
        <time>2012-08-10T07:32:31Z</time>
      </trkpt>
      <trkpt lat="44.62299" lon="2.98762">
        <ele>1299.36</ele>
        <time>2012-08-10T07:32:32Z</time>
      </trkpt>
      <trkpt lat="44.62298" lon="2.98762">
        <ele>1299.36</ele>
        <time>2012-08-10T07:32:33Z</time>
      </trkpt>
      <trkpt lat="44.62295" lon="2.98759">
        <ele>1300.32</ele>
        <time>2012-08-10T07:32:44Z</time>
      </trkpt>
      <trkpt lat="44.62295" lon="2.98758">
        <ele>1300.32</ele>
        <time>2012-08-10T07:33:17Z</time>
      </trkpt>
      <trkpt lat="44.62296" lon="2.98758">
        <ele>1299.36</ele>
        <time>2012-08-10T07:33:44Z</time>
      </trkpt>
      <trkpt lat="44.62295" lon="2.98759">
        <ele>1297.92</ele>
        <time>2012-08-10T07:34:14Z</time>
      </trkpt>
      <trkpt lat="44.62296" lon="2.98758">
        <ele>1296.96</ele>
        <time>2012-08-10T07:34:48Z</time>
      </trkpt>
      <trkpt lat="44.62296" lon="2.98759">
        <ele>1296.96</ele>
        <time>2012-08-10T07:35:17Z</time>
      </trkpt>
      <trkpt lat="44.62297" lon="2.98759">
        <ele>1295.99</ele>
        <time>2012-08-10T07:35:47Z</time>
      </trkpt>
      <trkpt lat="44.62298" lon="2.98759">
        <ele>1296.96</ele>
        <time>2012-08-10T07:36:23Z</time>
      </trkpt>
      <trkpt lat="44.62299" lon="2.98759">
        <ele>1296.48</ele>
        <time>2012-08-10T07:36:48Z</time>
      </trkpt>
      <trkpt lat="44.62299" lon="2.98759">
        <ele>1296.48</ele>
        <time>2012-08-10T07:37:19Z</time>
      </trkpt>
      <trkpt lat="44.62298" lon="2.98759">
        <ele>1297.44</ele>
        <time>2012-08-10T07:37:46Z</time>
      </trkpt>
      <trkpt lat="44.62298" lon="2.9876">
        <ele>1297.92</ele>
        <time>2012-08-10T07:38:15Z</time>
      </trkpt>
      <trkpt lat="44.62298" lon="2.9876">
        <ele>1297.44</ele>
        <time>2012-08-10T07:38:46Z</time>
      </trkpt>
      <trkpt lat="44.62298" lon="2.9876">
        <ele>1297.92</ele>
        <time>2012-08-10T07:39:11Z</time>
      </trkpt>
      <trkpt lat="44.62298" lon="2.98759">
        <ele>1297.92</ele>
        <time>2012-08-10T07:39:45Z</time>
      </trkpt>
      <trkpt lat="44.62298" lon="2.98759">
        <ele>1298.4</ele>
        <time>2012-08-10T07:40:18Z</time>
      </trkpt>
      <trkpt lat="44.62299" lon="2.98757">
        <ele>1298.88</ele>
        <time>2012-08-10T07:40:31Z</time>
      </trkpt>
      <trkpt lat="44.623" lon="2.98757">
        <ele>1298.88</ele>
        <time>2012-08-10T07:40:32Z</time>
      </trkpt>
      <trkpt lat="44.62301" lon="2.98757">
        <ele>1298.88</ele>
        <time>2012-08-10T07:40:33Z</time>
      </trkpt>
      <trkpt lat="44.62303" lon="2.98756">
        <ele>1298.88</ele>
        <time>2012-08-10T07:40:34Z</time>
      </trkpt>
      <trkpt lat="44.62303" lon="2.98755">
        <ele>1298.4</ele>
        <time>2012-08-10T07:40:35Z</time>
      </trkpt>
      <trkpt lat="44.62304" lon="2.98754">
        <ele>1298.4</ele>
        <time>2012-08-10T07:40:36Z</time>
      </trkpt>
      <trkpt lat="44.62305" lon="2.98752">
        <ele>1298.4</ele>
        <time>2012-08-10T07:40:37Z</time>
      </trkpt>
      <trkpt lat="44.62305" lon="2.98751">
        <ele>1298.4</ele>
        <time>2012-08-10T07:40:38Z</time>
      </trkpt>
      <trkpt lat="44.62305" lon="2.98749">
        <ele>1298.4</ele>
        <time>2012-08-10T07:40:39Z</time>
      </trkpt>
      <trkpt lat="44.62305" lon="2.98748">
        <ele>1298.88</ele>
        <time>2012-08-10T07:40:40Z</time>
      </trkpt>
      <trkpt lat="44.62291" lon="2.9873">
        <ele>1301.28</ele>
        <time>2012-08-10T07:40:57Z</time>
      </trkpt>
      <trkpt lat="44.62289" lon="2.98727">
        <ele>1301.28</ele>
        <time>2012-08-10T07:40:59Z</time>
      </trkpt>
      <trkpt lat="44.62287" lon="2.98724">
        <ele>1302.24</ele>
        <time>2012-08-10T07:41:02Z</time>
      </trkpt>
      <trkpt lat="44.62286" lon="2.98723">
        <ele>1302.24</ele>
        <time>2012-08-10T07:41:03Z</time>
      </trkpt>
      <trkpt lat="44.62285" lon="2.98722">
        <ele>1302.72</ele>
        <time>2012-08-10T07:41:04Z</time>
      </trkpt>
      <trkpt lat="44.62274" lon="2.9871">
        <ele>1307.53</ele>
        <time>2012-08-10T07:41:20Z</time>
      </trkpt>
      <trkpt lat="44.62265" lon="2.98702">
        <ele>1309.45</ele>
        <time>2012-08-10T07:41:34Z</time>
      </trkpt>
      <trkpt lat="44.62258" lon="2.98694">
        <ele>1310.9</ele>
        <time>2012-08-10T07:41:48Z</time>
      </trkpt>
      <trkpt lat="44.62251" lon="2.9869">
        <ele>1312.82</ele>
        <time>2012-08-10T07:42:00Z</time>
      </trkpt>
      <trkpt lat="44.62249" lon="2.9869">
        <ele>1312.82</ele>
        <time>2012-08-10T07:42:01Z</time>
      </trkpt>
      <trkpt lat="44.62214" lon="2.9868">
        <ele>1310.41</ele>
        <time>2012-08-10T07:42:15Z</time>
      </trkpt>
      <trkpt lat="44.6221" lon="2.98677">
        <ele>1309.93</ele>
        <time>2012-08-10T07:42:17Z</time>
      </trkpt>
      <trkpt lat="44.62208" lon="2.98674">
        <ele>1309.93</ele>
        <time>2012-08-10T07:42:18Z</time>
      </trkpt>
      <trkpt lat="44.62206" lon="2.98671">
        <ele>1309.93</ele>
        <time>2012-08-10T07:42:19Z</time>
      </trkpt>
      <trkpt lat="44.62204" lon="2.98668">
        <ele>1309.93</ele>
        <time>2012-08-10T07:42:20Z</time>
      </trkpt>
      <trkpt lat="44.62203" lon="2.98666">
        <ele>1309.93</ele>
        <time>2012-08-10T07:42:21Z</time>
      </trkpt>
      <trkpt lat="44.62201" lon="2.98663">
        <ele>1309.93</ele>
        <time>2012-08-10T07:42:22Z</time>
      </trkpt>
      <trkpt lat="44.62187" lon="2.98642">
        <ele>1310.41</ele>
        <time>2012-08-10T07:42:30Z</time>
      </trkpt>
      <trkpt lat="44.62185" lon="2.98642">
        <ele>1310.41</ele>
        <time>2012-08-10T07:42:31Z</time>
      </trkpt>
      <trkpt lat="44.62184" lon="2.98641">
        <ele>1310.41</ele>
        <time>2012-08-10T07:42:32Z</time>
      </trkpt>
      <trkpt lat="44.62182" lon="2.98641">
        <ele>1310.41</ele>
        <time>2012-08-10T07:42:33Z</time>
      </trkpt>
      <trkpt lat="44.62181" lon="2.98639">
        <ele>1310.9</ele>
        <time>2012-08-10T07:42:34Z</time>
      </trkpt>
      <trkpt lat="44.6218" lon="2.98637">
        <ele>1310.9</ele>
        <time>2012-08-10T07:42:35Z</time>
      </trkpt>
      <trkpt lat="44.62179" lon="2.98635">
        <ele>1310.9</ele>
        <time>2012-08-10T07:42:36Z</time>
      </trkpt>
      <trkpt lat="44.62175" lon="2.98633">
        <ele>1311.38</ele>
        <time>2012-08-10T07:42:41Z</time>
      </trkpt>
      <trkpt lat="44.62174" lon="2.98635">
        <ele>1311.38</ele>
        <time>2012-08-10T07:42:42Z</time>
      </trkpt>
      <trkpt lat="44.62169" lon="2.98643">
        <ele>1310.9</ele>
        <time>2012-08-10T07:42:48Z</time>
      </trkpt>
      <trkpt lat="44.6217" lon="2.98647">
        <ele>1310.9</ele>
        <time>2012-08-10T07:42:50Z</time>
      </trkpt>
      <trkpt lat="44.62171" lon="2.98649">
        <ele>1310.9</ele>
        <time>2012-08-10T07:42:51Z</time>
      </trkpt>
      <trkpt lat="44.62171" lon="2.9865">
        <ele>1310.9</ele>
        <time>2012-08-10T07:42:52Z</time>
      </trkpt>
      <trkpt lat="44.62172" lon="2.98653">
        <ele>1310.9</ele>
        <time>2012-08-10T07:42:53Z</time>
      </trkpt>
      <trkpt lat="44.62172" lon="2.98656">
        <ele>1311.38</ele>
        <time>2012-08-10T07:42:54Z</time>
      </trkpt>
      <trkpt lat="44.62172" lon="2.98659">
        <ele>1310.9</ele>
        <time>2012-08-10T07:42:55Z</time>
      </trkpt>
      <trkpt lat="44.62171" lon="2.98662">
        <ele>1310.9</ele>
        <time>2012-08-10T07:42:56Z</time>
      </trkpt>
      <trkpt lat="44.6217" lon="2.98666">
        <ele>1310.41</ele>
        <time>2012-08-10T07:42:57Z</time>
      </trkpt>
      <trkpt lat="44.62168" lon="2.98669">
        <ele>1309.93</ele>
        <time>2012-08-10T07:42:58Z</time>
      </trkpt>
      <trkpt lat="44.62167" lon="2.98673">
        <ele>1309.93</ele>
        <time>2012-08-10T07:42:59Z</time>
      </trkpt>
      <trkpt lat="44.62165" lon="2.98675">
        <ele>1309.93</ele>
        <time>2012-08-10T07:43:00Z</time>
      </trkpt>
      <trkpt lat="44.62164" lon="2.98678">
        <ele>1309.93</ele>
        <time>2012-08-10T07:43:01Z</time>
      </trkpt>
      <trkpt lat="44.62161" lon="2.9868">
        <ele>1309.93</ele>
        <time>2012-08-10T07:43:02Z</time>
      </trkpt>
      <trkpt lat="44.62156" lon="2.98686">
        <ele>1309.45</ele>
        <time>2012-08-10T07:43:05Z</time>
      </trkpt>
      <trkpt lat="44.62156" lon="2.98692">
        <ele>1308.97</ele>
        <time>2012-08-10T07:43:10Z</time>
      </trkpt>
      <trkpt lat="44.62155" lon="2.98693">
        <ele>1308.97</ele>
        <time>2012-08-10T07:43:11Z</time>
      </trkpt>
      <trkpt lat="44.62154" lon="2.98693">
        <ele>1308.97</ele>
        <time>2012-08-10T07:43:12Z</time>
      </trkpt>
      <trkpt lat="44.62153" lon="2.98691">
        <ele>1308.49</ele>
        <time>2012-08-10T07:43:13Z</time>
      </trkpt>
      <trkpt lat="44.62154" lon="2.98689">
        <ele>1308.97</ele>
        <time>2012-08-10T07:43:14Z</time>
      </trkpt>
      <trkpt lat="44.62155" lon="2.98688">
        <ele>1308.97</ele>
        <time>2012-08-10T07:43:15Z</time>
      </trkpt>
      <trkpt lat="44.62156" lon="2.98687">
        <ele>1308.97</ele>
        <time>2012-08-10T07:43:16Z</time>
      </trkpt>
      <trkpt lat="44.62158" lon="2.98687">
        <ele>1308.97</ele>
        <time>2012-08-10T07:43:17Z</time>
      </trkpt>
      <trkpt lat="44.62176" lon="2.98665">
        <ele>1308.49</ele>
        <time>2012-08-10T07:43:28Z</time>
      </trkpt>
      <trkpt lat="44.62184" lon="2.98633">
        <ele>1310.41</ele>
        <time>2012-08-10T07:43:40Z</time>
      </trkpt>
      <trkpt lat="44.62185" lon="2.98628">
        <ele>1310.41</ele>
        <time>2012-08-10T07:43:42Z</time>
      </trkpt>
      <trkpt lat="44.62184" lon="2.98624">
        <ele>1310.41</ele>
        <time>2012-08-10T07:43:43Z</time>
      </trkpt>
      <trkpt lat="44.62183" lon="2.98621">
        <ele>1310.41</ele>
        <time>2012-08-10T07:43:44Z</time>
      </trkpt>
      <trkpt lat="44.62181" lon="2.98617">
        <ele>1310.9</ele>
        <time>2012-08-10T07:43:45Z</time>
      </trkpt>
      <trkpt lat="44.6218" lon="2.98614">
        <ele>1310.9</ele>
        <time>2012-08-10T07:43:46Z</time>
      </trkpt>
      <trkpt lat="44.62179" lon="2.98611">
        <ele>1311.38</ele>
        <time>2012-08-10T07:43:47Z</time>
      </trkpt>
      <trkpt lat="44.62178" lon="2.98608">
        <ele>1311.38</ele>
        <time>2012-08-10T07:43:48Z</time>
      </trkpt>
      <trkpt lat="44.62177" lon="2.98604">
        <ele>1311.86</ele>
        <time>2012-08-10T07:43:49Z</time>
      </trkpt>
      <trkpt lat="44.62167" lon="2.98556">
        <ele>1314.26</ele>
        <time>2012-08-10T07:44:02Z</time>
      </trkpt>
      <trkpt lat="44.62155" lon="2.98498">
        <ele>1319.07</ele>
        <time>2012-08-10T07:44:17Z</time>
      </trkpt>
      <trkpt lat="44.62141" lon="2.98425">
        <ele>1319.07</ele>
        <time>2012-08-10T07:44:35Z</time>
      </trkpt>
      <trkpt lat="44.62111" lon="2.98373">
        <ele>1320.51</ele>
        <time>2012-08-10T07:44:51Z</time>
      </trkpt>
      <trkpt lat="44.62083" lon="2.98304">
        <ele>1323.39</ele>
        <time>2012-08-10T07:45:09Z</time>
      </trkpt>
      <trkpt lat="44.62059" lon="2.98245">
        <ele>1327.24</ele>
        <time>2012-08-10T07:45:25Z</time>
      </trkpt>
      <trkpt lat="44.62011" lon="2.9819">
        <ele>1324.83</ele>
        <time>2012-08-10T07:45:38Z</time>
      </trkpt>
      <trkpt lat="44.61998" lon="2.98172">
        <ele>1324.35</ele>
        <time>2012-08-10T07:45:41Z</time>
      </trkpt>
      <trkpt lat="44.61994" lon="2.98166">
        <ele>1324.35</ele>
        <time>2012-08-10T07:45:42Z</time>
      </trkpt>
      <trkpt lat="44.61983" lon="2.98143">
        <ele>1323.87</ele>
        <time>2012-08-10T07:45:45Z</time>
      </trkpt>
      <trkpt lat="44.61981" lon="2.98134">
        <ele>1323.87</ele>
        <time>2012-08-10T07:45:46Z</time>
      </trkpt>
      <trkpt lat="44.61951" lon="2.98014">
        <ele>1321.47</ele>
        <time>2012-08-10T07:46:01Z</time>
      </trkpt>
      <trkpt lat="44.61927" lon="2.97912">
        <ele>1317.62</ele>
        <time>2012-08-10T07:46:14Z</time>
      </trkpt>
      <trkpt lat="44.61914" lon="2.97888">
        <ele>1317.62</ele>
        <time>2012-08-10T07:46:24Z</time>
      </trkpt>
      <trkpt lat="44.61915" lon="2.97889">
        <ele>1315.22</ele>
        <time>2012-08-10T07:46:46Z</time>
      </trkpt>
      <trkpt lat="44.61914" lon="2.97888">
        <ele>1314.26</ele>
        <time>2012-08-10T07:47:12Z</time>
      </trkpt>
      <trkpt lat="44.61914" lon="2.97887">
        <ele>1314.26</ele>
        <time>2012-08-10T07:47:41Z</time>
      </trkpt>
      <trkpt lat="44.61915" lon="2.97888">
        <ele>1313.78</ele>
        <time>2012-08-10T07:48:11Z</time>
      </trkpt>
      <trkpt lat="44.61915" lon="2.97888">
        <ele>1313.3</ele>
        <time>2012-08-10T07:48:34Z</time>
      </trkpt>
      <trkpt lat="44.61916" lon="2.97888">
        <ele>1312.82</ele>
        <time>2012-08-10T07:49:02Z</time>
      </trkpt>
      <trkpt lat="44.61916" lon="2.97887">
        <ele>1312.82</ele>
        <time>2012-08-10T07:49:03Z</time>
      </trkpt>
      <trkpt lat="44.61916" lon="2.97885">
        <ele>1312.82</ele>
        <time>2012-08-10T07:49:04Z</time>
      </trkpt>
      <trkpt lat="44.61917" lon="2.97884">
        <ele>1312.34</ele>
        <time>2012-08-10T07:49:05Z</time>
      </trkpt>
      <trkpt lat="44.61909" lon="2.97854">
        <ele>1309.45</ele>
        <time>2012-08-10T07:49:13Z</time>
      </trkpt>
      <trkpt lat="44.61908" lon="2.97849">
        <ele>1308.49</ele>
        <time>2012-08-10T07:49:14Z</time>
      </trkpt>
      <trkpt lat="44.61907" lon="2.97843">
        <ele>1308.01</ele>
        <time>2012-08-10T07:49:15Z</time>
      </trkpt>
      <trkpt lat="44.61905" lon="2.97836">
        <ele>1307.05</ele>
        <time>2012-08-10T07:49:16Z</time>
      </trkpt>
      <trkpt lat="44.61903" lon="2.9783">
        <ele>1307.05</ele>
        <time>2012-08-10T07:49:17Z</time>
      </trkpt>
      <trkpt lat="44.619" lon="2.97824">
        <ele>1306.57</ele>
        <time>2012-08-10T07:49:18Z</time>
      </trkpt>
      <trkpt lat="44.61898" lon="2.97818">
        <ele>1306.09</ele>
        <time>2012-08-10T07:49:19Z</time>
      </trkpt>
      <trkpt lat="44.61896" lon="2.97813">
        <ele>1306.09</ele>
        <time>2012-08-10T07:49:20Z</time>
      </trkpt>
      <trkpt lat="44.61893" lon="2.97805">
        <ele>1305.61</ele>
        <time>2012-08-10T07:49:22Z</time>
      </trkpt>
      <trkpt lat="44.61892" lon="2.97801">
        <ele>1305.61</ele>
        <time>2012-08-10T07:49:23Z</time>
      </trkpt>
      <trkpt lat="44.61892" lon="2.97797">
        <ele>1305.61</ele>
        <time>2012-08-10T07:49:24Z</time>
      </trkpt>
      <trkpt lat="44.6189" lon="2.97794">
        <ele>1305.61</ele>
        <time>2012-08-10T07:49:25Z</time>
      </trkpt>
      <trkpt lat="44.61889" lon="2.9779">
        <ele>1305.13</ele>
        <time>2012-08-10T07:49:26Z</time>
      </trkpt>
      <trkpt lat="44.61889" lon="2.97787">
        <ele>1305.13</ele>
        <time>2012-08-10T07:49:27Z</time>
      </trkpt>
      <trkpt lat="44.61887" lon="2.97783">
        <ele>1305.61</ele>
        <time>2012-08-10T07:49:28Z</time>
      </trkpt>
      <trkpt lat="44.61881" lon="2.97757">
        <ele>1305.13</ele>
        <time>2012-08-10T07:49:39Z</time>
      </trkpt>
      <trkpt lat="44.61879" lon="2.97755">
        <ele>1304.17</ele>
        <time>2012-08-10T07:49:54Z</time>
      </trkpt>
      <trkpt lat="44.61876" lon="2.97753">
        <ele>1304.65</ele>
        <time>2012-08-10T07:50:04Z</time>
      </trkpt>
      <trkpt lat="44.61875" lon="2.97743">
        <ele>1302.72</ele>
        <time>2012-08-10T07:50:16Z</time>
      </trkpt>
      <trkpt lat="44.61871" lon="2.97732">
        <ele>1301.76</ele>
        <time>2012-08-10T07:50:29Z</time>
      </trkpt>
      <trkpt lat="44.61871" lon="2.97727">
        <ele>1300.8</ele>
        <time>2012-08-10T07:50:36Z</time>
      </trkpt>
      <trkpt lat="44.6187" lon="2.97723">
        <ele>1300.8</ele>
        <time>2012-08-10T07:50:37Z</time>
      </trkpt>
      <trkpt lat="44.61868" lon="2.97713">
        <ele>1300.32</ele>
        <time>2012-08-10T07:50:39Z</time>
      </trkpt>
      <trkpt lat="44.61866" lon="2.97709">
        <ele>1299.84</ele>
        <time>2012-08-10T07:50:40Z</time>
      </trkpt>
      <trkpt lat="44.61865" lon="2.97705">
        <ele>1299.36</ele>
        <time>2012-08-10T07:50:41Z</time>
      </trkpt>
      <trkpt lat="44.61863" lon="2.97701">
        <ele>1299.36</ele>
        <time>2012-08-10T07:50:42Z</time>
      </trkpt>
      <trkpt lat="44.61861" lon="2.97698">
        <ele>1298.88</ele>
        <time>2012-08-10T07:50:43Z</time>
      </trkpt>
      <trkpt lat="44.61861" lon="2.97695">
        <ele>1298.88</ele>
        <time>2012-08-10T07:50:44Z</time>
      </trkpt>
      <trkpt lat="44.61861" lon="2.97693">
        <ele>1298.88</ele>
        <time>2012-08-10T07:50:45Z</time>
      </trkpt>
      <trkpt lat="44.6186" lon="2.97691">
        <ele>1298.4</ele>
        <time>2012-08-10T07:50:46Z</time>
      </trkpt>
      <trkpt lat="44.6186" lon="2.97689">
        <ele>1298.4</ele>
        <time>2012-08-10T07:50:47Z</time>
      </trkpt>
      <trkpt lat="44.61859" lon="2.97686">
        <ele>1297.44</ele>
        <time>2012-08-10T07:50:48Z</time>
      </trkpt>
      <trkpt lat="44.61858" lon="2.97682">
        <ele>1296.96</ele>
        <time>2012-08-10T07:50:49Z</time>
      </trkpt>
      <trkpt lat="44.61857" lon="2.97679">
        <ele>1296.96</ele>
        <time>2012-08-10T07:50:50Z</time>
      </trkpt>
      <trkpt lat="44.61856" lon="2.97676">
        <ele>1296.48</ele>
        <time>2012-08-10T07:50:51Z</time>
      </trkpt>
      <trkpt lat="44.61855" lon="2.97672">
        <ele>1296.48</ele>
        <time>2012-08-10T07:50:52Z</time>
      </trkpt>
      <trkpt lat="44.61855" lon="2.97669">
        <ele>1296.48</ele>
        <time>2012-08-10T07:50:53Z</time>
      </trkpt>
      <trkpt lat="44.61839" lon="2.97625">
        <ele>1295.99</ele>
        <time>2012-08-10T07:51:04Z</time>
      </trkpt>
      <trkpt lat="44.61821" lon="2.9758">
        <ele>1294.55</ele>
        <time>2012-08-10T07:51:14Z</time>
      </trkpt>
      <trkpt lat="44.61802" lon="2.9753">
        <ele>1294.07</ele>
        <time>2012-08-10T07:51:25Z</time>
      </trkpt>
      <trkpt lat="44.61781" lon="2.97507">
        <ele>1292.63</ele>
        <time>2012-08-10T07:51:35Z</time>
      </trkpt>
      <trkpt lat="44.61772" lon="2.97492">
        <ele>1289.75</ele>
        <time>2012-08-10T07:51:42Z</time>
      </trkpt>
      <trkpt lat="44.61772" lon="2.9749">
        <ele>1289.75</ele>
        <time>2012-08-10T07:51:43Z</time>
      </trkpt>
      <trkpt lat="44.61773" lon="2.97488">
        <ele>1289.27</ele>
        <time>2012-08-10T07:51:44Z</time>
      </trkpt>
      <trkpt lat="44.61773" lon="2.97486">
        <ele>1289.27</ele>
        <time>2012-08-10T07:51:45Z</time>
      </trkpt>
      <trkpt lat="44.61773" lon="2.97484">
        <ele>1288.78</ele>
        <time>2012-08-10T07:51:46Z</time>
      </trkpt>
      <trkpt lat="44.61773" lon="2.97481">
        <ele>1288.78</ele>
        <time>2012-08-10T07:51:47Z</time>
      </trkpt>
      <trkpt lat="44.61773" lon="2.97479">
        <ele>1288.78</ele>
        <time>2012-08-10T07:51:48Z</time>
      </trkpt>
      <trkpt lat="44.61772" lon="2.97476">
        <ele>1288.78</ele>
        <time>2012-08-10T07:51:49Z</time>
      </trkpt>
      <trkpt lat="44.61773" lon="2.97474">
        <ele>1288.3</ele>
        <time>2012-08-10T07:51:50Z</time>
      </trkpt>
      <trkpt lat="44.61773" lon="2.97471">
        <ele>1288.3</ele>
        <time>2012-08-10T07:51:51Z</time>
      </trkpt>
      <trkpt lat="44.61773" lon="2.97468">
        <ele>1287.82</ele>
        <time>2012-08-10T07:51:52Z</time>
      </trkpt>
      <trkpt lat="44.61774" lon="2.97466">
        <ele>1287.34</ele>
        <time>2012-08-10T07:51:53Z</time>
      </trkpt>
      <trkpt lat="44.61775" lon="2.97464">
        <ele>1287.34</ele>
        <time>2012-08-10T07:51:54Z</time>
      </trkpt>
      <trkpt lat="44.61775" lon="2.97462">
        <ele>1286.86</ele>
        <time>2012-08-10T07:51:55Z</time>
      </trkpt>
      <trkpt lat="44.61775" lon="2.97458">
        <ele>1286.86</ele>
        <time>2012-08-10T07:52:03Z</time>
      </trkpt>
      <trkpt lat="44.61779" lon="2.97453">
        <ele>1285.9</ele>
        <time>2012-08-10T07:52:08Z</time>
      </trkpt>
      <trkpt lat="44.61779" lon="2.97451">
        <ele>1286.38</ele>
        <time>2012-08-10T07:52:09Z</time>
      </trkpt>
      <trkpt lat="44.61779" lon="2.97449">
        <ele>1285.9</ele>
        <time>2012-08-10T07:52:10Z</time>
      </trkpt>
      <trkpt lat="44.6178" lon="2.97444">
        <ele>1285.9</ele>
        <time>2012-08-10T07:52:12Z</time>
      </trkpt>
      <trkpt lat="44.61779" lon="2.9744">
        <ele>1284.94</ele>
        <time>2012-08-10T07:52:14Z</time>
      </trkpt>
      <trkpt lat="44.61781" lon="2.97432">
        <ele>1282.54</ele>
        <time>2012-08-10T07:52:19Z</time>
      </trkpt>
      <trkpt lat="44.61785" lon="2.97428">
        <ele>1280.61</ele>
        <time>2012-08-10T07:52:25Z</time>
      </trkpt>
      <trkpt lat="44.61786" lon="2.97426">
        <ele>1279.65</ele>
        <time>2012-08-10T07:52:26Z</time>
      </trkpt>
      <trkpt lat="44.61788" lon="2.97423">
        <ele>1279.17</ele>
        <time>2012-08-10T07:52:27Z</time>
      </trkpt>
      <trkpt lat="44.6179" lon="2.97421">
        <ele>1278.69</ele>
        <time>2012-08-10T07:52:28Z</time>
      </trkpt>
      <trkpt lat="44.61792" lon="2.97418">
        <ele>1278.21</ele>
        <time>2012-08-10T07:52:29Z</time>
      </trkpt>
      <trkpt lat="44.61794" lon="2.97414">
        <ele>1277.73</ele>
        <time>2012-08-10T07:52:30Z</time>
      </trkpt>
      <trkpt lat="44.61795" lon="2.9741">
        <ele>1277.73</ele>
        <time>2012-08-10T07:52:31Z</time>
      </trkpt>
      <trkpt lat="44.61802" lon="2.97396">
        <ele>1276.77</ele>
        <time>2012-08-10T07:52:36Z</time>
      </trkpt>
      <trkpt lat="44.61802" lon="2.97393">
        <ele>1276.77</ele>
        <time>2012-08-10T07:52:37Z</time>
      </trkpt>
      <trkpt lat="44.61804" lon="2.97391">
        <ele>1276.29</ele>
        <time>2012-08-10T07:52:38Z</time>
      </trkpt>
      <trkpt lat="44.61805" lon="2.97388">
        <ele>1275.81</ele>
        <time>2012-08-10T07:52:39Z</time>
      </trkpt>
      <trkpt lat="44.61807" lon="2.97385">
        <ele>1275.33</ele>
        <time>2012-08-10T07:52:40Z</time>
      </trkpt>
      <trkpt lat="44.61815" lon="2.97361">
        <ele>1272.44</ele>
        <time>2012-08-10T07:52:48Z</time>
      </trkpt>
      <trkpt lat="44.61816" lon="2.97359">
        <ele>1271.96</ele>
        <time>2012-08-10T07:52:49Z</time>
      </trkpt>
      <trkpt lat="44.61817" lon="2.97356">
        <ele>1271.48</ele>
        <time>2012-08-10T07:52:50Z</time>
      </trkpt>
      <trkpt lat="44.61819" lon="2.97352">
        <ele>1270.52</ele>
        <time>2012-08-10T07:52:51Z</time>
      </trkpt>
      <trkpt lat="44.61821" lon="2.97348">
        <ele>1270.04</ele>
        <time>2012-08-10T07:52:52Z</time>
      </trkpt>
      <trkpt lat="44.61836" lon="2.97305">
        <ele>1265.23</ele>
        <time>2012-08-10T07:53:02Z</time>
      </trkpt>
      <trkpt lat="44.6185" lon="2.97279">
        <ele>1260.91</ele>
        <time>2012-08-10T07:53:10Z</time>
      </trkpt>
      <trkpt lat="44.61852" lon="2.97275">
        <ele>1260.43</ele>
        <time>2012-08-10T07:53:11Z</time>
      </trkpt>
      <trkpt lat="44.61854" lon="2.97271">
        <ele>1259.46</ele>
        <time>2012-08-10T07:53:12Z</time>
      </trkpt>
      <trkpt lat="44.61855" lon="2.97266">
        <ele>1258.98</ele>
        <time>2012-08-10T07:53:13Z</time>
      </trkpt>
      <trkpt lat="44.61855" lon="2.97262">
        <ele>1258.5</ele>
        <time>2012-08-10T07:53:14Z</time>
      </trkpt>
      <trkpt lat="44.61855" lon="2.97258">
        <ele>1258.02</ele>
        <time>2012-08-10T07:53:15Z</time>
      </trkpt>
      <trkpt lat="44.61856" lon="2.97255">
        <ele>1257.54</ele>
        <time>2012-08-10T07:53:16Z</time>
      </trkpt>
      <trkpt lat="44.61857" lon="2.97252">
        <ele>1257.54</ele>
        <time>2012-08-10T07:53:17Z</time>
      </trkpt>
      <trkpt lat="44.61858" lon="2.97248">
        <ele>1257.54</ele>
        <time>2012-08-10T07:53:18Z</time>
      </trkpt>
      <trkpt lat="44.61858" lon="2.97244">
        <ele>1257.54</ele>
        <time>2012-08-10T07:53:19Z</time>
      </trkpt>
      <trkpt lat="44.61858" lon="2.97238">
        <ele>1257.54</ele>
        <time>2012-08-10T07:53:20Z</time>
      </trkpt>
      <trkpt lat="44.61857" lon="2.97234">
        <ele>1258.02</ele>
        <time>2012-08-10T07:53:21Z</time>
      </trkpt>
      <trkpt lat="44.61857" lon="2.9723">
        <ele>1258.02</ele>
        <time>2012-08-10T07:53:22Z</time>
      </trkpt>
      <trkpt lat="44.61847" lon="2.97208">
        <ele>1258.5</ele>
        <time>2012-08-10T07:53:27Z</time>
      </trkpt>
      <trkpt lat="44.61844" lon="2.97203">
        <ele>1258.5</ele>
        <time>2012-08-10T07:53:28Z</time>
      </trkpt>
      <trkpt lat="44.61841" lon="2.97198">
        <ele>1258.98</ele>
        <time>2012-08-10T07:53:29Z</time>
      </trkpt>
      <trkpt lat="44.61829" lon="2.97167">
        <ele>1259.94</ele>
        <time>2012-08-10T07:53:38Z</time>
      </trkpt>
      <trkpt lat="44.61828" lon="2.97165">
        <ele>1260.43</ele>
        <time>2012-08-10T07:53:39Z</time>
      </trkpt>
      <trkpt lat="44.61827" lon="2.97162">
        <ele>1260.91</ele>
        <time>2012-08-10T07:53:41Z</time>
      </trkpt>
      <trkpt lat="44.61827" lon="2.97158">
        <ele>1260.91</ele>
        <time>2012-08-10T07:53:43Z</time>
      </trkpt>
      <trkpt lat="44.61826" lon="2.97149">
        <ele>1260.91</ele>
        <time>2012-08-10T07:53:48Z</time>
      </trkpt>
      <trkpt lat="44.61825" lon="2.97147">
        <ele>1260.91</ele>
        <time>2012-08-10T07:53:49Z</time>
      </trkpt>
      <trkpt lat="44.61824" lon="2.97144">
        <ele>1261.39</ele>
        <time>2012-08-10T07:53:50Z</time>
      </trkpt>
      <trkpt lat="44.61823" lon="2.97141">
        <ele>1261.39</ele>
        <time>2012-08-10T07:53:51Z</time>
      </trkpt>
      <trkpt lat="44.61823" lon="2.97137">
        <ele>1261.87</ele>
        <time>2012-08-10T07:53:52Z</time>
      </trkpt>
      <trkpt lat="44.6182" lon="2.97097">
        <ele>1261.39</ele>
        <time>2012-08-10T07:54:02Z</time>
      </trkpt>
      <trkpt lat="44.61808" lon="2.97045">
        <ele>1258.02</ele>
        <time>2012-08-10T07:54:13Z</time>
      </trkpt>
      <trkpt lat="44.61803" lon="2.97008">
        <ele>1254.66</ele>
        <time>2012-08-10T07:54:24Z</time>
      </trkpt>
      <trkpt lat="44.61801" lon="2.96999">
        <ele>1253.22</ele>
        <time>2012-08-10T07:54:27Z</time>
      </trkpt>
      <trkpt lat="44.618" lon="2.96996">
        <ele>1253.22</ele>
        <time>2012-08-10T07:54:28Z</time>
      </trkpt>
      <trkpt lat="44.61799" lon="2.96991">
        <ele>1252.74</ele>
        <time>2012-08-10T07:54:29Z</time>
      </trkpt>
      <trkpt lat="44.61798" lon="2.96986">
        <ele>1252.25</ele>
        <time>2012-08-10T07:54:30Z</time>
      </trkpt>
      <trkpt lat="44.61797" lon="2.96981">
        <ele>1251.77</ele>
        <time>2012-08-10T07:54:31Z</time>
      </trkpt>
      <trkpt lat="44.61785" lon="2.96948">
        <ele>1246.49</ele>
        <time>2012-08-10T07:54:40Z</time>
      </trkpt>
      <trkpt lat="44.61782" lon="2.96941">
        <ele>1245.53</ele>
        <time>2012-08-10T07:54:42Z</time>
      </trkpt>
      <trkpt lat="44.61781" lon="2.96937">
        <ele>1245.04</ele>
        <time>2012-08-10T07:54:43Z</time>
      </trkpt>
      <trkpt lat="44.6178" lon="2.96933">
        <ele>1244.56</ele>
        <time>2012-08-10T07:54:44Z</time>
      </trkpt>
      <trkpt lat="44.61779" lon="2.9693">
        <ele>1244.08</ele>
        <time>2012-08-10T07:54:45Z</time>
      </trkpt>
      <trkpt lat="44.61778" lon="2.96926">
        <ele>1243.6</ele>
        <time>2012-08-10T07:54:46Z</time>
      </trkpt>
      <trkpt lat="44.61777" lon="2.96922">
        <ele>1243.6</ele>
        <time>2012-08-10T07:54:47Z</time>
      </trkpt>
      <trkpt lat="44.61776" lon="2.96917">
        <ele>1242.64</ele>
        <time>2012-08-10T07:54:48Z</time>
      </trkpt>
      <trkpt lat="44.61774" lon="2.96902">
        <ele>1241.2</ele>
        <time>2012-08-10T07:54:52Z</time>
      </trkpt>
      <trkpt lat="44.61774" lon="2.96898">
        <ele>1240.72</ele>
        <time>2012-08-10T07:54:53Z</time>
      </trkpt>
      <trkpt lat="44.61775" lon="2.96894">
        <ele>1240.24</ele>
        <time>2012-08-10T07:54:54Z</time>
      </trkpt>
      <trkpt lat="44.61777" lon="2.96887">
        <ele>1239.28</ele>
        <time>2012-08-10T07:54:56Z</time>
      </trkpt>
      <trkpt lat="44.61774" lon="2.96865">
        <ele>1238.8</ele>
        <time>2012-08-10T07:55:07Z</time>
      </trkpt>
      <trkpt lat="44.61769" lon="2.96857">
        <ele>1238.32</ele>
        <time>2012-08-10T07:55:12Z</time>
      </trkpt>
      <trkpt lat="44.61766" lon="2.96855">
        <ele>1238.8</ele>
        <time>2012-08-10T07:55:13Z</time>
      </trkpt>
      <trkpt lat="44.61758" lon="2.96851">
        <ele>1238.8</ele>
        <time>2012-08-10T07:55:16Z</time>
      </trkpt>
      <trkpt lat="44.61757" lon="2.96849">
        <ele>1239.28</ele>
        <time>2012-08-10T07:55:17Z</time>
      </trkpt>
      <trkpt lat="44.61754" lon="2.96847">
        <ele>1239.28</ele>
        <time>2012-08-10T07:55:18Z</time>
      </trkpt>
      <trkpt lat="44.61752" lon="2.96846">
        <ele>1239.76</ele>
        <time>2012-08-10T07:55:19Z</time>
      </trkpt>
      <trkpt lat="44.6175" lon="2.96844">
        <ele>1239.76</ele>
        <time>2012-08-10T07:55:20Z</time>
      </trkpt>
      <trkpt lat="44.61712" lon="2.96808">
        <ele>1242.16</ele>
        <time>2012-08-10T07:55:35Z</time>
      </trkpt>
      <trkpt lat="44.61699" lon="2.968">
        <ele>1241.2</ele>
        <time>2012-08-10T07:55:44Z</time>
      </trkpt>
      <trkpt lat="44.61677" lon="2.96784">
        <ele>1239.76</ele>
        <time>2012-08-10T07:55:53Z</time>
      </trkpt>
      <trkpt lat="44.61668" lon="2.96776">
        <ele>1238.8</ele>
        <time>2012-08-10T07:55:56Z</time>
      </trkpt>
      <trkpt lat="44.61666" lon="2.96773">
        <ele>1238.32</ele>
        <time>2012-08-10T07:55:57Z</time>
      </trkpt>
      <trkpt lat="44.61664" lon="2.96772">
        <ele>1238.32</ele>
        <time>2012-08-10T07:55:58Z</time>
      </trkpt>
      <trkpt lat="44.61662" lon="2.9677">
        <ele>1238.32</ele>
        <time>2012-08-10T07:55:59Z</time>
      </trkpt>
      <trkpt lat="44.6166" lon="2.96769">
        <ele>1237.83</ele>
        <time>2012-08-10T07:56:00Z</time>
      </trkpt>
      <trkpt lat="44.61658" lon="2.96767">
        <ele>1237.83</ele>
        <time>2012-08-10T07:56:01Z</time>
      </trkpt>
      <trkpt lat="44.61656" lon="2.96765">
        <ele>1237.83</ele>
        <time>2012-08-10T07:56:02Z</time>
      </trkpt>
      <trkpt lat="44.61654" lon="2.96764">
        <ele>1237.83</ele>
        <time>2012-08-10T07:56:03Z</time>
      </trkpt>
      <trkpt lat="44.61632" lon="2.96742">
        <ele>1236.39</ele>
        <time>2012-08-10T07:56:14Z</time>
      </trkpt>
      <trkpt lat="44.6163" lon="2.9674">
        <ele>1235.91</ele>
        <time>2012-08-10T07:56:15Z</time>
      </trkpt>
      <trkpt lat="44.61627" lon="2.96738">
        <ele>1235.43</ele>
        <time>2012-08-10T07:56:16Z</time>
      </trkpt>
      <trkpt lat="44.61625" lon="2.96736">
        <ele>1234.95</ele>
        <time>2012-08-10T07:56:17Z</time>
      </trkpt>
      <trkpt lat="44.61623" lon="2.96733">
        <ele>1234.95</ele>
        <time>2012-08-10T07:56:18Z</time>
      </trkpt>
      <trkpt lat="44.61621" lon="2.9673">
        <ele>1234.47</ele>
        <time>2012-08-10T07:56:19Z</time>
      </trkpt>
      <trkpt lat="44.61618" lon="2.96727">
        <ele>1234.47</ele>
        <time>2012-08-10T07:56:20Z</time>
      </trkpt>
      <trkpt lat="44.61596" lon="2.96703">
        <ele>1232.55</ele>
        <time>2012-08-10T07:56:30Z</time>
      </trkpt>
      <trkpt lat="44.61583" lon="2.96687">
        <ele>1232.07</ele>
        <time>2012-08-10T07:56:37Z</time>
      </trkpt>
      <trkpt lat="44.6158" lon="2.96686">
        <ele>1232.07</ele>
        <time>2012-08-10T07:56:38Z</time>
      </trkpt>
      <trkpt lat="44.61555" lon="2.96671">
        <ele>1228.22</ele>
        <time>2012-08-10T07:56:49Z</time>
      </trkpt>
      <trkpt lat="44.61541" lon="2.96657">
        <ele>1223.42</ele>
        <time>2012-08-10T07:56:59Z</time>
      </trkpt>
      <trkpt lat="44.61531" lon="2.96649">
        <ele>1221.01</ele>
        <time>2012-08-10T07:57:05Z</time>
      </trkpt>
      <trkpt lat="44.6153" lon="2.96648">
        <ele>1220.53</ele>
        <time>2012-08-10T07:57:06Z</time>
      </trkpt>
      <trkpt lat="44.61529" lon="2.96646">
        <ele>1220.05</ele>
        <time>2012-08-10T07:57:07Z</time>
      </trkpt>
      <trkpt lat="44.61527" lon="2.96645">
        <ele>1219.57</ele>
        <time>2012-08-10T07:57:08Z</time>
      </trkpt>
      <trkpt lat="44.61525" lon="2.96644">
        <ele>1219.57</ele>
        <time>2012-08-10T07:57:09Z</time>
      </trkpt>
      <trkpt lat="44.61523" lon="2.96642">
        <ele>1219.09</ele>
        <time>2012-08-10T07:57:10Z</time>
      </trkpt>
      <trkpt lat="44.61521" lon="2.96641">
        <ele>1218.61</ele>
        <time>2012-08-10T07:57:11Z</time>
      </trkpt>
      <trkpt lat="44.61519" lon="2.9664">
        <ele>1218.13</ele>
        <time>2012-08-10T07:57:12Z</time>
      </trkpt>
      <trkpt lat="44.61516" lon="2.96639">
        <ele>1217.65</ele>
        <time>2012-08-10T07:57:13Z</time>
      </trkpt>
      <trkpt lat="44.61514" lon="2.96637">
        <ele>1217.17</ele>
        <time>2012-08-10T07:57:14Z</time>
      </trkpt>
      <trkpt lat="44.61511" lon="2.96635">
        <ele>1216.69</ele>
        <time>2012-08-10T07:57:15Z</time>
      </trkpt>
      <trkpt lat="44.6151" lon="2.96634">
        <ele>1216.21</ele>
        <time>2012-08-10T07:57:16Z</time>
      </trkpt>
      <trkpt lat="44.61508" lon="2.96632">
        <ele>1216.21</ele>
        <time>2012-08-10T07:57:17Z</time>
      </trkpt>
      <trkpt lat="44.61506" lon="2.96631">
        <ele>1216.21</ele>
        <time>2012-08-10T07:57:18Z</time>
      </trkpt>
      <trkpt lat="44.61481" lon="2.96612">
        <ele>1214.28</ele>
        <time>2012-08-10T07:57:28Z</time>
      </trkpt>
      <trkpt lat="44.61467" lon="2.96599">
        <ele>1212.84</ele>
        <time>2012-08-10T07:57:34Z</time>
      </trkpt>
      <trkpt lat="44.61465" lon="2.96596">
        <ele>1212.36</ele>
        <time>2012-08-10T07:57:35Z</time>
      </trkpt>
      <trkpt lat="44.61463" lon="2.96594">
        <ele>1212.36</ele>
        <time>2012-08-10T07:57:36Z</time>
      </trkpt>
      <trkpt lat="44.61435" lon="2.96559">
        <ele>1211.88</ele>
        <time>2012-08-10T07:57:47Z</time>
      </trkpt>
      <trkpt lat="44.61409" lon="2.96536">
        <ele>1209.48</ele>
        <time>2012-08-10T07:57:58Z</time>
      </trkpt>
      <trkpt lat="44.61396" lon="2.96531">
        <ele>1209</ele>
        <time>2012-08-10T07:58:05Z</time>
      </trkpt>
      <trkpt lat="44.61394" lon="2.96532">
        <ele>1209</ele>
        <time>2012-08-10T07:58:06Z</time>
      </trkpt>
      <trkpt lat="44.61393" lon="2.96532">
        <ele>1208.51</ele>
        <time>2012-08-10T07:58:07Z</time>
      </trkpt>
      <trkpt lat="44.61391" lon="2.96532">
        <ele>1208.51</ele>
        <time>2012-08-10T07:58:08Z</time>
      </trkpt>
      <trkpt lat="44.61389" lon="2.96532">
        <ele>1208.03</ele>
        <time>2012-08-10T07:58:09Z</time>
      </trkpt>
      <trkpt lat="44.61387" lon="2.96532">
        <ele>1208.03</ele>
        <time>2012-08-10T07:58:10Z</time>
      </trkpt>
      <trkpt lat="44.61349" lon="2.96522">
        <ele>1207.55</ele>
        <time>2012-08-10T07:58:20Z</time>
      </trkpt>
      <trkpt lat="44.61304" lon="2.96507">
        <ele>1206.11</ele>
        <time>2012-08-10T07:58:32Z</time>
      </trkpt>
      <trkpt lat="44.61296" lon="2.96504">
        <ele>1205.15</ele>
        <time>2012-08-10T07:58:36Z</time>
      </trkpt>
      <trkpt lat="44.61294" lon="2.96503">
        <ele>1204.67</ele>
        <time>2012-08-10T07:58:37Z</time>
      </trkpt>
      <trkpt lat="44.61255" lon="2.96492">
        <ele>1202.75</ele>
        <time>2012-08-10T07:58:52Z</time>
      </trkpt>
      <trkpt lat="44.61244" lon="2.96489">
        <ele>1202.27</ele>
        <time>2012-08-10T07:58:56Z</time>
      </trkpt>
      <trkpt lat="44.61242" lon="2.96488">
        <ele>1202.27</ele>
        <time>2012-08-10T07:58:57Z</time>
      </trkpt>
      <trkpt lat="44.61226" lon="2.96484">
        <ele>1200.82</ele>
        <time>2012-08-10T07:59:06Z</time>
      </trkpt>
      <trkpt lat="44.612" lon="2.96476">
        <ele>1201.3</ele>
        <time>2012-08-10T07:59:17Z</time>
      </trkpt>
      <trkpt lat="44.61155" lon="2.96463">
        <ele>1199.86</ele>
        <time>2012-08-10T07:59:30Z</time>
      </trkpt>
      <trkpt lat="44.6112" lon="2.96452">
        <ele>1198.9</ele>
        <time>2012-08-10T07:59:40Z</time>
      </trkpt>
      <trkpt lat="44.61081" lon="2.96439">
        <ele>1198.42</ele>
        <time>2012-08-10T07:59:51Z</time>
      </trkpt>
      <trkpt lat="44.61046" lon="2.96424">
        <ele>1196.98</ele>
        <time>2012-08-10T08:00:02Z</time>
      </trkpt>
      <trkpt lat="44.61028" lon="2.96396">
        <ele>1193.61</ele>
        <time>2012-08-10T08:00:11Z</time>
      </trkpt>
      <trkpt lat="44.61028" lon="2.96393">
        <ele>1193.61</ele>
        <time>2012-08-10T08:00:12Z</time>
      </trkpt>
      <trkpt lat="44.61026" lon="2.96383">
        <ele>1194.09</ele>
        <time>2012-08-10T08:00:15Z</time>
      </trkpt>
      <trkpt lat="44.61021" lon="2.96339">
        <ele>1196.02</ele>
        <time>2012-08-10T08:00:26Z</time>
      </trkpt>
      <trkpt lat="44.61015" lon="2.96296">
        <ele>1195.54</ele>
        <time>2012-08-10T08:00:35Z</time>
      </trkpt>
      <trkpt lat="44.61013" lon="2.9629">
        <ele>1195.06</ele>
        <time>2012-08-10T08:00:36Z</time>
      </trkpt>
      <trkpt lat="44.61012" lon="2.96284">
        <ele>1194.58</ele>
        <time>2012-08-10T08:00:37Z</time>
      </trkpt>
      <trkpt lat="44.6101" lon="2.96277">
        <ele>1194.09</ele>
        <time>2012-08-10T08:00:38Z</time>
      </trkpt>
      <trkpt lat="44.61007" lon="2.96271">
        <ele>1193.61</ele>
        <time>2012-08-10T08:00:39Z</time>
      </trkpt>
      <trkpt lat="44.61003" lon="2.96261">
        <ele>1192.65</ele>
        <time>2012-08-10T08:00:41Z</time>
      </trkpt>
      <trkpt lat="44.60998" lon="2.96244">
        <ele>1192.17</ele>
        <time>2012-08-10T08:00:44Z</time>
      </trkpt>
      <trkpt lat="44.60991" lon="2.96212">
        <ele>1192.17</ele>
        <time>2012-08-10T08:00:50Z</time>
      </trkpt>
      <trkpt lat="44.6099" lon="2.96207">
        <ele>1192.17</ele>
        <time>2012-08-10T08:00:51Z</time>
      </trkpt>
      <trkpt lat="44.60989" lon="2.96202">
        <ele>1192.17</ele>
        <time>2012-08-10T08:00:52Z</time>
      </trkpt>
      <trkpt lat="44.60987" lon="2.96197">
        <ele>1192.17</ele>
        <time>2012-08-10T08:00:53Z</time>
      </trkpt>
      <trkpt lat="44.60986" lon="2.96193">
        <ele>1192.17</ele>
        <time>2012-08-10T08:00:54Z</time>
      </trkpt>
      <trkpt lat="44.60967" lon="2.96123">
        <ele>1194.09</ele>
        <time>2012-08-10T08:01:07Z</time>
      </trkpt>
      <trkpt lat="44.60964" lon="2.96119">
        <ele>1193.61</ele>
        <time>2012-08-10T08:01:08Z</time>
      </trkpt>
      <trkpt lat="44.60961" lon="2.96115">
        <ele>1193.61</ele>
        <time>2012-08-10T08:01:09Z</time>
      </trkpt>
      <trkpt lat="44.60952" lon="2.96103">
        <ele>1193.61</ele>
        <time>2012-08-10T08:01:12Z</time>
      </trkpt>
      <trkpt lat="44.60949" lon="2.961">
        <ele>1193.61</ele>
        <time>2012-08-10T08:01:13Z</time>
      </trkpt>
      <trkpt lat="44.60945" lon="2.96098">
        <ele>1193.61</ele>
        <time>2012-08-10T08:01:14Z</time>
      </trkpt>
      <trkpt lat="44.60942" lon="2.96096">
        <ele>1193.61</ele>
        <time>2012-08-10T08:01:15Z</time>
      </trkpt>
      <trkpt lat="44.60938" lon="2.96094">
        <ele>1193.61</ele>
        <time>2012-08-10T08:01:16Z</time>
      </trkpt>
      <trkpt lat="44.60934" lon="2.96092">
        <ele>1193.61</ele>
        <time>2012-08-10T08:01:17Z</time>
      </trkpt>
      <trkpt lat="44.6089" lon="2.96084">
        <ele>1193.61</ele>
        <time>2012-08-10T08:01:28Z</time>
      </trkpt>
      <trkpt lat="44.60886" lon="2.96083">
        <ele>1193.61</ele>
        <time>2012-08-10T08:01:29Z</time>
      </trkpt>
      <trkpt lat="44.60883" lon="2.96081">
        <ele>1194.09</ele>
        <time>2012-08-10T08:01:30Z</time>
      </trkpt>
      <trkpt lat="44.60879" lon="2.96079">
        <ele>1194.09</ele>
        <time>2012-08-10T08:01:31Z</time>
      </trkpt>
      <trkpt lat="44.60876" lon="2.96076">
        <ele>1194.58</ele>
        <time>2012-08-10T08:01:32Z</time>
      </trkpt>
      <trkpt lat="44.60854" lon="2.96046">
        <ele>1196.98</ele>
        <time>2012-08-10T08:01:45Z</time>
      </trkpt>
      <trkpt lat="44.60841" lon="2.96017">
        <ele>1197.46</ele>
        <time>2012-08-10T08:02:00Z</time>
      </trkpt>
      <trkpt lat="44.60843" lon="2.95974">
        <ele>1199.86</ele>
        <time>2012-08-10T08:02:16Z</time>
      </trkpt>
      <trkpt lat="44.60839" lon="2.95934">
        <ele>1200.34</ele>
        <time>2012-08-10T08:02:30Z</time>
      </trkpt>
      <trkpt lat="44.60824" lon="2.95884">
        <ele>1199.86</ele>
        <time>2012-08-10T08:02:44Z</time>
      </trkpt>
      <trkpt lat="44.60818" lon="2.95872">
        <ele>1197.94</ele>
        <time>2012-08-10T08:02:49Z</time>
      </trkpt>
      <trkpt lat="44.60818" lon="2.9587">
        <ele>1197.94</ele>
        <time>2012-08-10T08:02:50Z</time>
      </trkpt>
      <trkpt lat="44.60818" lon="2.95869">
        <ele>1196.5</ele>
        <time>2012-08-10T08:03:01Z</time>
      </trkpt>
      <trkpt lat="44.60817" lon="2.95867">
        <ele>1196.5</ele>
        <time>2012-08-10T08:03:02Z</time>
      </trkpt>
      <trkpt lat="44.60817" lon="2.95865">
        <ele>1196.02</ele>
        <time>2012-08-10T08:03:03Z</time>
      </trkpt>
      <trkpt lat="44.60815" lon="2.95862">
        <ele>1196.02</ele>
        <time>2012-08-10T08:03:04Z</time>
      </trkpt>
      <trkpt lat="44.60813" lon="2.95859">
        <ele>1195.54</ele>
        <time>2012-08-10T08:03:05Z</time>
      </trkpt>
      <trkpt lat="44.6081" lon="2.95857">
        <ele>1195.54</ele>
        <time>2012-08-10T08:03:06Z</time>
      </trkpt>
      <trkpt lat="44.60782" lon="2.95816">
        <ele>1193.61</ele>
        <time>2012-08-10T08:03:17Z</time>
      </trkpt>
      <trkpt lat="44.6078" lon="2.95811">
        <ele>1193.13</ele>
        <time>2012-08-10T08:03:18Z</time>
      </trkpt>
      <trkpt lat="44.6077" lon="2.95773">
        <ele>1191.21</ele>
        <time>2012-08-10T08:03:25Z</time>
      </trkpt>
      <trkpt lat="44.60768" lon="2.95768">
        <ele>1191.21</ele>
        <time>2012-08-10T08:03:26Z</time>
      </trkpt>
      <trkpt lat="44.60757" lon="2.95751">
        <ele>1189.77</ele>
        <time>2012-08-10T08:03:30Z</time>
      </trkpt>
      <trkpt lat="44.60754" lon="2.95748">
        <ele>1189.29</ele>
        <time>2012-08-10T08:03:31Z</time>
      </trkpt>
      <trkpt lat="44.60746" lon="2.9574">
        <ele>1188.33</ele>
        <time>2012-08-10T08:03:33Z</time>
      </trkpt>
      <trkpt lat="44.60743" lon="2.95738">
        <ele>1187.85</ele>
        <time>2012-08-10T08:03:34Z</time>
      </trkpt>
      <trkpt lat="44.6074" lon="2.95737">
        <ele>1187.37</ele>
        <time>2012-08-10T08:03:35Z</time>
      </trkpt>
      <trkpt lat="44.60738" lon="2.95737">
        <ele>1187.37</ele>
        <time>2012-08-10T08:03:36Z</time>
      </trkpt>
      <trkpt lat="44.60737" lon="2.95737">
        <ele>1186.88</ele>
        <time>2012-08-10T08:03:37Z</time>
      </trkpt>
      <trkpt lat="44.60736" lon="2.95736">
        <ele>1186.88</ele>
        <time>2012-08-10T08:03:38Z</time>
      </trkpt>
      <trkpt lat="44.60734" lon="2.95736">
        <ele>1186.88</ele>
        <time>2012-08-10T08:03:39Z</time>
      </trkpt>
      <trkpt lat="44.60733" lon="2.95735">
        <ele>1186.88</ele>
        <time>2012-08-10T08:03:40Z</time>
      </trkpt>
      <trkpt lat="44.60731" lon="2.95735">
        <ele>1186.88</ele>
        <time>2012-08-10T08:03:41Z</time>
      </trkpt>
      <trkpt lat="44.60729" lon="2.95734">
        <ele>1186.88</ele>
        <time>2012-08-10T08:03:42Z</time>
      </trkpt>
      <trkpt lat="44.60727" lon="2.95733">
        <ele>1186.88</ele>
        <time>2012-08-10T08:03:43Z</time>
      </trkpt>
      <trkpt lat="44.60721" lon="2.9573">
        <ele>1186.88</ele>
        <time>2012-08-10T08:03:47Z</time>
      </trkpt>
      <trkpt lat="44.6072" lon="2.95728">
        <ele>1186.88</ele>
        <time>2012-08-10T08:03:48Z</time>
      </trkpt>
      <trkpt lat="44.60718" lon="2.95728">
        <ele>1186.4</ele>
        <time>2012-08-10T08:03:49Z</time>
      </trkpt>
      <trkpt lat="44.60717" lon="2.95728">
        <ele>1185.92</ele>
        <time>2012-08-10T08:03:50Z</time>
      </trkpt>
      <trkpt lat="44.60715" lon="2.95728">
        <ele>1185.44</ele>
        <time>2012-08-10T08:03:51Z</time>
      </trkpt>
      <trkpt lat="44.60712" lon="2.95727">
        <ele>1184.96</ele>
        <time>2012-08-10T08:03:52Z</time>
      </trkpt>
      <trkpt lat="44.60689" lon="2.95722">
        <ele>1183.04</ele>
        <time>2012-08-10T08:04:00Z</time>
      </trkpt>
      <trkpt lat="44.60672" lon="2.95717">
        <ele>1181.6</ele>
        <time>2012-08-10T08:04:07Z</time>
      </trkpt>
      <trkpt lat="44.60669" lon="2.95716">
        <ele>1181.12</ele>
        <time>2012-08-10T08:04:08Z</time>
      </trkpt>
      <trkpt lat="44.60643" lon="2.95699">
        <ele>1180.16</ele>
        <time>2012-08-10T08:04:19Z</time>
      </trkpt>
      <trkpt lat="44.60635" lon="2.95696">
        <ele>1179.67</ele>
        <time>2012-08-10T08:04:22Z</time>
      </trkpt>
      <trkpt lat="44.60604" lon="2.95673">
        <ele>1175.35</ele>
        <time>2012-08-10T08:04:33Z</time>
      </trkpt>
      <trkpt lat="44.60583" lon="2.95656">
        <ele>1171.98</ele>
        <time>2012-08-10T08:04:42Z</time>
      </trkpt>
      <trkpt lat="44.60581" lon="2.95653">
        <ele>1171.02</ele>
        <time>2012-08-10T08:04:43Z</time>
      </trkpt>
      <trkpt lat="44.60579" lon="2.9565">
        <ele>1171.02</ele>
        <time>2012-08-10T08:04:44Z</time>
      </trkpt>
      <trkpt lat="44.60577" lon="2.95649">
        <ele>1170.54</ele>
        <time>2012-08-10T08:04:45Z</time>
      </trkpt>
      <trkpt lat="44.60575" lon="2.95648">
        <ele>1170.54</ele>
        <time>2012-08-10T08:04:46Z</time>
      </trkpt>
      <trkpt lat="44.60573" lon="2.95647">
        <ele>1170.06</ele>
        <time>2012-08-10T08:04:47Z</time>
      </trkpt>
      <trkpt lat="44.60571" lon="2.95645">
        <ele>1170.06</ele>
        <time>2012-08-10T08:04:48Z</time>
      </trkpt>
      <trkpt lat="44.6057" lon="2.95643">
        <ele>1170.06</ele>
        <time>2012-08-10T08:04:49Z</time>
      </trkpt>
      <trkpt lat="44.60569" lon="2.9564">
        <ele>1170.06</ele>
        <time>2012-08-10T08:04:50Z</time>
      </trkpt>
      <trkpt lat="44.60567" lon="2.95638">
        <ele>1170.06</ele>
        <time>2012-08-10T08:04:51Z</time>
      </trkpt>
      <trkpt lat="44.60566" lon="2.95636">
        <ele>1170.06</ele>
        <time>2012-08-10T08:04:52Z</time>
      </trkpt>
      <trkpt lat="44.60564" lon="2.95633">
        <ele>1170.06</ele>
        <time>2012-08-10T08:04:53Z</time>
      </trkpt>
      <trkpt lat="44.60562" lon="2.95631">
        <ele>1169.58</ele>
        <time>2012-08-10T08:04:54Z</time>
      </trkpt>
      <trkpt lat="44.60546" lon="2.95601">
        <ele>1164.29</ele>
        <time>2012-08-10T08:05:05Z</time>
      </trkpt>
      <trkpt lat="44.60554" lon="2.95571">
        <ele>1160.93</ele>
        <time>2012-08-10T08:05:15Z</time>
      </trkpt>
      <trkpt lat="44.60554" lon="2.95568">
        <ele>1160.93</ele>
        <time>2012-08-10T08:05:16Z</time>
      </trkpt>
      <trkpt lat="44.60553" lon="2.95565">
        <ele>1160.93</ele>
        <time>2012-08-10T08:05:17Z</time>
      </trkpt>
      <trkpt lat="44.6055" lon="2.95542">
        <ele>1160.45</ele>
        <time>2012-08-10T08:05:24Z</time>
      </trkpt>
      <trkpt lat="44.6055" lon="2.95539">
        <ele>1159.97</ele>
        <time>2012-08-10T08:05:25Z</time>
      </trkpt>
      <trkpt lat="44.60549" lon="2.95536">
        <ele>1159.49</ele>
        <time>2012-08-10T08:05:26Z</time>
      </trkpt>
      <trkpt lat="44.60548" lon="2.95534">
        <ele>1159.01</ele>
        <time>2012-08-10T08:05:27Z</time>
      </trkpt>
      <trkpt lat="44.60546" lon="2.95532">
        <ele>1158.53</ele>
        <time>2012-08-10T08:05:28Z</time>
      </trkpt>
      <trkpt lat="44.60544" lon="2.95531">
        <ele>1158.53</ele>
        <time>2012-08-10T08:05:29Z</time>
      </trkpt>
      <trkpt lat="44.60542" lon="2.95531">
        <ele>1157.56</ele>
        <time>2012-08-10T08:05:30Z</time>
      </trkpt>
      <trkpt lat="44.6054" lon="2.9553">
        <ele>1157.08</ele>
        <time>2012-08-10T08:05:31Z</time>
      </trkpt>
      <trkpt lat="44.60538" lon="2.95529">
        <ele>1157.08</ele>
        <time>2012-08-10T08:05:32Z</time>
      </trkpt>
      <trkpt lat="44.60536" lon="2.95528">
        <ele>1156.6</ele>
        <time>2012-08-10T08:05:33Z</time>
      </trkpt>
      <trkpt lat="44.6051" lon="2.95521">
        <ele>1153.24</ele>
        <time>2012-08-10T08:05:43Z</time>
      </trkpt>
      <trkpt lat="44.60482" lon="2.95506">
        <ele>1151.8</ele>
        <time>2012-08-10T08:05:51Z</time>
      </trkpt>
      <trkpt lat="44.60474" lon="2.95502">
        <ele>1151.8</ele>
        <time>2012-08-10T08:05:53Z</time>
      </trkpt>
      <trkpt lat="44.6047" lon="2.95499">
        <ele>1151.32</ele>
        <time>2012-08-10T08:05:54Z</time>
      </trkpt>
      <trkpt lat="44.60465" lon="2.95496">
        <ele>1151.32</ele>
        <time>2012-08-10T08:05:55Z</time>
      </trkpt>
      <trkpt lat="44.60461" lon="2.95494">
        <ele>1151.32</ele>
        <time>2012-08-10T08:05:56Z</time>
      </trkpt>
      <trkpt lat="44.60458" lon="2.95492">
        <ele>1151.32</ele>
        <time>2012-08-10T08:05:57Z</time>
      </trkpt>
      <trkpt lat="44.60455" lon="2.95489">
        <ele>1150.84</ele>
        <time>2012-08-10T08:05:58Z</time>
      </trkpt>
      <trkpt lat="44.60453" lon="2.95485">
        <ele>1150.84</ele>
        <time>2012-08-10T08:05:59Z</time>
      </trkpt>
      <trkpt lat="44.60451" lon="2.95481">
        <ele>1150.35</ele>
        <time>2012-08-10T08:06:00Z</time>
      </trkpt>
      <trkpt lat="44.60449" lon="2.95477">
        <ele>1149.87</ele>
        <time>2012-08-10T08:06:01Z</time>
      </trkpt>
      <trkpt lat="44.60447" lon="2.95474">
        <ele>1149.39</ele>
        <time>2012-08-10T08:06:02Z</time>
      </trkpt>
      <trkpt lat="44.60444" lon="2.95473">
        <ele>1148.91</ele>
        <time>2012-08-10T08:06:03Z</time>
      </trkpt>
      <trkpt lat="44.60442" lon="2.95474">
        <ele>1147.95</ele>
        <time>2012-08-10T08:06:04Z</time>
      </trkpt>
      <trkpt lat="44.60441" lon="2.95474">
        <ele>1147.47</ele>
        <time>2012-08-10T08:06:05Z</time>
      </trkpt>
      <trkpt lat="44.6044" lon="2.95475">
        <ele>1146.99</ele>
        <time>2012-08-10T08:06:06Z</time>
      </trkpt>
      <trkpt lat="44.60439" lon="2.95475">
        <ele>1146.51</ele>
        <time>2012-08-10T08:06:07Z</time>
      </trkpt>
      <trkpt lat="44.60437" lon="2.95475">
        <ele>1145.55</ele>
        <time>2012-08-10T08:06:09Z</time>
      </trkpt>
      <trkpt lat="44.60436" lon="2.95474">
        <ele>1145.07</ele>
        <time>2012-08-10T08:06:11Z</time>
      </trkpt>
      <trkpt lat="44.60436" lon="2.95473">
        <ele>1145.55</ele>
        <time>2012-08-10T08:06:25Z</time>
      </trkpt>
      <trkpt lat="44.60431" lon="2.9547">
        <ele>1146.03</ele>
        <time>2012-08-10T08:06:29Z</time>
      </trkpt>
      <trkpt lat="44.60407" lon="2.95484">
        <ele>1143.14</ele>
        <time>2012-08-10T08:06:39Z</time>
      </trkpt>
      <trkpt lat="44.60405" lon="2.95486">
        <ele>1142.18</ele>
        <time>2012-08-10T08:06:46Z</time>
      </trkpt>
      <trkpt lat="44.604" lon="2.9549">
        <ele>1142.66</ele>
        <time>2012-08-10T08:06:57Z</time>
      </trkpt>
      <trkpt lat="44.60399" lon="2.95491">
        <ele>1142.66</ele>
        <time>2012-08-10T08:07:10Z</time>
      </trkpt>
      <trkpt lat="44.60398" lon="2.95492">
        <ele>1142.18</ele>
        <time>2012-08-10T08:07:26Z</time>
      </trkpt>
      <trkpt lat="44.60397" lon="2.95499">
        <ele>1141.22</ele>
        <time>2012-08-10T08:07:44Z</time>
      </trkpt>
      <trkpt lat="44.60397" lon="2.95507">
        <ele>1139.3</ele>
        <time>2012-08-10T08:07:54Z</time>
      </trkpt>
      <trkpt lat="44.60402" lon="2.95518">
        <ele>1139.78</ele>
        <time>2012-08-10T08:08:07Z</time>
      </trkpt>
      <trkpt lat="44.60406" lon="2.95526">
        <ele>1136.42</ele>
        <time>2012-08-10T08:08:19Z</time>
      </trkpt>
      <trkpt lat="44.60413" lon="2.95535">
        <ele>1133.53</ele>
        <time>2012-08-10T08:08:32Z</time>
      </trkpt>
      <trkpt lat="44.60414" lon="2.95537">
        <ele>1133.53</ele>
        <time>2012-08-10T08:08:34Z</time>
      </trkpt>
      <trkpt lat="44.60421" lon="2.95546">
        <ele>1134.01</ele>
        <time>2012-08-10T08:08:45Z</time>
      </trkpt>
      <trkpt lat="44.60423" lon="2.95553">
        <ele>1133.05</ele>
        <time>2012-08-10T08:08:53Z</time>
      </trkpt>
      <trkpt lat="44.60425" lon="2.95556">
        <ele>1132.57</ele>
        <time>2012-08-10T08:09:09Z</time>
      </trkpt>
      <trkpt lat="44.60425" lon="2.95557">
        <ele>1132.57</ele>
        <time>2012-08-10T08:09:44Z</time>
      </trkpt>
      <trkpt lat="44.60425" lon="2.95556">
        <ele>1132.57</ele>
        <time>2012-08-10T08:10:13Z</time>
      </trkpt>
      <trkpt lat="44.60424" lon="2.95556">
        <ele>1132.57</ele>
        <time>2012-08-10T08:10:38Z</time>
      </trkpt>
      <trkpt lat="44.60424" lon="2.95557">
        <ele>1133.53</ele>
        <time>2012-08-10T08:11:01Z</time>
      </trkpt>
      <trkpt lat="44.60423" lon="2.95558">
        <ele>1132.57</ele>
        <time>2012-08-10T08:11:30Z</time>
      </trkpt>
      <trkpt lat="44.60423" lon="2.95559">
        <ele>1132.09</ele>
        <time>2012-08-10T08:12:08Z</time>
      </trkpt>
      <trkpt lat="44.60423" lon="2.95559">
        <ele>1132.57</ele>
        <time>2012-08-10T08:12:44Z</time>
      </trkpt>
      <trkpt lat="44.60423" lon="2.9556">
        <ele>1133.53</ele>
        <time>2012-08-10T08:13:20Z</time>
      </trkpt>
      <trkpt lat="44.60424" lon="2.95561">
        <ele>1134.01</ele>
        <time>2012-08-10T08:13:56Z</time>
      </trkpt>
      <trkpt lat="44.60423" lon="2.95561">
        <ele>1133.53</ele>
        <time>2012-08-10T08:14:24Z</time>
      </trkpt>
      <trkpt lat="44.60424" lon="2.95562">
        <ele>1133.53</ele>
        <time>2012-08-10T08:14:49Z</time>
      </trkpt>
      <trkpt lat="44.60424" lon="2.95562">
        <ele>1134.01</ele>
        <time>2012-08-10T08:15:21Z</time>
      </trkpt>
      <trkpt lat="44.60424" lon="2.95562">
        <ele>1134.49</ele>
        <time>2012-08-10T08:15:46Z</time>
      </trkpt>
      <trkpt lat="44.60425" lon="2.95562">
        <ele>1134.49</ele>
        <time>2012-08-10T08:16:13Z</time>
      </trkpt>
      <trkpt lat="44.60424" lon="2.95561">
        <ele>1134.49</ele>
        <time>2012-08-10T08:16:44Z</time>
      </trkpt>
      <trkpt lat="44.60423" lon="2.9556">
        <ele>1134.01</ele>
        <time>2012-08-10T08:17:09Z</time>
      </trkpt>
      <trkpt lat="44.60423" lon="2.9556">
        <ele>1134.49</ele>
        <time>2012-08-10T08:17:40Z</time>
      </trkpt>
      <trkpt lat="44.60424" lon="2.95561">
        <ele>1134.97</ele>
        <time>2012-08-10T08:18:07Z</time>
      </trkpt>
      <trkpt lat="44.60424" lon="2.95561">
        <ele>1134.97</ele>
        <time>2012-08-10T08:18:36Z</time>
      </trkpt>
      <trkpt lat="44.60424" lon="2.95561">
        <ele>1136.42</ele>
        <time>2012-08-10T08:19:02Z</time>
      </trkpt>
      <trkpt lat="44.60424" lon="2.9556">
        <ele>1136.9</ele>
        <time>2012-08-10T08:19:32Z</time>
      </trkpt>
      <trkpt lat="44.60424" lon="2.95559">
        <ele>1136.42</ele>
        <time>2012-08-10T08:20:08Z</time>
      </trkpt>
      <trkpt lat="44.60425" lon="2.95559">
        <ele>1135.45</ele>
        <time>2012-08-10T08:20:42Z</time>
      </trkpt>
      <trkpt lat="44.60424" lon="2.95559">
        <ele>1135.45</ele>
        <time>2012-08-10T08:21:12Z</time>
      </trkpt>
      <trkpt lat="44.60423" lon="2.95561">
        <ele>1135.45</ele>
        <time>2012-08-10T08:21:42Z</time>
      </trkpt>
      <trkpt lat="44.60423" lon="2.95561">
        <ele>1135.45</ele>
        <time>2012-08-10T08:21:46Z</time>
      </trkpt>
      <trkpt lat="44.60406" lon="2.95575">
        <ele>1134.01</ele>
        <time>2012-08-10T08:21:58Z</time>
      </trkpt>
      <trkpt lat="44.60403" lon="2.95573">
        <ele>1134.49</ele>
        <time>2012-08-10T08:22:00Z</time>
      </trkpt>
      <trkpt lat="44.6039" lon="2.95566">
        <ele>1131.61</ele>
        <time>2012-08-10T08:22:08Z</time>
      </trkpt>
      <trkpt lat="44.60377" lon="2.9556">
        <ele>1129.21</ele>
        <time>2012-08-10T08:22:19Z</time>
      </trkpt>
      <trkpt lat="44.60372" lon="2.95559">
        <ele>1128.73</ele>
        <time>2012-08-10T08:22:30Z</time>
      </trkpt>
      <trkpt lat="44.60364" lon="2.95556">
        <ele>1127.76</ele>
        <time>2012-08-10T08:22:40Z</time>
      </trkpt>
      <trkpt lat="44.60347" lon="2.95541">
        <ele>1128.24</ele>
        <time>2012-08-10T08:22:51Z</time>
      </trkpt>
      <trkpt lat="44.60333" lon="2.95521">
        <ele>1126.8</ele>
        <time>2012-08-10T08:23:01Z</time>
      </trkpt>
      <trkpt lat="44.60316" lon="2.95475">
        <ele>1125.36</ele>
        <time>2012-08-10T08:23:13Z</time>
      </trkpt>
      <trkpt lat="44.60301" lon="2.9544">
        <ele>1123.92</ele>
        <time>2012-08-10T08:23:21Z</time>
      </trkpt>
      <trkpt lat="44.60294" lon="2.95426">
        <ele>1122.48</ele>
        <time>2012-08-10T08:23:25Z</time>
      </trkpt>
      <trkpt lat="44.60285" lon="2.954">
        <ele>1122</ele>
        <time>2012-08-10T08:23:35Z</time>
      </trkpt>
      <trkpt lat="44.60289" lon="2.95374">
        <ele>1121.52</ele>
        <time>2012-08-10T08:23:48Z</time>
      </trkpt>
      <trkpt lat="44.60284" lon="2.95344">
        <ele>1122.48</ele>
        <time>2012-08-10T08:24:02Z</time>
      </trkpt>
      <trkpt lat="44.60278" lon="2.95319">
        <ele>1121.52</ele>
        <time>2012-08-10T08:24:13Z</time>
      </trkpt>
      <trkpt lat="44.60277" lon="2.95317">
        <ele>1120.55</ele>
        <time>2012-08-10T08:24:17Z</time>
      </trkpt>
      <trkpt lat="44.60275" lon="2.9531">
        <ele>1120.07</ele>
        <time>2012-08-10T08:24:30Z</time>
      </trkpt>
      <trkpt lat="44.60271" lon="2.95297">
        <ele>1118.63</ele>
        <time>2012-08-10T08:24:43Z</time>
      </trkpt>
      <trkpt lat="44.60272" lon="2.9529">
        <ele>1117.19</ele>
        <time>2012-08-10T08:24:50Z</time>
      </trkpt>
      <trkpt lat="44.60271" lon="2.95284">
        <ele>1117.19</ele>
        <time>2012-08-10T08:24:55Z</time>
      </trkpt>
      <trkpt lat="44.60262" lon="2.95273">
        <ele>1114.79</ele>
        <time>2012-08-10T08:25:09Z</time>
      </trkpt>
      <trkpt lat="44.60258" lon="2.95265">
        <ele>1113.34</ele>
        <time>2012-08-10T08:25:20Z</time>
      </trkpt>
      <trkpt lat="44.60252" lon="2.95252">
        <ele>1110.46</ele>
        <time>2012-08-10T08:25:32Z</time>
      </trkpt>
      <trkpt lat="44.6024" lon="2.95247">
        <ele>1107.58</ele>
        <time>2012-08-10T08:25:38Z</time>
      </trkpt>
      <trkpt lat="44.6023" lon="2.95237">
        <ele>1105.17</ele>
        <time>2012-08-10T08:25:44Z</time>
      </trkpt>
      <trkpt lat="44.6023" lon="2.95224">
        <ele>1103.25</ele>
        <time>2012-08-10T08:25:48Z</time>
      </trkpt>
      <trkpt lat="44.60242" lon="2.95202">
        <ele>1099.4</ele>
        <time>2012-08-10T08:25:58Z</time>
      </trkpt>
      <trkpt lat="44.60251" lon="2.95195">
        <ele>1097.96</ele>
        <time>2012-08-10T08:26:02Z</time>
      </trkpt>
      <trkpt lat="44.60244" lon="2.95175">
        <ele>1096.52</ele>
        <time>2012-08-10T08:26:11Z</time>
      </trkpt>
      <trkpt lat="44.60239" lon="2.95176">
        <ele>1096.52</ele>
        <time>2012-08-10T08:26:12Z</time>
      </trkpt>
      <trkpt lat="44.60234" lon="2.95178">
        <ele>1096.52</ele>
        <time>2012-08-10T08:26:13Z</time>
      </trkpt>
      <trkpt lat="44.6023" lon="2.95181">
        <ele>1096.04</ele>
        <time>2012-08-10T08:26:14Z</time>
      </trkpt>
      <trkpt lat="44.60227" lon="2.95184">
        <ele>1096.04</ele>
        <time>2012-08-10T08:26:15Z</time>
      </trkpt>
      <trkpt lat="44.60224" lon="2.95188">
        <ele>1096.04</ele>
        <time>2012-08-10T08:26:16Z</time>
      </trkpt>
      <trkpt lat="44.60222" lon="2.95192">
        <ele>1096.04</ele>
        <time>2012-08-10T08:26:17Z</time>
      </trkpt>
      <trkpt lat="44.6022" lon="2.95196">
        <ele>1096.52</ele>
        <time>2012-08-10T08:26:18Z</time>
      </trkpt>
      <trkpt lat="44.60212" lon="2.95207">
        <ele>1096.52</ele>
        <time>2012-08-10T08:26:21Z</time>
      </trkpt>
      <trkpt lat="44.60178" lon="2.95243">
        <ele>1092.68</ele>
        <time>2012-08-10T08:26:32Z</time>
      </trkpt>
      <trkpt lat="44.60165" lon="2.95251">
        <ele>1089.79</ele>
        <time>2012-08-10T08:26:36Z</time>
      </trkpt>
      <trkpt lat="44.60163" lon="2.95249">
        <ele>1089.31</ele>
        <time>2012-08-10T08:26:37Z</time>
      </trkpt>
      <trkpt lat="44.60162" lon="2.95246">
        <ele>1088.83</ele>
        <time>2012-08-10T08:26:38Z</time>
      </trkpt>
      <trkpt lat="44.60161" lon="2.95241">
        <ele>1088.35</ele>
        <time>2012-08-10T08:26:39Z</time>
      </trkpt>
      <trkpt lat="44.60162" lon="2.95235">
        <ele>1087.87</ele>
        <time>2012-08-10T08:26:40Z</time>
      </trkpt>
      <trkpt lat="44.60164" lon="2.95229">
        <ele>1087.39</ele>
        <time>2012-08-10T08:26:41Z</time>
      </trkpt>
      <trkpt lat="44.60166" lon="2.95221">
        <ele>1086.91</ele>
        <time>2012-08-10T08:26:42Z</time>
      </trkpt>
      <trkpt lat="44.6017" lon="2.95197">
        <ele>1084.99</ele>
        <time>2012-08-10T08:26:46Z</time>
      </trkpt>
      <trkpt lat="44.60167" lon="2.95192">
        <ele>1084.99</ele>
        <time>2012-08-10T08:26:47Z</time>
      </trkpt>
      <trkpt lat="44.60163" lon="2.95188">
        <ele>1084.5</ele>
        <time>2012-08-10T08:26:48Z</time>
      </trkpt>
      <trkpt lat="44.60159" lon="2.95185">
        <ele>1084.02</ele>
        <time>2012-08-10T08:26:49Z</time>
      </trkpt>
      <trkpt lat="44.60154" lon="2.95183">
        <ele>1084.02</ele>
        <time>2012-08-10T08:26:50Z</time>
      </trkpt>
      <trkpt lat="44.60149" lon="2.95183">
        <ele>1084.02</ele>
        <time>2012-08-10T08:26:51Z</time>
      </trkpt>
      <trkpt lat="44.60145" lon="2.95183">
        <ele>1083.54</ele>
        <time>2012-08-10T08:26:52Z</time>
      </trkpt>
      <trkpt lat="44.60133" lon="2.95179">
        <ele>1082.1</ele>
        <time>2012-08-10T08:26:55Z</time>
      </trkpt>
      <trkpt lat="44.60129" lon="2.95175">
        <ele>1081.14</ele>
        <time>2012-08-10T08:26:56Z</time>
      </trkpt>
      <trkpt lat="44.60127" lon="2.95171">
        <ele>1080.66</ele>
        <time>2012-08-10T08:26:57Z</time>
      </trkpt>
      <trkpt lat="44.60126" lon="2.95165">
        <ele>1080.18</ele>
        <time>2012-08-10T08:26:58Z</time>
      </trkpt>
      <trkpt lat="44.60126" lon="2.9516">
        <ele>1079.7</ele>
        <time>2012-08-10T08:26:59Z</time>
      </trkpt>
      <trkpt lat="44.60126" lon="2.95156">
        <ele>1079.22</ele>
        <time>2012-08-10T08:27:00Z</time>
      </trkpt>
      <trkpt lat="44.60127" lon="2.95153">
        <ele>1079.22</ele>
        <time>2012-08-10T08:27:01Z</time>
      </trkpt>
      <trkpt lat="44.60128" lon="2.9515">
        <ele>1078.74</ele>
        <time>2012-08-10T08:27:02Z</time>
      </trkpt>
      <trkpt lat="44.6013" lon="2.95148">
        <ele>1078.74</ele>
        <time>2012-08-10T08:27:03Z</time>
      </trkpt>
      <trkpt lat="44.60131" lon="2.95145">
        <ele>1078.74</ele>
        <time>2012-08-10T08:27:04Z</time>
      </trkpt>
      <trkpt lat="44.60132" lon="2.95142">
        <ele>1078.26</ele>
        <time>2012-08-10T08:27:05Z</time>
      </trkpt>
      <trkpt lat="44.60132" lon="2.95138">
        <ele>1077.78</ele>
        <time>2012-08-10T08:27:06Z</time>
      </trkpt>
      <trkpt lat="44.60132" lon="2.95135">
        <ele>1077.78</ele>
        <time>2012-08-10T08:27:07Z</time>
      </trkpt>
      <trkpt lat="44.60132" lon="2.95131">
        <ele>1077.29</ele>
        <time>2012-08-10T08:27:08Z</time>
      </trkpt>
      <trkpt lat="44.60128" lon="2.95116">
        <ele>1074.89</ele>
        <time>2012-08-10T08:27:13Z</time>
      </trkpt>
      <trkpt lat="44.60127" lon="2.95113">
        <ele>1074.41</ele>
        <time>2012-08-10T08:27:14Z</time>
      </trkpt>
      <trkpt lat="44.60121" lon="2.95101">
        <ele>1071.53</ele>
        <time>2012-08-10T08:27:20Z</time>
      </trkpt>
      <trkpt lat="44.60112" lon="2.95075">
        <ele>1065.76</ele>
        <time>2012-08-10T08:27:32Z</time>
      </trkpt>
      <trkpt lat="44.60106" lon="2.95049">
        <ele>1061.91</ele>
        <time>2012-08-10T08:27:40Z</time>
      </trkpt>
      <trkpt lat="44.60102" lon="2.95039">
        <ele>1061.43</ele>
        <time>2012-08-10T08:27:43Z</time>
      </trkpt>
      <trkpt lat="44.601" lon="2.95036">
        <ele>1061.43</ele>
        <time>2012-08-10T08:27:44Z</time>
      </trkpt>
      <trkpt lat="44.60098" lon="2.95033">
        <ele>1060.95</ele>
        <time>2012-08-10T08:27:45Z</time>
      </trkpt>
      <trkpt lat="44.60096" lon="2.9503">
        <ele>1060.95</ele>
        <time>2012-08-10T08:27:46Z</time>
      </trkpt>
      <trkpt lat="44.60094" lon="2.95028">
        <ele>1060.95</ele>
        <time>2012-08-10T08:27:47Z</time>
      </trkpt>
      <trkpt lat="44.60079" lon="2.95012">
        <ele>1059.99</ele>
        <time>2012-08-10T08:27:54Z</time>
      </trkpt>
      <trkpt lat="44.60077" lon="2.9501">
        <ele>1059.99</ele>
        <time>2012-08-10T08:27:55Z</time>
      </trkpt>
      <trkpt lat="44.60075" lon="2.95008">
        <ele>1059.99</ele>
        <time>2012-08-10T08:27:56Z</time>
      </trkpt>
      <trkpt lat="44.60073" lon="2.95006">
        <ele>1060.47</ele>
        <time>2012-08-10T08:27:57Z</time>
      </trkpt>
      <trkpt lat="44.60072" lon="2.95004">
        <ele>1060.47</ele>
        <time>2012-08-10T08:27:58Z</time>
      </trkpt>
      <trkpt lat="44.6007" lon="2.95002">
        <ele>1060.47</ele>
        <time>2012-08-10T08:27:59Z</time>
      </trkpt>
      <trkpt lat="44.60068" lon="2.95">
        <ele>1060.47</ele>
        <time>2012-08-10T08:28:00Z</time>
      </trkpt>
      <trkpt lat="44.60066" lon="2.94999">
        <ele>1060.47</ele>
        <time>2012-08-10T08:28:01Z</time>
      </trkpt>
      <trkpt lat="44.60064" lon="2.94997">
        <ele>1060.47</ele>
        <time>2012-08-10T08:28:02Z</time>
      </trkpt>
      <trkpt lat="44.60063" lon="2.94996">
        <ele>1059.99</ele>
        <time>2012-08-10T08:28:03Z</time>
      </trkpt>
      <trkpt lat="44.60052" lon="2.9499">
        <ele>1059.03</ele>
        <time>2012-08-10T08:28:14Z</time>
      </trkpt>
      <trkpt lat="44.60041" lon="2.94984">
        <ele>1057.59</ele>
        <time>2012-08-10T08:28:28Z</time>
      </trkpt>
      <trkpt lat="44.60035" lon="2.9498">
        <ele>1056.15</ele>
        <time>2012-08-10T08:28:42Z</time>
      </trkpt>
      <trkpt lat="44.60032" lon="2.94976">
        <ele>1056.15</ele>
        <time>2012-08-10T08:28:54Z</time>
      </trkpt>
      <trkpt lat="44.60031" lon="2.94974">
        <ele>1055.67</ele>
        <time>2012-08-10T08:28:55Z</time>
      </trkpt>
      <trkpt lat="44.6003" lon="2.94973">
        <ele>1055.67</ele>
        <time>2012-08-10T08:28:56Z</time>
      </trkpt>
      <trkpt lat="44.60028" lon="2.94971">
        <ele>1055.67</ele>
        <time>2012-08-10T08:28:57Z</time>
      </trkpt>
      <trkpt lat="44.60027" lon="2.9497">
        <ele>1055.67</ele>
        <time>2012-08-10T08:28:58Z</time>
      </trkpt>
      <trkpt lat="44.60021" lon="2.94966">
        <ele>1055.67</ele>
        <time>2012-08-10T08:29:01Z</time>
      </trkpt>
      <trkpt lat="44.6002" lon="2.94965">
        <ele>1055.18</ele>
        <time>2012-08-10T08:29:02Z</time>
      </trkpt>
      <trkpt lat="44.60019" lon="2.94964">
        <ele>1055.18</ele>
        <time>2012-08-10T08:29:03Z</time>
      </trkpt>
      <trkpt lat="44.60018" lon="2.94963">
        <ele>1054.7</ele>
        <time>2012-08-10T08:29:04Z</time>
      </trkpt>
      <trkpt lat="44.60016" lon="2.94962">
        <ele>1054.22</ele>
        <time>2012-08-10T08:29:05Z</time>
      </trkpt>
      <trkpt lat="44.60006" lon="2.94954">
        <ele>1053.26</ele>
        <time>2012-08-10T08:29:11Z</time>
      </trkpt>
      <trkpt lat="44.60004" lon="2.94951">
        <ele>1052.78</ele>
        <time>2012-08-10T08:29:15Z</time>
      </trkpt>
      <trkpt lat="44.60003" lon="2.9495">
        <ele>1052.3</ele>
        <time>2012-08-10T08:29:16Z</time>
      </trkpt>
      <trkpt lat="44.60001" lon="2.94948">
        <ele>1052.3</ele>
        <time>2012-08-10T08:29:17Z</time>
      </trkpt>
      <trkpt lat="44.59993" lon="2.94942">
        <ele>1051.82</ele>
        <time>2012-08-10T08:29:22Z</time>
      </trkpt>
      <trkpt lat="44.59992" lon="2.94941">
        <ele>1051.82</ele>
        <time>2012-08-10T08:29:23Z</time>
      </trkpt>
      <trkpt lat="44.59985" lon="2.94933">
        <ele>1050.86</ele>
        <time>2012-08-10T08:29:28Z</time>
      </trkpt>
      <trkpt lat="44.59984" lon="2.94932">
        <ele>1051.34</ele>
        <time>2012-08-10T08:29:29Z</time>
      </trkpt>
      <trkpt lat="44.59983" lon="2.9493">
        <ele>1050.86</ele>
        <time>2012-08-10T08:29:30Z</time>
      </trkpt>
      <trkpt lat="44.5998" lon="2.94927">
        <ele>1050.38</ele>
        <time>2012-08-10T08:29:41Z</time>
      </trkpt>
      <trkpt lat="44.59981" lon="2.94921">
        <ele>1049.9</ele>
        <time>2012-08-10T08:29:47Z</time>
      </trkpt>
      <trkpt lat="44.59983" lon="2.94914">
        <ele>1050.38</ele>
        <time>2012-08-10T08:29:52Z</time>
      </trkpt>
      <trkpt lat="44.59987" lon="2.94904">
        <ele>1052.3</ele>
        <time>2012-08-10T08:30:03Z</time>
      </trkpt>
      <trkpt lat="44.59986" lon="2.94902">
        <ele>1052.3</ele>
        <time>2012-08-10T08:30:04Z</time>
      </trkpt>
      <trkpt lat="44.59985" lon="2.949">
        <ele>1051.82</ele>
        <time>2012-08-10T08:30:05Z</time>
      </trkpt>
      <trkpt lat="44.59985" lon="2.94898">
        <ele>1051.82</ele>
        <time>2012-08-10T08:30:06Z</time>
      </trkpt>
      <trkpt lat="44.59986" lon="2.94896">
        <ele>1051.34</ele>
        <time>2012-08-10T08:30:07Z</time>
      </trkpt>
      <trkpt lat="44.59986" lon="2.94894">
        <ele>1050.86</ele>
        <time>2012-08-10T08:30:08Z</time>
      </trkpt>
      <trkpt lat="44.59987" lon="2.94892">
        <ele>1050.86</ele>
        <time>2012-08-10T08:30:09Z</time>
      </trkpt>
      <trkpt lat="44.59987" lon="2.9489">
        <ele>1050.86</ele>
        <time>2012-08-10T08:30:10Z</time>
      </trkpt>
      <trkpt lat="44.59987" lon="2.94888">
        <ele>1050.86</ele>
        <time>2012-08-10T08:30:11Z</time>
      </trkpt>
      <trkpt lat="44.59988" lon="2.94886">
        <ele>1050.86</ele>
        <time>2012-08-10T08:30:12Z</time>
      </trkpt>
      <trkpt lat="44.59992" lon="2.94878">
        <ele>1049.42</ele>
        <time>2012-08-10T08:30:21Z</time>
      </trkpt>
      <trkpt lat="44.60001" lon="2.94867">
        <ele>1048.45</ele>
        <time>2012-08-10T08:30:27Z</time>
      </trkpt>
      <trkpt lat="44.60003" lon="2.94866">
        <ele>1047.97</ele>
        <time>2012-08-10T08:30:28Z</time>
      </trkpt>
      <trkpt lat="44.60005" lon="2.94865">
        <ele>1047.97</ele>
        <time>2012-08-10T08:30:29Z</time>
      </trkpt>
      <trkpt lat="44.60007" lon="2.94863">
        <ele>1047.49</ele>
        <time>2012-08-10T08:30:30Z</time>
      </trkpt>
      <trkpt lat="44.60009" lon="2.94862">
        <ele>1047.01</ele>
        <time>2012-08-10T08:30:31Z</time>
      </trkpt>
      <trkpt lat="44.60011" lon="2.94862">
        <ele>1046.53</ele>
        <time>2012-08-10T08:30:32Z</time>
      </trkpt>
      <trkpt lat="44.60014" lon="2.94857">
        <ele>1045.57</ele>
        <time>2012-08-10T08:30:36Z</time>
      </trkpt>
      <trkpt lat="44.60015" lon="2.94855">
        <ele>1045.09</ele>
        <time>2012-08-10T08:30:37Z</time>
      </trkpt>
      <trkpt lat="44.60021" lon="2.94842">
        <ele>1041.73</ele>
        <time>2012-08-10T08:30:47Z</time>
      </trkpt>
      <trkpt lat="44.60022" lon="2.94844">
        <ele>1041.25</ele>
        <time>2012-08-10T08:30:48Z</time>
      </trkpt>
      <trkpt lat="44.60027" lon="2.94844">
        <ele>1036.92</ele>
        <time>2012-08-10T08:30:56Z</time>
      </trkpt>
      <trkpt lat="44.60029" lon="2.94843">
        <ele>1036.44</ele>
        <time>2012-08-10T08:30:57Z</time>
      </trkpt>
      <trkpt lat="44.60037" lon="2.9484">
        <ele>1033.55</ele>
        <time>2012-08-10T08:31:02Z</time>
      </trkpt>
      <trkpt lat="44.60041" lon="2.94839">
        <ele>1033.07</ele>
        <time>2012-08-10T08:31:03Z</time>
      </trkpt>
      <trkpt lat="44.60043" lon="2.94839">
        <ele>1033.07</ele>
        <time>2012-08-10T08:31:04Z</time>
      </trkpt>
      <trkpt lat="44.60045" lon="2.94838">
        <ele>1033.07</ele>
        <time>2012-08-10T08:31:05Z</time>
      </trkpt>
      <trkpt lat="44.60047" lon="2.94838">
        <ele>1032.59</ele>
        <time>2012-08-10T08:31:06Z</time>
      </trkpt>
      <trkpt lat="44.60049" lon="2.94836">
        <ele>1032.59</ele>
        <time>2012-08-10T08:31:07Z</time>
      </trkpt>
      <trkpt lat="44.6005" lon="2.94835">
        <ele>1032.59</ele>
        <time>2012-08-10T08:31:08Z</time>
      </trkpt>
      <trkpt lat="44.60052" lon="2.94834">
        <ele>1032.59</ele>
        <time>2012-08-10T08:31:09Z</time>
      </trkpt>
      <trkpt lat="44.60054" lon="2.94832">
        <ele>1032.59</ele>
        <time>2012-08-10T08:31:10Z</time>
      </trkpt>
      <trkpt lat="44.60056" lon="2.94832">
        <ele>1032.59</ele>
        <time>2012-08-10T08:31:11Z</time>
      </trkpt>
      <trkpt lat="44.60059" lon="2.94831">
        <ele>1032.59</ele>
        <time>2012-08-10T08:31:12Z</time>
      </trkpt>
      <trkpt lat="44.60072" lon="2.94826">
        <ele>1032.59</ele>
        <time>2012-08-10T08:31:21Z</time>
      </trkpt>
      <trkpt lat="44.60075" lon="2.94825">
        <ele>1032.59</ele>
        <time>2012-08-10T08:31:23Z</time>
      </trkpt>
      <trkpt lat="44.60077" lon="2.94825">
        <ele>1032.59</ele>
        <time>2012-08-10T08:31:24Z</time>
      </trkpt>
      <trkpt lat="44.60079" lon="2.94825">
        <ele>1032.11</ele>
        <time>2012-08-10T08:31:25Z</time>
      </trkpt>
      <trkpt lat="44.60081" lon="2.94824">
        <ele>1031.63</ele>
        <time>2012-08-10T08:31:26Z</time>
      </trkpt>
      <trkpt lat="44.60083" lon="2.94824">
        <ele>1031.63</ele>
        <time>2012-08-10T08:31:27Z</time>
      </trkpt>
      <trkpt lat="44.60085" lon="2.94825">
        <ele>1031.63</ele>
        <time>2012-08-10T08:31:28Z</time>
      </trkpt>
      <trkpt lat="44.60103" lon="2.94822">
        <ele>1031.63</ele>
        <time>2012-08-10T08:31:37Z</time>
      </trkpt>
      <trkpt lat="44.60119" lon="2.94813">
        <ele>1031.63</ele>
        <time>2012-08-10T08:31:46Z</time>
      </trkpt>
      <trkpt lat="44.60123" lon="2.94811">
        <ele>1031.15</ele>
        <time>2012-08-10T08:31:49Z</time>
      </trkpt>
      <trkpt lat="44.6014" lon="2.94805">
        <ele>1030.19</ele>
        <time>2012-08-10T08:31:57Z</time>
      </trkpt>
      <trkpt lat="44.60142" lon="2.94804">
        <ele>1029.71</ele>
        <time>2012-08-10T08:31:58Z</time>
      </trkpt>
      <trkpt lat="44.6015" lon="2.94799">
        <ele>1030.19</ele>
        <time>2012-08-10T08:32:04Z</time>
      </trkpt>
      <trkpt lat="44.60148" lon="2.94792">
        <ele>1029.71</ele>
        <time>2012-08-10T08:32:08Z</time>
      </trkpt>
      <trkpt lat="44.60149" lon="2.94778">
        <ele>1029.23</ele>
        <time>2012-08-10T08:32:14Z</time>
      </trkpt>
      <trkpt lat="44.60152" lon="2.94761">
        <ele>1028.75</ele>
        <time>2012-08-10T08:32:23Z</time>
      </trkpt>
      <trkpt lat="44.60151" lon="2.9476">
        <ele>1027.31</ele>
        <time>2012-08-10T08:32:25Z</time>
      </trkpt>
      <trkpt lat="44.60149" lon="2.9476">
        <ele>1026.34</ele>
        <time>2012-08-10T08:32:27Z</time>
      </trkpt>
      <trkpt lat="44.60134" lon="2.94754">
        <ele>1024.9</ele>
        <time>2012-08-10T08:32:37Z</time>
      </trkpt>
      <trkpt lat="44.60126" lon="2.94748">
        <ele>1024.42</ele>
        <time>2012-08-10T08:32:41Z</time>
      </trkpt>
      <trkpt lat="44.6011" lon="2.94727">
        <ele>1023.94</ele>
        <time>2012-08-10T08:32:47Z</time>
      </trkpt>
      <trkpt lat="44.60106" lon="2.94719">
        <ele>1023.46</ele>
        <time>2012-08-10T08:32:49Z</time>
      </trkpt>
      <trkpt lat="44.60099" lon="2.94701">
        <ele>1022.5</ele>
        <time>2012-08-10T08:32:53Z</time>
      </trkpt>
      <trkpt lat="44.60097" lon="2.94697">
        <ele>1021.06</ele>
        <time>2012-08-10T08:32:54Z</time>
      </trkpt>
      <trkpt lat="44.60087" lon="2.94678">
        <ele>1018.17</ele>
        <time>2012-08-10T08:32:59Z</time>
      </trkpt>
      <trkpt lat="44.60085" lon="2.94676">
        <ele>1017.21</ele>
        <time>2012-08-10T08:33:00Z</time>
      </trkpt>
      <trkpt lat="44.60064" lon="2.94654">
        <ele>1009.04</ele>
        <time>2012-08-10T08:33:11Z</time>
      </trkpt>
      <trkpt lat="44.60063" lon="2.94654">
        <ele>1009.04</ele>
        <time>2012-08-10T08:33:12Z</time>
      </trkpt>
      <trkpt lat="44.60055" lon="2.94647">
        <ele>1007.6</ele>
        <time>2012-08-10T08:33:17Z</time>
      </trkpt>
      <trkpt lat="44.60054" lon="2.94646">
        <ele>1007.6</ele>
        <time>2012-08-10T08:33:18Z</time>
      </trkpt>
      <trkpt lat="44.60036" lon="2.94622">
        <ele>1006.16</ele>
        <time>2012-08-10T08:33:29Z</time>
      </trkpt>
      <trkpt lat="44.60033" lon="2.94618">
        <ele>1006.64</ele>
        <time>2012-08-10T08:33:30Z</time>
      </trkpt>
      <trkpt lat="44.60031" lon="2.94615">
        <ele>1006.64</ele>
        <time>2012-08-10T08:33:31Z</time>
      </trkpt>
      <trkpt lat="44.60028" lon="2.94612">
        <ele>1006.16</ele>
        <time>2012-08-10T08:33:32Z</time>
      </trkpt>
      <trkpt lat="44.60026" lon="2.94609">
        <ele>1006.64</ele>
        <time>2012-08-10T08:33:33Z</time>
      </trkpt>
      <trkpt lat="44.60024" lon="2.94607">
        <ele>1007.12</ele>
        <time>2012-08-10T08:33:34Z</time>
      </trkpt>
      <trkpt lat="44.60022" lon="2.94604">
        <ele>1007.12</ele>
        <time>2012-08-10T08:33:35Z</time>
      </trkpt>
      <trkpt lat="44.60021" lon="2.94602">
        <ele>1007.6</ele>
        <time>2012-08-10T08:33:36Z</time>
      </trkpt>
      <trkpt lat="44.60019" lon="2.946">
        <ele>1007.6</ele>
        <time>2012-08-10T08:33:37Z</time>
      </trkpt>
      <trkpt lat="44.60017" lon="2.94598">
        <ele>1007.6</ele>
        <time>2012-08-10T08:33:38Z</time>
      </trkpt>
      <trkpt lat="44.60016" lon="2.94595">
        <ele>1007.6</ele>
        <time>2012-08-10T08:33:39Z</time>
      </trkpt>
      <trkpt lat="44.60015" lon="2.94592">
        <ele>1007.6</ele>
        <time>2012-08-10T08:33:40Z</time>
      </trkpt>
      <trkpt lat="44.60013" lon="2.9459">
        <ele>1007.12</ele>
        <time>2012-08-10T08:33:41Z</time>
      </trkpt>
      <trkpt lat="44.60011" lon="2.94587">
        <ele>1007.12</ele>
        <time>2012-08-10T08:33:42Z</time>
      </trkpt>
      <trkpt lat="44.60009" lon="2.94584">
        <ele>1007.12</ele>
        <time>2012-08-10T08:33:43Z</time>
      </trkpt>
      <trkpt lat="44.60007" lon="2.94582">
        <ele>1006.64</ele>
        <time>2012-08-10T08:33:44Z</time>
      </trkpt>
      <trkpt lat="44.59991" lon="2.94552">
        <ele>1002.79</ele>
        <time>2012-08-10T08:33:55Z</time>
      </trkpt>
      <trkpt lat="44.59967" lon="2.9452">
        <ele>1001.83</ele>
        <time>2012-08-10T08:34:09Z</time>
      </trkpt>
      <trkpt lat="44.59947" lon="2.945">
        <ele>1001.35</ele>
        <time>2012-08-10T08:34:20Z</time>
      </trkpt>
      <trkpt lat="44.59929" lon="2.94482">
        <ele>1000.87</ele>
        <time>2012-08-10T08:34:30Z</time>
      </trkpt>
      <trkpt lat="44.59928" lon="2.9448">
        <ele>1000.87</ele>
        <time>2012-08-10T08:34:31Z</time>
      </trkpt>
      <trkpt lat="44.59918" lon="2.94472">
        <ele>998.95</ele>
        <time>2012-08-10T08:34:38Z</time>
      </trkpt>
      <trkpt lat="44.59917" lon="2.94471">
        <ele>998.95</ele>
        <time>2012-08-10T08:34:39Z</time>
      </trkpt>
      <trkpt lat="44.59915" lon="2.94469">
        <ele>998.47</ele>
        <time>2012-08-10T08:34:40Z</time>
      </trkpt>
      <trkpt lat="44.59912" lon="2.94467">
        <ele>997.99</ele>
        <time>2012-08-10T08:34:41Z</time>
      </trkpt>
      <trkpt lat="44.5991" lon="2.94465">
        <ele>997.99</ele>
        <time>2012-08-10T08:34:42Z</time>
      </trkpt>
      <trkpt lat="44.59909" lon="2.94463">
        <ele>997.51</ele>
        <time>2012-08-10T08:34:43Z</time>
      </trkpt>
      <trkpt lat="44.59907" lon="2.94462">
        <ele>997.02</ele>
        <time>2012-08-10T08:34:44Z</time>
      </trkpt>
      <trkpt lat="44.59904" lon="2.9446">
        <ele>997.02</ele>
        <time>2012-08-10T08:34:45Z</time>
      </trkpt>
      <trkpt lat="44.59901" lon="2.94459">
        <ele>997.02</ele>
        <time>2012-08-10T08:34:46Z</time>
      </trkpt>
      <trkpt lat="44.59899" lon="2.94455">
        <ele>995.58</ele>
        <time>2012-08-10T08:34:47Z</time>
      </trkpt>
      <trkpt lat="44.59897" lon="2.94453">
        <ele>995.58</ele>
        <time>2012-08-10T08:34:48Z</time>
      </trkpt>
      <trkpt lat="44.59895" lon="2.94449">
        <ele>995.1</ele>
        <time>2012-08-10T08:34:49Z</time>
      </trkpt>
      <trkpt lat="44.59894" lon="2.94446">
        <ele>994.14</ele>
        <time>2012-08-10T08:34:50Z</time>
      </trkpt>
      <trkpt lat="44.59892" lon="2.94443">
        <ele>993.18</ele>
        <time>2012-08-10T08:34:51Z</time>
      </trkpt>
      <trkpt lat="44.59891" lon="2.9444">
        <ele>992.7</ele>
        <time>2012-08-10T08:34:52Z</time>
      </trkpt>
      <trkpt lat="44.5989" lon="2.94437">
        <ele>992.22</ele>
        <time>2012-08-10T08:34:53Z</time>
      </trkpt>
      <trkpt lat="44.59877" lon="2.9442">
        <ele>988.37</ele>
        <time>2012-08-10T08:35:01Z</time>
      </trkpt>
      <trkpt lat="44.59876" lon="2.9442">
        <ele>988.37</ele>
        <time>2012-08-10T08:35:02Z</time>
      </trkpt>
      <trkpt lat="44.59874" lon="2.94419">
        <ele>987.89</ele>
        <time>2012-08-10T08:35:03Z</time>
      </trkpt>
      <trkpt lat="44.59872" lon="2.94416">
        <ele>987.41</ele>
        <time>2012-08-10T08:35:04Z</time>
      </trkpt>
      <trkpt lat="44.59871" lon="2.94414">
        <ele>987.41</ele>
        <time>2012-08-10T08:35:05Z</time>
      </trkpt>
      <trkpt lat="44.59869" lon="2.94411">
        <ele>987.41</ele>
        <time>2012-08-10T08:35:06Z</time>
      </trkpt>
      <trkpt lat="44.59868" lon="2.94408">
        <ele>986.93</ele>
        <time>2012-08-10T08:35:07Z</time>
      </trkpt>
      <trkpt lat="44.59867" lon="2.94407">
        <ele>986.93</ele>
        <time>2012-08-10T08:35:08Z</time>
      </trkpt>
      <trkpt lat="44.59852" lon="2.94387">
        <ele>986.93</ele>
        <time>2012-08-10T08:35:18Z</time>
      </trkpt>
      <trkpt lat="44.59851" lon="2.94384">
        <ele>986.93</ele>
        <time>2012-08-10T08:35:19Z</time>
      </trkpt>
      <trkpt lat="44.59836" lon="2.94359">
        <ele>984.53</ele>
        <time>2012-08-10T08:35:29Z</time>
      </trkpt>
      <trkpt lat="44.59819" lon="2.94325">
        <ele>982.6</ele>
        <time>2012-08-10T08:35:40Z</time>
      </trkpt>
      <trkpt lat="44.59805" lon="2.94285">
        <ele>980.68</ele>
        <time>2012-08-10T08:35:50Z</time>
      </trkpt>
      <trkpt lat="44.59798" lon="2.94241">
        <ele>978.76</ele>
        <time>2012-08-10T08:36:03Z</time>
      </trkpt>
      <trkpt lat="44.59798" lon="2.9424">
        <ele>978.28</ele>
        <time>2012-08-10T08:36:22Z</time>
      </trkpt>
      <trkpt lat="44.59798" lon="2.94237">
        <ele>978.28</ele>
        <time>2012-08-10T08:36:37Z</time>
      </trkpt>
      <trkpt lat="44.59797" lon="2.94231">
        <ele>978.76</ele>
        <time>2012-08-10T08:36:50Z</time>
      </trkpt>
      <trkpt lat="44.59791" lon="2.94207">
        <ele>978.76</ele>
        <time>2012-08-10T08:36:58Z</time>
      </trkpt>
      <trkpt lat="44.5979" lon="2.94205">
        <ele>978.76</ele>
        <time>2012-08-10T08:36:59Z</time>
      </trkpt>
      <trkpt lat="44.59788" lon="2.94203">
        <ele>978.28</ele>
        <time>2012-08-10T08:37:00Z</time>
      </trkpt>
      <trkpt lat="44.59787" lon="2.942">
        <ele>977.8</ele>
        <time>2012-08-10T08:37:01Z</time>
      </trkpt>
      <trkpt lat="44.59786" lon="2.94198">
        <ele>977.32</ele>
        <time>2012-08-10T08:37:02Z</time>
      </trkpt>
      <trkpt lat="44.59785" lon="2.94194">
        <ele>977.32</ele>
        <time>2012-08-10T08:37:03Z</time>
      </trkpt>
      <trkpt lat="44.59784" lon="2.9419">
        <ele>976.84</ele>
        <time>2012-08-10T08:37:14Z</time>
      </trkpt>
      <trkpt lat="44.59782" lon="2.94186">
        <ele>976.84</ele>
        <time>2012-08-10T08:37:26Z</time>
      </trkpt>
      <trkpt lat="44.5978" lon="2.94181">
        <ele>976.84</ele>
        <time>2012-08-10T08:37:30Z</time>
      </trkpt>
      <trkpt lat="44.5978" lon="2.94178">
        <ele>976.84</ele>
        <time>2012-08-10T08:37:31Z</time>
      </trkpt>
      <trkpt lat="44.5978" lon="2.94175">
        <ele>976.84</ele>
        <time>2012-08-10T08:37:32Z</time>
      </trkpt>
      <trkpt lat="44.5978" lon="2.94173">
        <ele>976.84</ele>
        <time>2012-08-10T08:37:33Z</time>
      </trkpt>
      <trkpt lat="44.5978" lon="2.9417">
        <ele>976.84</ele>
        <time>2012-08-10T08:37:34Z</time>
      </trkpt>
      <trkpt lat="44.59778" lon="2.94158">
        <ele>977.32</ele>
        <time>2012-08-10T08:37:39Z</time>
      </trkpt>
      <trkpt lat="44.59777" lon="2.94155">
        <ele>976.84</ele>
        <time>2012-08-10T08:37:40Z</time>
      </trkpt>
      <trkpt lat="44.59776" lon="2.94152">
        <ele>977.32</ele>
        <time>2012-08-10T08:37:41Z</time>
      </trkpt>
      <trkpt lat="44.59765" lon="2.94112">
        <ele>974.91</ele>
        <time>2012-08-10T08:37:51Z</time>
      </trkpt>
      <trkpt lat="44.59764" lon="2.94109">
        <ele>974.91</ele>
        <time>2012-08-10T08:37:52Z</time>
      </trkpt>
      <trkpt lat="44.59762" lon="2.94105">
        <ele>973.47</ele>
        <time>2012-08-10T08:38:05Z</time>
      </trkpt>
      <trkpt lat="44.59755" lon="2.94095">
        <ele>969.15</ele>
        <time>2012-08-10T08:38:19Z</time>
      </trkpt>
      <trkpt lat="44.59754" lon="2.94093">
        <ele>968.67</ele>
        <time>2012-08-10T08:38:20Z</time>
      </trkpt>
      <trkpt lat="44.59739" lon="2.94077">
        <ele>965.78</ele>
        <time>2012-08-10T08:38:30Z</time>
      </trkpt>
      <trkpt lat="44.59731" lon="2.94055">
        <ele>959.53</ele>
        <time>2012-08-10T08:38:38Z</time>
      </trkpt>
      <trkpt lat="44.5973" lon="2.94052">
        <ele>959.05</ele>
        <time>2012-08-10T08:38:39Z</time>
      </trkpt>
      <trkpt lat="44.59729" lon="2.94049">
        <ele>958.57</ele>
        <time>2012-08-10T08:38:40Z</time>
      </trkpt>
      <trkpt lat="44.59728" lon="2.94046">
        <ele>958.09</ele>
        <time>2012-08-10T08:38:41Z</time>
      </trkpt>
      <trkpt lat="44.59726" lon="2.94043">
        <ele>957.61</ele>
        <time>2012-08-10T08:38:42Z</time>
      </trkpt>
      <trkpt lat="44.59725" lon="2.94039">
        <ele>957.13</ele>
        <time>2012-08-10T08:38:43Z</time>
      </trkpt>
      <trkpt lat="44.59723" lon="2.94035">
        <ele>957.13</ele>
        <time>2012-08-10T08:38:44Z</time>
      </trkpt>
      <trkpt lat="44.59715" lon="2.9402">
        <ele>954.25</ele>
        <time>2012-08-10T08:38:50Z</time>
      </trkpt>
      <trkpt lat="44.59714" lon="2.94018">
        <ele>953.77</ele>
        <time>2012-08-10T08:38:51Z</time>
      </trkpt>
      <trkpt lat="44.5971" lon="2.94012">
        <ele>953.28</ele>
        <time>2012-08-10T08:39:01Z</time>
      </trkpt>
      <trkpt lat="44.59707" lon="2.94012">
        <ele>952.32</ele>
        <time>2012-08-10T08:39:16Z</time>
      </trkpt>
      <trkpt lat="44.59705" lon="2.94008">
        <ele>951.36</ele>
        <time>2012-08-10T08:39:26Z</time>
      </trkpt>
      <trkpt lat="44.59704" lon="2.94007">
        <ele>951.36</ele>
        <time>2012-08-10T08:39:27Z</time>
      </trkpt>
      <trkpt lat="44.59703" lon="2.94005">
        <ele>950.88</ele>
        <time>2012-08-10T08:39:28Z</time>
      </trkpt>
      <trkpt lat="44.59695" lon="2.93997">
        <ele>950.4</ele>
        <time>2012-08-10T08:39:35Z</time>
      </trkpt>
      <trkpt lat="44.59693" lon="2.93999">
        <ele>947.52</ele>
        <time>2012-08-10T08:39:51Z</time>
      </trkpt>
      <trkpt lat="44.5969" lon="2.93997">
        <ele>948</ele>
        <time>2012-08-10T08:40:08Z</time>
      </trkpt>
      <trkpt lat="44.5968" lon="2.93993">
        <ele>944.15</ele>
        <time>2012-08-10T08:40:21Z</time>
      </trkpt>
      <trkpt lat="44.59675" lon="2.9399">
        <ele>944.15</ele>
        <time>2012-08-10T08:40:34Z</time>
      </trkpt>
      <trkpt lat="44.59674" lon="2.93988">
        <ele>944.15</ele>
        <time>2012-08-10T08:40:36Z</time>
      </trkpt>
      <trkpt lat="44.59672" lon="2.93986">
        <ele>944.15</ele>
        <time>2012-08-10T08:40:38Z</time>
      </trkpt>
      <trkpt lat="44.59671" lon="2.93984">
        <ele>943.67</ele>
        <time>2012-08-10T08:40:39Z</time>
      </trkpt>
      <trkpt lat="44.59671" lon="2.93982">
        <ele>943.67</ele>
        <time>2012-08-10T08:40:40Z</time>
      </trkpt>
      <trkpt lat="44.5967" lon="2.9398">
        <ele>943.67</ele>
        <time>2012-08-10T08:40:41Z</time>
      </trkpt>
      <trkpt lat="44.59668" lon="2.93978">
        <ele>943.19</ele>
        <time>2012-08-10T08:40:42Z</time>
      </trkpt>
      <trkpt lat="44.59667" lon="2.93977">
        <ele>943.19</ele>
        <time>2012-08-10T08:40:43Z</time>
      </trkpt>
      <trkpt lat="44.59666" lon="2.93975">
        <ele>943.19</ele>
        <time>2012-08-10T08:40:44Z</time>
      </trkpt>
      <trkpt lat="44.5966" lon="2.93968">
        <ele>940.79</ele>
        <time>2012-08-10T08:40:48Z</time>
      </trkpt>
      <trkpt lat="44.59659" lon="2.93966">
        <ele>940.31</ele>
        <time>2012-08-10T08:40:49Z</time>
      </trkpt>
      <trkpt lat="44.59657" lon="2.93965">
        <ele>939.83</ele>
        <time>2012-08-10T08:40:50Z</time>
      </trkpt>
      <trkpt lat="44.59655" lon="2.93964">
        <ele>939.35</ele>
        <time>2012-08-10T08:40:51Z</time>
      </trkpt>
      <trkpt lat="44.59653" lon="2.93962">
        <ele>938.86</ele>
        <time>2012-08-10T08:40:52Z</time>
      </trkpt>
      <trkpt lat="44.59642" lon="2.93954">
        <ele>934.54</ele>
        <time>2012-08-10T08:41:04Z</time>
      </trkpt>
      <trkpt lat="44.5964" lon="2.93952">
        <ele>933.58</ele>
        <time>2012-08-10T08:41:19Z</time>
      </trkpt>
      <trkpt lat="44.59637" lon="2.93949">
        <ele>931.17</ele>
        <time>2012-08-10T08:41:31Z</time>
      </trkpt>
      <trkpt lat="44.59633" lon="2.93942">
        <ele>932.14</ele>
        <time>2012-08-10T08:41:41Z</time>
      </trkpt>
      <trkpt lat="44.59628" lon="2.93936">
        <ele>930.69</ele>
        <time>2012-08-10T08:41:51Z</time>
      </trkpt>
      <trkpt lat="44.59623" lon="2.9393">
        <ele>928.77</ele>
        <time>2012-08-10T08:42:04Z</time>
      </trkpt>
      <trkpt lat="44.59618" lon="2.93924">
        <ele>928.29</ele>
        <time>2012-08-10T08:42:16Z</time>
      </trkpt>
      <trkpt lat="44.59615" lon="2.93921">
        <ele>926.85</ele>
        <time>2012-08-10T08:42:29Z</time>
      </trkpt>
      <trkpt lat="44.59603" lon="2.93908">
        <ele>923.96</ele>
        <time>2012-08-10T08:42:42Z</time>
      </trkpt>
      <trkpt lat="44.59601" lon="2.93905">
        <ele>923.48</ele>
        <time>2012-08-10T08:42:44Z</time>
      </trkpt>
      <trkpt lat="44.59594" lon="2.93899">
        <ele>923.48</ele>
        <time>2012-08-10T08:42:57Z</time>
      </trkpt>
      <trkpt lat="44.59593" lon="2.93897">
        <ele>923</ele>
        <time>2012-08-10T08:43:05Z</time>
      </trkpt>
      <trkpt lat="44.59593" lon="2.93894">
        <ele>923</ele>
        <time>2012-08-10T08:43:06Z</time>
      </trkpt>
      <trkpt lat="44.59592" lon="2.93891">
        <ele>923</ele>
        <time>2012-08-10T08:43:07Z</time>
      </trkpt>
      <trkpt lat="44.59586" lon="2.93849">
        <ele>921.08</ele>
        <time>2012-08-10T08:43:16Z</time>
      </trkpt>
      <trkpt lat="44.59582" lon="2.93815">
        <ele>919.64</ele>
        <time>2012-08-10T08:43:24Z</time>
      </trkpt>
      <trkpt lat="44.59584" lon="2.93793">
        <ele>918.68</ele>
        <time>2012-08-10T08:43:33Z</time>
      </trkpt>
      <trkpt lat="44.59584" lon="2.93792">
        <ele>919.16</ele>
        <time>2012-08-10T08:43:46Z</time>
      </trkpt>
      <trkpt lat="44.59585" lon="2.93791">
        <ele>919.16</ele>
        <time>2012-08-10T08:43:47Z</time>
      </trkpt>
      <trkpt lat="44.59586" lon="2.93789">
        <ele>919.16</ele>
        <time>2012-08-10T08:43:48Z</time>
      </trkpt>
      <trkpt lat="44.59587" lon="2.93786">
        <ele>918.68</ele>
        <time>2012-08-10T08:43:49Z</time>
      </trkpt>
      <trkpt lat="44.59588" lon="2.93784">
        <ele>918.2</ele>
        <time>2012-08-10T08:43:50Z</time>
      </trkpt>
      <trkpt lat="44.5959" lon="2.93783">
        <ele>918.2</ele>
        <time>2012-08-10T08:43:51Z</time>
      </trkpt>
      <trkpt lat="44.5961" lon="2.93759">
        <ele>913.39</ele>
        <time>2012-08-10T08:44:03Z</time>
      </trkpt>
      <trkpt lat="44.59633" lon="2.93743">
        <ele>911.95</ele>
        <time>2012-08-10T08:44:14Z</time>
      </trkpt>
      <trkpt lat="44.59635" lon="2.9374">
        <ele>911.95</ele>
        <time>2012-08-10T08:44:16Z</time>
      </trkpt>
      <trkpt lat="44.59635" lon="2.93737">
        <ele>911.95</ele>
        <time>2012-08-10T08:44:17Z</time>
      </trkpt>
      <trkpt lat="44.59635" lon="2.93734">
        <ele>912.43</ele>
        <time>2012-08-10T08:44:18Z</time>
      </trkpt>
      <trkpt lat="44.59635" lon="2.93732">
        <ele>912.43</ele>
        <time>2012-08-10T08:44:19Z</time>
      </trkpt>
      <trkpt lat="44.59635" lon="2.93726">
        <ele>912.91</ele>
        <time>2012-08-10T08:44:22Z</time>
      </trkpt>
      <trkpt lat="44.59633" lon="2.93724">
        <ele>913.39</ele>
        <time>2012-08-10T08:44:24Z</time>
      </trkpt>
      <trkpt lat="44.59624" lon="2.93711">
        <ele>914.83</ele>
        <time>2012-08-10T08:44:30Z</time>
      </trkpt>
      <trkpt lat="44.59622" lon="2.93705">
        <ele>914.83</ele>
        <time>2012-08-10T08:44:31Z</time>
      </trkpt>
      <trkpt lat="44.5962" lon="2.93698">
        <ele>914.83</ele>
        <time>2012-08-10T08:44:32Z</time>
      </trkpt>
      <trkpt lat="44.59618" lon="2.93691">
        <ele>914.83</ele>
        <time>2012-08-10T08:44:33Z</time>
      </trkpt>
      <trkpt lat="44.59614" lon="2.93685">
        <ele>914.35</ele>
        <time>2012-08-10T08:44:34Z</time>
      </trkpt>
      <trkpt lat="44.59611" lon="2.93679">
        <ele>913.87</ele>
        <time>2012-08-10T08:44:35Z</time>
      </trkpt>
      <trkpt lat="44.59601" lon="2.93666">
        <ele>913.39</ele>
        <time>2012-08-10T08:44:37Z</time>
      </trkpt>
      <trkpt lat="44.59574" lon="2.93638">
        <ele>911.47</ele>
        <time>2012-08-10T08:44:42Z</time>
      </trkpt>
      <trkpt lat="44.59568" lon="2.93632">
        <ele>910.51</ele>
        <time>2012-08-10T08:44:43Z</time>
      </trkpt>
      <trkpt lat="44.59564" lon="2.93624">
        <ele>910.03</ele>
        <time>2012-08-10T08:44:44Z</time>
      </trkpt>
      <trkpt lat="44.59552" lon="2.93601">
        <ele>908.1</ele>
        <time>2012-08-10T08:44:47Z</time>
      </trkpt>
      <trkpt lat="44.59526" lon="2.93556">
        <ele>905.22</ele>
        <time>2012-08-10T08:44:53Z</time>
      </trkpt>
      <trkpt lat="44.59522" lon="2.93549">
        <ele>904.74</ele>
        <time>2012-08-10T08:44:54Z</time>
      </trkpt>
      <trkpt lat="44.59504" lon="2.93521">
        <ele>902.33</ele>
        <time>2012-08-10T08:44:58Z</time>
      </trkpt>
      <trkpt lat="44.595" lon="2.93513">
        <ele>901.85</ele>
        <time>2012-08-10T08:44:59Z</time>
      </trkpt>
      <trkpt lat="44.59498" lon="2.93503">
        <ele>900.89</ele>
        <time>2012-08-10T08:45:00Z</time>
      </trkpt>
      <trkpt lat="44.59496" lon="2.93492">
        <ele>900.41</ele>
        <time>2012-08-10T08:45:01Z</time>
      </trkpt>
      <trkpt lat="44.59494" lon="2.93481">
        <ele>899.93</ele>
        <time>2012-08-10T08:45:02Z</time>
      </trkpt>
      <trkpt lat="44.59489" lon="2.93451">
        <ele>898.01</ele>
        <time>2012-08-10T08:45:05Z</time>
      </trkpt>
      <trkpt lat="44.59486" lon="2.93441">
        <ele>897.05</ele>
        <time>2012-08-10T08:45:06Z</time>
      </trkpt>
      <trkpt lat="44.59482" lon="2.93432">
        <ele>896.57</ele>
        <time>2012-08-10T08:45:07Z</time>
      </trkpt>
      <trkpt lat="44.59478" lon="2.93423">
        <ele>895.61</ele>
        <time>2012-08-10T08:45:08Z</time>
      </trkpt>
      <trkpt lat="44.59474" lon="2.93415">
        <ele>895.12</ele>
        <time>2012-08-10T08:45:09Z</time>
      </trkpt>
      <trkpt lat="44.59422" lon="2.93318">
        <ele>888.4</ele>
        <time>2012-08-10T08:45:19Z</time>
      </trkpt>
      <trkpt lat="44.59406" lon="2.93266">
        <ele>885.99</ele>
        <time>2012-08-10T08:45:23Z</time>
      </trkpt>
      <trkpt lat="44.59377" lon="2.93163">
        <ele>878.78</ele>
        <time>2012-08-10T08:45:32Z</time>
      </trkpt>
      <trkpt lat="44.59363" lon="2.93115">
        <ele>873.98</ele>
        <time>2012-08-10T08:45:38Z</time>
      </trkpt>
      <trkpt lat="44.59359" lon="2.93108">
        <ele>873.5</ele>
        <time>2012-08-10T08:45:39Z</time>
      </trkpt>
      <trkpt lat="44.59348" lon="2.93086">
        <ele>870.61</ele>
        <time>2012-08-10T08:45:43Z</time>
      </trkpt>
      <trkpt lat="44.59346" lon="2.9308">
        <ele>870.13</ele>
        <time>2012-08-10T08:45:44Z</time>
      </trkpt>
      <trkpt lat="44.59341" lon="2.93065">
        <ele>868.69</ele>
        <time>2012-08-10T08:45:46Z</time>
      </trkpt>
      <trkpt lat="44.5934" lon="2.93057">
        <ele>868.21</ele>
        <time>2012-08-10T08:45:47Z</time>
      </trkpt>
      <trkpt lat="44.59339" lon="2.93049">
        <ele>867.73</ele>
        <time>2012-08-10T08:45:48Z</time>
      </trkpt>
      <trkpt lat="44.59338" lon="2.93042">
        <ele>867.25</ele>
        <time>2012-08-10T08:45:49Z</time>
      </trkpt>
      <trkpt lat="44.59337" lon="2.93035">
        <ele>866.77</ele>
        <time>2012-08-10T08:45:50Z</time>
      </trkpt>
      <trkpt lat="44.59325" lon="2.92943">
        <ele>860.52</ele>
        <time>2012-08-10T08:46:00Z</time>
      </trkpt>
      <trkpt lat="44.59321" lon="2.92829">
        <ele>854.75</ele>
        <time>2012-08-10T08:46:10Z</time>
      </trkpt>
      <trkpt lat="44.59319" lon="2.92819">
        <ele>854.27</ele>
        <time>2012-08-10T08:46:11Z</time>
      </trkpt>
      <trkpt lat="44.59316" lon="2.92809">
        <ele>853.79</ele>
        <time>2012-08-10T08:46:12Z</time>
      </trkpt>
      <trkpt lat="44.59311" lon="2.92798">
        <ele>853.79</ele>
        <time>2012-08-10T08:46:13Z</time>
      </trkpt>
      <trkpt lat="44.59307" lon="2.92789">
        <ele>853.31</ele>
        <time>2012-08-10T08:46:14Z</time>
      </trkpt>
      <trkpt lat="44.59298" lon="2.9277">
        <ele>851.87</ele>
        <time>2012-08-10T08:46:16Z</time>
      </trkpt>
      <trkpt lat="44.59286" lon="2.92735">
        <ele>850.42</ele>
        <time>2012-08-10T08:46:19Z</time>
      </trkpt>
      <trkpt lat="44.59283" lon="2.92723">
        <ele>849.94</ele>
        <time>2012-08-10T08:46:20Z</time>
      </trkpt>
      <trkpt lat="44.59261" lon="2.92615">
        <ele>844.18</ele>
        <time>2012-08-10T08:46:29Z</time>
      </trkpt>
      <trkpt lat="44.59244" lon="2.9253">
        <ele>837.93</ele>
        <time>2012-08-10T08:46:39Z</time>
      </trkpt>
      <trkpt lat="44.59243" lon="2.92523">
        <ele>837.45</ele>
        <time>2012-08-10T08:46:40Z</time>
      </trkpt>
      <trkpt lat="44.59241" lon="2.92517">
        <ele>836.48</ele>
        <time>2012-08-10T08:46:41Z</time>
      </trkpt>
      <trkpt lat="44.59239" lon="2.9251">
        <ele>836</ele>
        <time>2012-08-10T08:46:42Z</time>
      </trkpt>
      <trkpt lat="44.59236" lon="2.92503">
        <ele>835.04</ele>
        <time>2012-08-10T08:46:43Z</time>
      </trkpt>
      <trkpt lat="44.59233" lon="2.92497">
        <ele>834.56</ele>
        <time>2012-08-10T08:46:44Z</time>
      </trkpt>
      <trkpt lat="44.5923" lon="2.92491">
        <ele>833.6</ele>
        <time>2012-08-10T08:46:45Z</time>
      </trkpt>
      <trkpt lat="44.59226" lon="2.92486">
        <ele>833.12</ele>
        <time>2012-08-10T08:46:46Z</time>
      </trkpt>
      <trkpt lat="44.59219" lon="2.92476">
        <ele>831.68</ele>
        <time>2012-08-10T08:46:48Z</time>
      </trkpt>
      <trkpt lat="44.59185" lon="2.92438">
        <ele>825.43</ele>
        <time>2012-08-10T08:46:56Z</time>
      </trkpt>
      <trkpt lat="44.59181" lon="2.92432">
        <ele>824.95</ele>
        <time>2012-08-10T08:46:57Z</time>
      </trkpt>
      <trkpt lat="44.59177" lon="2.92427">
        <ele>824.47</ele>
        <time>2012-08-10T08:46:58Z</time>
      </trkpt>
      <trkpt lat="44.59173" lon="2.92423">
        <ele>823.99</ele>
        <time>2012-08-10T08:46:59Z</time>
      </trkpt>
      <trkpt lat="44.59169" lon="2.92418">
        <ele>823.51</ele>
        <time>2012-08-10T08:47:00Z</time>
      </trkpt>
      <trkpt lat="44.59144" lon="2.92395">
        <ele>819.66</ele>
        <time>2012-08-10T08:47:08Z</time>
      </trkpt>
      <trkpt lat="44.59128" lon="2.92373">
        <ele>818.22</ele>
        <time>2012-08-10T08:47:18Z</time>
      </trkpt>
      <trkpt lat="44.59114" lon="2.92325">
        <ele>819.66</ele>
        <time>2012-08-10T08:47:33Z</time>
      </trkpt>
      <trkpt lat="44.5911" lon="2.92279">
        <ele>821.1</ele>
        <time>2012-08-10T08:47:48Z</time>
      </trkpt>
      <trkpt lat="44.59104" lon="2.92235">
        <ele>820.14</ele>
        <time>2012-08-10T08:47:59Z</time>
      </trkpt>
      <trkpt lat="44.59102" lon="2.92219">
        <ele>820.14</ele>
        <time>2012-08-10T08:48:10Z</time>
      </trkpt>
      <trkpt lat="44.59104" lon="2.92216">
        <ele>821.1</ele>
        <time>2012-08-10T08:48:28Z</time>
      </trkpt>
      <trkpt lat="44.59104" lon="2.92215">
        <ele>822.06</ele>
        <time>2012-08-10T08:48:53Z</time>
      </trkpt>
      <trkpt lat="44.59103" lon="2.92215">
        <ele>823.03</ele>
        <time>2012-08-10T08:49:26Z</time>
      </trkpt>
      <trkpt lat="44.59102" lon="2.92215">
        <ele>823.51</ele>
        <time>2012-08-10T08:50:01Z</time>
      </trkpt>
      <trkpt lat="44.59102" lon="2.92215">
        <ele>823.51</ele>
        <time>2012-08-10T08:50:32Z</time>
      </trkpt>
      <trkpt lat="44.59102" lon="2.92216">
        <ele>824.95</ele>
        <time>2012-08-10T08:51:02Z</time>
      </trkpt>
      <trkpt lat="44.59101" lon="2.92216">
        <ele>826.87</ele>
        <time>2012-08-10T08:51:34Z</time>
      </trkpt>
      <trkpt lat="44.591" lon="2.92216">
        <ele>827.35</ele>
        <time>2012-08-10T08:52:02Z</time>
      </trkpt>
      <trkpt lat="44.59099" lon="2.92217">
        <ele>827.83</ele>
        <time>2012-08-10T08:52:31Z</time>
      </trkpt>
      <trkpt lat="44.591" lon="2.92218">
        <ele>827.83</ele>
        <time>2012-08-10T08:53:02Z</time>
      </trkpt>
      <trkpt lat="44.591" lon="2.92217">
        <ele>827.83</ele>
        <time>2012-08-10T08:53:32Z</time>
      </trkpt>
      <trkpt lat="44.591" lon="2.92217">
        <ele>827.35</ele>
        <time>2012-08-10T08:53:55Z</time>
      </trkpt>
      <trkpt lat="44.591" lon="2.92217">
        <ele>826.87</ele>
        <time>2012-08-10T08:54:25Z</time>
      </trkpt>
      <trkpt lat="44.591" lon="2.92218">
        <ele>826.39</ele>
        <time>2012-08-10T08:54:49Z</time>
      </trkpt>
      <trkpt lat="44.59101" lon="2.92217">
        <ele>826.39</ele>
        <time>2012-08-10T08:55:16Z</time>
      </trkpt>
      <trkpt lat="44.59101" lon="2.92216">
        <ele>826.87</ele>
        <time>2012-08-10T08:55:44Z</time>
      </trkpt>
      <trkpt lat="44.59101" lon="2.92215">
        <ele>827.35</ele>
        <time>2012-08-10T08:56:06Z</time>
      </trkpt>
      <trkpt lat="44.59101" lon="2.92217">
        <ele>827.35</ele>
        <time>2012-08-10T08:56:33Z</time>
      </trkpt>
      <trkpt lat="44.59101" lon="2.92218">
        <ele>827.83</ele>
        <time>2012-08-10T08:56:56Z</time>
      </trkpt>
      <trkpt lat="44.59101" lon="2.92219">
        <ele>827.83</ele>
        <time>2012-08-10T08:57:24Z</time>
      </trkpt>
      <trkpt lat="44.59102" lon="2.9222">
        <ele>828.31</ele>
        <time>2012-08-10T08:57:53Z</time>
      </trkpt>
      <trkpt lat="44.59102" lon="2.9222">
        <ele>828.31</ele>
        <time>2012-08-10T08:58:20Z</time>
      </trkpt>
      <trkpt lat="44.59102" lon="2.92219">
        <ele>828.31</ele>
        <time>2012-08-10T08:58:47Z</time>
      </trkpt>
      <trkpt lat="44.59102" lon="2.9222">
        <ele>827.83</ele>
        <time>2012-08-10T08:59:11Z</time>
      </trkpt>
      <trkpt lat="44.59102" lon="2.92221">
        <ele>828.31</ele>
        <time>2012-08-10T08:59:41Z</time>
      </trkpt>
      <trkpt lat="44.59101" lon="2.92221">
        <ele>827.83</ele>
        <time>2012-08-10T09:00:05Z</time>
      </trkpt>
      <trkpt lat="44.59101" lon="2.92221">
        <ele>827.83</ele>
        <time>2012-08-10T09:00:31Z</time>
      </trkpt>
      <trkpt lat="44.591" lon="2.92221">
        <ele>827.83</ele>
        <time>2012-08-10T09:00:57Z</time>
      </trkpt>
      <trkpt lat="44.59099" lon="2.92221">
        <ele>827.83</ele>
        <time>2012-08-10T09:01:15Z</time>
      </trkpt>
      <trkpt lat="44.59098" lon="2.92222">
        <ele>827.83</ele>
        <time>2012-08-10T09:01:38Z</time>
      </trkpt>
      <trkpt lat="44.59099" lon="2.92221">
        <ele>827.83</ele>
        <time>2012-08-10T09:02:00Z</time>
      </trkpt>
      <trkpt lat="44.59099" lon="2.92219">
        <ele>827.83</ele>
        <time>2012-08-10T09:02:24Z</time>
      </trkpt>
      <trkpt lat="44.591" lon="2.92218">
        <ele>828.31</ele>
        <time>2012-08-10T09:02:51Z</time>
      </trkpt>
      <trkpt lat="44.591" lon="2.92217">
        <ele>828.31</ele>
        <time>2012-08-10T09:03:15Z</time>
      </trkpt>
      <trkpt lat="44.591" lon="2.92215">
        <ele>828.31</ele>
        <time>2012-08-10T09:03:48Z</time>
      </trkpt>
      <trkpt lat="44.59101" lon="2.92215">
        <ele>828.31</ele>
        <time>2012-08-10T09:04:21Z</time>
      </trkpt>
      <trkpt lat="44.59103" lon="2.92213">
        <ele>829.27</ele>
        <time>2012-08-10T09:04:51Z</time>
      </trkpt>
      <trkpt lat="44.59103" lon="2.92215">
        <ele>827.83</ele>
        <time>2012-08-10T09:05:09Z</time>
      </trkpt>
      <trkpt lat="44.59101" lon="2.92204">
        <ele>824.47</ele>
        <time>2012-08-10T09:05:24Z</time>
      </trkpt>
      <trkpt lat="44.59094" lon="2.92162">
        <ele>821.1</ele>
        <time>2012-08-10T09:05:37Z</time>
      </trkpt>
      <trkpt lat="44.59091" lon="2.92159">
        <ele>820.62</ele>
        <time>2012-08-10T09:05:41Z</time>
      </trkpt>
      <trkpt lat="44.5909" lon="2.9216">
        <ele>818.7</ele>
        <time>2012-08-10T09:05:44Z</time>
      </trkpt>
      <trkpt lat="44.59089" lon="2.92163">
        <ele>818.22</ele>
        <time>2012-08-10T09:05:45Z</time>
      </trkpt>
      <trkpt lat="44.59089" lon="2.92165">
        <ele>818.22</ele>
        <time>2012-08-10T09:05:46Z</time>
      </trkpt>
      <trkpt lat="44.59088" lon="2.92165">
        <ele>817.74</ele>
        <time>2012-08-10T09:05:47Z</time>
      </trkpt>
      <trkpt lat="44.59087" lon="2.92164">
        <ele>817.74</ele>
        <time>2012-08-10T09:05:48Z</time>
      </trkpt>
      <trkpt lat="44.59086" lon="2.92164">
        <ele>817.26</ele>
        <time>2012-08-10T09:05:49Z</time>
      </trkpt>
      <trkpt lat="44.59084" lon="2.92166">
        <ele>816.78</ele>
        <time>2012-08-10T09:05:50Z</time>
      </trkpt>
      <trkpt lat="44.59082" lon="2.92168">
        <ele>816.3</ele>
        <time>2012-08-10T09:05:51Z</time>
      </trkpt>
      <trkpt lat="44.59055" lon="2.92167">
        <ele>814.85</ele>
        <time>2012-08-10T09:06:00Z</time>
      </trkpt>
      <trkpt lat="44.5905" lon="2.92162">
        <ele>814.85</ele>
        <time>2012-08-10T09:06:02Z</time>
      </trkpt>
      <trkpt lat="44.59049" lon="2.92158">
        <ele>814.85</ele>
        <time>2012-08-10T09:06:03Z</time>
      </trkpt>
      <trkpt lat="44.59049" lon="2.92155">
        <ele>814.37</ele>
        <time>2012-08-10T09:06:04Z</time>
      </trkpt>
      <trkpt lat="44.59048" lon="2.92153">
        <ele>814.37</ele>
        <time>2012-08-10T09:06:05Z</time>
      </trkpt>
      <trkpt lat="44.59047" lon="2.9215">
        <ele>814.37</ele>
        <time>2012-08-10T09:06:06Z</time>
      </trkpt>
      <trkpt lat="44.59046" lon="2.92147">
        <ele>813.89</ele>
        <time>2012-08-10T09:06:07Z</time>
      </trkpt>
      <trkpt lat="44.59045" lon="2.92144">
        <ele>813.89</ele>
        <time>2012-08-10T09:06:08Z</time>
      </trkpt>
      <trkpt lat="44.59044" lon="2.9214">
        <ele>813.89</ele>
        <time>2012-08-10T09:06:09Z</time>
      </trkpt>
      <trkpt lat="44.59036" lon="2.92112">
        <ele>813.89</ele>
        <time>2012-08-10T09:06:18Z</time>
      </trkpt>
      <trkpt lat="44.59032" lon="2.92111">
        <ele>813.41</ele>
        <time>2012-08-10T09:06:20Z</time>
      </trkpt>
      <trkpt lat="44.5903" lon="2.92111">
        <ele>812.93</ele>
        <time>2012-08-10T09:06:21Z</time>
      </trkpt>
      <trkpt lat="44.59028" lon="2.92111">
        <ele>812.45</ele>
        <time>2012-08-10T09:06:22Z</time>
      </trkpt>
      <trkpt lat="44.59025" lon="2.92111">
        <ele>811.97</ele>
        <time>2012-08-10T09:06:23Z</time>
      </trkpt>
      <trkpt lat="44.59023" lon="2.9211">
        <ele>811.49</ele>
        <time>2012-08-10T09:06:24Z</time>
      </trkpt>
      <trkpt lat="44.5902" lon="2.9211">
        <ele>810.53</ele>
        <time>2012-08-10T09:06:25Z</time>
      </trkpt>
      <trkpt lat="44.58992" lon="2.92133">
        <ele>811.01</ele>
        <time>2012-08-10T09:06:37Z</time>
      </trkpt>
      <trkpt lat="44.58982" lon="2.92139">
        <ele>811.01</ele>
        <time>2012-08-10T09:06:42Z</time>
      </trkpt>
      <trkpt lat="44.5898" lon="2.92139">
        <ele>810.53</ele>
        <time>2012-08-10T09:06:43Z</time>
      </trkpt>
      <trkpt lat="44.58978" lon="2.92137">
        <ele>810.53</ele>
        <time>2012-08-10T09:06:44Z</time>
      </trkpt>
      <trkpt lat="44.58976" lon="2.92135">
        <ele>810.05</ele>
        <time>2012-08-10T09:06:45Z</time>
      </trkpt>
      <trkpt lat="44.58974" lon="2.92132">
        <ele>810.05</ele>
        <time>2012-08-10T09:06:46Z</time>
      </trkpt>
      <trkpt lat="44.58971" lon="2.92131">
        <ele>809.57</ele>
        <time>2012-08-10T09:06:47Z</time>
      </trkpt>
      <trkpt lat="44.58969" lon="2.92131">
        <ele>809.09</ele>
        <time>2012-08-10T09:06:48Z</time>
      </trkpt>
      <trkpt lat="44.58962" lon="2.92139">
        <ele>807.64</ele>
        <time>2012-08-10T09:06:51Z</time>
      </trkpt>
      <trkpt lat="44.58954" lon="2.92151">
        <ele>804.76</ele>
        <time>2012-08-10T09:06:55Z</time>
      </trkpt>
      <trkpt lat="44.58929" lon="2.92151">
        <ele>799.95</ele>
        <time>2012-08-10T09:07:01Z</time>
      </trkpt>
      <trkpt lat="44.58901" lon="2.92144">
        <ele>796.11</ele>
        <time>2012-08-10T09:07:11Z</time>
      </trkpt>
      <trkpt lat="44.58896" lon="2.92148">
        <ele>795.63</ele>
        <time>2012-08-10T09:07:15Z</time>
      </trkpt>
      <trkpt lat="44.58894" lon="2.92149">
        <ele>795.63</ele>
        <time>2012-08-10T09:07:16Z</time>
      </trkpt>
      <trkpt lat="44.58893" lon="2.92151">
        <ele>795.63</ele>
        <time>2012-08-10T09:07:17Z</time>
      </trkpt>
      <trkpt lat="44.58892" lon="2.92152">
        <ele>796.11</ele>
        <time>2012-08-10T09:07:18Z</time>
      </trkpt>
      <trkpt lat="44.58891" lon="2.92154">
        <ele>796.11</ele>
        <time>2012-08-10T09:07:19Z</time>
      </trkpt>
      <trkpt lat="44.5889" lon="2.92156">
        <ele>796.11</ele>
        <time>2012-08-10T09:07:20Z</time>
      </trkpt>
      <trkpt lat="44.58889" lon="2.92157">
        <ele>796.11</ele>
        <time>2012-08-10T09:07:21Z</time>
      </trkpt>
      <trkpt lat="44.58884" lon="2.92167">
        <ele>795.63</ele>
        <time>2012-08-10T09:07:27Z</time>
      </trkpt>
      <trkpt lat="44.58883" lon="2.92168">
        <ele>796.11</ele>
        <time>2012-08-10T09:07:28Z</time>
      </trkpt>
      <trkpt lat="44.58882" lon="2.92168">
        <ele>796.11</ele>
        <time>2012-08-10T09:07:29Z</time>
      </trkpt>
      <trkpt lat="44.58882" lon="2.92173">
        <ele>796.59</ele>
        <time>2012-08-10T09:07:34Z</time>
      </trkpt>
      <trkpt lat="44.58882" lon="2.92175">
        <ele>797.07</ele>
        <time>2012-08-10T09:07:35Z</time>
      </trkpt>
      <trkpt lat="44.58882" lon="2.92176">
        <ele>797.07</ele>
        <time>2012-08-10T09:07:36Z</time>
      </trkpt>
      <trkpt lat="44.58882" lon="2.92178">
        <ele>797.07</ele>
        <time>2012-08-10T09:07:37Z</time>
      </trkpt>
      <trkpt lat="44.58883" lon="2.92179">
        <ele>797.07</ele>
        <time>2012-08-10T09:07:38Z</time>
      </trkpt>
      <trkpt lat="44.58884" lon="2.9218">
        <ele>797.55</ele>
        <time>2012-08-10T09:07:39Z</time>
      </trkpt>
      <trkpt lat="44.58885" lon="2.92182">
        <ele>797.55</ele>
        <time>2012-08-10T09:07:40Z</time>
      </trkpt>
      <trkpt lat="44.58885" lon="2.92183">
        <ele>798.03</ele>
        <time>2012-08-10T09:07:41Z</time>
      </trkpt>
      <trkpt lat="44.58884" lon="2.92185">
        <ele>798.51</ele>
        <time>2012-08-10T09:07:42Z</time>
      </trkpt>
      <trkpt lat="44.58882" lon="2.92184">
        <ele>798.99</ele>
        <time>2012-08-10T09:07:44Z</time>
      </trkpt>
      <trkpt lat="44.58881" lon="2.92183">
        <ele>799.47</ele>
        <time>2012-08-10T09:07:45Z</time>
      </trkpt>
      <trkpt lat="44.5888" lon="2.92182">
        <ele>799.47</ele>
        <time>2012-08-10T09:07:46Z</time>
      </trkpt>
      <trkpt lat="44.58879" lon="2.92181">
        <ele>799.95</ele>
        <time>2012-08-10T09:07:47Z</time>
      </trkpt>
      <trkpt lat="44.58876" lon="2.92179">
        <ele>800.92</ele>
        <time>2012-08-10T09:07:52Z</time>
      </trkpt>
      <trkpt lat="44.58875" lon="2.9218">
        <ele>800.92</ele>
        <time>2012-08-10T09:07:53Z</time>
      </trkpt>
      <trkpt lat="44.58876" lon="2.92181">
        <ele>800.92</ele>
        <time>2012-08-10T09:07:54Z</time>
      </trkpt>
      <trkpt lat="44.58877" lon="2.92183">
        <ele>800.92</ele>
        <time>2012-08-10T09:07:55Z</time>
      </trkpt>
      <trkpt lat="44.58879" lon="2.92184">
        <ele>800.44</ele>
        <time>2012-08-10T09:07:56Z</time>
      </trkpt>
      <trkpt lat="44.5888" lon="2.92186">
        <ele>800.44</ele>
        <time>2012-08-10T09:07:57Z</time>
      </trkpt>
      <trkpt lat="44.58882" lon="2.92187">
        <ele>799.95</ele>
        <time>2012-08-10T09:07:58Z</time>
      </trkpt>
      <trkpt lat="44.58884" lon="2.92187">
        <ele>799.47</ele>
        <time>2012-08-10T09:07:59Z</time>
      </trkpt>
      <trkpt lat="44.58886" lon="2.92187">
        <ele>798.99</ele>
        <time>2012-08-10T09:08:00Z</time>
      </trkpt>
      <trkpt lat="44.58887" lon="2.92188">
        <ele>798.99</ele>
        <time>2012-08-10T09:08:01Z</time>
      </trkpt>
      <trkpt lat="44.58887" lon="2.9219">
        <ele>799.47</ele>
        <time>2012-08-10T09:08:04Z</time>
      </trkpt>
      <trkpt lat="44.58883" lon="2.92188">
        <ele>798.99</ele>
        <time>2012-08-10T09:08:07Z</time>
      </trkpt>
      <trkpt lat="44.58882" lon="2.92186">
        <ele>798.99</ele>
        <time>2012-08-10T09:08:08Z</time>
      </trkpt>
      <trkpt lat="44.58882" lon="2.92184">
        <ele>798.99</ele>
        <time>2012-08-10T09:08:09Z</time>
      </trkpt>
      <trkpt lat="44.58883" lon="2.92182">
        <ele>798.51</ele>
        <time>2012-08-10T09:08:10Z</time>
      </trkpt>
      <trkpt lat="44.58883" lon="2.92179">
        <ele>798.51</ele>
        <time>2012-08-10T09:08:11Z</time>
      </trkpt>
      <trkpt lat="44.58883" lon="2.92175">
        <ele>798.03</ele>
        <time>2012-08-10T09:08:12Z</time>
      </trkpt>
      <trkpt lat="44.58882" lon="2.92172">
        <ele>798.03</ele>
        <time>2012-08-10T09:08:13Z</time>
      </trkpt>
      <trkpt lat="44.58882" lon="2.92164">
        <ele>797.07</ele>
        <time>2012-08-10T09:08:16Z</time>
      </trkpt>
      <trkpt lat="44.58884" lon="2.92161">
        <ele>796.11</ele>
        <time>2012-08-10T09:08:30Z</time>
      </trkpt>
      <trkpt lat="44.58886" lon="2.92161">
        <ele>796.59</ele>
        <time>2012-08-10T09:08:55Z</time>
      </trkpt>
      <trkpt lat="44.58888" lon="2.92159">
        <ele>796.59</ele>
        <time>2012-08-10T09:08:56Z</time>
      </trkpt>
      <trkpt lat="44.58907" lon="2.92145">
        <ele>796.59</ele>
        <time>2012-08-10T09:09:05Z</time>
      </trkpt>
      <trkpt lat="44.58909" lon="2.92146">
        <ele>796.11</ele>
        <time>2012-08-10T09:09:06Z</time>
      </trkpt>
      <trkpt lat="44.58911" lon="2.92147">
        <ele>796.11</ele>
        <time>2012-08-10T09:09:07Z</time>
      </trkpt>
      <trkpt lat="44.58913" lon="2.92148">
        <ele>796.11</ele>
        <time>2012-08-10T09:09:08Z</time>
      </trkpt>
      <trkpt lat="44.58915" lon="2.92148">
        <ele>796.11</ele>
        <time>2012-08-10T09:09:09Z</time>
      </trkpt>
      <trkpt lat="44.58917" lon="2.92149">
        <ele>796.59</ele>
        <time>2012-08-10T09:09:10Z</time>
      </trkpt>
      <trkpt lat="44.58947" lon="2.92154">
        <ele>800.44</ele>
        <time>2012-08-10T09:09:25Z</time>
      </trkpt>
      <trkpt lat="44.58949" lon="2.92154">
        <ele>800.92</ele>
        <time>2012-08-10T09:09:26Z</time>
      </trkpt>
      <trkpt lat="44.5895" lon="2.92153">
        <ele>801.4</ele>
        <time>2012-08-10T09:09:27Z</time>
      </trkpt>
      <trkpt lat="44.58967" lon="2.92134">
        <ele>801.88</ele>
        <time>2012-08-10T09:09:41Z</time>
      </trkpt>
      <trkpt lat="44.5897" lon="2.92133">
        <ele>801.88</ele>
        <time>2012-08-10T09:09:43Z</time>
      </trkpt>
      <trkpt lat="44.58971" lon="2.92134">
        <ele>802.36</ele>
        <time>2012-08-10T09:09:44Z</time>
      </trkpt>
      <trkpt lat="44.58973" lon="2.92135">
        <ele>801.88</ele>
        <time>2012-08-10T09:09:45Z</time>
      </trkpt>
      <trkpt lat="44.58985" lon="2.92143">
        <ele>803.32</ele>
        <time>2012-08-10T09:09:54Z</time>
      </trkpt>
      <trkpt lat="44.58986" lon="2.92142">
        <ele>803.8</ele>
        <time>2012-08-10T09:09:55Z</time>
      </trkpt>
      <trkpt lat="44.58988" lon="2.92142">
        <ele>804.28</ele>
        <time>2012-08-10T09:09:56Z</time>
      </trkpt>
      <trkpt lat="44.58989" lon="2.92141">
        <ele>804.28</ele>
        <time>2012-08-10T09:09:57Z</time>
      </trkpt>
      <trkpt lat="44.5899" lon="2.92141">
        <ele>804.76</ele>
        <time>2012-08-10T09:09:58Z</time>
      </trkpt>
      <trkpt lat="44.59004" lon="2.92129">
        <ele>807.64</ele>
        <time>2012-08-10T09:10:11Z</time>
      </trkpt>
      <trkpt lat="44.59013" lon="2.92121">
        <ele>807.64</ele>
        <time>2012-08-10T09:10:23Z</time>
      </trkpt>
      <trkpt lat="44.59018" lon="2.92119">
        <ele>808.61</ele>
        <time>2012-08-10T09:10:26Z</time>
      </trkpt>
      <trkpt lat="44.59019" lon="2.92118">
        <ele>809.09</ele>
        <time>2012-08-10T09:10:27Z</time>
      </trkpt>
      <trkpt lat="44.59033" lon="2.92118">
        <ele>814.37</ele>
        <time>2012-08-10T09:10:38Z</time>
      </trkpt>
      <trkpt lat="44.59035" lon="2.92126">
        <ele>814.37</ele>
        <time>2012-08-10T09:10:42Z</time>
      </trkpt>
      <trkpt lat="44.59035" lon="2.92128">
        <ele>814.37</ele>
        <time>2012-08-10T09:10:43Z</time>
      </trkpt>
      <trkpt lat="44.59035" lon="2.9213">
        <ele>813.89</ele>
        <time>2012-08-10T09:10:44Z</time>
      </trkpt>
      <trkpt lat="44.59035" lon="2.92133">
        <ele>813.89</ele>
        <time>2012-08-10T09:10:45Z</time>
      </trkpt>
      <trkpt lat="44.59035" lon="2.92135">
        <ele>813.89</ele>
        <time>2012-08-10T09:10:46Z</time>
      </trkpt>
      <trkpt lat="44.59035" lon="2.92136">
        <ele>813.89</ele>
        <time>2012-08-10T09:10:47Z</time>
      </trkpt>
      <trkpt lat="44.59035" lon="2.92139">
        <ele>813.89</ele>
        <time>2012-08-10T09:10:48Z</time>
      </trkpt>
      <trkpt lat="44.59034" lon="2.92141">
        <ele>813.89</ele>
        <time>2012-08-10T09:10:49Z</time>
      </trkpt>
      <trkpt lat="44.59034" lon="2.92142">
        <ele>813.89</ele>
        <time>2012-08-10T09:10:50Z</time>
      </trkpt>
      <trkpt lat="44.59034" lon="2.92144">
        <ele>813.89</ele>
        <time>2012-08-10T09:11:00Z</time>
      </trkpt>
      <trkpt lat="44.59035" lon="2.92144">
        <ele>815.82</ele>
        <time>2012-08-10T09:11:28Z</time>
      </trkpt>
      <trkpt lat="44.59034" lon="2.92143">
        <ele>815.34</ele>
        <time>2012-08-10T09:11:59Z</time>
      </trkpt>
      <trkpt lat="44.59034" lon="2.92144">
        <ele>813.89</ele>
        <time>2012-08-10T09:12:34Z</time>
      </trkpt>
      <trkpt lat="44.59033" lon="2.92144">
        <ele>812.45</ele>
        <time>2012-08-10T09:13:09Z</time>
      </trkpt>
      <trkpt lat="44.59033" lon="2.92145">
        <ele>810.53</ele>
        <time>2012-08-10T09:13:40Z</time>
      </trkpt>
      <trkpt lat="44.59033" lon="2.92144">
        <ele>811.01</ele>
        <time>2012-08-10T09:13:53Z</time>
      </trkpt>
      <trkpt lat="44.59035" lon="2.92144">
        <ele>811.01</ele>
        <time>2012-08-10T09:13:57Z</time>
      </trkpt>
      <trkpt lat="44.59034" lon="2.92143">
        <ele>811.01</ele>
        <time>2012-08-10T09:13:58Z</time>
      </trkpt>
      <trkpt lat="44.59028" lon="2.92121">
        <ele>809.09</ele>
        <time>2012-08-10T09:14:07Z</time>
      </trkpt>
      <trkpt lat="44.59027" lon="2.92118">
        <ele>809.09</ele>
        <time>2012-08-10T09:14:08Z</time>
      </trkpt>
      <trkpt lat="44.59025" lon="2.92117">
        <ele>809.09</ele>
        <time>2012-08-10T09:14:09Z</time>
      </trkpt>
      <trkpt lat="44.59022" lon="2.92116">
        <ele>808.61</ele>
        <time>2012-08-10T09:14:10Z</time>
      </trkpt>
      <trkpt lat="44.5902" lon="2.92115">
        <ele>808.61</ele>
        <time>2012-08-10T09:14:11Z</time>
      </trkpt>
      <trkpt lat="44.59017" lon="2.92115">
        <ele>808.13</ele>
        <time>2012-08-10T09:14:12Z</time>
      </trkpt>
      <trkpt lat="44.58994" lon="2.92137">
        <ele>807.64</ele>
        <time>2012-08-10T09:14:21Z</time>
      </trkpt>
      <trkpt lat="44.58966" lon="2.92133">
        <ele>807.64</ele>
        <time>2012-08-10T09:14:31Z</time>
      </trkpt>
      <trkpt lat="44.58964" lon="2.92134">
        <ele>806.68</ele>
        <time>2012-08-10T09:14:32Z</time>
      </trkpt>
      <trkpt lat="44.58961" lon="2.92138">
        <ele>806.2</ele>
        <time>2012-08-10T09:14:33Z</time>
      </trkpt>
      <trkpt lat="44.58955" lon="2.92148">
        <ele>805.24</ele>
        <time>2012-08-10T09:14:35Z</time>
      </trkpt>
      <trkpt lat="44.5895" lon="2.92153">
        <ele>805.24</ele>
        <time>2012-08-10T09:14:36Z</time>
      </trkpt>
      <trkpt lat="44.58943" lon="2.92154">
        <ele>805.24</ele>
        <time>2012-08-10T09:14:37Z</time>
      </trkpt>
      <trkpt lat="44.58936" lon="2.92154">
        <ele>804.76</ele>
        <time>2012-08-10T09:14:38Z</time>
      </trkpt>
      <trkpt lat="44.58929" lon="2.92152">
        <ele>803.8</ele>
        <time>2012-08-10T09:14:39Z</time>
      </trkpt>
      <trkpt lat="44.58903" lon="2.92146">
        <ele>799.47</ele>
        <time>2012-08-10T09:14:43Z</time>
      </trkpt>
      <trkpt lat="44.58841" lon="2.91982">
        <ele>791.3</ele>
      </trkpt>
    </trkseg>
  </trk>
  <trk>
    <name><![CDATA[Compostelle Nasbinals-St Chely_2]]></name>
    <trkseg>
      <trkpt lat="44.58903" lon="2.92146">
        <ele>799.47</ele>
        <time>2012-08-10T09:14:43Z</time>
      </trkpt>
      <trkpt lat="44.58898" lon="2.92147">
        <ele>798.51</ele>
        <time>2012-08-10T09:14:44Z</time>
      </trkpt>
      <trkpt lat="44.58894" lon="2.92149">
        <ele>798.03</ele>
        <time>2012-08-10T09:14:45Z</time>
      </trkpt>
      <trkpt lat="44.58891" lon="2.92152">
        <ele>797.55</ele>
        <time>2012-08-10T09:14:46Z</time>
      </trkpt>
      <trkpt lat="44.58889" lon="2.92155">
        <ele>797.55</ele>
        <time>2012-08-10T09:14:47Z</time>
      </trkpt>
      <trkpt lat="44.58888" lon="2.92157">
        <ele>797.55</ele>
        <time>2012-08-10T09:14:48Z</time>
      </trkpt>
      <trkpt lat="44.58886" lon="2.92158">
        <ele>797.55</ele>
        <time>2012-08-10T09:14:49Z</time>
      </trkpt>
      <trkpt lat="44.58885" lon="2.9216">
        <ele>797.55</ele>
        <time>2012-08-10T09:14:50Z</time>
      </trkpt>
      <trkpt lat="44.58884" lon="2.92162">
        <ele>797.55</ele>
        <time>2012-08-10T09:14:51Z</time>
      </trkpt>
      <trkpt lat="44.58883" lon="2.92163">
        <ele>797.07</ele>
        <time>2012-08-10T09:14:52Z</time>
      </trkpt>
      <trkpt lat="44.58882" lon="2.92165">
        <ele>797.55</ele>
        <time>2012-08-10T09:14:53Z</time>
      </trkpt>
      <trkpt lat="44.58881" lon="2.92167">
        <ele>797.55</ele>
        <time>2012-08-10T09:14:54Z</time>
      </trkpt>
      <trkpt lat="44.58881" lon="2.92169">
        <ele>798.03</ele>
        <time>2012-08-10T09:14:55Z</time>
      </trkpt>
      <trkpt lat="44.58881" lon="2.92171">
        <ele>798.03</ele>
        <time>2012-08-10T09:14:56Z</time>
      </trkpt>
      <trkpt lat="44.58882" lon="2.92174">
        <ele>798.51</ele>
        <time>2012-08-10T09:14:57Z</time>
      </trkpt>
      <trkpt lat="44.58883" lon="2.92176">
        <ele>798.51</ele>
        <time>2012-08-10T09:14:58Z</time>
      </trkpt>
      <trkpt lat="44.58884" lon="2.92178">
        <ele>798.99</ele>
        <time>2012-08-10T09:14:59Z</time>
      </trkpt>
      <trkpt lat="44.58885" lon="2.9218">
        <ele>799.47</ele>
        <time>2012-08-10T09:15:00Z</time>
      </trkpt>
      <trkpt lat="44.58885" lon="2.92182">
        <ele>799.47</ele>
        <time>2012-08-10T09:15:01Z</time>
      </trkpt>
      <trkpt lat="44.58886" lon="2.92184">
        <ele>799.47</ele>
        <time>2012-08-10T09:15:02Z</time>
      </trkpt>
      <trkpt lat="44.58887" lon="2.92186">
        <ele>799.47</ele>
        <time>2012-08-10T09:15:03Z</time>
      </trkpt>
      <trkpt lat="44.58894" lon="2.92215">
        <ele>801.88</ele>
        <time>2012-08-10T09:15:18Z</time>
      </trkpt>
      <trkpt lat="44.58893" lon="2.92221">
        <ele>802.36</ele>
        <time>2012-08-10T09:15:21Z</time>
      </trkpt>
      <trkpt lat="44.58893" lon="2.92222">
        <ele>802.84</ele>
        <time>2012-08-10T09:15:22Z</time>
      </trkpt>
      <trkpt lat="44.5888" lon="2.92215">
        <ele>806.2</ele>
        <time>2012-08-10T09:15:35Z</time>
      </trkpt>
      <trkpt lat="44.58862" lon="2.92193">
        <ele>805.72</ele>
        <time>2012-08-10T09:15:51Z</time>
      </trkpt>
      <trkpt lat="44.5886" lon="2.92191">
        <ele>805.72</ele>
        <time>2012-08-10T09:15:53Z</time>
      </trkpt>
      <trkpt lat="44.58859" lon="2.92192">
        <ele>805.72</ele>
        <time>2012-08-10T09:15:54Z</time>
      </trkpt>
      <trkpt lat="44.58857" lon="2.92192">
        <ele>805.72</ele>
        <time>2012-08-10T09:15:55Z</time>
      </trkpt>
      <trkpt lat="44.58856" lon="2.92193">
        <ele>805.72</ele>
        <time>2012-08-10T09:15:56Z</time>
      </trkpt>
      <trkpt lat="44.58857" lon="2.92198">
        <ele>805.72</ele>
        <time>2012-08-10T09:15:59Z</time>
      </trkpt>
      <trkpt lat="44.58867" lon="2.92215">
        <ele>807.16</ele>
        <time>2012-08-10T09:16:10Z</time>
      </trkpt>
      <trkpt lat="44.58869" lon="2.92221">
        <ele>807.64</ele>
        <time>2012-08-10T09:16:14Z</time>
      </trkpt>
      <trkpt lat="44.5887" lon="2.92224">
        <ele>808.13</ele>
        <time>2012-08-10T09:16:16Z</time>
      </trkpt>
      <trkpt lat="44.58862" lon="2.9222">
        <ele>809.09</ele>
        <time>2012-08-10T09:16:26Z</time>
      </trkpt>
      <trkpt lat="44.58854" lon="2.92211">
        <ele>810.53</ele>
        <time>2012-08-10T09:16:33Z</time>
      </trkpt>
      <trkpt lat="44.58836" lon="2.92203">
        <ele>813.41</ele>
        <time>2012-08-10T09:16:48Z</time>
      </trkpt>
      <trkpt lat="44.58835" lon="2.92202">
        <ele>813.41</ele>
        <time>2012-08-10T09:16:49Z</time>
      </trkpt>
      <trkpt lat="44.58821" lon="2.92193">
        <ele>814.85</ele>
        <time>2012-08-10T09:17:01Z</time>
      </trkpt>
      <trkpt lat="44.58816" lon="2.92192">
        <ele>815.82</ele>
        <time>2012-08-10T09:17:05Z</time>
      </trkpt>
      <trkpt lat="44.58812" lon="2.92189">
        <ele>817.26</ele>
        <time>2012-08-10T09:17:09Z</time>
      </trkpt>
      <trkpt lat="44.58794" lon="2.92175">
        <ele>819.18</ele>
        <time>2012-08-10T09:17:27Z</time>
      </trkpt>
      <trkpt lat="44.5878" lon="2.92165">
        <ele>821.1</ele>
        <time>2012-08-10T09:17:42Z</time>
      </trkpt>
      <trkpt lat="44.58778" lon="2.92162">
        <ele>821.1</ele>
        <time>2012-08-10T09:17:44Z</time>
      </trkpt>
      <trkpt lat="44.58776" lon="2.9216">
        <ele>821.1</ele>
        <time>2012-08-10T09:17:46Z</time>
      </trkpt>
      <trkpt lat="44.5877" lon="2.92158">
        <ele>821.58</ele>
        <time>2012-08-10T09:17:50Z</time>
      </trkpt>
      <trkpt lat="44.58766" lon="2.92154">
        <ele>823.03</ele>
        <time>2012-08-10T09:17:54Z</time>
      </trkpt>
      <trkpt lat="44.58764" lon="2.92152">
        <ele>823.51</ele>
        <time>2012-08-10T09:17:56Z</time>
      </trkpt>
      <trkpt lat="44.58754" lon="2.92141">
        <ele>823.99</ele>
        <time>2012-08-10T09:18:07Z</time>
      </trkpt>
      <trkpt lat="44.58752" lon="2.92139">
        <ele>823.99</ele>
        <time>2012-08-10T09:18:10Z</time>
      </trkpt>
      <trkpt lat="44.58749" lon="2.92135">
        <ele>823.99</ele>
        <time>2012-08-10T09:18:14Z</time>
      </trkpt>
      <trkpt lat="44.58747" lon="2.92133">
        <ele>824.47</ele>
        <time>2012-08-10T09:18:16Z</time>
      </trkpt>
      <trkpt lat="44.58738" lon="2.92123">
        <ele>823.03</ele>
        <time>2012-08-10T09:18:25Z</time>
      </trkpt>
      <trkpt lat="44.58736" lon="2.92119">
        <ele>822.55</ele>
        <time>2012-08-10T09:18:28Z</time>
      </trkpt>
      <trkpt lat="44.58726" lon="2.92104">
        <ele>823.51</ele>
        <time>2012-08-10T09:18:43Z</time>
      </trkpt>
      <trkpt lat="44.58717" lon="2.92092">
        <ele>824.47</ele>
        <time>2012-08-10T09:18:55Z</time>
      </trkpt>
      <trkpt lat="44.58705" lon="2.92074">
        <ele>828.31</ele>
        <time>2012-08-10T09:19:10Z</time>
      </trkpt>
      <trkpt lat="44.58702" lon="2.9207">
        <ele>829.76</ele>
        <time>2012-08-10T09:19:13Z</time>
      </trkpt>
      <trkpt lat="44.5869" lon="2.92063">
        <ele>833.6</ele>
        <time>2012-08-10T09:19:26Z</time>
      </trkpt>
      <trkpt lat="44.58679" lon="2.92051">
        <ele>837.93</ele>
        <time>2012-08-10T09:19:39Z</time>
      </trkpt>
      <trkpt lat="44.58673" lon="2.92043">
        <ele>839.85</ele>
        <time>2012-08-10T09:19:46Z</time>
      </trkpt>
      <trkpt lat="44.58669" lon="2.92039">
        <ele>840.33</ele>
        <time>2012-08-10T09:19:49Z</time>
      </trkpt>
      <trkpt lat="44.58656" lon="2.92028">
        <ele>842.73</ele>
        <time>2012-08-10T09:19:58Z</time>
      </trkpt>
      <trkpt lat="44.58652" lon="2.92035">
        <ele>841.77</ele>
        <time>2012-08-10T09:20:09Z</time>
      </trkpt>
      <trkpt lat="44.58656" lon="2.9205">
        <ele>846.1</ele>
        <time>2012-08-10T09:20:24Z</time>
      </trkpt>
      <trkpt lat="44.58661" lon="2.92058">
        <ele>848.5</ele>
        <time>2012-08-10T09:20:34Z</time>
      </trkpt>
      <trkpt lat="44.58666" lon="2.92075">
        <ele>849.46</ele>
        <time>2012-08-10T09:20:49Z</time>
      </trkpt>
      <trkpt lat="44.58661" lon="2.92077">
        <ele>850.42</ele>
        <time>2012-08-10T09:21:00Z</time>
      </trkpt>
      <trkpt lat="44.58646" lon="2.92065">
        <ele>851.38</ele>
        <time>2012-08-10T09:21:12Z</time>
      </trkpt>
      <trkpt lat="44.58631" lon="2.92047">
        <ele>852.35</ele>
        <time>2012-08-10T09:21:26Z</time>
      </trkpt>
      <trkpt lat="44.58613" lon="2.92024">
        <ele>856.67</ele>
        <time>2012-08-10T09:21:41Z</time>
      </trkpt>
      <trkpt lat="44.58596" lon="2.91999">
        <ele>860.52</ele>
        <time>2012-08-10T09:21:56Z</time>
      </trkpt>
      <trkpt lat="44.58575" lon="2.91981">
        <ele>861.48</ele>
        <time>2012-08-10T09:22:11Z</time>
      </trkpt>
      <trkpt lat="44.58572" lon="2.91978">
        <ele>861.48</ele>
        <time>2012-08-10T09:22:13Z</time>
      </trkpt>
      <trkpt lat="44.58556" lon="2.9197">
        <ele>860.04</ele>
        <time>2012-08-10T09:22:24Z</time>
      </trkpt>
      <trkpt lat="44.58538" lon="2.91961">
        <ele>861</ele>
        <time>2012-08-10T09:22:35Z</time>
      </trkpt>
      <trkpt lat="44.58536" lon="2.9196">
        <ele>861</ele>
        <time>2012-08-10T09:22:36Z</time>
      </trkpt>
      <trkpt lat="44.58509" lon="2.91952">
        <ele>862.44</ele>
        <time>2012-08-10T09:22:52Z</time>
      </trkpt>
      <trkpt lat="44.58483" lon="2.91944">
        <ele>866.29</ele>
        <time>2012-08-10T09:23:08Z</time>
      </trkpt>
      <trkpt lat="44.58458" lon="2.91941">
        <ele>866.29</ele>
        <time>2012-08-10T09:23:24Z</time>
      </trkpt>
      <trkpt lat="44.58438" lon="2.91939">
        <ele>867.73</ele>
        <time>2012-08-10T09:23:36Z</time>
      </trkpt>
      <trkpt lat="44.58432" lon="2.91937">
        <ele>868.69</ele>
        <time>2012-08-10T09:23:40Z</time>
      </trkpt>
      <trkpt lat="44.58405" lon="2.91931">
        <ele>867.25</ele>
        <time>2012-08-10T09:23:57Z</time>
      </trkpt>
      <trkpt lat="44.58383" lon="2.9192">
        <ele>870.61</ele>
        <time>2012-08-10T09:24:14Z</time>
      </trkpt>
      <trkpt lat="44.58374" lon="2.91917">
        <ele>874.94</ele>
        <time>2012-08-10T09:24:20Z</time>
      </trkpt>
      <trkpt lat="44.58355" lon="2.91904">
        <ele>878.3</ele>
        <time>2012-08-10T09:24:33Z</time>
      </trkpt>
      <trkpt lat="44.58347" lon="2.91899">
        <ele>880.22</ele>
        <time>2012-08-10T09:24:38Z</time>
      </trkpt>
      <trkpt lat="44.58328" lon="2.91878">
        <ele>886.47</ele>
        <time>2012-08-10T09:24:54Z</time>
      </trkpt>
      <trkpt lat="44.58304" lon="2.91863">
        <ele>885.99</ele>
        <time>2012-08-10T09:25:08Z</time>
      </trkpt>
      <trkpt lat="44.583" lon="2.91861">
        <ele>885.51</ele>
        <time>2012-08-10T09:25:11Z</time>
      </trkpt>
      <trkpt lat="44.58287" lon="2.91856">
        <ele>885.51</ele>
        <time>2012-08-10T09:25:19Z</time>
      </trkpt>
      <trkpt lat="44.58281" lon="2.91852">
        <ele>885.51</ele>
        <time>2012-08-10T09:25:23Z</time>
      </trkpt>
      <trkpt lat="44.58259" lon="2.91844">
        <ele>882.63</ele>
        <time>2012-08-10T09:25:38Z</time>
      </trkpt>
      <trkpt lat="44.58248" lon="2.91839">
        <ele>882.63</ele>
        <time>2012-08-10T09:25:46Z</time>
      </trkpt>
      <trkpt lat="44.58242" lon="2.91837">
        <ele>883.11</ele>
        <time>2012-08-10T09:25:50Z</time>
      </trkpt>
      <trkpt lat="44.58214" lon="2.91826">
        <ele>885.03</ele>
        <time>2012-08-10T09:26:07Z</time>
      </trkpt>
      <trkpt lat="44.58188" lon="2.9182">
        <ele>885.99</ele>
        <time>2012-08-10T09:26:24Z</time>
      </trkpt>
      <trkpt lat="44.58161" lon="2.91808">
        <ele>885.03</ele>
        <time>2012-08-10T09:26:37Z</time>
      </trkpt>
      <trkpt lat="44.58156" lon="2.91808">
        <ele>884.07</ele>
        <time>2012-08-10T09:26:38Z</time>
      </trkpt>
      <trkpt lat="44.58151" lon="2.91806">
        <ele>883.59</ele>
        <time>2012-08-10T09:26:39Z</time>
      </trkpt>
      <trkpt lat="44.58146" lon="2.91803">
        <ele>883.11</ele>
        <time>2012-08-10T09:26:40Z</time>
      </trkpt>
      <trkpt lat="44.58118" lon="2.91784">
        <ele>878.78</ele>
        <time>2012-08-10T09:26:47Z</time>
      </trkpt>
      <trkpt lat="44.58113" lon="2.91781">
        <ele>878.78</ele>
        <time>2012-08-10T09:26:48Z</time>
      </trkpt>
      <trkpt lat="44.58108" lon="2.9178">
        <ele>878.3</ele>
        <time>2012-08-10T09:26:49Z</time>
      </trkpt>
      <trkpt lat="44.58103" lon="2.91779">
        <ele>877.34</ele>
        <time>2012-08-10T09:26:50Z</time>
      </trkpt>
      <trkpt lat="44.58097" lon="2.91779">
        <ele>876.86</ele>
        <time>2012-08-10T09:26:51Z</time>
      </trkpt>
      <trkpt lat="44.58091" lon="2.91779">
        <ele>876.86</ele>
        <time>2012-08-10T09:26:52Z</time>
      </trkpt>
      <trkpt lat="44.58076" lon="2.91783">
        <ele>875.9</ele>
        <time>2012-08-10T09:26:55Z</time>
      </trkpt>
      <trkpt lat="44.58072" lon="2.91785">
        <ele>875.42</ele>
        <time>2012-08-10T09:26:56Z</time>
      </trkpt>
      <trkpt lat="44.58041" lon="2.91791">
        <ele>875.42</ele>
        <time>2012-08-10T09:27:07Z</time>
      </trkpt>
      <trkpt lat="44.58004" lon="2.91801">
        <ele>875.42</ele>
        <time>2012-08-10T09:27:18Z</time>
      </trkpt>
      <trkpt lat="44.57958" lon="2.91815">
        <ele>878.3</ele>
        <time>2012-08-10T09:27:31Z</time>
      </trkpt>
      <trkpt lat="44.57909" lon="2.91827">
        <ele>879.74</ele>
        <time>2012-08-10T09:27:43Z</time>
      </trkpt>
      <trkpt lat="44.57873" lon="2.91849">
        <ele>876.86</ele>
        <time>2012-08-10T09:27:54Z</time>
      </trkpt>
      <trkpt lat="44.57855" lon="2.9186">
        <ele>873.01</ele>
        <time>2012-08-10T09:28:02Z</time>
      </trkpt>
      <trkpt lat="44.57854" lon="2.91863">
        <ele>873.01</ele>
        <time>2012-08-10T09:28:03Z</time>
      </trkpt>
      <trkpt lat="44.57837" lon="2.9187">
        <ele>870.13</ele>
        <time>2012-08-10T09:28:13Z</time>
      </trkpt>
      <trkpt lat="44.57829" lon="2.91872">
        <ele>870.13</ele>
        <time>2012-08-10T09:28:17Z</time>
      </trkpt>
      <trkpt lat="44.57824" lon="2.9187">
        <ele>869.65</ele>
        <time>2012-08-10T09:28:21Z</time>
      </trkpt>
      <trkpt lat="44.57802" lon="2.91845">
        <ele>869.65</ele>
        <time>2012-08-10T09:28:33Z</time>
      </trkpt>
      <trkpt lat="44.57798" lon="2.9182">
        <ele>870.13</ele>
        <time>2012-08-10T09:28:44Z</time>
      </trkpt>
      <trkpt lat="44.57793" lon="2.91807">
        <ele>870.61</ele>
        <time>2012-08-10T09:28:49Z</time>
      </trkpt>
      <trkpt lat="44.57791" lon="2.91804">
        <ele>871.09</ele>
        <time>2012-08-10T09:28:51Z</time>
      </trkpt>
      <trkpt lat="44.57789" lon="2.91799">
        <ele>870.61</ele>
        <time>2012-08-10T09:28:54Z</time>
      </trkpt>
      <trkpt lat="44.57784" lon="2.91791">
        <ele>873.01</ele>
        <time>2012-08-10T09:28:59Z</time>
      </trkpt>
      <trkpt lat="44.57785" lon="2.91785">
        <ele>873.98</ele>
        <time>2012-08-10T09:29:04Z</time>
      </trkpt>
      <trkpt lat="44.57784" lon="2.91783">
        <ele>874.46</ele>
        <time>2012-08-10T09:29:06Z</time>
      </trkpt>
      <trkpt lat="44.5778" lon="2.91764">
        <ele>873.98</ele>
        <time>2012-08-10T09:29:18Z</time>
      </trkpt>
      <trkpt lat="44.57778" lon="2.91749">
        <ele>873.98</ele>
        <time>2012-08-10T09:29:29Z</time>
      </trkpt>
      <trkpt lat="44.57779" lon="2.91746">
        <ele>873.98</ele>
        <time>2012-08-10T09:29:30Z</time>
      </trkpt>
      <trkpt lat="44.57784" lon="2.91726">
        <ele>876.86</ele>
        <time>2012-08-10T09:29:41Z</time>
      </trkpt>
      <trkpt lat="44.57787" lon="2.91693">
        <ele>875.9</ele>
        <time>2012-08-10T09:29:54Z</time>
      </trkpt>
      <trkpt lat="44.57789" lon="2.91647">
        <ele>869.17</ele>
        <time>2012-08-10T09:30:07Z</time>
      </trkpt>
      <trkpt lat="44.57791" lon="2.91594">
        <ele>862.92</ele>
        <time>2012-08-10T09:30:21Z</time>
      </trkpt>
      <trkpt lat="44.57792" lon="2.91589">
        <ele>861.96</ele>
        <time>2012-08-10T09:30:22Z</time>
      </trkpt>
      <trkpt lat="44.57793" lon="2.91584">
        <ele>861.96</ele>
        <time>2012-08-10T09:30:23Z</time>
      </trkpt>
      <trkpt lat="44.57793" lon="2.91578">
        <ele>861.48</ele>
        <time>2012-08-10T09:30:24Z</time>
      </trkpt>
      <trkpt lat="44.57792" lon="2.91572">
        <ele>861</ele>
        <time>2012-08-10T09:30:25Z</time>
      </trkpt>
      <trkpt lat="44.57799" lon="2.91515">
        <ele>863.4</ele>
        <time>2012-08-10T09:30:35Z</time>
      </trkpt>
      <trkpt lat="44.578" lon="2.91462">
        <ele>864.84</ele>
        <time>2012-08-10T09:30:45Z</time>
      </trkpt>
      <trkpt lat="44.57802" lon="2.91442">
        <ele>864.84</ele>
        <time>2012-08-10T09:30:49Z</time>
      </trkpt>
      <trkpt lat="44.57802" lon="2.91437">
        <ele>865.8</ele>
        <time>2012-08-10T09:30:50Z</time>
      </trkpt>
      <trkpt lat="44.57803" lon="2.91432">
        <ele>866.29</ele>
        <time>2012-08-10T09:30:51Z</time>
      </trkpt>
      <trkpt lat="44.57804" lon="2.91427">
        <ele>867.25</ele>
        <time>2012-08-10T09:30:52Z</time>
      </trkpt>
      <trkpt lat="44.57805" lon="2.91423">
        <ele>868.21</ele>
        <time>2012-08-10T09:30:53Z</time>
      </trkpt>
      <trkpt lat="44.57806" lon="2.91417">
        <ele>869.65</ele>
        <time>2012-08-10T09:30:54Z</time>
      </trkpt>
      <trkpt lat="44.5781" lon="2.91411">
        <ele>872.05</ele>
        <time>2012-08-10T09:30:55Z</time>
      </trkpt>
      <trkpt lat="44.57811" lon="2.91405">
        <ele>873.01</ele>
        <time>2012-08-10T09:30:56Z</time>
      </trkpt>
      <trkpt lat="44.57812" lon="2.91399">
        <ele>873.5</ele>
        <time>2012-08-10T09:30:57Z</time>
      </trkpt>
      <trkpt lat="44.57812" lon="2.91394">
        <ele>873.98</ele>
        <time>2012-08-10T09:30:58Z</time>
      </trkpt>
      <trkpt lat="44.57811" lon="2.91388">
        <ele>874.94</ele>
        <time>2012-08-10T09:30:59Z</time>
      </trkpt>
      <trkpt lat="44.57803" lon="2.91335">
        <ele>881.19</ele>
        <time>2012-08-10T09:31:09Z</time>
      </trkpt>
      <trkpt lat="44.5778" lon="2.91304">
        <ele>888.4</ele>
        <time>2012-08-10T09:31:19Z</time>
      </trkpt>
      <trkpt lat="44.5776" lon="2.91264">
        <ele>895.61</ele>
        <time>2012-08-10T09:31:29Z</time>
      </trkpt>
      <trkpt lat="44.57737" lon="2.912">
        <ele>904.74</ele>
        <time>2012-08-10T09:31:42Z</time>
      </trkpt>
      <trkpt lat="44.57706" lon="2.9116">
        <ele>906.66</ele>
        <time>2012-08-10T09:31:55Z</time>
      </trkpt>
      <trkpt lat="44.57671" lon="2.91104">
        <ele>906.18</ele>
        <time>2012-08-10T09:32:06Z</time>
      </trkpt>
      <trkpt lat="44.57654" lon="2.91074">
        <ele>906.66</ele>
        <time>2012-08-10T09:32:11Z</time>
      </trkpt>
      <trkpt lat="44.5765" lon="2.91069">
        <ele>906.66</ele>
        <time>2012-08-10T09:32:12Z</time>
      </trkpt>
      <trkpt lat="44.57646" lon="2.91064">
        <ele>906.66</ele>
        <time>2012-08-10T09:32:13Z</time>
      </trkpt>
      <trkpt lat="44.57641" lon="2.9106">
        <ele>906.66</ele>
        <time>2012-08-10T09:32:14Z</time>
      </trkpt>
      <trkpt lat="44.57637" lon="2.91057">
        <ele>907.14</ele>
        <time>2012-08-10T09:32:15Z</time>
      </trkpt>
      <trkpt lat="44.57608" lon="2.91035">
        <ele>908.58</ele>
        <time>2012-08-10T09:32:25Z</time>
      </trkpt>
      <trkpt lat="44.57602" lon="2.9103">
        <ele>910.03</ele>
        <time>2012-08-10T09:32:29Z</time>
      </trkpt>
      <trkpt lat="44.57591" lon="2.91013">
        <ele>911.95</ele>
        <time>2012-08-10T09:32:40Z</time>
      </trkpt>
      <trkpt lat="44.57589" lon="2.91">
        <ele>914.83</ele>
        <time>2012-08-10T09:32:51Z</time>
      </trkpt>
      <trkpt lat="44.57582" lon="2.90981">
        <ele>910.51</ele>
        <time>2012-08-10T09:33:06Z</time>
      </trkpt>
      <trkpt lat="44.57583" lon="2.90968">
        <ele>903.78</ele>
        <time>2012-08-10T09:33:23Z</time>
      </trkpt>
      <trkpt lat="44.57587" lon="2.90944">
        <ele>897.53</ele>
        <time>2012-08-10T09:33:37Z</time>
      </trkpt>
      <trkpt lat="44.5759" lon="2.90925">
        <ele>897.05</ele>
        <time>2012-08-10T09:33:52Z</time>
      </trkpt>
      <trkpt lat="44.57592" lon="2.90921">
        <ele>894.64</ele>
        <time>2012-08-10T09:34:07Z</time>
      </trkpt>
      <trkpt lat="44.5759" lon="2.90915">
        <ele>894.16</ele>
        <time>2012-08-10T09:34:20Z</time>
      </trkpt>
      <trkpt lat="44.57598" lon="2.909">
        <ele>896.57</ele>
        <time>2012-08-10T09:34:33Z</time>
      </trkpt>
      <trkpt lat="44.57599" lon="2.90885">
        <ele>896.57</ele>
        <time>2012-08-10T09:34:44Z</time>
      </trkpt>
      <trkpt lat="44.57599" lon="2.90874">
        <ele>900.41</ele>
        <time>2012-08-10T09:34:56Z</time>
      </trkpt>
      <trkpt lat="44.57603" lon="2.90862">
        <ele>903.3</ele>
        <time>2012-08-10T09:35:09Z</time>
      </trkpt>
      <trkpt lat="44.57603" lon="2.90849">
        <ele>902.33</ele>
        <time>2012-08-10T09:35:24Z</time>
      </trkpt>
      <trkpt lat="44.57599" lon="2.9083">
        <ele>902.82</ele>
        <time>2012-08-10T09:35:38Z</time>
      </trkpt>
      <trkpt lat="44.57598" lon="2.90815">
        <ele>904.74</ele>
        <time>2012-08-10T09:35:54Z</time>
      </trkpt>
      <trkpt lat="44.57605" lon="2.90802">
        <ele>905.7</ele>
        <time>2012-08-10T09:36:09Z</time>
      </trkpt>
      <trkpt lat="44.57611" lon="2.90789">
        <ele>905.7</ele>
        <time>2012-08-10T09:36:22Z</time>
      </trkpt>
      <trkpt lat="44.57612" lon="2.90773">
        <ele>907.14</ele>
        <time>2012-08-10T09:36:37Z</time>
      </trkpt>
      <trkpt lat="44.57614" lon="2.9076">
        <ele>909.54</ele>
        <time>2012-08-10T09:36:51Z</time>
      </trkpt>
      <trkpt lat="44.57614" lon="2.90755">
        <ele>910.51</ele>
        <time>2012-08-10T09:37:07Z</time>
      </trkpt>
      <trkpt lat="44.5761" lon="2.90738">
        <ele>911.47</ele>
        <time>2012-08-10T09:37:21Z</time>
      </trkpt>
      <trkpt lat="44.57608" lon="2.90722">
        <ele>911.47</ele>
        <time>2012-08-10T09:37:36Z</time>
      </trkpt>
      <trkpt lat="44.57602" lon="2.90703">
        <ele>916.27</ele>
        <time>2012-08-10T09:37:52Z</time>
      </trkpt>
      <trkpt lat="44.576" lon="2.9069">
        <ele>913.39</ele>
        <time>2012-08-10T09:38:08Z</time>
      </trkpt>
      <trkpt lat="44.57599" lon="2.90676">
        <ele>915.31</ele>
        <time>2012-08-10T09:38:21Z</time>
      </trkpt>
      <trkpt lat="44.57594" lon="2.9066">
        <ele>916.75</ele>
        <time>2012-08-10T09:38:35Z</time>
      </trkpt>
      <trkpt lat="44.57593" lon="2.90645">
        <ele>917.72</ele>
        <time>2012-08-10T09:38:48Z</time>
      </trkpt>
      <trkpt lat="44.57585" lon="2.90632">
        <ele>920.6</ele>
        <time>2012-08-10T09:39:00Z</time>
      </trkpt>
      <trkpt lat="44.57573" lon="2.9063">
        <ele>919.16</ele>
        <time>2012-08-10T09:39:16Z</time>
      </trkpt>
      <trkpt lat="44.57562" lon="2.90636">
        <ele>922.04</ele>
        <time>2012-08-10T09:39:31Z</time>
      </trkpt>
      <trkpt lat="44.57554" lon="2.90646">
        <ele>923</ele>
        <time>2012-08-10T09:39:47Z</time>
      </trkpt>
      <trkpt lat="44.57546" lon="2.90645">
        <ele>923.96</ele>
        <time>2012-08-10T09:39:57Z</time>
      </trkpt>
      <trkpt lat="44.57542" lon="2.90637">
        <ele>925.89</ele>
        <time>2012-08-10T09:40:11Z</time>
      </trkpt>
      <trkpt lat="44.5754" lon="2.90633">
        <ele>925.89</ele>
        <time>2012-08-10T09:40:28Z</time>
      </trkpt>
      <trkpt lat="44.5754" lon="2.90631">
        <ele>926.37</ele>
        <time>2012-08-10T09:40:29Z</time>
      </trkpt>
      <trkpt lat="44.57539" lon="2.90629">
        <ele>926.37</ele>
        <time>2012-08-10T09:40:30Z</time>
      </trkpt>
      <trkpt lat="44.57538" lon="2.90627">
        <ele>926.85</ele>
        <time>2012-08-10T09:40:31Z</time>
      </trkpt>
      <trkpt lat="44.57537" lon="2.90624">
        <ele>927.33</ele>
        <time>2012-08-10T09:40:32Z</time>
      </trkpt>
      <trkpt lat="44.57536" lon="2.90621">
        <ele>927.33</ele>
        <time>2012-08-10T09:40:33Z</time>
      </trkpt>
      <trkpt lat="44.57535" lon="2.90618">
        <ele>927.81</ele>
        <time>2012-08-10T09:40:34Z</time>
      </trkpt>
      <trkpt lat="44.57533" lon="2.90615">
        <ele>927.81</ele>
        <time>2012-08-10T09:40:35Z</time>
      </trkpt>
      <trkpt lat="44.57506" lon="2.90582">
        <ele>928.29</ele>
        <time>2012-08-10T09:40:48Z</time>
      </trkpt>
      <trkpt lat="44.5747" lon="2.90553">
        <ele>925.89</ele>
        <time>2012-08-10T09:41:02Z</time>
      </trkpt>
      <trkpt lat="44.57428" lon="2.90537">
        <ele>923</ele>
        <time>2012-08-10T09:41:10Z</time>
      </trkpt>
      <trkpt lat="44.57422" lon="2.90535">
        <ele>922.52</ele>
        <time>2012-08-10T09:41:11Z</time>
      </trkpt>
      <trkpt lat="44.57417" lon="2.90531">
        <ele>922.52</ele>
        <time>2012-08-10T09:41:12Z</time>
      </trkpt>
      <trkpt lat="44.57412" lon="2.90527">
        <ele>922.04</ele>
        <time>2012-08-10T09:41:13Z</time>
      </trkpt>
      <trkpt lat="44.57407" lon="2.90523">
        <ele>922.04</ele>
        <time>2012-08-10T09:41:14Z</time>
      </trkpt>
      <trkpt lat="44.57403" lon="2.90519">
        <ele>922.04</ele>
        <time>2012-08-10T09:41:15Z</time>
      </trkpt>
      <trkpt lat="44.57358" lon="2.90479">
        <ele>921.56</ele>
        <time>2012-08-10T09:41:26Z</time>
      </trkpt>
      <trkpt lat="44.57329" lon="2.90459">
        <ele>922.04</ele>
        <time>2012-08-10T09:41:37Z</time>
      </trkpt>
      <trkpt lat="44.57322" lon="2.90454">
        <ele>922.04</ele>
        <time>2012-08-10T09:41:39Z</time>
      </trkpt>
      <trkpt lat="44.57318" lon="2.90452">
        <ele>922.04</ele>
        <time>2012-08-10T09:41:40Z</time>
      </trkpt>
      <trkpt lat="44.57313" lon="2.90449">
        <ele>922.04</ele>
        <time>2012-08-10T09:41:41Z</time>
      </trkpt>
      <trkpt lat="44.57287" lon="2.90428">
        <ele>920.6</ele>
        <time>2012-08-10T09:41:49Z</time>
      </trkpt>
      <trkpt lat="44.57282" lon="2.90429">
        <ele>920.12</ele>
        <time>2012-08-10T09:41:50Z</time>
      </trkpt>
      <trkpt lat="44.57256" lon="2.90442">
        <ele>918.68</ele>
        <time>2012-08-10T09:42:02Z</time>
      </trkpt>
      <trkpt lat="44.57238" lon="2.90468">
        <ele>917.24</ele>
        <time>2012-08-10T09:42:12Z</time>
      </trkpt>
      <trkpt lat="44.57237" lon="2.9047">
        <ele>917.24</ele>
        <time>2012-08-10T09:42:13Z</time>
      </trkpt>
      <trkpt lat="44.57236" lon="2.90472">
        <ele>916.75</ele>
        <time>2012-08-10T09:42:14Z</time>
      </trkpt>
      <trkpt lat="44.57234" lon="2.90474">
        <ele>916.75</ele>
        <time>2012-08-10T09:42:15Z</time>
      </trkpt>
      <trkpt lat="44.57234" lon="2.90476">
        <ele>916.27</ele>
        <time>2012-08-10T09:42:16Z</time>
      </trkpt>
      <trkpt lat="44.57217" lon="2.90494">
        <ele>911.95</ele>
        <time>2012-08-10T09:42:28Z</time>
      </trkpt>
      <trkpt lat="44.57206" lon="2.90496">
        <ele>909.06</ele>
        <time>2012-08-10T09:42:40Z</time>
      </trkpt>
      <trkpt lat="44.57203" lon="2.90494">
        <ele>909.54</ele>
        <time>2012-08-10T09:42:50Z</time>
      </trkpt>
      <trkpt lat="44.57195" lon="2.90493">
        <ele>910.99</ele>
        <time>2012-08-10T09:42:57Z</time>
      </trkpt>
      <trkpt lat="44.57174" lon="2.90476">
        <ele>910.03</ele>
        <time>2012-08-10T09:43:10Z</time>
      </trkpt>
      <trkpt lat="44.57172" lon="2.90475">
        <ele>910.03</ele>
        <time>2012-08-10T09:43:11Z</time>
      </trkpt>
      <trkpt lat="44.57155" lon="2.90458">
        <ele>911.47</ele>
        <time>2012-08-10T09:43:21Z</time>
      </trkpt>
      <trkpt lat="44.57142" lon="2.90441">
        <ele>909.54</ele>
        <time>2012-08-10T09:43:33Z</time>
      </trkpt>
      <trkpt lat="44.5713" lon="2.90421">
        <ele>911.47</ele>
        <time>2012-08-10T09:43:42Z</time>
      </trkpt>
      <trkpt lat="44.57125" lon="2.90412">
        <ele>911.95</ele>
        <time>2012-08-10T09:43:45Z</time>
      </trkpt>
      <trkpt lat="44.57108" lon="2.90383">
        <ele>913.87</ele>
        <time>2012-08-10T09:43:55Z</time>
      </trkpt>
      <trkpt lat="44.5711" lon="2.90366">
        <ele>915.31</ele>
        <time>2012-08-10T09:43:59Z</time>
      </trkpt>
      <trkpt lat="44.571" lon="2.90325">
        <ele>915.79</ele>
        <time>2012-08-10T09:44:11Z</time>
      </trkpt>
      <trkpt lat="44.57079" lon="2.90288">
        <ele>912.91</ele>
        <time>2012-08-10T09:44:21Z</time>
      </trkpt>
      <trkpt lat="44.57057" lon="2.90249">
        <ele>910.03</ele>
        <time>2012-08-10T09:44:33Z</time>
      </trkpt>
      <trkpt lat="44.57034" lon="2.90218">
        <ele>907.14</ele>
        <time>2012-08-10T09:44:45Z</time>
      </trkpt>
      <trkpt lat="44.57027" lon="2.90202">
        <ele>907.62</ele>
        <time>2012-08-10T09:44:53Z</time>
      </trkpt>
      <trkpt lat="44.57027" lon="2.90182">
        <ele>906.18</ele>
        <time>2012-08-10T09:45:06Z</time>
      </trkpt>
      <trkpt lat="44.57026" lon="2.90169">
        <ele>904.26</ele>
        <time>2012-08-10T09:45:20Z</time>
      </trkpt>
      <trkpt lat="44.57026" lon="2.90168">
        <ele>903.78</ele>
        <time>2012-08-10T09:45:39Z</time>
      </trkpt>
      <trkpt lat="44.57025" lon="2.90165">
        <ele>902.82</ele>
        <time>2012-08-10T09:46:04Z</time>
      </trkpt>
      <trkpt lat="44.57024" lon="2.90158">
        <ele>902.33</ele>
        <time>2012-08-10T09:46:14Z</time>
      </trkpt>
      <trkpt lat="44.5702" lon="2.90146">
        <ele>900.89</ele>
        <time>2012-08-10T09:46:19Z</time>
      </trkpt>
      <trkpt lat="44.57018" lon="2.9014">
        <ele>900.41</ele>
        <time>2012-08-10T09:46:22Z</time>
      </trkpt>
      <trkpt lat="44.57" lon="2.90091">
        <ele>900.41</ele>
        <time>2012-08-10T09:46:35Z</time>
      </trkpt>
      <trkpt lat="44.56988" lon="2.90059">
        <ele>900.89</ele>
        <time>2012-08-10T09:46:45Z</time>
      </trkpt>
      <trkpt lat="44.56986" lon="2.90057">
        <ele>900.89</ele>
        <time>2012-08-10T09:46:46Z</time>
      </trkpt>
      <trkpt lat="44.56984" lon="2.90057">
        <ele>900.89</ele>
        <time>2012-08-10T09:46:47Z</time>
      </trkpt>
      <trkpt lat="44.56983" lon="2.90056">
        <ele>901.37</ele>
        <time>2012-08-10T09:46:48Z</time>
      </trkpt>
      <trkpt lat="44.56981" lon="2.90056">
        <ele>901.37</ele>
        <time>2012-08-10T09:46:49Z</time>
      </trkpt>
      <trkpt lat="44.56966" lon="2.90057">
        <ele>902.82</ele>
        <time>2012-08-10T09:47:02Z</time>
      </trkpt>
      <trkpt lat="44.56951" lon="2.90057">
        <ele>906.66</ele>
        <time>2012-08-10T09:47:15Z</time>
      </trkpt>
      <trkpt lat="44.56934" lon="2.90059">
        <ele>908.58</ele>
        <time>2012-08-10T09:47:28Z</time>
      </trkpt>
      <trkpt lat="44.56919" lon="2.90059">
        <ele>908.58</ele>
        <time>2012-08-10T09:47:41Z</time>
      </trkpt>
      <trkpt lat="44.56908" lon="2.90056">
        <ele>910.51</ele>
        <time>2012-08-10T09:47:50Z</time>
      </trkpt>
      <trkpt lat="44.56899" lon="2.90049">
        <ele>912.43</ele>
        <time>2012-08-10T09:48:01Z</time>
      </trkpt>
      <trkpt lat="44.56894" lon="2.90046">
        <ele>913.39</ele>
        <time>2012-08-10T09:48:08Z</time>
      </trkpt>
      <trkpt lat="44.56892" lon="2.90044">
        <ele>913.39</ele>
        <time>2012-08-10T09:48:10Z</time>
      </trkpt>
      <trkpt lat="44.56868" lon="2.90019">
        <ele>911.47</ele>
        <time>2012-08-10T09:48:19Z</time>
      </trkpt>
      <trkpt lat="44.56834" lon="2.89973">
        <ele>909.06</ele>
        <time>2012-08-10T09:48:32Z</time>
      </trkpt>
      <trkpt lat="44.56821" lon="2.89962">
        <ele>906.66</ele>
        <time>2012-08-10T09:48:37Z</time>
      </trkpt>
      <trkpt lat="44.56799" lon="2.89943">
        <ele>903.3</ele>
        <time>2012-08-10T09:48:43Z</time>
      </trkpt>
      <trkpt lat="44.56795" lon="2.89937">
        <ele>902.33</ele>
        <time>2012-08-10T09:48:44Z</time>
      </trkpt>
      <trkpt lat="44.56771" lon="2.89888">
        <ele>901.37</ele>
        <time>2012-08-10T09:48:54Z</time>
      </trkpt>
      <trkpt lat="44.56765" lon="2.89876">
        <ele>902.33</ele>
        <time>2012-08-10T09:49:00Z</time>
      </trkpt>
      <trkpt lat="44.56764" lon="2.89873">
        <ele>902.33</ele>
        <time>2012-08-10T09:49:01Z</time>
      </trkpt>
      <trkpt lat="44.56749" lon="2.89846">
        <ele>905.22</ele>
        <time>2012-08-10T09:49:16Z</time>
      </trkpt>
      <trkpt lat="44.56729" lon="2.89813">
        <ele>908.1</ele>
        <time>2012-08-10T09:49:33Z</time>
      </trkpt>
      <trkpt lat="44.5671" lon="2.89783">
        <ele>909.54</ele>
        <time>2012-08-10T09:49:49Z</time>
      </trkpt>
      <trkpt lat="44.56689" lon="2.89761">
        <ele>910.51</ele>
        <time>2012-08-10T09:50:01Z</time>
      </trkpt>
      <trkpt lat="44.56671" lon="2.89713">
        <ele>909.54</ele>
        <time>2012-08-10T09:50:14Z</time>
      </trkpt>
      <trkpt lat="44.56666" lon="2.89703">
        <ele>909.06</ele>
        <time>2012-08-10T09:50:16Z</time>
      </trkpt>
      <trkpt lat="44.56617" lon="2.89634">
        <ele>903.78</ele>
        <time>2012-08-10T09:50:26Z</time>
      </trkpt>
      <trkpt lat="44.56523" lon="2.89516">
        <ele>893.2</ele>
        <time>2012-08-10T09:50:38Z</time>
      </trkpt>
      <trkpt lat="44.56444" lon="2.89386">
        <ele>890.8</ele>
        <time>2012-08-10T09:50:51Z</time>
      </trkpt>
      <trkpt lat="44.56407" lon="2.89264">
        <ele>889.36</ele>
        <time>2012-08-10T09:51:05Z</time>
      </trkpt>
      <trkpt lat="44.564" lon="2.89238">
        <ele>888.88</ele>
        <time>2012-08-10T09:51:08Z</time>
      </trkpt>
      <trkpt lat="44.56354" lon="2.89095">
        <ele>883.59</ele>
        <time>2012-08-10T09:51:22Z</time>
      </trkpt>
      <trkpt lat="44.56329" lon="2.89032">
        <ele>881.19</ele>
        <time>2012-08-10T09:51:28Z</time>
      </trkpt>
      <trkpt lat="44.56325" lon="2.89023">
        <ele>880.71</ele>
        <time>2012-08-10T09:51:29Z</time>
      </trkpt>
      <trkpt lat="44.5632" lon="2.89015">
        <ele>880.71</ele>
        <time>2012-08-10T09:51:30Z</time>
      </trkpt>
      <trkpt lat="44.56315" lon="2.89006">
        <ele>880.22</ele>
        <time>2012-08-10T09:51:31Z</time>
      </trkpt>
      <trkpt lat="44.56311" lon="2.88997">
        <ele>879.74</ele>
        <time>2012-08-10T09:51:32Z</time>
      </trkpt>
      <trkpt lat="44.56258" lon="2.88901">
        <ele>873.98</ele>
        <time>2012-08-10T09:51:43Z</time>
      </trkpt>
      <trkpt lat="44.56196" lon="2.88817">
        <ele>867.73</ele>
        <time>2012-08-10T09:51:54Z</time>
      </trkpt>
      <trkpt lat="44.56084" lon="2.88732">
        <ele>862.44</ele>
        <time>2012-08-10T09:52:08Z</time>
      </trkpt>
      <trkpt lat="44.56017" lon="2.88692">
        <ele>861.48</ele>
        <time>2012-08-10T09:52:20Z</time>
      </trkpt>
      <trkpt lat="44.56012" lon="2.88689">
        <ele>861.48</ele>
        <time>2012-08-10T09:52:21Z</time>
      </trkpt>
      <trkpt lat="44.55983" lon="2.88668">
        <ele>861.48</ele>
        <time>2012-08-10T09:52:29Z</time>
      </trkpt>
      <trkpt lat="44.55959" lon="2.8863">
        <ele>861</ele>
        <time>2012-08-10T09:52:37Z</time>
      </trkpt>
      <trkpt lat="44.55946" lon="2.88586">
        <ele>861.96</ele>
        <time>2012-08-10T09:52:48Z</time>
      </trkpt>
      <trkpt lat="44.55942" lon="2.88545">
        <ele>862.92</ele>
        <time>2012-08-10T09:53:03Z</time>
      </trkpt>
      <trkpt lat="44.55948" lon="2.88507">
        <ele>863.88</ele>
        <time>2012-08-10T09:53:15Z</time>
      </trkpt>
      <trkpt lat="44.55961" lon="2.88465">
        <ele>866.77</ele>
        <time>2012-08-10T09:53:28Z</time>
      </trkpt>
      <trkpt lat="44.55975" lon="2.88426">
        <ele>868.69</ele>
        <time>2012-08-10T09:53:41Z</time>
      </trkpt>
      <trkpt lat="44.55991" lon="2.88378">
        <ele>868.69</ele>
        <time>2012-08-10T09:53:57Z</time>
      </trkpt>
      <trkpt lat="44.55997" lon="2.8835">
        <ele>869.17</ele>
        <time>2012-08-10T09:54:07Z</time>
      </trkpt>
      <trkpt lat="44.56" lon="2.8833">
        <ele>869.17</ele>
        <time>2012-08-10T09:54:13Z</time>
      </trkpt>
      <trkpt lat="44.56001" lon="2.88327">
        <ele>869.17</ele>
        <time>2012-08-10T09:54:14Z</time>
      </trkpt>
      <trkpt lat="44.56001" lon="2.88325">
        <ele>868.69</ele>
        <time>2012-08-10T09:54:15Z</time>
      </trkpt>
      <trkpt lat="44.56002" lon="2.88323">
        <ele>868.69</ele>
        <time>2012-08-10T09:54:16Z</time>
      </trkpt>
      <trkpt lat="44.56002" lon="2.8832">
        <ele>869.17</ele>
        <time>2012-08-10T09:54:17Z</time>
      </trkpt>
      <trkpt lat="44.56013" lon="2.88266">
        <ele>866.77</ele>
        <time>2012-08-10T09:54:30Z</time>
      </trkpt>
      <trkpt lat="44.56017" lon="2.88244">
        <ele>866.77</ele>
        <time>2012-08-10T09:54:34Z</time>
      </trkpt>
      <trkpt lat="44.56021" lon="2.88227">
        <ele>866.29</ele>
        <time>2012-08-10T09:54:37Z</time>
      </trkpt>
      <trkpt lat="44.56023" lon="2.88214">
        <ele>865.8</ele>
        <time>2012-08-10T09:54:39Z</time>
      </trkpt>
      <trkpt lat="44.56024" lon="2.88208">
        <ele>865.8</ele>
        <time>2012-08-10T09:54:40Z</time>
      </trkpt>
      <trkpt lat="44.56025" lon="2.88202">
        <ele>865.32</ele>
        <time>2012-08-10T09:54:41Z</time>
      </trkpt>
      <trkpt lat="44.56028" lon="2.88189">
        <ele>864.84</ele>
        <time>2012-08-10T09:54:43Z</time>
      </trkpt>
      <trkpt lat="44.56029" lon="2.88184">
        <ele>864.84</ele>
        <time>2012-08-10T09:54:44Z</time>
      </trkpt>
      <trkpt lat="44.5603" lon="2.88181">
        <ele>864.36</ele>
        <time>2012-08-10T09:54:45Z</time>
      </trkpt>
      <trkpt lat="44.5603" lon="2.8818">
        <ele>863.88</ele>
        <time>2012-08-10T09:54:58Z</time>
      </trkpt>
      <trkpt lat="44.56031" lon="2.88179">
        <ele>863.88</ele>
        <time>2012-08-10T09:55:41Z</time>
      </trkpt>
      <trkpt lat="44.56032" lon="2.88172">
        <ele>864.36</ele>
        <time>2012-08-10T09:56:05Z</time>
      </trkpt>
      <trkpt lat="44.56042" lon="2.88115">
        <ele>863.88</ele>
        <time>2012-08-10T09:56:19Z</time>
      </trkpt>
      <trkpt lat="44.56053" lon="2.88062">
        <ele>862.44</ele>
        <time>2012-08-10T09:56:31Z</time>
      </trkpt>
      <trkpt lat="44.5607" lon="2.87977">
        <ele>860.52</ele>
        <time>2012-08-10T09:56:47Z</time>
      </trkpt>
      <trkpt lat="44.56072" lon="2.87971">
        <ele>860.04</ele>
        <time>2012-08-10T09:56:48Z</time>
      </trkpt>
      <trkpt lat="44.56073" lon="2.87966">
        <ele>860.04</ele>
        <time>2012-08-10T09:56:49Z</time>
      </trkpt>
      <trkpt lat="44.56074" lon="2.8796">
        <ele>860.04</ele>
        <time>2012-08-10T09:56:50Z</time>
      </trkpt>
      <trkpt lat="44.56079" lon="2.87909">
        <ele>857.63</ele>
        <time>2012-08-10T09:56:58Z</time>
      </trkpt>
      <trkpt lat="44.56076" lon="2.87858">
        <ele>854.75</ele>
        <time>2012-08-10T09:57:08Z</time>
      </trkpt>
      <trkpt lat="44.56081" lon="2.87774">
        <ele>852.83</ele>
        <time>2012-08-10T09:57:24Z</time>
      </trkpt>
      <trkpt lat="44.56083" lon="2.87717">
        <ele>851.38</ele>
        <time>2012-08-10T09:57:38Z</time>
      </trkpt>
      <trkpt lat="44.56083" lon="2.87696">
        <ele>850.9</ele>
        <time>2012-08-10T09:57:42Z</time>
      </trkpt>
      <trkpt lat="44.56082" lon="2.8769">
        <ele>850.9</ele>
        <time>2012-08-10T09:57:43Z</time>
      </trkpt>
      <trkpt lat="44.56082" lon="2.87659">
        <ele>849.94</ele>
        <time>2012-08-10T09:57:48Z</time>
      </trkpt>
      <trkpt lat="44.56082" lon="2.87653">
        <ele>849.94</ele>
        <time>2012-08-10T09:57:49Z</time>
      </trkpt>
      <trkpt lat="44.56075" lon="2.87582">
        <ele>848.5</ele>
        <time>2012-08-10T09:57:59Z</time>
      </trkpt>
      <trkpt lat="44.56072" lon="2.87568">
        <ele>847.54</ele>
        <time>2012-08-10T09:58:01Z</time>
      </trkpt>
      <trkpt lat="44.5607" lon="2.87561">
        <ele>847.06</ele>
        <time>2012-08-10T09:58:02Z</time>
      </trkpt>
      <trkpt lat="44.56066" lon="2.87545">
        <ele>845.62</ele>
        <time>2012-08-10T09:58:04Z</time>
      </trkpt>
      <trkpt lat="44.56064" lon="2.87538">
        <ele>845.62</ele>
        <time>2012-08-10T09:58:05Z</time>
      </trkpt>
      <trkpt lat="44.56047" lon="2.87502">
        <ele>843.69</ele>
        <time>2012-08-10T09:58:13Z</time>
      </trkpt>
      <trkpt lat="44.56028" lon="2.87459">
        <ele>841.77</ele>
        <time>2012-08-10T09:58:25Z</time>
      </trkpt>
      <trkpt lat="44.56001" lon="2.8741">
        <ele>839.37</ele>
        <time>2012-08-10T09:58:38Z</time>
      </trkpt>
      <trkpt lat="44.5598" lon="2.87375">
        <ele>837.93</ele>
        <time>2012-08-10T09:58:49Z</time>
      </trkpt>
      <trkpt lat="44.55968" lon="2.87355">
        <ele>836.48</ele>
        <time>2012-08-10T09:58:56Z</time>
      </trkpt>
      <trkpt lat="44.55968" lon="2.87351">
        <ele>836.48</ele>
        <time>2012-08-10T09:58:57Z</time>
      </trkpt>
      <trkpt lat="44.55967" lon="2.87347">
        <ele>836</ele>
        <time>2012-08-10T09:58:58Z</time>
      </trkpt>
      <trkpt lat="44.55966" lon="2.87344">
        <ele>836</ele>
        <time>2012-08-10T09:58:59Z</time>
      </trkpt>
      <trkpt lat="44.55964" lon="2.87342">
        <ele>836</ele>
        <time>2012-08-10T09:59:00Z</time>
      </trkpt>
      <trkpt lat="44.55961" lon="2.8734">
        <ele>835.52</ele>
        <time>2012-08-10T09:59:01Z</time>
      </trkpt>
      <trkpt lat="44.55959" lon="2.87339">
        <ele>835.52</ele>
        <time>2012-08-10T09:59:02Z</time>
      </trkpt>
      <trkpt lat="44.55955" lon="2.87338">
        <ele>835.52</ele>
        <time>2012-08-10T09:59:03Z</time>
      </trkpt>
      <trkpt lat="44.55944" lon="2.87337">
        <ele>835.04</ele>
        <time>2012-08-10T09:59:06Z</time>
      </trkpt>
      <trkpt lat="44.5594" lon="2.87338">
        <ele>834.56</ele>
        <time>2012-08-10T09:59:07Z</time>
      </trkpt>
      <trkpt lat="44.55896" lon="2.87353">
        <ele>831.68</ele>
        <time>2012-08-10T09:59:19Z</time>
      </trkpt>
      <trkpt lat="44.5587" lon="2.87369">
        <ele>829.27</ele>
        <time>2012-08-10T09:59:31Z</time>
      </trkpt>
      <trkpt lat="44.55869" lon="2.87369">
        <ele>829.27</ele>
        <time>2012-08-10T09:59:32Z</time>
      </trkpt>
      <trkpt lat="44.55868" lon="2.87367">
        <ele>829.27</ele>
        <time>2012-08-10T09:59:33Z</time>
      </trkpt>
      <trkpt lat="44.55868" lon="2.87365">
        <ele>829.27</ele>
        <time>2012-08-10T09:59:34Z</time>
      </trkpt>
      <trkpt lat="44.55868" lon="2.87363">
        <ele>829.76</ele>
        <time>2012-08-10T09:59:35Z</time>
      </trkpt>
      <trkpt lat="44.5587" lon="2.8736">
        <ele>829.27</ele>
        <time>2012-08-10T09:59:47Z</time>
      </trkpt>
      <trkpt lat="44.5587" lon="2.87359">
        <ele>830.24</ele>
        <time>2012-08-10T09:59:59Z</time>
      </trkpt>
      <trkpt lat="44.55869" lon="2.87358">
        <ele>829.27</ele>
        <time>2012-08-10T10:00:29Z</time>
      </trkpt>
      <trkpt lat="44.55868" lon="2.87358">
        <ele>829.27</ele>
        <time>2012-08-10T10:01:00Z</time>
      </trkpt>
      <trkpt lat="44.55867" lon="2.87358">
        <ele>829.27</ele>
        <time>2012-08-10T10:01:28Z</time>
      </trkpt>
      <trkpt lat="44.55867" lon="2.87358">
        <ele>829.76</ele>
        <time>2012-08-10T10:02:06Z</time>
      </trkpt>
      <trkpt lat="44.55867" lon="2.87359">
        <ele>829.76</ele>
        <time>2012-08-10T10:02:38Z</time>
      </trkpt>
      <trkpt lat="44.55868" lon="2.87358">
        <ele>828.79</ele>
        <time>2012-08-10T10:03:10Z</time>
      </trkpt>
      <trkpt lat="44.55868" lon="2.87359">
        <ele>827.83</ele>
        <time>2012-08-10T10:03:35Z</time>
      </trkpt>
      <trkpt lat="44.55868" lon="2.87359">
        <ele>827.35</ele>
        <time>2012-08-10T10:04:04Z</time>
      </trkpt>
      <trkpt lat="44.55867" lon="2.87359">
        <ele>828.31</ele>
        <time>2012-08-10T10:04:39Z</time>
      </trkpt>
      <trkpt lat="44.55867" lon="2.87358">
        <ele>829.76</ele>
        <time>2012-08-10T10:05:12Z</time>
      </trkpt>
      <trkpt lat="44.55867" lon="2.87358">
        <ele>830.72</ele>
        <time>2012-08-10T10:05:41Z</time>
      </trkpt>
      <trkpt lat="44.55867" lon="2.87358">
        <ele>831.68</ele>
        <time>2012-08-10T10:06:13Z</time>
      </trkpt>
      <trkpt lat="44.55867" lon="2.87357">
        <ele>831.68</ele>
        <time>2012-08-10T10:06:46Z</time>
      </trkpt>
      <trkpt lat="44.55866" lon="2.87357">
        <ele>831.68</ele>
        <time>2012-08-10T10:07:18Z</time>
      </trkpt>
      <trkpt lat="44.55866" lon="2.87356">
        <ele>831.68</ele>
        <time>2012-08-10T10:07:29Z</time>
      </trkpt>
      <trkpt lat="44.55866" lon="2.87354">
        <ele>831.68</ele>
        <time>2012-08-10T10:07:30Z</time>
      </trkpt>
      <trkpt lat="44.55863" lon="2.87334">
        <ele>831.2</ele>
        <time>2012-08-10T10:07:37Z</time>
      </trkpt>
      <trkpt lat="44.55863" lon="2.8733">
        <ele>831.2</ele>
        <time>2012-08-10T10:07:38Z</time>
      </trkpt>
      <trkpt lat="44.55864" lon="2.87305">
        <ele>830.72</ele>
        <time>2012-08-10T10:07:44Z</time>
      </trkpt>
      <trkpt lat="44.55872" lon="2.87256">
        <ele>831.68</ele>
        <time>2012-08-10T10:07:58Z</time>
      </trkpt>
      <trkpt lat="44.5587" lon="2.87195">
        <ele>831.2</ele>
        <time>2012-08-10T10:08:12Z</time>
      </trkpt>
      <trkpt lat="44.55865" lon="2.87133">
        <ele>832.16</ele>
        <time>2012-08-10T10:08:24Z</time>
      </trkpt>
      <trkpt lat="44.5585" lon="2.87074">
        <ele>831.68</ele>
        <time>2012-08-10T10:08:35Z</time>
      </trkpt>
      <trkpt lat="44.55848" lon="2.87068">
        <ele>831.68</ele>
        <time>2012-08-10T10:08:36Z</time>
      </trkpt>
      <trkpt lat="44.55846" lon="2.87063">
        <ele>831.68</ele>
        <time>2012-08-10T10:08:37Z</time>
      </trkpt>
      <trkpt lat="44.55843" lon="2.87057">
        <ele>831.68</ele>
        <time>2012-08-10T10:08:38Z</time>
      </trkpt>
      <trkpt lat="44.55841" lon="2.87052">
        <ele>831.68</ele>
        <time>2012-08-10T10:08:39Z</time>
      </trkpt>
      <trkpt lat="44.55838" lon="2.87046">
        <ele>832.16</ele>
        <time>2012-08-10T10:08:40Z</time>
      </trkpt>
      <trkpt lat="44.55836" lon="2.87041">
        <ele>832.16</ele>
        <time>2012-08-10T10:08:41Z</time>
      </trkpt>
      <trkpt lat="44.55833" lon="2.87036">
        <ele>832.64</ele>
        <time>2012-08-10T10:08:42Z</time>
      </trkpt>
      <trkpt lat="44.558" lon="2.86971">
        <ele>833.12</ele>
        <time>2012-08-10T10:08:56Z</time>
      </trkpt>
      <trkpt lat="44.55778" lon="2.86926">
        <ele>833.12</ele>
        <time>2012-08-10T10:09:08Z</time>
      </trkpt>
      <trkpt lat="44.55754" lon="2.86877">
        <ele>832.16</ele>
        <time>2012-08-10T10:09:22Z</time>
      </trkpt>
      <trkpt lat="44.55728" lon="2.86833">
        <ele>829.76</ele>
        <time>2012-08-10T10:09:33Z</time>
      </trkpt>
      <trkpt lat="44.55725" lon="2.86829">
        <ele>829.27</ele>
        <time>2012-08-10T10:09:34Z</time>
      </trkpt>
      <trkpt lat="44.55716" lon="2.86816">
        <ele>828.31</ele>
        <time>2012-08-10T10:09:38Z</time>
      </trkpt>
      <trkpt lat="44.55691" lon="2.86783">
        <ele>826.87</ele>
        <time>2012-08-10T10:09:49Z</time>
      </trkpt>
      <trkpt lat="44.55672" lon="2.86744">
        <ele>825.43</ele>
        <time>2012-08-10T10:09:59Z</time>
      </trkpt>
      <trkpt lat="44.55659" lon="2.86732">
        <ele>825.43</ele>
        <time>2012-08-10T10:10:03Z</time>
      </trkpt>
      <trkpt lat="44.55656" lon="2.86728">
        <ele>825.43</ele>
        <time>2012-08-10T10:10:04Z</time>
      </trkpt>
      <trkpt lat="44.55627" lon="2.86703">
        <ele>822.55</ele>
        <time>2012-08-10T10:10:14Z</time>
      </trkpt>
      <trkpt lat="44.55625" lon="2.86701">
        <ele>822.55</ele>
        <time>2012-08-10T10:10:15Z</time>
      </trkpt>
      <trkpt lat="44.55623" lon="2.86699">
        <ele>822.06</ele>
        <time>2012-08-10T10:10:16Z</time>
      </trkpt>
      <trkpt lat="44.5562" lon="2.86697">
        <ele>822.06</ele>
        <time>2012-08-10T10:10:17Z</time>
      </trkpt>
      <trkpt lat="44.55618" lon="2.86695">
        <ele>822.06</ele>
        <time>2012-08-10T10:10:18Z</time>
      </trkpt>
      <trkpt lat="44.55589" lon="2.86674">
        <ele>820.14</ele>
        <time>2012-08-10T10:10:28Z</time>
      </trkpt>
      <trkpt lat="44.55555" lon="2.8664">
        <ele>815.82</ele>
        <time>2012-08-10T10:10:41Z</time>
      </trkpt>
      <trkpt lat="44.55523" lon="2.86605">
        <ele>811.01</ele>
        <time>2012-08-10T10:10:54Z</time>
      </trkpt>
      <trkpt lat="44.55521" lon="2.86601">
        <ele>810.53</ele>
        <time>2012-08-10T10:10:56Z</time>
      </trkpt>
      <trkpt lat="44.55519" lon="2.86599">
        <ele>810.05</ele>
        <time>2012-08-10T10:10:57Z</time>
      </trkpt>
      <trkpt lat="44.5549" lon="2.86576">
        <ele>807.64</ele>
        <time>2012-08-10T10:11:07Z</time>
      </trkpt>
      <trkpt lat="44.55468" lon="2.86557">
        <ele>805.72</ele>
        <time>2012-08-10T10:11:14Z</time>
      </trkpt>
      <trkpt lat="44.55465" lon="2.86552">
        <ele>805.72</ele>
        <time>2012-08-10T10:11:15Z</time>
      </trkpt>
      <trkpt lat="44.55463" lon="2.86548">
        <ele>805.24</ele>
        <time>2012-08-10T10:11:16Z</time>
      </trkpt>
      <trkpt lat="44.55444" lon="2.86515">
        <ele>803.32</ele>
        <time>2012-08-10T10:11:24Z</time>
      </trkpt>
      <trkpt lat="44.55442" lon="2.86515">
        <ele>803.32</ele>
        <time>2012-08-10T10:11:25Z</time>
      </trkpt>
      <trkpt lat="44.55439" lon="2.86516">
        <ele>802.84</ele>
        <time>2012-08-10T10:11:26Z</time>
      </trkpt>
      <trkpt lat="44.55437" lon="2.86519">
        <ele>802.84</ele>
        <time>2012-08-10T10:11:27Z</time>
      </trkpt>
      <trkpt lat="44.55435" lon="2.86522">
        <ele>802.36</ele>
        <time>2012-08-10T10:11:28Z</time>
      </trkpt>
      <trkpt lat="44.55433" lon="2.86527">
        <ele>802.36</ele>
        <time>2012-08-10T10:11:29Z</time>
      </trkpt>
      <trkpt lat="44.55432" lon="2.86532">
        <ele>801.88</ele>
        <time>2012-08-10T10:11:30Z</time>
      </trkpt>
      <trkpt lat="44.55417" lon="2.86553">
        <ele>800.92</ele>
        <time>2012-08-10T10:11:36Z</time>
      </trkpt>
      <trkpt lat="44.55414" lon="2.86553">
        <ele>800.44</ele>
        <time>2012-08-10T10:11:37Z</time>
      </trkpt>
      <trkpt lat="44.55409" lon="2.86552">
        <ele>799.95</ele>
        <time>2012-08-10T10:11:38Z</time>
      </trkpt>
      <trkpt lat="44.55404" lon="2.86551">
        <ele>799.47</ele>
        <time>2012-08-10T10:11:39Z</time>
      </trkpt>
      <trkpt lat="44.55401" lon="2.86551">
        <ele>798.99</ele>
        <time>2012-08-10T10:11:40Z</time>
      </trkpt>
      <trkpt lat="44.55398" lon="2.8655">
        <ele>798.51</ele>
        <time>2012-08-10T10:11:41Z</time>
      </trkpt>
      <trkpt lat="44.55394" lon="2.8655">
        <ele>798.03</ele>
        <time>2012-08-10T10:11:42Z</time>
      </trkpt>
      <trkpt lat="44.55364" lon="2.8655">
        <ele>794.67</ele>
        <time>2012-08-10T10:11:49Z</time>
      </trkpt>
      <trkpt lat="44.55359" lon="2.8655">
        <ele>794.19</ele>
        <time>2012-08-10T10:11:50Z</time>
      </trkpt>
      <trkpt lat="44.55339" lon="2.86547">
        <ele>790.82</ele>
        <time>2012-08-10T10:11:55Z</time>
      </trkpt>
      <trkpt lat="44.55331" lon="2.86545">
        <ele>789.86</ele>
        <time>2012-08-10T10:11:57Z</time>
      </trkpt>
      <trkpt lat="44.55295" lon="2.86536">
        <ele>785.53</ele>
        <time>2012-08-10T10:12:08Z</time>
      </trkpt>
      <trkpt lat="44.55272" lon="2.86521">
        <ele>777.84</ele>
        <time>2012-08-10T10:12:20Z</time>
      </trkpt>
      <trkpt lat="44.55253" lon="2.86496">
        <ele>770.63</ele>
        <time>2012-08-10T10:12:33Z</time>
      </trkpt>
      <trkpt lat="44.55245" lon="2.8649">
        <ele>768.71</ele>
        <time>2012-08-10T10:12:37Z</time>
      </trkpt>
      <trkpt lat="44.55243" lon="2.86491">
        <ele>768.71</ele>
        <time>2012-08-10T10:12:38Z</time>
      </trkpt>
      <trkpt lat="44.55239" lon="2.8649">
        <ele>768.23</ele>
        <time>2012-08-10T10:12:39Z</time>
      </trkpt>
      <trkpt lat="44.55236" lon="2.86489">
        <ele>767.75</ele>
        <time>2012-08-10T10:12:40Z</time>
      </trkpt>
      <trkpt lat="44.55233" lon="2.86488">
        <ele>767.75</ele>
        <time>2012-08-10T10:12:41Z</time>
      </trkpt>
      <trkpt lat="44.55194" lon="2.86477">
        <ele>762.94</ele>
        <time>2012-08-10T10:12:50Z</time>
      </trkpt>
      <trkpt lat="44.55162" lon="2.86468">
        <ele>760.54</ele>
        <time>2012-08-10T10:13:00Z</time>
      </trkpt>
      <trkpt lat="44.55102" lon="2.86452">
        <ele>762.94</ele>
        <time>2012-08-10T10:13:13Z</time>
      </trkpt>
      <trkpt lat="44.55072" lon="2.86433">
        <ele>763.9</ele>
        <time>2012-08-10T10:13:23Z</time>
      </trkpt>
      <trkpt lat="44.5504" lon="2.86404">
        <ele>762.94</ele>
        <time>2012-08-10T10:13:35Z</time>
      </trkpt>
      <trkpt lat="44.55008" lon="2.86358">
        <ele>758.14</ele>
        <time>2012-08-10T10:13:48Z</time>
      </trkpt>
      <trkpt lat="44.54992" lon="2.86348">
        <ele>758.62</ele>
        <time>2012-08-10T10:13:54Z</time>
      </trkpt>
      <trkpt lat="44.54986" lon="2.86345">
        <ele>758.62</ele>
        <time>2012-08-10T10:13:55Z</time>
      </trkpt>
      <trkpt lat="44.54983" lon="2.86344">
        <ele>759.1</ele>
        <time>2012-08-10T10:13:56Z</time>
      </trkpt>
      <trkpt lat="44.54979" lon="2.86341">
        <ele>758.62</ele>
        <time>2012-08-10T10:13:57Z</time>
      </trkpt>
      <trkpt lat="44.54976" lon="2.8634">
        <ele>758.62</ele>
        <time>2012-08-10T10:13:58Z</time>
      </trkpt>
      <trkpt lat="44.54973" lon="2.86338">
        <ele>758.62</ele>
        <time>2012-08-10T10:13:59Z</time>
      </trkpt>
      <trkpt lat="44.5497" lon="2.86337">
        <ele>758.14</ele>
        <time>2012-08-10T10:14:00Z</time>
      </trkpt>
      <trkpt lat="44.54968" lon="2.86336">
        <ele>758.14</ele>
        <time>2012-08-10T10:14:01Z</time>
      </trkpt>
      <trkpt lat="44.54965" lon="2.86334">
        <ele>758.14</ele>
        <time>2012-08-10T10:14:02Z</time>
      </trkpt>
      <trkpt lat="44.54938" lon="2.86323">
        <ele>756.69</ele>
        <time>2012-08-10T10:14:11Z</time>
      </trkpt>
      <trkpt lat="44.54936" lon="2.86323">
        <ele>757.18</ele>
        <time>2012-08-10T10:14:12Z</time>
      </trkpt>
      <trkpt lat="44.54933" lon="2.86322">
        <ele>757.18</ele>
        <time>2012-08-10T10:14:13Z</time>
      </trkpt>
      <trkpt lat="44.54931" lon="2.86321">
        <ele>756.69</ele>
        <time>2012-08-10T10:14:14Z</time>
      </trkpt>
      <trkpt lat="44.54928" lon="2.8632">
        <ele>756.69</ele>
        <time>2012-08-10T10:14:15Z</time>
      </trkpt>
      <trkpt lat="44.54926" lon="2.86319">
        <ele>756.21</ele>
        <time>2012-08-10T10:14:16Z</time>
      </trkpt>
      <trkpt lat="44.54923" lon="2.86317">
        <ele>755.73</ele>
        <time>2012-08-10T10:14:17Z</time>
      </trkpt>
      <trkpt lat="44.54921" lon="2.86315">
        <ele>755.25</ele>
        <time>2012-08-10T10:14:18Z</time>
      </trkpt>
      <trkpt lat="44.54919" lon="2.86312">
        <ele>755.25</ele>
        <time>2012-08-10T10:14:19Z</time>
      </trkpt>
      <trkpt lat="44.54877" lon="2.8629">
        <ele>753.81</ele>
        <time>2012-08-10T10:14:29Z</time>
      </trkpt>
      <trkpt lat="44.54843" lon="2.86262">
        <ele>751.89</ele>
        <time>2012-08-10T10:14:40Z</time>
      </trkpt>
      <trkpt lat="44.54842" lon="2.86259">
        <ele>751.41</ele>
        <time>2012-08-10T10:14:41Z</time>
      </trkpt>
      <trkpt lat="44.54837" lon="2.86251">
        <ele>749.49</ele>
        <time>2012-08-10T10:14:44Z</time>
      </trkpt>
      <trkpt lat="44.54834" lon="2.86248">
        <ele>749.49</ele>
        <time>2012-08-10T10:14:45Z</time>
      </trkpt>
      <trkpt lat="44.54832" lon="2.86245">
        <ele>749</ele>
        <time>2012-08-10T10:14:46Z</time>
      </trkpt>
      <trkpt lat="44.54801" lon="2.86206">
        <ele>740.83</ele>
        <time>2012-08-10T10:14:58Z</time>
      </trkpt>
      <trkpt lat="44.54784" lon="2.86184">
        <ele>734.58</ele>
        <time>2012-08-10T10:15:08Z</time>
      </trkpt>
      <trkpt lat="44.54783" lon="2.86182">
        <ele>730.74</ele>
        <time>2012-08-10T10:15:38Z</time>
      </trkpt>
      <trkpt lat="44.54782" lon="2.8618">
        <ele>730.26</ele>
        <time>2012-08-10T10:15:45Z</time>
      </trkpt>
      <trkpt lat="44.54782" lon="2.86177">
        <ele>730.26</ele>
        <time>2012-08-10T10:15:46Z</time>
      </trkpt>
      <trkpt lat="44.54781" lon="2.86174">
        <ele>730.26</ele>
        <time>2012-08-10T10:15:47Z</time>
      </trkpt>
      <trkpt lat="44.54779" lon="2.8617">
        <ele>730.26</ele>
        <time>2012-08-10T10:15:48Z</time>
      </trkpt>
      <trkpt lat="44.54777" lon="2.86167">
        <ele>730.26</ele>
        <time>2012-08-10T10:15:49Z</time>
      </trkpt>
      <trkpt lat="44.5476" lon="2.86127">
        <ele>726.89</ele>
        <time>2012-08-10T10:15:59Z</time>
      </trkpt>
      <trkpt lat="44.54752" lon="2.86084">
        <ele>723.53</ele>
        <time>2012-08-10T10:16:08Z</time>
      </trkpt>
      <trkpt lat="44.54719" lon="2.86011">
        <ele>721.61</ele>
        <time>2012-08-10T10:16:20Z</time>
      </trkpt>
      <trkpt lat="44.54712" lon="2.86004">
        <ele>721.61</ele>
        <time>2012-08-10T10:16:22Z</time>
      </trkpt>
      <trkpt lat="44.54679" lon="2.85978">
        <ele>718.72</ele>
        <time>2012-08-10T10:16:33Z</time>
      </trkpt>
      <trkpt lat="44.5465" lon="2.85969">
        <ele>717.28</ele>
        <time>2012-08-10T10:16:44Z</time>
      </trkpt>
      <trkpt lat="44.54628" lon="2.85962">
        <ele>715.84</ele>
        <time>2012-08-10T10:16:58Z</time>
      </trkpt>
      <trkpt lat="44.546" lon="2.85954">
        <ele>715.36</ele>
        <time>2012-08-10T10:17:09Z</time>
      </trkpt>
      <trkpt lat="44.54581" lon="2.8595">
        <ele>714.88</ele>
        <time>2012-08-10T10:17:13Z</time>
      </trkpt>
      <trkpt lat="44.54549" lon="2.85941">
        <ele>712.47</ele>
        <time>2012-08-10T10:17:21Z</time>
      </trkpt>
      <trkpt lat="44.54506" lon="2.85944">
        <ele>708.15</ele>
        <time>2012-08-10T10:17:31Z</time>
      </trkpt>
      <trkpt lat="44.54497" lon="2.85947">
        <ele>707.19</ele>
        <time>2012-08-10T10:17:33Z</time>
      </trkpt>
      <trkpt lat="44.54491" lon="2.85947">
        <ele>706.23</ele>
        <time>2012-08-10T10:17:34Z</time>
      </trkpt>
      <trkpt lat="44.54486" lon="2.85947">
        <ele>705.75</ele>
        <time>2012-08-10T10:17:35Z</time>
      </trkpt>
      <trkpt lat="44.54443" lon="2.85937">
        <ele>701.9</ele>
        <time>2012-08-10T10:17:45Z</time>
      </trkpt>
      <trkpt lat="44.54402" lon="2.85903">
        <ele>698.53</ele>
        <time>2012-08-10T10:17:58Z</time>
      </trkpt>
      <trkpt lat="44.54365" lon="2.85873">
        <ele>691.33</ele>
        <time>2012-08-10T10:18:09Z</time>
      </trkpt>
      <trkpt lat="44.54361" lon="2.8587">
        <ele>690.36</ele>
        <time>2012-08-10T10:18:11Z</time>
      </trkpt>
      <trkpt lat="44.54358" lon="2.85867">
        <ele>689.88</ele>
        <time>2012-08-10T10:18:12Z</time>
      </trkpt>
      <trkpt lat="44.54356" lon="2.85865">
        <ele>689.4</ele>
        <time>2012-08-10T10:18:13Z</time>
      </trkpt>
      <trkpt lat="44.54354" lon="2.85861">
        <ele>688.92</ele>
        <time>2012-08-10T10:18:14Z</time>
      </trkpt>
      <trkpt lat="44.54351" lon="2.85857">
        <ele>688.92</ele>
        <time>2012-08-10T10:18:15Z</time>
      </trkpt>
      <trkpt lat="44.54314" lon="2.85807">
        <ele>686.04</ele>
        <time>2012-08-10T10:18:26Z</time>
      </trkpt>
      <trkpt lat="44.54293" lon="2.85778">
        <ele>684.6</ele>
        <time>2012-08-10T10:18:33Z</time>
      </trkpt>
      <trkpt lat="44.54291" lon="2.85773">
        <ele>684.6</ele>
        <time>2012-08-10T10:18:34Z</time>
      </trkpt>
      <trkpt lat="44.54277" lon="2.85743">
        <ele>684.6</ele>
        <time>2012-08-10T10:18:40Z</time>
      </trkpt>
      <trkpt lat="44.54271" lon="2.85733">
        <ele>684.12</ele>
        <time>2012-08-10T10:18:42Z</time>
      </trkpt>
      <trkpt lat="44.54265" lon="2.85723">
        <ele>683.63</ele>
        <time>2012-08-10T10:18:44Z</time>
      </trkpt>
      <trkpt lat="44.54262" lon="2.85719">
        <ele>684.12</ele>
        <time>2012-08-10T10:18:45Z</time>
      </trkpt>
      <trkpt lat="44.5426" lon="2.85715">
        <ele>684.12</ele>
        <time>2012-08-10T10:18:46Z</time>
      </trkpt>
      <trkpt lat="44.54258" lon="2.8571">
        <ele>684.12</ele>
        <time>2012-08-10T10:18:47Z</time>
      </trkpt>
      <trkpt lat="44.54256" lon="2.85706">
        <ele>684.12</ele>
        <time>2012-08-10T10:18:48Z</time>
      </trkpt>
      <trkpt lat="44.54253" lon="2.85702">
        <ele>684.12</ele>
        <time>2012-08-10T10:18:49Z</time>
      </trkpt>
      <trkpt lat="44.54229" lon="2.85656">
        <ele>683.15</ele>
        <time>2012-08-10T10:18:58Z</time>
      </trkpt>
      <trkpt lat="44.54225" lon="2.8565">
        <ele>683.15</ele>
        <time>2012-08-10T10:18:59Z</time>
      </trkpt>
      <trkpt lat="44.54204" lon="2.85615">
        <ele>681.23</ele>
        <time>2012-08-10T10:19:07Z</time>
      </trkpt>
      <trkpt lat="44.54203" lon="2.85611">
        <ele>680.75</ele>
        <time>2012-08-10T10:19:08Z</time>
      </trkpt>
      <trkpt lat="44.54186" lon="2.85582">
        <ele>678.83</ele>
        <time>2012-08-10T10:19:14Z</time>
      </trkpt>
      <trkpt lat="44.54162" lon="2.8555">
        <ele>675.46</ele>
        <time>2012-08-10T10:19:19Z</time>
      </trkpt>
      <trkpt lat="44.54159" lon="2.85544">
        <ele>674.98</ele>
        <time>2012-08-10T10:19:20Z</time>
      </trkpt>
      <trkpt lat="44.5415" lon="2.85532">
        <ele>673.54</ele>
        <time>2012-08-10T10:19:22Z</time>
      </trkpt>
      <trkpt lat="44.54125" lon="2.85504">
        <ele>670.66</ele>
        <time>2012-08-10T10:19:29Z</time>
      </trkpt>
      <trkpt lat="44.54114" lon="2.8549">
        <ele>670.18</ele>
        <time>2012-08-10T10:19:32Z</time>
      </trkpt>
      <trkpt lat="44.54111" lon="2.85486">
        <ele>670.18</ele>
        <time>2012-08-10T10:19:33Z</time>
      </trkpt>
      <trkpt lat="44.54109" lon="2.85484">
        <ele>669.7</ele>
        <time>2012-08-10T10:19:34Z</time>
      </trkpt>
      <trkpt lat="44.54107" lon="2.85482">
        <ele>669.7</ele>
        <time>2012-08-10T10:19:35Z</time>
      </trkpt>
      <trkpt lat="44.54106" lon="2.85479">
        <ele>668.73</ele>
        <time>2012-08-10T10:19:36Z</time>
      </trkpt>
      <trkpt lat="44.54106" lon="2.85478">
        <ele>668.25</ele>
        <time>2012-08-10T10:19:37Z</time>
      </trkpt>
      <trkpt lat="44.54105" lon="2.85476">
        <ele>667.77</ele>
        <time>2012-08-10T10:19:38Z</time>
      </trkpt>
      <trkpt lat="44.54103" lon="2.85473">
        <ele>667.29</ele>
        <time>2012-08-10T10:19:39Z</time>
      </trkpt>
      <trkpt lat="44.541" lon="2.85472">
        <ele>666.81</ele>
        <time>2012-08-10T10:19:40Z</time>
      </trkpt>
      <trkpt lat="44.54096" lon="2.8547">
        <ele>666.33</ele>
        <time>2012-08-10T10:19:41Z</time>
      </trkpt>
      <trkpt lat="44.54093" lon="2.85468">
        <ele>665.37</ele>
        <time>2012-08-10T10:19:42Z</time>
      </trkpt>
      <trkpt lat="44.54089" lon="2.85465">
        <ele>664.89</ele>
        <time>2012-08-10T10:19:43Z</time>
      </trkpt>
      <trkpt lat="44.54058" lon="2.8544">
        <ele>661.52</ele>
        <time>2012-08-10T10:19:52Z</time>
      </trkpt>
      <trkpt lat="44.54055" lon="2.85437">
        <ele>661.52</ele>
        <time>2012-08-10T10:19:53Z</time>
      </trkpt>
      <trkpt lat="44.54047" lon="2.85431">
        <ele>661.04</ele>
        <time>2012-08-10T10:19:55Z</time>
      </trkpt>
      <trkpt lat="44.54042" lon="2.85428">
        <ele>661.04</ele>
        <time>2012-08-10T10:19:56Z</time>
      </trkpt>
      <trkpt lat="44.54027" lon="2.85414">
        <ele>659.6</ele>
        <time>2012-08-10T10:20:00Z</time>
      </trkpt>
      <trkpt lat="44.54024" lon="2.85408">
        <ele>659.6</ele>
        <time>2012-08-10T10:20:01Z</time>
      </trkpt>
      <trkpt lat="44.54022" lon="2.85403">
        <ele>659.12</ele>
        <time>2012-08-10T10:20:02Z</time>
      </trkpt>
      <trkpt lat="44.54018" lon="2.85395">
        <ele>658.64</ele>
        <time>2012-08-10T10:20:04Z</time>
      </trkpt>
      <trkpt lat="44.54015" lon="2.85391">
        <ele>658.16</ele>
        <time>2012-08-10T10:20:05Z</time>
      </trkpt>
      <trkpt lat="44.54012" lon="2.85387">
        <ele>658.16</ele>
        <time>2012-08-10T10:20:06Z</time>
      </trkpt>
      <trkpt lat="44.53984" lon="2.8536">
        <ele>649.99</ele>
        <time>2012-08-10T10:20:15Z</time>
      </trkpt>
      <trkpt lat="44.53954" lon="2.85335">
        <ele>642.78</ele>
        <time>2012-08-10T10:20:26Z</time>
      </trkpt>
      <trkpt lat="44.53947" lon="2.8533">
        <ele>642.3</ele>
        <time>2012-08-10T10:20:28Z</time>
      </trkpt>
      <trkpt lat="44.53917" lon="2.85319">
        <ele>639.89</ele>
        <time>2012-08-10T10:20:35Z</time>
      </trkpt>
      <trkpt lat="44.53856" lon="2.85305">
        <ele>631.72</ele>
        <time>2012-08-10T10:20:45Z</time>
      </trkpt>
      <trkpt lat="44.53837" lon="2.85299">
        <ele>629.8</ele>
        <time>2012-08-10T10:20:49Z</time>
      </trkpt>
      <trkpt lat="44.53832" lon="2.85296">
        <ele>628.84</ele>
        <time>2012-08-10T10:20:50Z</time>
      </trkpt>
      <trkpt lat="44.53814" lon="2.85283">
        <ele>624.03</ele>
        <time>2012-08-10T10:20:58Z</time>
      </trkpt>
      <trkpt lat="44.53814" lon="2.85282">
        <ele>623.55</ele>
        <time>2012-08-10T10:21:17Z</time>
      </trkpt>
      <trkpt lat="44.53814" lon="2.85282">
        <ele>624.03</ele>
        <time>2012-08-10T10:21:18Z</time>
      </trkpt>
      <trkpt lat="44.53815" lon="2.85284">
        <ele>624.03</ele>
        <time>2012-08-10T10:21:19Z</time>
      </trkpt>
      <trkpt lat="44.53814" lon="2.8529">
        <ele>624.03</ele>
        <time>2012-08-10T10:21:28Z</time>
      </trkpt>
      <trkpt lat="44.53809" lon="2.85286">
        <ele>623.07</ele>
        <time>2012-08-10T10:21:36Z</time>
      </trkpt>
      <trkpt lat="44.5381" lon="2.85282">
        <ele>623.07</ele>
        <time>2012-08-10T10:21:47Z</time>
      </trkpt>
      <trkpt lat="44.53812" lon="2.85282">
        <ele>621.63</ele>
        <time>2012-08-10T10:22:21Z</time>
      </trkpt>
      <trkpt lat="44.53813" lon="2.85282">
        <ele>621.63</ele>
        <time>2012-08-10T10:22:58Z</time>
      </trkpt>
      <trkpt lat="44.53813" lon="2.85282">
        <ele>621.63</ele>
        <time>2012-08-10T10:23:35Z</time>
      </trkpt>
      <trkpt lat="44.53813" lon="2.85281">
        <ele>621.63</ele>
        <time>2012-08-10T10:24:12Z</time>
      </trkpt>
      <trkpt lat="44.53813" lon="2.85281">
        <ele>622.11</ele>
        <time>2012-08-10T10:24:51Z</time>
      </trkpt>
      <trkpt lat="44.53813" lon="2.85281">
        <ele>622.59</ele>
        <time>2012-08-10T10:25:28Z</time>
      </trkpt>
      <trkpt lat="44.53813" lon="2.85281">
        <ele>622.59</ele>
        <time>2012-08-10T10:26:00Z</time>
      </trkpt>
      <trkpt lat="44.53812" lon="2.85283">
        <ele>622.11</ele>
        <time>2012-08-10T10:26:37Z</time>
      </trkpt>
      <trkpt lat="44.53812" lon="2.85283">
        <ele>623.55</ele>
        <time>2012-08-10T10:27:10Z</time>
      </trkpt>
      <trkpt lat="44.53812" lon="2.85284">
        <ele>623.07</ele>
        <time>2012-08-10T10:27:46Z</time>
      </trkpt>
      <trkpt lat="44.53812" lon="2.85283">
        <ele>622.59</ele>
        <time>2012-08-10T10:28:20Z</time>
      </trkpt>
      <trkpt lat="44.53811" lon="2.85282">
        <ele>620.67</ele>
        <time>2012-08-10T10:28:57Z</time>
      </trkpt>
      <trkpt lat="44.53811" lon="2.85283">
        <ele>620.19</ele>
        <time>2012-08-10T10:29:33Z</time>
      </trkpt>
      <trkpt lat="44.53811" lon="2.85283">
        <ele>620.67</ele>
        <time>2012-08-10T10:30:05Z</time>
      </trkpt>
      <trkpt lat="44.53811" lon="2.85282">
        <ele>621.15</ele>
        <time>2012-08-10T10:30:42Z</time>
      </trkpt>
      <trkpt lat="44.5381" lon="2.85282">
        <ele>621.15</ele>
        <time>2012-08-10T10:31:18Z</time>
      </trkpt>
      <trkpt lat="44.53811" lon="2.85282">
        <ele>621.63</ele>
        <time>2012-08-10T10:31:52Z</time>
      </trkpt>
      <trkpt lat="44.5381" lon="2.85281">
        <ele>621.63</ele>
        <time>2012-08-10T10:32:28Z</time>
      </trkpt>
      <trkpt lat="44.5381" lon="2.85282">
        <ele>621.63</ele>
        <time>2012-08-10T10:33:08Z</time>
      </trkpt>
      <trkpt lat="44.53809" lon="2.85282">
        <ele>621.63</ele>
        <time>2012-08-10T10:33:46Z</time>
      </trkpt>
      <trkpt lat="44.5381" lon="2.85282">
        <ele>621.63</ele>
        <time>2012-08-10T10:34:25Z</time>
      </trkpt>
      <trkpt lat="44.5381" lon="2.85282">
        <ele>622.11</ele>
        <time>2012-08-10T10:35:11Z</time>
      </trkpt>
      <trkpt lat="44.53811" lon="2.85282">
        <ele>623.07</ele>
        <time>2012-08-10T10:35:52Z</time>
      </trkpt>
      <trkpt lat="44.53811" lon="2.85283">
        <ele>622.11</ele>
        <time>2012-08-10T10:36:36Z</time>
      </trkpt>
      <trkpt lat="44.53812" lon="2.85284">
        <ele>621.63</ele>
        <time>2012-08-10T10:37:18Z</time>
      </trkpt>
      <trkpt lat="44.53812" lon="2.85283">
        <ele>621.63</ele>
        <time>2012-08-10T10:37:58Z</time>
      </trkpt>
      <trkpt lat="44.53812" lon="2.85283">
        <ele>621.63</ele>
        <time>2012-08-10T10:38:38Z</time>
      </trkpt>
      <trkpt lat="44.53812" lon="2.85283">
        <ele>622.11</ele>
        <time>2012-08-10T10:39:19Z</time>
      </trkpt>
      <trkpt lat="44.53812" lon="2.85283">
        <ele>623.07</ele>
        <time>2012-08-10T10:39:58Z</time>
      </trkpt>
      <trkpt lat="44.53812" lon="2.85282">
        <ele>623.07</ele>
        <time>2012-08-10T10:40:29Z</time>
      </trkpt>
      <trkpt lat="44.53812" lon="2.85283">
        <ele>623.55</ele>
        <time>2012-08-10T10:41:05Z</time>
      </trkpt>
      <trkpt lat="44.53812" lon="2.85283">
        <ele>623.55</ele>
        <time>2012-08-10T10:41:40Z</time>
      </trkpt>
      <trkpt lat="44.53812" lon="2.85283">
        <ele>623.55</ele>
        <time>2012-08-10T10:42:16Z</time>
      </trkpt>
      <trkpt lat="44.53811" lon="2.85283">
        <ele>624.03</ele>
        <time>2012-08-10T10:42:49Z</time>
      </trkpt>
      <trkpt lat="44.53811" lon="2.85282">
        <ele>624.51</ele>
        <time>2012-08-10T10:43:25Z</time>
      </trkpt>
      <trkpt lat="44.53812" lon="2.85282">
        <ele>625.47</ele>
        <time>2012-08-10T10:44:03Z</time>
      </trkpt>
      <trkpt lat="44.53811" lon="2.85283">
        <ele>625.96</ele>
        <time>2012-08-10T10:44:40Z</time>
      </trkpt>
      <trkpt lat="44.53812" lon="2.85284">
        <ele>625.96</ele>
        <time>2012-08-10T10:45:20Z</time>
      </trkpt>
      <trkpt lat="44.53811" lon="2.85283">
        <ele>625.47</ele>
        <time>2012-08-10T10:45:56Z</time>
      </trkpt>
      <trkpt lat="44.53811" lon="2.85284">
        <ele>624.51</ele>
        <time>2012-08-10T10:46:35Z</time>
      </trkpt>
      <trkpt lat="44.5381" lon="2.85284">
        <ele>624.03</ele>
        <time>2012-08-10T10:47:16Z</time>
      </trkpt>
      <trkpt lat="44.5381" lon="2.85282">
        <ele>623.07</ele>
        <time>2012-08-10T10:47:59Z</time>
      </trkpt>
      <trkpt lat="44.53812" lon="2.85282">
        <ele>623.55</ele>
        <time>2012-08-10T10:48:42Z</time>
      </trkpt>
      <trkpt lat="44.53812" lon="2.85282">
        <ele>623.07</ele>
        <time>2012-08-10T10:49:22Z</time>
      </trkpt>
      <trkpt lat="44.53812" lon="2.85283">
        <ele>622.59</ele>
        <time>2012-08-10T10:50:00Z</time>
      </trkpt>
      <trkpt lat="44.53812" lon="2.85283">
        <ele>622.59</ele>
        <time>2012-08-10T10:50:36Z</time>
      </trkpt>
      <trkpt lat="44.53812" lon="2.85283">
        <ele>622.11</ele>
        <time>2012-08-10T10:51:03Z</time>
      </trkpt>
      <trkpt lat="44.53812" lon="2.85282">
        <ele>622.11</ele>
        <time>2012-08-10T10:51:21Z</time>
      </trkpt>
      <trkpt lat="44.53811" lon="2.85283">
        <ele>623.55</ele>
        <time>2012-08-10T10:51:55Z</time>
      </trkpt>
      <trkpt lat="44.53811" lon="2.85284">
        <ele>624.51</ele>
        <time>2012-08-10T10:52:34Z</time>
      </trkpt>
      <trkpt lat="44.53811" lon="2.85284">
        <ele>624.03</ele>
        <time>2012-08-10T10:53:12Z</time>
      </trkpt>
      <trkpt lat="44.53811" lon="2.85284">
        <ele>625.96</ele>
        <time>2012-08-10T10:53:51Z</time>
      </trkpt>
      <trkpt lat="44.5381" lon="2.85284">
        <ele>625.47</ele>
        <time>2012-08-10T10:54:27Z</time>
      </trkpt>
      <trkpt lat="44.5381" lon="2.85282">
        <ele>625.47</ele>
        <time>2012-08-10T10:55:02Z</time>
      </trkpt>
      <trkpt lat="44.53809" lon="2.85282">
        <ele>624.99</ele>
        <time>2012-08-10T10:55:35Z</time>
      </trkpt>
      <trkpt lat="44.53811" lon="2.85283">
        <ele>624.03</ele>
        <time>2012-08-10T10:56:13Z</time>
      </trkpt>
      <trkpt lat="44.53812" lon="2.85284">
        <ele>623.07</ele>
        <time>2012-08-10T10:56:49Z</time>
      </trkpt>
      <trkpt lat="44.53813" lon="2.85284">
        <ele>622.11</ele>
        <time>2012-08-10T10:57:22Z</time>
      </trkpt>
      <trkpt lat="44.53813" lon="2.85285">
        <ele>621.63</ele>
        <time>2012-08-10T10:57:58Z</time>
      </trkpt>
      <trkpt lat="44.53814" lon="2.85283">
        <ele>621.15</ele>
        <time>2012-08-10T10:58:29Z</time>
      </trkpt>
      <trkpt lat="44.53814" lon="2.85285">
        <ele>620.19</ele>
        <time>2012-08-10T10:59:03Z</time>
      </trkpt>
      <trkpt lat="44.53813" lon="2.85286">
        <ele>620.67</ele>
        <time>2012-08-10T10:59:37Z</time>
      </trkpt>
      <trkpt lat="44.53814" lon="2.85284">
        <ele>620.19</ele>
        <time>2012-08-10T11:00:07Z</time>
      </trkpt>
      <trkpt lat="44.53813" lon="2.85285">
        <ele>619.71</ele>
        <time>2012-08-10T11:00:41Z</time>
      </trkpt>
      <trkpt lat="44.53813" lon="2.85286">
        <ele>620.67</ele>
        <time>2012-08-10T11:01:15Z</time>
      </trkpt>
      <trkpt lat="44.53813" lon="2.85284">
        <ele>622.11</ele>
        <time>2012-08-10T11:01:50Z</time>
      </trkpt>
      <trkpt lat="44.53813" lon="2.85282">
        <ele>623.55</ele>
        <time>2012-08-10T11:02:25Z</time>
      </trkpt>
      <trkpt lat="44.53812" lon="2.85282">
        <ele>624.03</ele>
        <time>2012-08-10T11:03:01Z</time>
      </trkpt>
      <trkpt lat="44.53811" lon="2.85282">
        <ele>624.03</ele>
        <time>2012-08-10T11:03:37Z</time>
      </trkpt>
      <trkpt lat="44.53811" lon="2.85282">
        <ele>623.55</ele>
        <time>2012-08-10T11:04:13Z</time>
      </trkpt>
      <trkpt lat="44.53812" lon="2.85285">
        <ele>624.51</ele>
        <time>2012-08-10T11:04:56Z</time>
      </trkpt>
      <trkpt lat="44.53811" lon="2.85285">
        <ele>626.44</ele>
        <time>2012-08-10T11:05:33Z</time>
      </trkpt>
      <trkpt lat="44.53812" lon="2.85285">
        <ele>626.92</ele>
        <time>2012-08-10T11:06:05Z</time>
      </trkpt>
      <trkpt lat="44.53813" lon="2.85285">
        <ele>627.4</ele>
        <time>2012-08-10T11:06:36Z</time>
      </trkpt>
      <trkpt lat="44.53814" lon="2.85284">
        <ele>627.88</ele>
        <time>2012-08-10T11:07:14Z</time>
      </trkpt>
      <trkpt lat="44.53813" lon="2.85283">
        <ele>627.88</ele>
        <time>2012-08-10T11:07:47Z</time>
      </trkpt>
      <trkpt lat="44.53813" lon="2.85283">
        <ele>625.96</ele>
        <time>2012-08-10T11:08:21Z</time>
      </trkpt>
      <trkpt lat="44.53813" lon="2.85284">
        <ele>625.96</ele>
        <time>2012-08-10T11:08:50Z</time>
      </trkpt>
      <trkpt lat="44.53813" lon="2.85283">
        <ele>624.03</ele>
        <time>2012-08-10T11:09:22Z</time>
      </trkpt>
      <trkpt lat="44.53813" lon="2.85284">
        <ele>623.55</ele>
        <time>2012-08-10T11:09:55Z</time>
      </trkpt>
      <trkpt lat="44.53813" lon="2.85283">
        <ele>624.99</ele>
        <time>2012-08-10T11:10:26Z</time>
      </trkpt>
      <trkpt lat="44.53813" lon="2.85284">
        <ele>625.47</ele>
        <time>2012-08-10T11:10:55Z</time>
      </trkpt>
      <trkpt lat="44.53812" lon="2.85283">
        <ele>624.03</ele>
        <time>2012-08-10T11:11:26Z</time>
      </trkpt>
      <trkpt lat="44.53815" lon="2.85288">
        <ele>624.51</ele>
        <time>2012-08-10T11:11:49Z</time>
      </trkpt>
      <trkpt lat="44.53817" lon="2.85284">
        <ele>623.55</ele>
        <time>2012-08-10T11:12:00Z</time>
      </trkpt>
      <trkpt lat="44.53816" lon="2.85282">
        <ele>623.55</ele>
        <time>2012-08-10T11:12:01Z</time>
      </trkpt>
      <trkpt lat="44.53813" lon="2.8528">
        <ele>623.55</ele>
        <time>2012-08-10T11:12:02Z</time>
      </trkpt>
      <trkpt lat="44.53811" lon="2.85277">
        <ele>623.55</ele>
        <time>2012-08-10T11:12:03Z</time>
      </trkpt>
      <trkpt lat="44.53808" lon="2.85274">
        <ele>623.55</ele>
        <time>2012-08-10T11:12:04Z</time>
      </trkpt>
      <trkpt lat="44.53805" lon="2.85271">
        <ele>623.07</ele>
        <time>2012-08-10T11:12:05Z</time>
      </trkpt>
      <trkpt lat="44.53801" lon="2.85268">
        <ele>623.07</ele>
        <time>2012-08-10T11:12:06Z</time>
      </trkpt>
      <trkpt lat="44.53772" lon="2.85242">
        <ele>620.67</ele>
        <time>2012-08-10T11:12:14Z</time>
      </trkpt>
      <trkpt lat="44.53769" lon="2.85238">
        <ele>620.19</ele>
        <time>2012-08-10T11:12:15Z</time>
      </trkpt>
      <trkpt lat="44.53765" lon="2.85234">
        <ele>619.71</ele>
        <time>2012-08-10T11:12:16Z</time>
      </trkpt>
      <trkpt lat="44.53761" lon="2.85231">
        <ele>619.23</ele>
        <time>2012-08-10T11:12:17Z</time>
      </trkpt>
      <trkpt lat="44.53757" lon="2.85227">
        <ele>619.23</ele>
        <time>2012-08-10T11:12:18Z</time>
      </trkpt>
      <trkpt lat="44.53735" lon="2.85207">
        <ele>615.38</ele>
        <time>2012-08-10T11:12:23Z</time>
      </trkpt>
      <trkpt lat="44.53731" lon="2.85202">
        <ele>614.42</ele>
        <time>2012-08-10T11:12:24Z</time>
      </trkpt>
      <trkpt lat="44.53685" lon="2.85152">
        <ele>607.21</ele>
        <time>2012-08-10T11:12:36Z</time>
      </trkpt>
      <trkpt lat="44.53652" lon="2.85128">
        <ele>601.92</ele>
        <time>2012-08-10T11:12:47Z</time>
      </trkpt>
      <trkpt lat="44.53627" lon="2.8513">
        <ele>594.23</ele>
        <time>2012-08-10T11:12:55Z</time>
      </trkpt>
      <trkpt lat="44.53626" lon="2.85133">
        <ele>593.27</ele>
        <time>2012-08-10T11:12:56Z</time>
      </trkpt>
      <trkpt lat="44.53623" lon="2.85136">
        <ele>592.31</ele>
        <time>2012-08-10T11:12:57Z</time>
      </trkpt>
      <trkpt lat="44.53621" lon="2.85139">
        <ele>591.35</ele>
        <time>2012-08-10T11:12:58Z</time>
      </trkpt>
      <trkpt lat="44.53619" lon="2.85142">
        <ele>590.39</ele>
        <time>2012-08-10T11:12:59Z</time>
      </trkpt>
      <trkpt lat="44.53612" lon="2.8516">
        <ele>585.58</ele>
        <time>2012-08-10T11:13:05Z</time>
      </trkpt>
      <trkpt lat="44.53611" lon="2.85161">
        <ele>584.62</ele>
        <time>2012-08-10T11:13:06Z</time>
      </trkpt>
      <trkpt lat="44.53609" lon="2.85161">
        <ele>584.14</ele>
        <time>2012-08-10T11:13:07Z</time>
      </trkpt>
      <trkpt lat="44.53608" lon="2.85161">
        <ele>583.66</ele>
        <time>2012-08-10T11:13:08Z</time>
      </trkpt>
      <trkpt lat="44.53605" lon="2.85161">
        <ele>583.18</ele>
        <time>2012-08-10T11:13:09Z</time>
      </trkpt>
      <trkpt lat="44.53602" lon="2.8516">
        <ele>582.22</ele>
        <time>2012-08-10T11:13:10Z</time>
      </trkpt>
      <trkpt lat="44.536" lon="2.85159">
        <ele>581.73</ele>
        <time>2012-08-10T11:13:11Z</time>
      </trkpt>
      <trkpt lat="44.53597" lon="2.85157">
        <ele>581.25</ele>
        <time>2012-08-10T11:13:12Z</time>
      </trkpt>
      <trkpt lat="44.5358" lon="2.85135">
        <ele>575.97</ele>
        <time>2012-08-10T11:13:20Z</time>
      </trkpt>
      <trkpt lat="44.53574" lon="2.85106">
        <ele>571.16</ele>
        <time>2012-08-10T11:13:27Z</time>
      </trkpt>
      <trkpt lat="44.53573" lon="2.85101">
        <ele>570.68</ele>
        <time>2012-08-10T11:13:28Z</time>
      </trkpt>
      <trkpt lat="44.53573" lon="2.85097">
        <ele>570.2</ele>
        <time>2012-08-10T11:13:29Z</time>
      </trkpt>
      <trkpt lat="44.53574" lon="2.85091">
        <ele>569.72</ele>
        <time>2012-08-10T11:13:30Z</time>
      </trkpt>
      <trkpt lat="44.53574" lon="2.85085">
        <ele>569.24</ele>
        <time>2012-08-10T11:13:31Z</time>
      </trkpt>
      <trkpt lat="44.53575" lon="2.85079">
        <ele>569.24</ele>
        <time>2012-08-10T11:13:32Z</time>
      </trkpt>
      <trkpt lat="44.53576" lon="2.85073">
        <ele>568.28</ele>
        <time>2012-08-10T11:13:33Z</time>
      </trkpt>
      <trkpt lat="44.53576" lon="2.85066">
        <ele>567.32</ele>
        <time>2012-08-10T11:13:34Z</time>
      </trkpt>
      <trkpt lat="44.53574" lon="2.85047">
        <ele>566.35</ele>
        <time>2012-08-10T11:13:38Z</time>
      </trkpt>
      <trkpt lat="44.53575" lon="2.85042">
        <ele>565.87</ele>
        <time>2012-08-10T11:13:39Z</time>
      </trkpt>
      <trkpt lat="44.53576" lon="2.85037">
        <ele>565.87</ele>
        <time>2012-08-10T11:13:40Z</time>
      </trkpt>
      <trkpt lat="44.53574" lon="2.85031">
        <ele>565.87</ele>
        <time>2012-08-10T11:13:41Z</time>
      </trkpt>
      <trkpt lat="44.53572" lon="2.85025">
        <ele>565.39</ele>
        <time>2012-08-10T11:13:42Z</time>
      </trkpt>
      <trkpt lat="44.53554" lon="2.85006">
        <ele>562.99</ele>
        <time>2012-08-10T11:13:50Z</time>
      </trkpt>
      <trkpt lat="44.53552" lon="2.85005">
        <ele>562.99</ele>
        <time>2012-08-10T11:13:51Z</time>
      </trkpt>
      <trkpt lat="44.53541" lon="2.84998">
        <ele>561.55</ele>
        <time>2012-08-10T11:13:56Z</time>
      </trkpt>
      <trkpt lat="44.53533" lon="2.85">
        <ele>560.59</ele>
        <time>2012-08-10T11:14:01Z</time>
      </trkpt>
      <trkpt lat="44.53529" lon="2.85001">
        <ele>559.62</ele>
        <time>2012-08-10T11:14:03Z</time>
      </trkpt>
      <trkpt lat="44.53505" lon="2.84999">
        <ele>556.26</ele>
        <time>2012-08-10T11:14:16Z</time>
      </trkpt>
      <trkpt lat="44.53474" lon="2.84984">
        <ele>555.78</ele>
        <time>2012-08-10T11:14:29Z</time>
      </trkpt>
      <trkpt lat="44.53457" lon="2.84975">
        <ele>555.78</ele>
        <time>2012-08-10T11:14:36Z</time>
      </trkpt>
      <trkpt lat="44.53449" lon="2.84943">
        <ele>550.97</ele>
        <time>2012-08-10T11:14:49Z</time>
      </trkpt>
      <trkpt lat="44.53424" lon="2.84921">
        <ele>546.65</ele>
        <time>2012-08-10T11:15:00Z</time>
      </trkpt>
      <trkpt lat="44.53405" lon="2.84927">
        <ele>544.24</ele>
        <time>2012-08-10T11:15:07Z</time>
      </trkpt>
      <trkpt lat="44.5339" lon="2.84953">
        <ele>539.44</ele>
        <time>2012-08-10T11:15:18Z</time>
      </trkpt>
      <trkpt lat="44.53376" lon="2.84972">
        <ele>533.19</ele>
        <time>2012-08-10T11:15:27Z</time>
      </trkpt>
      <trkpt lat="44.53375" lon="2.84947">
        <ele>522.61</ele>
        <time>2012-08-10T11:15:35Z</time>
      </trkpt>
      <trkpt lat="44.53375" lon="2.84943">
        <ele>521.17</ele>
        <time>2012-08-10T11:15:36Z</time>
      </trkpt>
      <trkpt lat="44.53375" lon="2.8493">
        <ele>515.4</ele>
        <time>2012-08-10T11:15:41Z</time>
      </trkpt>
      <trkpt lat="44.53375" lon="2.84915">
        <ele>509.16</ele>
        <time>2012-08-10T11:15:47Z</time>
      </trkpt>
      <trkpt lat="44.53361" lon="2.84923">
        <ele>501.95</ele>
        <time>2012-08-10T11:15:56Z</time>
      </trkpt>
      <trkpt lat="44.53357" lon="2.84929">
        <ele>499.06</ele>
        <time>2012-08-10T11:15:59Z</time>
      </trkpt>
      <trkpt lat="44.53346" lon="2.84947">
        <ele>489.45</ele>
        <time>2012-08-10T11:16:09Z</time>
      </trkpt>
      <trkpt lat="44.53339" lon="2.84962">
        <ele>485.12</ele>
        <time>2012-08-10T11:16:17Z</time>
      </trkpt>
      <trkpt lat="44.53336" lon="2.8497">
        <ele>485.12</ele>
        <time>2012-08-10T11:16:21Z</time>
      </trkpt>
      <trkpt lat="44.53333" lon="2.85029">
        <ele>486.56</ele>
        <time>2012-08-10T11:16:34Z</time>
      </trkpt>
      <trkpt lat="44.53333" lon="2.85034">
        <ele>487.05</ele>
        <time>2012-08-10T11:16:36Z</time>
      </trkpt>
      <trkpt lat="44.53337" lon="2.85057">
        <ele>492.81</ele>
        <time>2012-08-10T11:16:44Z</time>
      </trkpt>
      <trkpt lat="44.5334" lon="2.85087">
        <ele>496.18</ele>
        <time>2012-08-10T11:16:57Z</time>
      </trkpt>
      <trkpt lat="44.53342" lon="2.85094">
        <ele>494.74</ele>
        <time>2012-08-10T11:17:12Z</time>
      </trkpt>
      <trkpt lat="44.53342" lon="2.85109">
        <ele>497.14</ele>
        <time>2012-08-10T11:17:36Z</time>
      </trkpt>
      <trkpt lat="44.53356" lon="2.85151">
        <ele>497.62</ele>
        <time>2012-08-10T11:17:49Z</time>
      </trkpt>
      <trkpt lat="44.53358" lon="2.85158">
        <ele>498.1</ele>
        <time>2012-08-10T11:17:51Z</time>
      </trkpt>
      <trkpt lat="44.53368" lon="2.8517">
        <ele>500.02</ele>
        <time>2012-08-10T11:17:57Z</time>
      </trkpt>
      <trkpt lat="44.53365" lon="2.8518">
        <ele>501.46</ele>
        <time>2012-08-10T11:18:01Z</time>
      </trkpt>
      <trkpt lat="44.53338" lon="2.85168">
        <ele>501.95</ele>
        <time>2012-08-10T11:18:12Z</time>
      </trkpt>
      <trkpt lat="44.53332" lon="2.85159">
        <ele>501.95</ele>
        <time>2012-08-10T11:18:15Z</time>
      </trkpt>
      <trkpt lat="44.53326" lon="2.85164">
        <ele>500.02</ele>
        <time>2012-08-10T11:18:20Z</time>
      </trkpt>
      <trkpt lat="44.5333" lon="2.85174">
        <ele>498.58</ele>
        <time>2012-08-10T11:18:24Z</time>
      </trkpt>
      <trkpt lat="44.53331" lon="2.85187">
        <ele>495.7</ele>
        <time>2012-08-10T11:18:29Z</time>
      </trkpt>
      <trkpt lat="44.53341" lon="2.85223">
        <ele>488.49</ele>
        <time>2012-08-10T11:18:41Z</time>
      </trkpt>
      <trkpt lat="44.53352" lon="2.85238">
        <ele>483.2</ele>
        <time>2012-08-10T11:18:52Z</time>
      </trkpt>
      <trkpt lat="44.53354" lon="2.8524">
        <ele>482.24</ele>
        <time>2012-08-10T11:19:03Z</time>
      </trkpt>
      <trkpt lat="44.53366" lon="2.85263">
        <ele>475.99</ele>
        <time>2012-08-10T11:19:14Z</time>
      </trkpt>
      <trkpt lat="44.53361" lon="2.85287">
        <ele>473.11</ele>
        <time>2012-08-10T11:19:23Z</time>
      </trkpt>
      <trkpt lat="44.53359" lon="2.85291">
        <ele>472.14</ele>
        <time>2012-08-10T11:19:25Z</time>
      </trkpt>
      <trkpt lat="44.53353" lon="2.85304">
        <ele>471.18</ele>
        <time>2012-08-10T11:19:32Z</time>
      </trkpt>
      <trkpt lat="44.53351" lon="2.85321">
        <ele>472.14</ele>
        <time>2012-08-10T11:19:42Z</time>
      </trkpt>
      <trkpt lat="44.53358" lon="2.85349">
        <ele>471.18</ele>
        <time>2012-08-10T11:19:51Z</time>
      </trkpt>
      <trkpt lat="44.5337" lon="2.85373">
        <ele>474.07</ele>
        <time>2012-08-10T11:20:02Z</time>
      </trkpt>
      <trkpt lat="44.5337" lon="2.85376">
        <ele>474.55</ele>
        <time>2012-08-10T11:20:05Z</time>
      </trkpt>
      <trkpt lat="44.53357" lon="2.85374">
        <ele>476.95</ele>
        <time>2012-08-10T11:20:12Z</time>
      </trkpt>
      <trkpt lat="44.53345" lon="2.85376">
        <ele>478.87</ele>
        <time>2012-08-10T11:20:24Z</time>
      </trkpt>
      <trkpt lat="44.53341" lon="2.85378">
        <ele>479.35</ele>
        <time>2012-08-10T11:20:36Z</time>
      </trkpt>
      <trkpt lat="44.53339" lon="2.8538">
        <ele>479.84</ele>
        <time>2012-08-10T11:20:49Z</time>
      </trkpt>
      <trkpt lat="44.53335" lon="2.85381">
        <ele>479.84</ele>
        <time>2012-08-10T11:21:00Z</time>
      </trkpt>
      <trkpt lat="44.53327" lon="2.85386">
        <ele>480.32</ele>
        <time>2012-08-10T11:21:08Z</time>
      </trkpt>
      <trkpt lat="44.53324" lon="2.85391">
        <ele>480.32</ele>
        <time>2012-08-10T11:21:11Z</time>
      </trkpt>
      <trkpt lat="44.53315" lon="2.85406">
        <ele>479.35</ele>
        <time>2012-08-10T11:21:25Z</time>
      </trkpt>
      <trkpt lat="44.53304" lon="2.85401">
        <ele>473.59</ele>
        <time>2012-08-10T11:21:37Z</time>
      </trkpt>
      <trkpt lat="44.53304" lon="2.85393">
        <ele>468.78</ele>
        <time>2012-08-10T11:21:50Z</time>
      </trkpt>
      <trkpt lat="44.53305" lon="2.85391">
        <ele>466.38</ele>
        <time>2012-08-10T11:22:01Z</time>
      </trkpt>
      <trkpt lat="44.533" lon="2.85379">
        <ele>464.45</ele>
        <time>2012-08-10T11:22:14Z</time>
      </trkpt>
      <trkpt lat="44.53292" lon="2.85363">
        <ele>464.93</ele>
        <time>2012-08-10T11:22:30Z</time>
      </trkpt>
      <trkpt lat="44.53287" lon="2.85354">
        <ele>463.97</ele>
        <time>2012-08-10T11:22:45Z</time>
      </trkpt>
      <trkpt lat="44.53286" lon="2.85353">
        <ele>463.97</ele>
        <time>2012-08-10T11:22:46Z</time>
      </trkpt>
      <trkpt lat="44.5328" lon="2.85332">
        <ele>463.01</ele>
        <time>2012-08-10T11:22:52Z</time>
      </trkpt>
      <trkpt lat="44.53278" lon="2.85326">
        <ele>463.01</ele>
        <time>2012-08-10T11:22:53Z</time>
      </trkpt>
      <trkpt lat="44.53277" lon="2.85319">
        <ele>463.01</ele>
        <time>2012-08-10T11:22:54Z</time>
      </trkpt>
      <trkpt lat="44.5327" lon="2.85272">
        <ele>461.09</ele>
        <time>2012-08-10T11:23:01Z</time>
      </trkpt>
      <trkpt lat="44.53266" lon="2.85238">
        <ele>460.13</ele>
        <time>2012-08-10T11:23:06Z</time>
      </trkpt>
      <trkpt lat="44.53263" lon="2.85225">
        <ele>459.17</ele>
        <time>2012-08-10T11:23:08Z</time>
      </trkpt>
      <trkpt lat="44.53262" lon="2.8522">
        <ele>458.21</ele>
        <time>2012-08-10T11:23:09Z</time>
      </trkpt>
      <trkpt lat="44.53256" lon="2.85207">
        <ele>456.28</ele>
        <time>2012-08-10T11:23:12Z</time>
      </trkpt>
      <trkpt lat="44.53253" lon="2.85202">
        <ele>455.32</ele>
        <time>2012-08-10T11:23:13Z</time>
      </trkpt>
      <trkpt lat="44.53251" lon="2.85199">
        <ele>454.84</ele>
        <time>2012-08-10T11:23:14Z</time>
      </trkpt>
      <trkpt lat="44.53246" lon="2.85189">
        <ele>452.92</ele>
        <time>2012-08-10T11:23:18Z</time>
      </trkpt>
      <trkpt lat="44.53233" lon="2.85172">
        <ele>449.55</ele>
        <time>2012-08-10T11:23:24Z</time>
      </trkpt>
      <trkpt lat="44.53224" lon="2.85144">
        <ele>446.67</ele>
        <time>2012-08-10T11:23:30Z</time>
      </trkpt>
      <trkpt lat="44.5322" lon="2.85141">
        <ele>446.19</ele>
        <time>2012-08-10T11:23:31Z</time>
      </trkpt>
      <trkpt lat="44.53216" lon="2.8514">
        <ele>445.71</ele>
        <time>2012-08-10T11:23:32Z</time>
      </trkpt>
      <trkpt lat="44.53213" lon="2.85139">
        <ele>445.23</ele>
        <time>2012-08-10T11:23:33Z</time>
      </trkpt>
      <trkpt lat="44.5321" lon="2.85137">
        <ele>444.75</ele>
        <time>2012-08-10T11:23:34Z</time>
      </trkpt>
      <trkpt lat="44.53189" lon="2.85123">
        <ele>443.79</ele>
        <time>2012-08-10T11:23:41Z</time>
      </trkpt>
      <trkpt lat="44.53187" lon="2.85118">
        <ele>443.31</ele>
        <time>2012-08-10T11:23:42Z</time>
      </trkpt>
      <trkpt lat="44.5318" lon="2.85099">
        <ele>442.34</ele>
        <time>2012-08-10T11:23:46Z</time>
      </trkpt>
      <trkpt lat="44.53179" lon="2.85094">
        <ele>441.86</ele>
        <time>2012-08-10T11:23:47Z</time>
      </trkpt>
      <trkpt lat="44.53178" lon="2.85089">
        <ele>441.86</ele>
        <time>2012-08-10T11:23:48Z</time>
      </trkpt>
      <trkpt lat="44.53176" lon="2.85087">
        <ele>441.38</ele>
        <time>2012-08-10T11:23:49Z</time>
      </trkpt>
      <trkpt lat="44.53173" lon="2.85085">
        <ele>441.38</ele>
        <time>2012-08-10T11:23:50Z</time>
      </trkpt>
      <trkpt lat="44.53171" lon="2.85083">
        <ele>441.38</ele>
        <time>2012-08-10T11:23:51Z</time>
      </trkpt>
      <trkpt lat="44.53169" lon="2.8508">
        <ele>440.9</ele>
        <time>2012-08-10T11:23:52Z</time>
      </trkpt>
      <trkpt lat="44.53168" lon="2.85078">
        <ele>440.9</ele>
        <time>2012-08-10T11:23:53Z</time>
      </trkpt>
      <trkpt lat="44.53167" lon="2.85075">
        <ele>440.42</ele>
        <time>2012-08-10T11:23:54Z</time>
      </trkpt>
      <trkpt lat="44.53165" lon="2.85072">
        <ele>440.42</ele>
        <time>2012-08-10T11:23:55Z</time>
      </trkpt>
      <trkpt lat="44.53163" lon="2.85068">
        <ele>440.42</ele>
        <time>2012-08-10T11:23:56Z</time>
      </trkpt>
      <trkpt lat="44.53161" lon="2.85065">
        <ele>439.94</ele>
        <time>2012-08-10T11:23:57Z</time>
      </trkpt>
      <trkpt lat="44.5316" lon="2.85062">
        <ele>439.94</ele>
        <time>2012-08-10T11:23:58Z</time>
      </trkpt>
      <trkpt lat="44.5316" lon="2.85058">
        <ele>439.94</ele>
        <time>2012-08-10T11:23:59Z</time>
      </trkpt>
      <trkpt lat="44.5316" lon="2.85053">
        <ele>439.46</ele>
        <time>2012-08-10T11:24:00Z</time>
      </trkpt>
      <trkpt lat="44.5316" lon="2.85047">
        <ele>438.98</ele>
        <time>2012-08-10T11:24:01Z</time>
      </trkpt>
      <trkpt lat="44.53158" lon="2.84991">
        <ele>431.77</ele>
        <time>2012-08-10T11:24:12Z</time>
      </trkpt>
      <trkpt lat="44.53158" lon="2.84986">
        <ele>430.81</ele>
        <time>2012-08-10T11:24:13Z</time>
      </trkpt>
      <trkpt lat="44.53159" lon="2.84968">
        <ele>425.52</ele>
        <time>2012-08-10T11:24:18Z</time>
      </trkpt>
      <trkpt lat="44.53183" lon="2.84923">
        <ele>417.83</ele>
        <time>2012-08-10T11:24:29Z</time>
      </trkpt>
      <trkpt lat="44.53194" lon="2.84874">
        <ele>411.1</ele>
        <time>2012-08-10T11:24:39Z</time>
      </trkpt>
      <trkpt lat="44.53179" lon="2.84839">
        <ele>405.81</ele>
        <time>2012-08-10T11:24:48Z</time>
      </trkpt>
      <trkpt lat="44.53144" lon="2.84823">
        <ele>410.62</ele>
        <time>2012-08-10T11:25:00Z</time>
      </trkpt>
      <trkpt lat="44.53127" lon="2.84813">
        <ele>415.43</ele>
        <time>2012-08-10T11:25:12Z</time>
      </trkpt>
      <trkpt lat="44.53128" lon="2.84813">
        <ele>418.31</ele>
        <time>2012-08-10T11:25:27Z</time>
      </trkpt>
      <trkpt lat="44.53126" lon="2.84814">
        <ele>419.75</ele>
        <time>2012-08-10T11:25:39Z</time>
      </trkpt>
      <trkpt lat="44.53126" lon="2.84814">
        <ele>419.75</ele>
        <time>2012-08-10T11:25:41Z</time>
      </trkpt>
      <trkpt lat="44.53124" lon="2.84814">
        <ele>420.71</ele>
        <time>2012-08-10T11:25:43Z</time>
      </trkpt>
      <trkpt lat="44.53116" lon="2.84795">
        <ele>420.71</ele>
        <time>2012-08-10T11:25:54Z</time>
      </trkpt>
      <trkpt lat="44.53104" lon="2.84779">
        <ele>424.56</ele>
        <time>2012-08-10T11:26:05Z</time>
      </trkpt>
      <trkpt lat="44.53087" lon="2.84756">
        <ele>435.61</ele>
        <time>2012-08-10T11:26:20Z</time>
      </trkpt>
      <trkpt lat="44.53071" lon="2.84734">
        <ele>442.34</ele>
        <time>2012-08-10T11:26:35Z</time>
      </trkpt>
      <trkpt lat="44.53065" lon="2.84729">
        <ele>445.71</ele>
        <time>2012-08-10T11:26:40Z</time>
      </trkpt>
      <trkpt lat="44.5306" lon="2.84724">
        <ele>447.63</ele>
        <time>2012-08-10T11:26:44Z</time>
      </trkpt>
      <trkpt lat="44.53048" lon="2.847">
        <ele>444.27</ele>
        <time>2012-08-10T11:26:57Z</time>
      </trkpt>
      <trkpt lat="44.53043" lon="2.8469">
        <ele>441.86</ele>
        <time>2012-08-10T11:27:04Z</time>
      </trkpt>
      <trkpt lat="44.53041" lon="2.84687">
        <ele>441.86</ele>
        <time>2012-08-10T11:27:06Z</time>
      </trkpt>
      <trkpt lat="44.53019" lon="2.84663">
        <ele>442.82</ele>
        <time>2012-08-10T11:27:22Z</time>
      </trkpt>
      <trkpt lat="44.53001" lon="2.84642">
        <ele>440.9</ele>
        <time>2012-08-10T11:27:36Z</time>
      </trkpt>
      <trkpt lat="44.52999" lon="2.84634">
        <ele>440.9</ele>
        <time>2012-08-10T11:27:40Z</time>
      </trkpt>
      <trkpt lat="44.52998" lon="2.84616">
        <ele>438.02</ele>
        <time>2012-08-10T11:27:46Z</time>
      </trkpt>
      <trkpt lat="44.53002" lon="2.84587">
        <ele>439.94</ele>
        <time>2012-08-10T11:28:00Z</time>
      </trkpt>
      <trkpt lat="44.53002" lon="2.84583">
        <ele>439.94</ele>
        <time>2012-08-10T11:28:02Z</time>
      </trkpt>
      <trkpt lat="44.52997" lon="2.84572">
        <ele>441.38</ele>
        <time>2012-08-10T11:28:07Z</time>
      </trkpt>
      <trkpt lat="44.52989" lon="2.84569">
        <ele>441.38</ele>
        <time>2012-08-10T11:28:11Z</time>
      </trkpt>
      <trkpt lat="44.52969" lon="2.84575">
        <ele>439.46</ele>
        <time>2012-08-10T11:28:27Z</time>
      </trkpt>
      <trkpt lat="44.5295" lon="2.84592">
        <ele>439.94</ele>
        <time>2012-08-10T11:28:36Z</time>
      </trkpt>
      <trkpt lat="44.52943" lon="2.84599">
        <ele>440.42</ele>
        <time>2012-08-10T11:28:40Z</time>
      </trkpt>
      <trkpt lat="44.52927" lon="2.84619">
        <ele>445.23</ele>
        <time>2012-08-10T11:28:51Z</time>
      </trkpt>
      <trkpt lat="44.52905" lon="2.84654">
        <ele>451</ele>
        <time>2012-08-10T11:29:06Z</time>
      </trkpt>
      <trkpt lat="44.52885" lon="2.84684">
        <ele>452.92</ele>
        <time>2012-08-10T11:29:19Z</time>
      </trkpt>
      <trkpt lat="44.52858" lon="2.84696">
        <ele>450.03</ele>
        <time>2012-08-10T11:29:34Z</time>
      </trkpt>
      <trkpt lat="44.52842" lon="2.84685">
        <ele>449.55</ele>
        <time>2012-08-10T11:29:42Z</time>
      </trkpt>
      <trkpt lat="44.52835" lon="2.84682">
        <ele>449.07</ele>
        <time>2012-08-10T11:29:54Z</time>
      </trkpt>
      <trkpt lat="44.52833" lon="2.84681">
        <ele>448.59</ele>
        <time>2012-08-10T11:30:06Z</time>
      </trkpt>
      <trkpt lat="44.52833" lon="2.8468">
        <ele>446.67</ele>
        <time>2012-08-10T11:30:41Z</time>
      </trkpt>
      <trkpt lat="44.52832" lon="2.8468">
        <ele>448.11</ele>
        <time>2012-08-10T11:31:08Z</time>
      </trkpt>
      <trkpt lat="44.52831" lon="2.84676">
        <ele>446.67</ele>
        <time>2012-08-10T11:31:40Z</time>
      </trkpt>
      <trkpt lat="44.52832" lon="2.84677">
        <ele>446.19</ele>
        <time>2012-08-10T11:32:08Z</time>
      </trkpt>
      <trkpt lat="44.52833" lon="2.84675">
        <ele>445.23</ele>
        <time>2012-08-10T11:32:23Z</time>
      </trkpt>
      <trkpt lat="44.52839" lon="2.84635">
        <ele>442.34</ele>
        <time>2012-08-10T11:32:37Z</time>
      </trkpt>
      <trkpt lat="44.5285" lon="2.84606">
        <ele>441.38</ele>
        <time>2012-08-10T11:32:50Z</time>
      </trkpt>
      <trkpt lat="44.52851" lon="2.84598">
        <ele>441.38</ele>
        <time>2012-08-10T11:32:54Z</time>
      </trkpt>
      <trkpt lat="44.52853" lon="2.84594">
        <ele>442.82</ele>
        <time>2012-08-10T11:32:57Z</time>
      </trkpt>
      <trkpt lat="44.52856" lon="2.84597">
        <ele>443.31</ele>
        <time>2012-08-10T11:33:00Z</time>
      </trkpt>
      <trkpt lat="44.52862" lon="2.84609">
        <ele>444.75</ele>
        <time>2012-08-10T11:33:13Z</time>
      </trkpt>
      <trkpt lat="44.52862" lon="2.84609">
        <ele>446.19</ele>
        <time>2012-08-10T11:33:35Z</time>
      </trkpt>
      <trkpt lat="44.52864" lon="2.84612">
        <ele>447.63</ele>
        <time>2012-08-10T11:33:53Z</time>
      </trkpt>
      <trkpt lat="44.52864" lon="2.84613">
        <ele>447.63</ele>
        <time>2012-08-10T11:33:54Z</time>
      </trkpt>
      <trkpt lat="44.52868" lon="2.84624">
        <ele>449.07</ele>
        <time>2012-08-10T11:34:03Z</time>
      </trkpt>
      <trkpt lat="44.52874" lon="2.84623">
        <ele>451</ele>
        <time>2012-08-10T11:34:17Z</time>
      </trkpt>
      <trkpt lat="44.52876" lon="2.84621">
        <ele>451.96</ele>
        <time>2012-08-10T11:34:39Z</time>
      </trkpt>
      <trkpt lat="44.52879" lon="2.84612">
        <ele>456.76</ele>
        <time>2012-08-10T11:34:51Z</time>
      </trkpt>
      <trkpt lat="44.52882" lon="2.84605">
        <ele>457.72</ele>
        <time>2012-08-10T11:34:57Z</time>
      </trkpt>
      <trkpt lat="44.52892" lon="2.84593">
        <ele>458.69</ele>
        <time>2012-08-10T11:35:13Z</time>
      </trkpt>
      <trkpt lat="44.52892" lon="2.84592">
        <ele>458.69</ele>
        <time>2012-08-10T11:35:15Z</time>
      </trkpt>
      <trkpt lat="44.52902" lon="2.84574">
        <ele>461.57</ele>
        <time>2012-08-10T11:35:31Z</time>
      </trkpt>
      <trkpt lat="44.52906" lon="2.84565">
        <ele>461.57</ele>
        <time>2012-08-10T11:35:38Z</time>
      </trkpt>
      <trkpt lat="44.52913" lon="2.84549">
        <ele>463.49</ele>
        <time>2012-08-10T11:35:53Z</time>
      </trkpt>
      <trkpt lat="44.52919" lon="2.84531">
        <ele>465.42</ele>
        <time>2012-08-10T11:36:07Z</time>
      </trkpt>
      <trkpt lat="44.52922" lon="2.84527">
        <ele>465.42</ele>
        <time>2012-08-10T11:36:12Z</time>
      </trkpt>
      <trkpt lat="44.52927" lon="2.84516">
        <ele>466.86</ele>
        <time>2012-08-10T11:36:26Z</time>
      </trkpt>
      <trkpt lat="44.52932" lon="2.84502">
        <ele>470.22</ele>
        <time>2012-08-10T11:36:40Z</time>
      </trkpt>
      <trkpt lat="44.52941" lon="2.84492">
        <ele>471.66</ele>
        <time>2012-08-10T11:36:55Z</time>
      </trkpt>
      <trkpt lat="44.52946" lon="2.84485">
        <ele>474.07</ele>
        <time>2012-08-10T11:37:10Z</time>
      </trkpt>
      <trkpt lat="44.52952" lon="2.84476">
        <ele>476.47</ele>
        <time>2012-08-10T11:37:25Z</time>
      </trkpt>
      <trkpt lat="44.5296" lon="2.84464">
        <ele>481.28</ele>
        <time>2012-08-10T11:37:40Z</time>
      </trkpt>
      <trkpt lat="44.52964" lon="2.84456">
        <ele>484.16</ele>
        <time>2012-08-10T11:37:56Z</time>
      </trkpt>
      <trkpt lat="44.52976" lon="2.84446">
        <ele>485.12</ele>
        <time>2012-08-10T11:38:12Z</time>
      </trkpt>
      <trkpt lat="44.5298" lon="2.84446">
        <ele>486.56</ele>
        <time>2012-08-10T11:38:28Z</time>
      </trkpt>
      <trkpt lat="44.52986" lon="2.84447">
        <ele>488.01</ele>
        <time>2012-08-10T11:38:49Z</time>
      </trkpt>
      <trkpt lat="44.52995" lon="2.84447">
        <ele>487.53</ele>
        <time>2012-08-10T11:39:03Z</time>
      </trkpt>
      <trkpt lat="44.53005" lon="2.84447">
        <ele>488.49</ele>
        <time>2012-08-10T11:39:17Z</time>
      </trkpt>
      <trkpt lat="44.53013" lon="2.84443">
        <ele>489.93</ele>
        <time>2012-08-10T11:39:31Z</time>
      </trkpt>
      <trkpt lat="44.53018" lon="2.84435">
        <ele>490.41</ele>
        <time>2012-08-10T11:39:43Z</time>
      </trkpt>
      <trkpt lat="44.53026" lon="2.84423">
        <ele>492.33</ele>
        <time>2012-08-10T11:39:59Z</time>
      </trkpt>
      <trkpt lat="44.53028" lon="2.84418">
        <ele>492.33</ele>
        <time>2012-08-10T11:40:12Z</time>
      </trkpt>
      <trkpt lat="44.53035" lon="2.8441">
        <ele>494.74</ele>
        <time>2012-08-10T11:40:25Z</time>
      </trkpt>
      <trkpt lat="44.53042" lon="2.844">
        <ele>497.62</ele>
        <time>2012-08-10T11:40:40Z</time>
      </trkpt>
      <trkpt lat="44.5305" lon="2.84388">
        <ele>500.02</ele>
        <time>2012-08-10T11:40:54Z</time>
      </trkpt>
      <trkpt lat="44.53057" lon="2.84379">
        <ele>501.46</ele>
        <time>2012-08-10T11:41:05Z</time>
      </trkpt>
      <trkpt lat="44.53066" lon="2.84361">
        <ele>502.43</ele>
        <time>2012-08-10T11:41:23Z</time>
      </trkpt>
      <trkpt lat="44.53075" lon="2.84348">
        <ele>504.35</ele>
        <time>2012-08-10T11:41:37Z</time>
      </trkpt>
      <trkpt lat="44.5308" lon="2.84335">
        <ele>505.31</ele>
        <time>2012-08-10T11:41:51Z</time>
      </trkpt>
      <trkpt lat="44.53088" lon="2.84321">
        <ele>506.27</ele>
        <time>2012-08-10T11:42:05Z</time>
      </trkpt>
      <trkpt lat="44.53093" lon="2.84308">
        <ele>508.19</ele>
        <time>2012-08-10T11:42:19Z</time>
      </trkpt>
      <trkpt lat="44.53097" lon="2.84291">
        <ele>508.67</ele>
        <time>2012-08-10T11:42:33Z</time>
      </trkpt>
      <trkpt lat="44.53097" lon="2.84289">
        <ele>508.67</ele>
        <time>2012-08-10T11:42:35Z</time>
      </trkpt>
      <trkpt lat="44.53099" lon="2.84267">
        <ele>510.6</ele>
        <time>2012-08-10T11:42:52Z</time>
      </trkpt>
      <trkpt lat="44.53102" lon="2.84263">
        <ele>510.12</ele>
        <time>2012-08-10T11:42:56Z</time>
      </trkpt>
      <trkpt lat="44.53107" lon="2.84257">
        <ele>510.12</ele>
        <time>2012-08-10T11:43:04Z</time>
      </trkpt>
      <trkpt lat="44.53118" lon="2.84243">
        <ele>513.48</ele>
        <time>2012-08-10T11:43:20Z</time>
      </trkpt>
      <trkpt lat="44.53124" lon="2.84232">
        <ele>515.88</ele>
        <time>2012-08-10T11:43:34Z</time>
      </trkpt>
      <trkpt lat="44.53132" lon="2.84216">
        <ele>517.33</ele>
        <time>2012-08-10T11:43:49Z</time>
      </trkpt>
      <trkpt lat="44.53128" lon="2.84205">
        <ele>516.85</ele>
        <time>2012-08-10T11:43:59Z</time>
      </trkpt>
      <trkpt lat="44.53123" lon="2.84187">
        <ele>517.33</ele>
        <time>2012-08-10T11:44:15Z</time>
      </trkpt>
      <trkpt lat="44.53121" lon="2.84182">
        <ele>517.33</ele>
        <time>2012-08-10T11:44:20Z</time>
      </trkpt>
      <trkpt lat="44.53116" lon="2.84175">
        <ele>516.37</ele>
        <time>2012-08-10T11:44:27Z</time>
      </trkpt>
      <trkpt lat="44.53112" lon="2.84153">
        <ele>518.77</ele>
        <time>2012-08-10T11:44:44Z</time>
      </trkpt>
      <trkpt lat="44.53112" lon="2.84153">
        <ele>517.81</ele>
        <time>2012-08-10T11:45:01Z</time>
      </trkpt>
      <trkpt lat="44.53113" lon="2.84152">
        <ele>517.33</ele>
        <time>2012-08-10T11:45:38Z</time>
      </trkpt>
      <trkpt lat="44.5311" lon="2.8414">
        <ele>518.77</ele>
        <time>2012-08-10T11:45:54Z</time>
      </trkpt>
      <trkpt lat="44.53111" lon="2.84135">
        <ele>517.81</ele>
        <time>2012-08-10T11:46:10Z</time>
      </trkpt>
      <trkpt lat="44.53109" lon="2.84118">
        <ele>519.25</ele>
        <time>2012-08-10T11:46:19Z</time>
      </trkpt>
      <trkpt lat="44.53114" lon="2.84093">
        <ele>522.13</ele>
        <time>2012-08-10T11:46:35Z</time>
      </trkpt>
      <trkpt lat="44.53112" lon="2.84082">
        <ele>521.17</ele>
        <time>2012-08-10T11:46:43Z</time>
      </trkpt>
      <trkpt lat="44.53106" lon="2.84062">
        <ele>519.73</ele>
        <time>2012-08-10T11:46:49Z</time>
      </trkpt>
      <trkpt lat="44.53104" lon="2.84056">
        <ele>519.73</ele>
        <time>2012-08-10T11:46:50Z</time>
      </trkpt>
      <trkpt lat="44.53102" lon="2.8405">
        <ele>519.25</ele>
        <time>2012-08-10T11:46:51Z</time>
      </trkpt>
      <trkpt lat="44.531" lon="2.84044">
        <ele>519.25</ele>
        <time>2012-08-10T11:46:52Z</time>
      </trkpt>
      <trkpt lat="44.53092" lon="2.84028">
        <ele>518.29</ele>
        <time>2012-08-10T11:46:55Z</time>
      </trkpt>
      <trkpt lat="44.5309" lon="2.84024">
        <ele>518.29</ele>
        <time>2012-08-10T11:46:56Z</time>
      </trkpt>
      <trkpt lat="44.53087" lon="2.8402">
        <ele>518.29</ele>
        <time>2012-08-10T11:46:57Z</time>
      </trkpt>
      <trkpt lat="44.53085" lon="2.84016">
        <ele>518.29</ele>
        <time>2012-08-10T11:46:58Z</time>
      </trkpt>
      <trkpt lat="44.53083" lon="2.84012">
        <ele>517.81</ele>
        <time>2012-08-10T11:46:59Z</time>
      </trkpt>
      <trkpt lat="44.53081" lon="2.84009">
        <ele>517.81</ele>
        <time>2012-08-10T11:47:00Z</time>
      </trkpt>
      <trkpt lat="44.5308" lon="2.84007">
        <ele>517.81</ele>
        <time>2012-08-10T11:47:01Z</time>
      </trkpt>
      <trkpt lat="44.53078" lon="2.84004">
        <ele>517.33</ele>
        <time>2012-08-10T11:47:02Z</time>
      </trkpt>
      <trkpt lat="44.53067" lon="2.83983">
        <ele>514.92</ele>
        <time>2012-08-10T11:47:07Z</time>
      </trkpt>
      <trkpt lat="44.53062" lon="2.83973">
        <ele>513.96</ele>
        <time>2012-08-10T11:47:09Z</time>
      </trkpt>
      <trkpt lat="44.53059" lon="2.8397">
        <ele>513.48</ele>
        <time>2012-08-10T11:47:10Z</time>
      </trkpt>
      <trkpt lat="44.5304" lon="2.83957">
        <ele>511.56</ele>
        <time>2012-08-10T11:47:15Z</time>
      </trkpt>
      <trkpt lat="44.53036" lon="2.83955">
        <ele>511.08</ele>
        <time>2012-08-10T11:47:16Z</time>
      </trkpt>
      <trkpt lat="44.53032" lon="2.83953">
        <ele>510.6</ele>
        <time>2012-08-10T11:47:17Z</time>
      </trkpt>
      <trkpt lat="44.53028" lon="2.83952">
        <ele>510.12</ele>
        <time>2012-08-10T11:47:18Z</time>
      </trkpt>
      <trkpt lat="44.53024" lon="2.8395">
        <ele>509.64</ele>
        <time>2012-08-10T11:47:19Z</time>
      </trkpt>
      <trkpt lat="44.5302" lon="2.83948">
        <ele>509.16</ele>
        <time>2012-08-10T11:47:20Z</time>
      </trkpt>
      <trkpt lat="44.53016" lon="2.83946">
        <ele>509.16</ele>
        <time>2012-08-10T11:47:21Z</time>
      </trkpt>
      <trkpt lat="44.52985" lon="2.83936">
        <ele>507.71</ele>
        <time>2012-08-10T11:47:30Z</time>
      </trkpt>
      <trkpt lat="44.52956" lon="2.83924">
        <ele>506.27</ele>
        <time>2012-08-10T11:47:38Z</time>
      </trkpt>
      <trkpt lat="44.52954" lon="2.83921">
        <ele>505.79</ele>
        <time>2012-08-10T11:47:39Z</time>
      </trkpt>
      <trkpt lat="44.52953" lon="2.83917">
        <ele>504.83</ele>
        <time>2012-08-10T11:47:40Z</time>
      </trkpt>
      <trkpt lat="44.52952" lon="2.83913">
        <ele>504.35</ele>
        <time>2012-08-10T11:47:41Z</time>
      </trkpt>
      <trkpt lat="44.5295" lon="2.8391">
        <ele>503.87</ele>
        <time>2012-08-10T11:47:42Z</time>
      </trkpt>
      <trkpt lat="44.52947" lon="2.83899">
        <ele>502.91</ele>
        <time>2012-08-10T11:47:44Z</time>
      </trkpt>
      <trkpt lat="44.52946" lon="2.83893">
        <ele>502.43</ele>
        <time>2012-08-10T11:47:45Z</time>
      </trkpt>
      <trkpt lat="44.52946" lon="2.83887">
        <ele>501.46</ele>
        <time>2012-08-10T11:47:46Z</time>
      </trkpt>
      <trkpt lat="44.52946" lon="2.83882">
        <ele>500.98</ele>
        <time>2012-08-10T11:47:47Z</time>
      </trkpt>
      <trkpt lat="44.52946" lon="2.83877">
        <ele>500.5</ele>
        <time>2012-08-10T11:47:48Z</time>
      </trkpt>
      <trkpt lat="44.52946" lon="2.83872">
        <ele>500.02</ele>
        <time>2012-08-10T11:47:49Z</time>
      </trkpt>
      <trkpt lat="44.52946" lon="2.83867">
        <ele>500.02</ele>
        <time>2012-08-10T11:47:50Z</time>
      </trkpt>
      <trkpt lat="44.52946" lon="2.83863">
        <ele>499.54</ele>
        <time>2012-08-10T11:47:51Z</time>
      </trkpt>
      <trkpt lat="44.52937" lon="2.83816">
        <ele>497.14</ele>
        <time>2012-08-10T11:48:02Z</time>
      </trkpt>
      <trkpt lat="44.52933" lon="2.83807">
        <ele>496.66</ele>
        <time>2012-08-10T11:48:06Z</time>
      </trkpt>
      <trkpt lat="44.52927" lon="2.83794">
        <ele>495.22</ele>
        <time>2012-08-10T11:48:12Z</time>
      </trkpt>
      <trkpt lat="44.52923" lon="2.83773">
        <ele>492.81</ele>
        <time>2012-08-10T11:48:24Z</time>
      </trkpt>
      <trkpt lat="44.52924" lon="2.83771">
        <ele>492.33</ele>
        <time>2012-08-10T11:48:38Z</time>
      </trkpt>
      <trkpt lat="44.52929" lon="2.83763">
        <ele>492.81</ele>
        <time>2012-08-10T11:48:51Z</time>
      </trkpt>
      <trkpt lat="44.52938" lon="2.83758">
        <ele>490.89</ele>
        <time>2012-08-10T11:49:02Z</time>
      </trkpt>
      <trkpt lat="44.52947" lon="2.83758">
        <ele>491.85</ele>
        <time>2012-08-10T11:49:15Z</time>
      </trkpt>
      <trkpt lat="44.52956" lon="2.83757">
        <ele>491.37</ele>
        <time>2012-08-10T11:49:27Z</time>
      </trkpt>
      <trkpt lat="44.52965" lon="2.83755">
        <ele>488.49</ele>
        <time>2012-08-10T11:49:41Z</time>
      </trkpt>
      <trkpt lat="44.52973" lon="2.83758">
        <ele>488.49</ele>
        <time>2012-08-10T11:49:51Z</time>
      </trkpt>
      <trkpt lat="44.52982" lon="2.83763">
        <ele>486.56</ele>
        <time>2012-08-10T11:50:03Z</time>
      </trkpt>
      <trkpt lat="44.52987" lon="2.83764">
        <ele>484.64</ele>
        <time>2012-08-10T11:50:14Z</time>
      </trkpt>
      <trkpt lat="44.52988" lon="2.83765">
        <ele>484.16</ele>
        <time>2012-08-10T11:50:17Z</time>
      </trkpt>
      <trkpt lat="44.52995" lon="2.83765">
        <ele>484.16</ele>
        <time>2012-08-10T11:50:24Z</time>
      </trkpt>
      <trkpt lat="44.53001" lon="2.83765">
        <ele>484.16</ele>
        <time>2012-08-10T11:50:27Z</time>
      </trkpt>
      <trkpt lat="44.53004" lon="2.83762">
        <ele>483.68</ele>
        <time>2012-08-10T11:50:30Z</time>
      </trkpt>
      <trkpt lat="44.53003" lon="2.83755">
        <ele>483.68</ele>
        <time>2012-08-10T11:50:34Z</time>
      </trkpt>
      <trkpt lat="44.52996" lon="2.83746">
        <ele>485.12</ele>
        <time>2012-08-10T11:50:46Z</time>
      </trkpt>
      <trkpt lat="44.52991" lon="2.83736">
        <ele>486.08</ele>
        <time>2012-08-10T11:51:01Z</time>
      </trkpt>
      <trkpt lat="44.52987" lon="2.83727">
        <ele>485.12</ele>
        <time>2012-08-10T11:51:11Z</time>
      </trkpt>
      <trkpt lat="44.52982" lon="2.83718">
        <ele>485.12</ele>
        <time>2012-08-10T11:51:22Z</time>
      </trkpt>
      <trkpt lat="44.52977" lon="2.83706">
        <ele>487.05</ele>
        <time>2012-08-10T11:51:33Z</time>
      </trkpt>
      <trkpt lat="44.52972" lon="2.83696">
        <ele>488.97</ele>
        <time>2012-08-10T11:51:44Z</time>
      </trkpt>
      <trkpt lat="44.5297" lon="2.83682">
        <ele>489.93</ele>
        <time>2012-08-10T11:51:57Z</time>
      </trkpt>
      <trkpt lat="44.5297" lon="2.83681">
        <ele>489.93</ele>
        <time>2012-08-10T11:51:58Z</time>
      </trkpt>
      <trkpt lat="44.52967" lon="2.83666">
        <ele>489.93</ele>
        <time>2012-08-10T11:52:14Z</time>
      </trkpt>
      <trkpt lat="44.52967" lon="2.83652">
        <ele>489.45</ele>
        <time>2012-08-10T11:52:27Z</time>
      </trkpt>
      <trkpt lat="44.52967" lon="2.83646">
        <ele>491.37</ele>
        <time>2012-08-10T11:52:37Z</time>
      </trkpt>
      <trkpt lat="44.52968" lon="2.83634">
        <ele>493.77</ele>
        <time>2012-08-10T11:52:52Z</time>
      </trkpt>
      <trkpt lat="44.52968" lon="2.83624">
        <ele>494.74</ele>
        <time>2012-08-10T11:53:00Z</time>
      </trkpt>
      <trkpt lat="44.52967" lon="2.83611">
        <ele>496.18</ele>
        <time>2012-08-10T11:53:12Z</time>
      </trkpt>
      <trkpt lat="44.52965" lon="2.83585">
        <ele>496.66</ele>
        <time>2012-08-10T11:53:30Z</time>
      </trkpt>
      <trkpt lat="44.52964" lon="2.83578">
        <ele>496.18</ele>
        <time>2012-08-10T11:53:36Z</time>
      </trkpt>
      <trkpt lat="44.52966" lon="2.83558">
        <ele>496.66</ele>
        <time>2012-08-10T11:53:50Z</time>
      </trkpt>
      <trkpt lat="44.52964" lon="2.83546">
        <ele>496.66</ele>
        <time>2012-08-10T11:53:59Z</time>
      </trkpt>
      <trkpt lat="44.52959" lon="2.83534">
        <ele>498.58</ele>
        <time>2012-08-10T11:54:14Z</time>
      </trkpt>
      <trkpt lat="44.52955" lon="2.83519">
        <ele>500.5</ele>
        <time>2012-08-10T11:54:29Z</time>
      </trkpt>
      <trkpt lat="44.5295" lon="2.835">
        <ele>501.46</ele>
        <time>2012-08-10T11:54:45Z</time>
      </trkpt>
      <trkpt lat="44.52951" lon="2.83494">
        <ele>501.46</ele>
        <time>2012-08-10T11:54:49Z</time>
      </trkpt>
      <trkpt lat="44.52949" lon="2.8347">
        <ele>499.54</ele>
        <time>2012-08-10T11:55:04Z</time>
      </trkpt>
      <trkpt lat="44.52945" lon="2.83448">
        <ele>500.98</ele>
        <time>2012-08-10T11:55:19Z</time>
      </trkpt>
      <trkpt lat="44.52942" lon="2.83428">
        <ele>502.43</ele>
        <time>2012-08-10T11:55:32Z</time>
      </trkpt>
      <trkpt lat="44.52934" lon="2.83409">
        <ele>503.87</ele>
        <time>2012-08-10T11:55:48Z</time>
      </trkpt>
      <trkpt lat="44.52928" lon="2.83396">
        <ele>505.79</ele>
        <time>2012-08-10T11:56:00Z</time>
      </trkpt>
      <trkpt lat="44.52923" lon="2.83388">
        <ele>506.75</ele>
        <time>2012-08-10T11:56:08Z</time>
      </trkpt>
      <trkpt lat="44.52919" lon="2.83379">
        <ele>508.19</ele>
        <time>2012-08-10T11:56:20Z</time>
      </trkpt>
      <trkpt lat="44.52918" lon="2.83378">
        <ele>508.67</ele>
        <time>2012-08-10T11:56:22Z</time>
      </trkpt>
      <trkpt lat="44.52906" lon="2.83366">
        <ele>511.56</ele>
        <time>2012-08-10T11:56:37Z</time>
      </trkpt>
      <trkpt lat="44.52895" lon="2.83357">
        <ele>510.6</ele>
        <time>2012-08-10T11:56:51Z</time>
      </trkpt>
      <trkpt lat="44.52887" lon="2.83346">
        <ele>512.52</ele>
        <time>2012-08-10T11:57:03Z</time>
      </trkpt>
      <trkpt lat="44.52884" lon="2.83339">
        <ele>513.48</ele>
        <time>2012-08-10T11:57:10Z</time>
      </trkpt>
      <trkpt lat="44.52881" lon="2.83328">
        <ele>514.92</ele>
        <time>2012-08-10T11:57:19Z</time>
      </trkpt>
      <trkpt lat="44.52876" lon="2.83309">
        <ele>514.92</ele>
        <time>2012-08-10T11:57:36Z</time>
      </trkpt>
      <trkpt lat="44.52875" lon="2.83305">
        <ele>515.88</ele>
        <time>2012-08-10T11:57:40Z</time>
      </trkpt>
      <trkpt lat="44.52869" lon="2.83287">
        <ele>518.77</ele>
        <time>2012-08-10T11:57:56Z</time>
      </trkpt>
      <trkpt lat="44.52863" lon="2.83268">
        <ele>520.21</ele>
        <time>2012-08-10T11:58:13Z</time>
      </trkpt>
      <trkpt lat="44.52861" lon="2.83264">
        <ele>520.69</ele>
        <time>2012-08-10T11:58:17Z</time>
      </trkpt>
      <trkpt lat="44.52856" lon="2.83253">
        <ele>521.17</ele>
        <time>2012-08-10T11:58:25Z</time>
      </trkpt>
      <trkpt lat="44.52849" lon="2.83236">
        <ele>521.65</ele>
        <time>2012-08-10T11:58:39Z</time>
      </trkpt>
      <trkpt lat="44.52851" lon="2.83224">
        <ele>523.58</ele>
        <time>2012-08-10T11:58:49Z</time>
      </trkpt>
      <trkpt lat="44.52857" lon="2.832">
        <ele>524.54</ele>
        <time>2012-08-10T11:59:06Z</time>
      </trkpt>
      <trkpt lat="44.52861" lon="2.83186">
        <ele>523.09</ele>
        <time>2012-08-10T11:59:17Z</time>
      </trkpt>
      <trkpt lat="44.5286" lon="2.8318">
        <ele>523.09</ele>
        <time>2012-08-10T11:59:19Z</time>
      </trkpt>
      <trkpt lat="44.52822" lon="2.83144">
        <ele>519.73</ele>
        <time>2012-08-10T11:59:33Z</time>
      </trkpt>
      <trkpt lat="44.52794" lon="2.83155">
        <ele>519.25</ele>
        <time>2012-08-10T11:59:44Z</time>
      </trkpt>
      <trkpt lat="44.52763" lon="2.83179">
        <ele>519.73</ele>
        <time>2012-08-10T11:59:59Z</time>
      </trkpt>
      <trkpt lat="44.5273" lon="2.83207">
        <ele>520.69</ele>
        <time>2012-08-10T12:00:15Z</time>
      </trkpt>
      <trkpt lat="44.52717" lon="2.8324">
        <ele>522.13</ele>
        <time>2012-08-10T12:00:27Z</time>
      </trkpt>
      <trkpt lat="44.52692" lon="2.83288">
        <ele>522.13</ele>
        <time>2012-08-10T12:00:40Z</time>
      </trkpt>
      <trkpt lat="44.52657" lon="2.83327">
        <ele>521.65</ele>
        <time>2012-08-10T12:00:52Z</time>
      </trkpt>
      <trkpt lat="44.52629" lon="2.83344">
        <ele>522.13</ele>
        <time>2012-08-10T12:01:02Z</time>
      </trkpt>
      <trkpt lat="44.52588" lon="2.83352">
        <ele>521.17</ele>
        <time>2012-08-10T12:01:17Z</time>
      </trkpt>
      <trkpt lat="44.52585" lon="2.8335">
        <ele>521.17</ele>
        <time>2012-08-10T12:01:18Z</time>
      </trkpt>
      <trkpt lat="44.52582" lon="2.83347">
        <ele>520.69</ele>
        <time>2012-08-10T12:01:19Z</time>
      </trkpt>
      <trkpt lat="44.52581" lon="2.83343">
        <ele>520.21</ele>
        <time>2012-08-10T12:01:20Z</time>
      </trkpt>
      <trkpt lat="44.5258" lon="2.83339">
        <ele>520.21</ele>
        <time>2012-08-10T12:01:21Z</time>
      </trkpt>
      <trkpt lat="44.52576" lon="2.83312">
        <ele>519.25</ele>
        <time>2012-08-10T12:01:33Z</time>
      </trkpt>
      <trkpt lat="44.52568" lon="2.83286">
        <ele>518.29</ele>
        <time>2012-08-10T12:01:42Z</time>
      </trkpt>
      <trkpt lat="44.52548" lon="2.83204">
        <ele>513</ele>
        <time>2012-08-10T12:01:53Z</time>
      </trkpt>
      <trkpt lat="44.52545" lon="2.83198">
        <ele>513</ele>
        <time>2012-08-10T12:01:54Z</time>
      </trkpt>
      <trkpt lat="44.52543" lon="2.83194">
        <ele>512.52</ele>
        <time>2012-08-10T12:01:55Z</time>
      </trkpt>
      <trkpt lat="44.52528" lon="2.83152">
        <ele>508.67</ele>
        <time>2012-08-10T12:02:05Z</time>
      </trkpt>
      <trkpt lat="44.52527" lon="2.83146">
        <ele>508.19</ele>
        <time>2012-08-10T12:02:06Z</time>
      </trkpt>
      <trkpt lat="44.52526" lon="2.83139">
        <ele>507.71</ele>
        <time>2012-08-10T12:02:07Z</time>
      </trkpt>
      <trkpt lat="44.52524" lon="2.83132">
        <ele>507.23</ele>
        <time>2012-08-10T12:02:08Z</time>
      </trkpt>
      <trkpt lat="44.52522" lon="2.83125">
        <ele>506.75</ele>
        <time>2012-08-10T12:02:09Z</time>
      </trkpt>
      <trkpt lat="44.52507" lon="2.8309">
        <ele>501.95</ele>
        <time>2012-08-10T12:02:18Z</time>
      </trkpt>
      <trkpt lat="44.52505" lon="2.83087">
        <ele>501.46</ele>
        <time>2012-08-10T12:02:19Z</time>
      </trkpt>
      <trkpt lat="44.52502" lon="2.83085">
        <ele>500.98</ele>
        <time>2012-08-10T12:02:20Z</time>
      </trkpt>
      <trkpt lat="44.5247" lon="2.8307">
        <ele>494.26</ele>
        <time>2012-08-10T12:02:32Z</time>
      </trkpt>
      <trkpt lat="44.52468" lon="2.83067">
        <ele>493.77</ele>
        <time>2012-08-10T12:02:33Z</time>
      </trkpt>
      <trkpt lat="44.52467" lon="2.83063">
        <ele>492.81</ele>
        <time>2012-08-10T12:02:34Z</time>
      </trkpt>
      <trkpt lat="44.52452" lon="2.83013">
        <ele>487.53</ele>
        <time>2012-08-10T12:02:46Z</time>
      </trkpt>
      <trkpt lat="44.52443" lon="2.82979">
        <ele>484.16</ele>
        <time>2012-08-10T12:02:58Z</time>
      </trkpt>
      <trkpt lat="44.52439" lon="2.82962">
        <ele>484.16</ele>
        <time>2012-08-10T12:03:01Z</time>
      </trkpt>
      <trkpt lat="44.52431" lon="2.82917">
        <ele>480.8</ele>
        <time>2012-08-10T12:03:11Z</time>
      </trkpt>
      <trkpt lat="44.52431" lon="2.82912">
        <ele>480.32</ele>
        <time>2012-08-10T12:03:13Z</time>
      </trkpt>
      <trkpt lat="44.5243" lon="2.82909">
        <ele>480.32</ele>
        <time>2012-08-10T12:03:14Z</time>
      </trkpt>
      <trkpt lat="44.52424" lon="2.82867">
        <ele>475.99</ele>
        <time>2012-08-10T12:03:26Z</time>
      </trkpt>
      <trkpt lat="44.52424" lon="2.82858">
        <ele>475.03</ele>
        <time>2012-08-10T12:03:28Z</time>
      </trkpt>
      <trkpt lat="44.52422" lon="2.82855">
        <ele>475.03</ele>
        <time>2012-08-10T12:03:29Z</time>
      </trkpt>
      <trkpt lat="44.52419" lon="2.82852">
        <ele>474.55</ele>
        <time>2012-08-10T12:03:30Z</time>
      </trkpt>
      <trkpt lat="44.52395" lon="2.82831">
        <ele>469.26</ele>
        <time>2012-08-10T12:03:40Z</time>
      </trkpt>
      <trkpt lat="44.52395" lon="2.82828">
        <ele>468.3</ele>
        <time>2012-08-10T12:03:41Z</time>
      </trkpt>
      <trkpt lat="44.52406" lon="2.82789">
        <ele>463.01</ele>
        <time>2012-08-10T12:03:51Z</time>
      </trkpt>
      <trkpt lat="44.52413" lon="2.82749">
        <ele>458.69</ele>
        <time>2012-08-10T12:04:01Z</time>
      </trkpt>
      <trkpt lat="44.52412" lon="2.82746">
        <ele>458.21</ele>
        <time>2012-08-10T12:04:02Z</time>
      </trkpt>
      <trkpt lat="44.52411" lon="2.82745">
        <ele>457.72</ele>
        <time>2012-08-10T12:04:03Z</time>
      </trkpt>
      <trkpt lat="44.52409" lon="2.82744">
        <ele>457.24</ele>
        <time>2012-08-10T12:04:04Z</time>
      </trkpt>
      <trkpt lat="44.52406" lon="2.82743">
        <ele>456.76</ele>
        <time>2012-08-10T12:04:05Z</time>
      </trkpt>
      <trkpt lat="44.52404" lon="2.82743">
        <ele>456.28</ele>
        <time>2012-08-10T12:04:06Z</time>
      </trkpt>
      <trkpt lat="44.52402" lon="2.82741">
        <ele>455.8</ele>
        <time>2012-08-10T12:04:07Z</time>
      </trkpt>
      <trkpt lat="44.52401" lon="2.82738">
        <ele>455.32</ele>
        <time>2012-08-10T12:04:08Z</time>
      </trkpt>
      <trkpt lat="44.52401" lon="2.82734">
        <ele>454.84</ele>
        <time>2012-08-10T12:04:09Z</time>
      </trkpt>
      <trkpt lat="44.52401" lon="2.82729">
        <ele>454.36</ele>
        <time>2012-08-10T12:04:10Z</time>
      </trkpt>
      <trkpt lat="44.524" lon="2.82723">
        <ele>454.36</ele>
        <time>2012-08-10T12:04:11Z</time>
      </trkpt>
      <trkpt lat="44.52399" lon="2.82719">
        <ele>453.88</ele>
        <time>2012-08-10T12:04:12Z</time>
      </trkpt>
      <trkpt lat="44.52397" lon="2.82714">
        <ele>452.92</ele>
        <time>2012-08-10T12:04:13Z</time>
      </trkpt>
      <trkpt lat="44.52395" lon="2.82709">
        <ele>451.96</ele>
        <time>2012-08-10T12:04:14Z</time>
      </trkpt>
      <trkpt lat="44.52387" lon="2.82695">
        <ele>450.03</ele>
        <time>2012-08-10T12:04:17Z</time>
      </trkpt>
      <trkpt lat="44.52371" lon="2.8267">
        <ele>445.71</ele>
        <time>2012-08-10T12:04:25Z</time>
      </trkpt>
      <trkpt lat="44.52337" lon="2.82634">
        <ele>439.94</ele>
        <time>2012-08-10T12:04:36Z</time>
      </trkpt>
      <trkpt lat="44.52312" lon="2.82603">
        <ele>436.58</ele>
        <time>2012-08-10T12:04:44Z</time>
      </trkpt>
      <trkpt lat="44.52309" lon="2.82599">
        <ele>436.58</ele>
        <time>2012-08-10T12:04:45Z</time>
      </trkpt>
      <trkpt lat="44.52304" lon="2.8259">
        <ele>436.1</ele>
        <time>2012-08-10T12:04:47Z</time>
      </trkpt>
      <trkpt lat="44.52297" lon="2.82577">
        <ele>434.65</ele>
        <time>2012-08-10T12:04:50Z</time>
      </trkpt>
      <trkpt lat="44.52248" lon="2.82508">
        <ele>428.89</ele>
        <time>2012-08-10T12:05:00Z</time>
      </trkpt>
      <trkpt lat="44.52179" lon="2.82379">
        <ele>421.19</ele>
        <time>2012-08-10T12:05:12Z</time>
      </trkpt>
      <trkpt lat="44.52104" lon="2.82215">
        <ele>412.06</ele>
        <time>2012-08-10T12:05:26Z</time>
      </trkpt>
      <trkpt lat="44.52037" lon="2.8207">
        <ele>401.49</ele>
        <time>2012-08-10T12:05:40Z</time>
      </trkpt>
      <trkpt lat="44.51985" lon="2.81992">
        <ele>396.2</ele>
        <time>2012-08-10T12:05:50Z</time>
      </trkpt>
      <trkpt lat="44.51925" lon="2.81941">
        <ele>392.36</ele>
        <time>2012-08-10T12:06:00Z</time>
      </trkpt>
      <trkpt lat="44.51863" lon="2.81925">
        <ele>388.51</ele>
        <time>2012-08-10T12:06:10Z</time>
      </trkpt>
      <trkpt lat="44.51782" lon="2.81936">
        <ele>383.7</ele>
        <time>2012-08-10T12:06:22Z</time>
      </trkpt>
      <trkpt lat="44.51775" lon="2.81936">
        <ele>383.22</ele>
        <time>2012-08-10T12:06:23Z</time>
      </trkpt>
      <trkpt lat="44.51769" lon="2.81934">
        <ele>382.74</ele>
        <time>2012-08-10T12:06:24Z</time>
      </trkpt>
      <trkpt lat="44.51701" lon="2.81907">
        <ele>377.94</ele>
        <time>2012-08-10T12:06:35Z</time>
      </trkpt>
      <trkpt lat="44.51672" lon="2.81894">
        <ele>375.05</ele>
        <time>2012-08-10T12:06:40Z</time>
      </trkpt>
      <trkpt lat="44.51666" lon="2.81889">
        <ele>374.57</ele>
        <time>2012-08-10T12:06:41Z</time>
      </trkpt>
      <trkpt lat="44.51662" lon="2.81882">
        <ele>374.09</ele>
        <time>2012-08-10T12:06:42Z</time>
      </trkpt>
      <trkpt lat="44.51657" lon="2.81875">
        <ele>373.61</ele>
        <time>2012-08-10T12:06:43Z</time>
      </trkpt>
      <trkpt lat="44.51654" lon="2.81866">
        <ele>373.13</ele>
        <time>2012-08-10T12:06:44Z</time>
      </trkpt>
      <trkpt lat="44.51651" lon="2.81856">
        <ele>372.17</ele>
        <time>2012-08-10T12:06:45Z</time>
      </trkpt>
      <trkpt lat="44.51648" lon="2.81846">
        <ele>371.69</ele>
        <time>2012-08-10T12:06:46Z</time>
      </trkpt>
      <trkpt lat="44.51647" lon="2.81835">
        <ele>371.21</ele>
        <time>2012-08-10T12:06:47Z</time>
      </trkpt>
      <trkpt lat="44.51646" lon="2.81824">
        <ele>370.24</ele>
        <time>2012-08-10T12:06:48Z</time>
      </trkpt>
      <trkpt lat="44.51638" lon="2.8167">
        <ele>366.88</ele>
        <time>2012-08-10T12:07:02Z</time>
      </trkpt>
      <trkpt lat="44.5163" lon="2.81624">
        <ele>366.88</ele>
        <time>2012-08-10T12:07:08Z</time>
      </trkpt>
      <trkpt lat="44.51628" lon="2.81619">
        <ele>366.88</ele>
        <time>2012-08-10T12:07:09Z</time>
      </trkpt>
      <trkpt lat="44.51621" lon="2.81607">
        <ele>366.88</ele>
        <time>2012-08-10T12:07:12Z</time>
      </trkpt>
      <trkpt lat="44.51618" lon="2.81604">
        <ele>366.88</ele>
        <time>2012-08-10T12:07:13Z</time>
      </trkpt>
      <trkpt lat="44.51616" lon="2.81602">
        <ele>367.36</ele>
        <time>2012-08-10T12:07:14Z</time>
      </trkpt>
      <trkpt lat="44.51592" lon="2.81561">
        <ele>368.8</ele>
        <time>2012-08-10T12:07:28Z</time>
      </trkpt>
      <trkpt lat="44.51582" lon="2.81493">
        <ele>368.32</ele>
        <time>2012-08-10T12:07:45Z</time>
      </trkpt>
      <trkpt lat="44.5158" lon="2.81434">
        <ele>368.32</ele>
        <time>2012-08-10T12:07:59Z</time>
      </trkpt>
      <trkpt lat="44.51582" lon="2.81417">
        <ele>368.8</ele>
        <time>2012-08-10T12:08:06Z</time>
      </trkpt>
      <trkpt lat="44.51581" lon="2.81413">
        <ele>369.76</ele>
        <time>2012-08-10T12:08:09Z</time>
      </trkpt>
      <trkpt lat="44.5158" lon="2.81412">
        <ele>369.76</ele>
        <time>2012-08-10T12:08:10Z</time>
      </trkpt>
      <trkpt lat="44.51579" lon="2.81411">
        <ele>369.76</ele>
        <time>2012-08-10T12:08:11Z</time>
      </trkpt>
      <trkpt lat="44.51576" lon="2.81408">
        <ele>369.76</ele>
        <time>2012-08-10T12:08:15Z</time>
      </trkpt>
      <trkpt lat="44.51575" lon="2.81409">
        <ele>369.76</ele>
        <time>2012-08-10T12:08:16Z</time>
      </trkpt>
      <trkpt lat="44.51573" lon="2.8141">
        <ele>369.76</ele>
        <time>2012-08-10T12:08:17Z</time>
      </trkpt>
      <trkpt lat="44.5157" lon="2.81411">
        <ele>369.28</ele>
        <time>2012-08-10T12:08:18Z</time>
      </trkpt>
      <trkpt lat="44.51567" lon="2.81413">
        <ele>369.28</ele>
        <time>2012-08-10T12:08:19Z</time>
      </trkpt>
      <trkpt lat="44.51564" lon="2.81414">
        <ele>369.76</ele>
        <time>2012-08-10T12:08:20Z</time>
      </trkpt>
      <trkpt lat="44.51561" lon="2.81414">
        <ele>369.76</ele>
        <time>2012-08-10T12:08:21Z</time>
      </trkpt>
      <trkpt lat="44.51516" lon="2.81418">
        <ele>371.21</ele>
        <time>2012-08-10T12:08:36Z</time>
      </trkpt>
      <trkpt lat="44.51473" lon="2.81428">
        <ele>370.73</ele>
        <time>2012-08-10T12:08:49Z</time>
      </trkpt>
      <trkpt lat="44.51463" lon="2.8145">
        <ele>370.73</ele>
        <time>2012-08-10T12:08:56Z</time>
      </trkpt>
      <trkpt lat="44.51469" lon="2.81447">
        <ele>370.73</ele>
        <time>2012-08-10T12:08:59Z</time>
      </trkpt>
      <trkpt lat="44.51489" lon="2.81417">
        <ele>371.69</ele>
        <time>2012-08-10T12:09:13Z</time>
      </trkpt>
      <trkpt lat="44.51491" lon="2.81414">
        <ele>373.13</ele>
        <time>2012-08-10T12:09:23Z</time>
      </trkpt>
      <trkpt lat="44.51492" lon="2.81413">
        <ele>373.61</ele>
        <time>2012-08-10T12:09:47Z</time>
      </trkpt>
      <trkpt lat="44.51491" lon="2.81411">
        <ele>374.09</ele>
        <time>2012-08-10T12:10:16Z</time>
      </trkpt>
      <trkpt lat="44.5149" lon="2.8141">
        <ele>375.53</ele>
        <time>2012-08-10T12:10:48Z</time>
      </trkpt>
      <trkpt lat="44.51491" lon="2.81409">
        <ele>375.05</ele>
        <time>2012-08-10T12:11:17Z</time>
      </trkpt>
      <trkpt lat="44.5149" lon="2.8141">
        <ele>376.01</ele>
        <time>2012-08-10T12:11:47Z</time>
      </trkpt>
      <trkpt lat="44.51492" lon="2.8141">
        <ele>375.53</ele>
        <time>2012-08-10T12:12:20Z</time>
      </trkpt>
      <trkpt lat="44.51491" lon="2.8141">
        <ele>376.97</ele>
        <time>2012-08-10T12:12:51Z</time>
      </trkpt>
      <trkpt lat="44.51492" lon="2.81411">
        <ele>377.94</ele>
        <time>2012-08-10T12:13:22Z</time>
      </trkpt>
      <trkpt lat="44.51492" lon="2.81412">
        <ele>378.9</ele>
        <time>2012-08-10T12:13:53Z</time>
      </trkpt>
      <trkpt lat="44.5149" lon="2.81411">
        <ele>380.82</ele>
        <time>2012-08-10T12:14:27Z</time>
      </trkpt>
      <trkpt lat="44.51491" lon="2.8141">
        <ele>380.82</ele>
        <time>2012-08-10T12:14:59Z</time>
      </trkpt>
      <trkpt lat="44.51492" lon="2.81408">
        <ele>380.82</ele>
        <time>2012-08-10T12:15:32Z</time>
      </trkpt>
      <trkpt lat="44.51491" lon="2.8141">
        <ele>382.26</ele>
        <time>2012-08-10T12:15:58Z</time>
      </trkpt>
      <trkpt lat="44.51493" lon="2.8141">
        <ele>382.26</ele>
        <time>2012-08-10T12:16:27Z</time>
      </trkpt>
      <trkpt lat="44.51493" lon="2.81409">
        <ele>382.26</ele>
        <time>2012-08-10T12:16:56Z</time>
      </trkpt>
      <trkpt lat="44.51492" lon="2.81408">
        <ele>382.26</ele>
        <time>2012-08-10T12:17:32Z</time>
      </trkpt>
      <trkpt lat="44.51493" lon="2.81407">
        <ele>382.26</ele>
        <time>2012-08-10T12:18:13Z</time>
      </trkpt>
      <trkpt lat="44.51492" lon="2.81407">
        <ele>383.22</ele>
        <time>2012-08-10T12:18:47Z</time>
      </trkpt>
      <trkpt lat="44.51493" lon="2.81408">
        <ele>382.26</ele>
        <time>2012-08-10T12:19:19Z</time>
      </trkpt>
      <trkpt lat="44.51494" lon="2.81408">
        <ele>382.74</ele>
        <time>2012-08-10T12:19:44Z</time>
      </trkpt>
      <trkpt lat="44.51493" lon="2.81408">
        <ele>383.22</ele>
        <time>2012-08-10T12:20:14Z</time>
      </trkpt>
      <trkpt lat="44.51494" lon="2.81408">
        <ele>383.22</ele>
        <time>2012-08-10T12:20:46Z</time>
      </trkpt>
      <trkpt lat="44.51495" lon="2.81406">
        <ele>383.7</ele>
        <time>2012-08-10T12:21:21Z</time>
      </trkpt>
      <trkpt lat="44.51495" lon="2.81408">
        <ele>386.59</ele>
        <time>2012-08-10T12:21:40Z</time>
      </trkpt>
      <trkpt lat="44.51471" lon="2.81435">
        <ele>392.36</ele>
        <time>2012-08-10T12:21:53Z</time>
      </trkpt>
      <trkpt lat="44.51458" lon="2.81485">
        <ele>392.36</ele>
        <time>2012-08-10T12:22:05Z</time>
      </trkpt>
      <trkpt lat="44.51451" lon="2.81529">
        <ele>383.22</ele>
        <time>2012-08-10T12:22:16Z</time>
      </trkpt>
      <trkpt lat="44.51451" lon="2.81531">
        <ele>383.22</ele>
        <time>2012-08-10T12:22:17Z</time>
      </trkpt>
      <trkpt lat="44.51436" lon="2.81571">
        <ele>384.18</ele>
        <time>2012-08-10T12:22:29Z</time>
      </trkpt>
      <trkpt lat="44.51411" lon="2.81641">
        <ele>380.82</ele>
        <time>2012-08-10T12:22:44Z</time>
      </trkpt>
      <trkpt lat="44.51406" lon="2.81646">
        <ele>379.86</ele>
        <time>2012-08-10T12:22:45Z</time>
      </trkpt>
      <trkpt lat="44.51374" lon="2.81659">
        <ele>370.24</ele>
        <time>2012-08-10T12:22:54Z</time>
      </trkpt>
      <trkpt lat="44.51337" lon="2.81655">
        <ele>363.04</ele>
        <time>2012-08-10T12:23:05Z</time>
      </trkpt>
      <trkpt lat="44.51256" lon="2.81627">
        <ele>357.75</ele>
        <time>2012-08-10T12:23:21Z</time>
      </trkpt>
      <trkpt lat="44.51226" lon="2.81616">
        <ele>355.34</ele>
        <time>2012-08-10T12:23:27Z</time>
      </trkpt>
      <trkpt lat="44.51223" lon="2.81612">
        <ele>354.86</ele>
        <time>2012-08-10T12:23:28Z</time>
      </trkpt>
      <trkpt lat="44.51221" lon="2.81606">
        <ele>354.86</ele>
        <time>2012-08-10T12:23:29Z</time>
      </trkpt>
      <trkpt lat="44.51219" lon="2.81599">
        <ele>354.38</ele>
        <time>2012-08-10T12:23:30Z</time>
      </trkpt>
      <trkpt lat="44.51218" lon="2.81592">
        <ele>353.9</ele>
        <time>2012-08-10T12:23:31Z</time>
      </trkpt>
      <trkpt lat="44.51216" lon="2.81585">
        <ele>353.9</ele>
        <time>2012-08-10T12:23:32Z</time>
      </trkpt>
      <trkpt lat="44.51211" lon="2.81566">
        <ele>353.42</ele>
        <time>2012-08-10T12:23:35Z</time>
      </trkpt>
      <trkpt lat="44.51207" lon="2.81547">
        <ele>352.94</ele>
        <time>2012-08-10T12:23:38Z</time>
      </trkpt>
      <trkpt lat="44.51206" lon="2.81541">
        <ele>352.46</ele>
        <time>2012-08-10T12:23:39Z</time>
      </trkpt>
      <trkpt lat="44.51204" lon="2.81534">
        <ele>351.98</ele>
        <time>2012-08-10T12:23:40Z</time>
      </trkpt>
      <trkpt lat="44.51172" lon="2.81422">
        <ele>350.54</ele>
        <time>2012-08-10T12:23:57Z</time>
      </trkpt>
      <trkpt lat="44.51165" lon="2.81402">
        <ele>350.06</ele>
        <time>2012-08-10T12:24:00Z</time>
      </trkpt>
      <trkpt lat="44.51162" lon="2.81395">
        <ele>349.58</ele>
        <time>2012-08-10T12:24:01Z</time>
      </trkpt>
      <trkpt lat="44.51129" lon="2.81282">
        <ele>349.58</ele>
        <time>2012-08-10T12:24:18Z</time>
      </trkpt>
      <trkpt lat="44.51087" lon="2.81167">
        <ele>348.13</ele>
        <time>2012-08-10T12:24:35Z</time>
      </trkpt>
      <trkpt lat="44.51085" lon="2.8116">
        <ele>348.62</ele>
        <time>2012-08-10T12:24:36Z</time>
      </trkpt>
      <trkpt lat="44.51056" lon="2.81066">
        <ele>348.62</ele>
        <time>2012-08-10T12:24:51Z</time>
      </trkpt>
      <trkpt lat="44.51034" lon="2.81">
        <ele>347.65</ele>
        <time>2012-08-10T12:25:01Z</time>
      </trkpt>
      <trkpt lat="44.51019" lon="2.80969">
        <ele>347.17</ele>
        <time>2012-08-10T12:25:06Z</time>
      </trkpt>
      <trkpt lat="44.51016" lon="2.80964">
        <ele>346.69</ele>
        <time>2012-08-10T12:25:07Z</time>
      </trkpt>
      <trkpt lat="44.51004" lon="2.80952">
        <ele>346.21</ele>
        <time>2012-08-10T12:25:10Z</time>
      </trkpt>
      <trkpt lat="44.50952" lon="2.80893">
        <ele>343.33</ele>
        <time>2012-08-10T12:25:23Z</time>
      </trkpt>
      <trkpt lat="44.50906" lon="2.80854">
        <ele>341.41</ele>
        <time>2012-08-10T12:25:35Z</time>
      </trkpt>
      <trkpt lat="44.50869" lon="2.80825">
        <ele>343.33</ele>
        <time>2012-08-10T12:25:46Z</time>
      </trkpt>
      <trkpt lat="44.50865" lon="2.80822">
        <ele>343.81</ele>
        <time>2012-08-10T12:25:47Z</time>
      </trkpt>
      <trkpt lat="44.50862" lon="2.80818">
        <ele>343.81</ele>
        <time>2012-08-10T12:25:48Z</time>
      </trkpt>
      <trkpt lat="44.50859" lon="2.80814">
        <ele>344.29</ele>
        <time>2012-08-10T12:25:49Z</time>
      </trkpt>
      <trkpt lat="44.50857" lon="2.80811">
        <ele>344.77</ele>
        <time>2012-08-10T12:25:50Z</time>
      </trkpt>
      <trkpt lat="44.50822" lon="2.80755">
        <ele>347.65</ele>
        <time>2012-08-10T12:26:04Z</time>
      </trkpt>
      <trkpt lat="44.50795" lon="2.80697">
        <ele>350.06</ele>
        <time>2012-08-10T12:26:17Z</time>
      </trkpt>
      <trkpt lat="44.50778" lon="2.80665">
        <ele>352.46</ele>
        <time>2012-08-10T12:26:24Z</time>
      </trkpt>
      <trkpt lat="44.50759" lon="2.80618">
        <ele>350.06</ele>
        <time>2012-08-10T12:26:35Z</time>
      </trkpt>
      <trkpt lat="44.50754" lon="2.80608">
        <ele>349.58</ele>
        <time>2012-08-10T12:26:38Z</time>
      </trkpt>
      <trkpt lat="44.50737" lon="2.80569">
        <ele>347.65</ele>
        <time>2012-08-10T12:26:51Z</time>
      </trkpt>
      <trkpt lat="44.50734" lon="2.80557">
        <ele>349.1</ele>
        <time>2012-08-10T12:26:54Z</time>
      </trkpt>
      <trkpt lat="44.50733" lon="2.80555">
        <ele>349.1</ele>
        <time>2012-08-10T12:26:55Z</time>
      </trkpt>
      <trkpt lat="44.50733" lon="2.80552">
        <ele>349.1</ele>
        <time>2012-08-10T12:26:56Z</time>
      </trkpt>
      <trkpt lat="44.50733" lon="2.8055">
        <ele>348.62</ele>
        <time>2012-08-10T12:26:57Z</time>
      </trkpt>
      <trkpt lat="44.50732" lon="2.80546">
        <ele>348.13</ele>
        <time>2012-08-10T12:26:58Z</time>
      </trkpt>
      <trkpt lat="44.50731" lon="2.80543">
        <ele>348.13</ele>
        <time>2012-08-10T12:26:59Z</time>
      </trkpt>
      <trkpt lat="44.5073" lon="2.80539">
        <ele>347.65</ele>
        <time>2012-08-10T12:27:00Z</time>
      </trkpt>
      <trkpt lat="44.50728" lon="2.80535">
        <ele>347.65</ele>
        <time>2012-08-10T12:27:01Z</time>
      </trkpt>
      <trkpt lat="44.50727" lon="2.8053">
        <ele>347.65</ele>
        <time>2012-08-10T12:27:02Z</time>
      </trkpt>
      <trkpt lat="44.50717" lon="2.80474">
        <ele>351.98</ele>
        <time>2012-08-10T12:27:13Z</time>
      </trkpt>
      <trkpt lat="44.5072" lon="2.80413">
        <ele>350.06</ele>
        <time>2012-08-10T12:27:23Z</time>
      </trkpt>
      <trkpt lat="44.5072" lon="2.80393">
        <ele>349.1</ele>
        <time>2012-08-10T12:27:26Z</time>
      </trkpt>
      <trkpt lat="44.5072" lon="2.80387">
        <ele>349.1</ele>
        <time>2012-08-10T12:27:27Z</time>
      </trkpt>
      <trkpt lat="44.50718" lon="2.8036">
        <ele>349.1</ele>
        <time>2012-08-10T12:27:31Z</time>
      </trkpt>
      <trkpt lat="44.50716" lon="2.80354">
        <ele>349.1</ele>
        <time>2012-08-10T12:27:32Z</time>
      </trkpt>
      <trkpt lat="44.50715" lon="2.80349">
        <ele>348.62</ele>
        <time>2012-08-10T12:27:33Z</time>
      </trkpt>
      <trkpt lat="44.5069" lon="2.80297">
        <ele>351.02</ele>
        <time>2012-08-10T12:27:45Z</time>
      </trkpt>
      <trkpt lat="44.50668" lon="2.80241">
        <ele>351.5</ele>
        <time>2012-08-10T12:27:57Z</time>
      </trkpt>
      <trkpt lat="44.50668" lon="2.8022">
        <ele>350.54</ele>
        <time>2012-08-10T12:28:03Z</time>
      </trkpt>
      <trkpt lat="44.50667" lon="2.80218">
        <ele>350.54</ele>
        <time>2012-08-10T12:28:04Z</time>
      </trkpt>
      <trkpt lat="44.50668" lon="2.80215">
        <ele>349.58</ele>
        <time>2012-08-10T12:28:17Z</time>
      </trkpt>
      <trkpt lat="44.5067" lon="2.80214">
        <ele>350.06</ele>
        <time>2012-08-10T12:28:44Z</time>
      </trkpt>
      <trkpt lat="44.5067" lon="2.80211">
        <ele>350.54</ele>
        <time>2012-08-10T12:29:01Z</time>
      </trkpt>
      <trkpt lat="44.50667" lon="2.802">
        <ele>350.54</ele>
        <time>2012-08-10T12:29:11Z</time>
      </trkpt>
      <trkpt lat="44.50669" lon="2.80198">
        <ele>351.5</ele>
        <time>2012-08-10T12:29:28Z</time>
      </trkpt>
      <trkpt lat="44.50669" lon="2.80198">
        <ele>351.98</ele>
        <time>2012-08-10T12:29:49Z</time>
      </trkpt>
      <trkpt lat="44.50669" lon="2.80201">
        <ele>352.46</ele>
        <time>2012-08-10T12:30:11Z</time>
      </trkpt>
      <trkpt lat="44.50672" lon="2.80215">
        <ele>351.98</ele>
        <time>2012-08-10T12:30:19Z</time>
      </trkpt>
      <trkpt lat="44.50701" lon="2.80178">
        <ele>354.86</ele>
        <time>2012-08-10T12:30:33Z</time>
      </trkpt>
      <trkpt lat="44.5072" lon="2.8011">
        <ele>354.86</ele>
        <time>2012-08-10T12:30:47Z</time>
      </trkpt>
      <trkpt lat="44.50731" lon="2.80033">
        <ele>354.38</ele>
        <time>2012-08-10T12:31:01Z</time>
      </trkpt>
      <trkpt lat="44.50727" lon="2.79949">
        <ele>357.27</ele>
        <time>2012-08-10T12:31:17Z</time>
      </trkpt>
      <trkpt lat="44.50721" lon="2.79859">
        <ele>358.23</ele>
        <time>2012-08-10T12:31:35Z</time>
      </trkpt>
      <trkpt lat="44.50733" lon="2.79801">
        <ele>359.67</ele>
        <time>2012-08-10T12:31:47Z</time>
      </trkpt>
      <trkpt lat="44.50743" lon="2.79736">
        <ele>358.23</ele>
        <time>2012-08-10T12:32:00Z</time>
      </trkpt>
      <trkpt lat="44.50758" lon="2.79678">
        <ele>358.71</ele>
        <time>2012-08-10T12:32:11Z</time>
      </trkpt>
      <trkpt lat="44.50762" lon="2.79673">
        <ele>358.71</ele>
        <time>2012-08-10T12:32:12Z</time>
      </trkpt>
      <trkpt lat="44.50765" lon="2.79667">
        <ele>359.19</ele>
        <time>2012-08-10T12:32:13Z</time>
      </trkpt>
      <trkpt lat="44.50776" lon="2.79651">
        <ele>358.71</ele>
        <time>2012-08-10T12:32:16Z</time>
      </trkpt>
      <trkpt lat="44.50815" lon="2.79599">
        <ele>358.71</ele>
        <time>2012-08-10T12:32:26Z</time>
      </trkpt>
      <trkpt lat="44.50821" lon="2.79586">
        <ele>358.71</ele>
        <time>2012-08-10T12:32:28Z</time>
      </trkpt>
      <trkpt lat="44.50824" lon="2.7958">
        <ele>358.71</ele>
        <time>2012-08-10T12:32:29Z</time>
      </trkpt>
      <trkpt lat="44.50827" lon="2.79573">
        <ele>358.23</ele>
        <time>2012-08-10T12:32:30Z</time>
      </trkpt>
      <trkpt lat="44.50843" lon="2.79493">
        <ele>357.75</ele>
        <time>2012-08-10T12:32:42Z</time>
      </trkpt>
      <trkpt lat="44.50853" lon="2.79433">
        <ele>358.71</ele>
        <time>2012-08-10T12:32:54Z</time>
      </trkpt>
      <trkpt lat="44.50857" lon="2.7938">
        <ele>356.79</ele>
        <time>2012-08-10T12:33:07Z</time>
      </trkpt>
      <trkpt lat="44.50864" lon="2.79335">
        <ele>354.86</ele>
        <time>2012-08-10T12:33:20Z</time>
      </trkpt>
      <trkpt lat="44.50883" lon="2.79291">
        <ele>354.38</ele>
        <time>2012-08-10T12:33:31Z</time>
      </trkpt>
      <trkpt lat="44.509" lon="2.79274">
        <ele>352.94</ele>
        <time>2012-08-10T12:33:35Z</time>
      </trkpt>
      <trkpt lat="44.50909" lon="2.79268">
        <ele>352.94</ele>
        <time>2012-08-10T12:33:37Z</time>
      </trkpt>
      <trkpt lat="44.50918" lon="2.79261">
        <ele>352.94</ele>
        <time>2012-08-10T12:33:39Z</time>
      </trkpt>
      <trkpt lat="44.50938" lon="2.7924">
        <ele>351.98</ele>
        <time>2012-08-10T12:33:44Z</time>
      </trkpt>
      <trkpt lat="44.5099" lon="2.79183">
        <ele>350.54</ele>
        <time>2012-08-10T12:33:55Z</time>
      </trkpt>
      <trkpt lat="44.51045" lon="2.79138">
        <ele>350.06</ele>
        <time>2012-08-10T12:34:05Z</time>
      </trkpt>
      <trkpt lat="44.51066" lon="2.7911">
        <ele>350.06</ele>
        <time>2012-08-10T12:34:10Z</time>
      </trkpt>
      <trkpt lat="44.5107" lon="2.79103">
        <ele>349.58</ele>
        <time>2012-08-10T12:34:11Z</time>
      </trkpt>
      <trkpt lat="44.51099" lon="2.79048">
        <ele>348.13</ele>
        <time>2012-08-10T12:34:18Z</time>
      </trkpt>
      <trkpt lat="44.51103" lon="2.79038">
        <ele>348.13</ele>
        <time>2012-08-10T12:34:19Z</time>
      </trkpt>
      <trkpt lat="44.51123" lon="2.78974">
        <ele>345.25</ele>
        <time>2012-08-10T12:34:25Z</time>
      </trkpt>
      <trkpt lat="44.51127" lon="2.78964">
        <ele>344.77</ele>
        <time>2012-08-10T12:34:26Z</time>
      </trkpt>
      <trkpt lat="44.51133" lon="2.78955">
        <ele>344.29</ele>
        <time>2012-08-10T12:34:27Z</time>
      </trkpt>
      <trkpt lat="44.5114" lon="2.78947">
        <ele>343.81</ele>
        <time>2012-08-10T12:34:28Z</time>
      </trkpt>
      <trkpt lat="44.51148" lon="2.78941">
        <ele>343.81</ele>
        <time>2012-08-10T12:34:29Z</time>
      </trkpt>
      <trkpt lat="44.51157" lon="2.78937">
        <ele>343.33</ele>
        <time>2012-08-10T12:34:30Z</time>
      </trkpt>
      <trkpt lat="44.51167" lon="2.78936">
        <ele>342.85</ele>
        <time>2012-08-10T12:34:31Z</time>
      </trkpt>
      <trkpt lat="44.51176" lon="2.78935">
        <ele>342.37</ele>
        <time>2012-08-10T12:34:32Z</time>
      </trkpt>
      <trkpt lat="44.51218" lon="2.78926">
        <ele>339.96</ele>
        <time>2012-08-10T12:34:37Z</time>
      </trkpt>
      <trkpt lat="44.51226" lon="2.78921">
        <ele>339.48</ele>
        <time>2012-08-10T12:34:38Z</time>
      </trkpt>
      <trkpt lat="44.51293" lon="2.78855">
        <ele>340.44</ele>
        <time>2012-08-10T12:34:50Z</time>
      </trkpt>
      <trkpt lat="44.51329" lon="2.7881">
        <ele>340.44</ele>
        <time>2012-08-10T12:34:59Z</time>
      </trkpt>
      <trkpt lat="44.51341" lon="2.78798">
        <ele>341.41</ele>
        <time>2012-08-10T12:35:02Z</time>
      </trkpt>
      <trkpt lat="44.51396" lon="2.78775">
        <ele>341.41</ele>
        <time>2012-08-10T12:35:13Z</time>
      </trkpt>
      <trkpt lat="44.51482" lon="2.78756">
        <ele>339.48</ele>
        <time>2012-08-10T12:35:28Z</time>
      </trkpt>
      <trkpt lat="44.51571" lon="2.78713">
        <ele>339.48</ele>
        <time>2012-08-10T12:35:44Z</time>
      </trkpt>
      <trkpt lat="44.51611" lon="2.78685">
        <ele>339.48</ele>
        <time>2012-08-10T12:35:52Z</time>
      </trkpt>
      <trkpt lat="44.51661" lon="2.78641">
        <ele>339</ele>
        <time>2012-08-10T12:36:04Z</time>
      </trkpt>
      <trkpt lat="44.51664" lon="2.78636">
        <ele>339</ele>
        <time>2012-08-10T12:36:05Z</time>
      </trkpt>
      <trkpt lat="44.51668" lon="2.7863">
        <ele>339</ele>
        <time>2012-08-10T12:36:06Z</time>
      </trkpt>
      <trkpt lat="44.51693" lon="2.78537">
        <ele>339.48</ele>
        <time>2012-08-10T12:36:19Z</time>
      </trkpt>
      <trkpt lat="44.51694" lon="2.78531">
        <ele>339</ele>
        <time>2012-08-10T12:36:20Z</time>
      </trkpt>
      <trkpt lat="44.51696" lon="2.78525">
        <ele>339</ele>
        <time>2012-08-10T12:36:21Z</time>
      </trkpt>
      <trkpt lat="44.51697" lon="2.78519">
        <ele>339</ele>
        <time>2012-08-10T12:36:22Z</time>
      </trkpt>
      <trkpt lat="44.51698" lon="2.78512">
        <ele>339</ele>
        <time>2012-08-10T12:36:23Z</time>
      </trkpt>
      <trkpt lat="44.51699" lon="2.78505">
        <ele>339</ele>
        <time>2012-08-10T12:36:24Z</time>
      </trkpt>
      <trkpt lat="44.51701" lon="2.78498">
        <ele>338.52</ele>
        <time>2012-08-10T12:36:25Z</time>
      </trkpt>
      <trkpt lat="44.51706" lon="2.7847">
        <ele>338.04</ele>
        <time>2012-08-10T12:36:29Z</time>
      </trkpt>
      <trkpt lat="44.51708" lon="2.78463">
        <ele>338.04</ele>
        <time>2012-08-10T12:36:30Z</time>
      </trkpt>
      <trkpt lat="44.51717" lon="2.78418">
        <ele>338.04</ele>
        <time>2012-08-10T12:36:36Z</time>
      </trkpt>
      <trkpt lat="44.51719" lon="2.78404">
        <ele>338.52</ele>
        <time>2012-08-10T12:36:38Z</time>
      </trkpt>
      <trkpt lat="44.5172" lon="2.78398">
        <ele>339</ele>
        <time>2012-08-10T12:36:39Z</time>
      </trkpt>
      <trkpt lat="44.51721" lon="2.78391">
        <ele>339</ele>
        <time>2012-08-10T12:36:40Z</time>
      </trkpt>
      <trkpt lat="44.51723" lon="2.78385">
        <ele>339</ele>
        <time>2012-08-10T12:36:41Z</time>
      </trkpt>
      <trkpt lat="44.51725" lon="2.78379">
        <ele>339</ele>
        <time>2012-08-10T12:36:42Z</time>
      </trkpt>
      <trkpt lat="44.51727" lon="2.78373">
        <ele>339.48</ele>
        <time>2012-08-10T12:36:43Z</time>
      </trkpt>
      <trkpt lat="44.51729" lon="2.78367">
        <ele>339.48</ele>
        <time>2012-08-10T12:36:44Z</time>
      </trkpt>
      <trkpt lat="44.51731" lon="2.7836">
        <ele>339.48</ele>
        <time>2012-08-10T12:36:45Z</time>
      </trkpt>
      <trkpt lat="44.5174" lon="2.78327">
        <ele>339.48</ele>
        <time>2012-08-10T12:36:50Z</time>
      </trkpt>
      <trkpt lat="44.51762" lon="2.78275">
        <ele>338.52</ele>
        <time>2012-08-10T12:37:00Z</time>
      </trkpt>
      <trkpt lat="44.51767" lon="2.78257">
        <ele>337.56</ele>
        <time>2012-08-10T12:37:03Z</time>
      </trkpt>
      <trkpt lat="44.51778" lon="2.78228">
        <ele>336.6</ele>
        <time>2012-08-10T12:37:08Z</time>
      </trkpt>
      <trkpt lat="44.51787" lon="2.7819">
        <ele>335.16</ele>
        <time>2012-08-10T12:37:14Z</time>
      </trkpt>
      <trkpt lat="44.51794" lon="2.78158">
        <ele>334.2</ele>
        <time>2012-08-10T12:37:19Z</time>
      </trkpt>
      <trkpt lat="44.518" lon="2.7814">
        <ele>333.71</ele>
        <time>2012-08-10T12:37:22Z</time>
      </trkpt>
      <trkpt lat="44.51801" lon="2.78134">
        <ele>333.23</ele>
        <time>2012-08-10T12:37:23Z</time>
      </trkpt>
      <trkpt lat="44.51803" lon="2.78129">
        <ele>332.75</ele>
        <time>2012-08-10T12:37:24Z</time>
      </trkpt>
      <trkpt lat="44.51804" lon="2.78123">
        <ele>332.27</ele>
        <time>2012-08-10T12:37:25Z</time>
      </trkpt>
      <trkpt lat="44.51807" lon="2.78117">
        <ele>332.27</ele>
        <time>2012-08-10T12:37:26Z</time>
      </trkpt>
      <trkpt lat="44.5181" lon="2.7811">
        <ele>332.27</ele>
        <time>2012-08-10T12:37:27Z</time>
      </trkpt>
      <trkpt lat="44.51812" lon="2.78104">
        <ele>332.27</ele>
        <time>2012-08-10T12:37:28Z</time>
      </trkpt>
      <trkpt lat="44.51815" lon="2.78097">
        <ele>332.27</ele>
        <time>2012-08-10T12:37:29Z</time>
      </trkpt>
      <trkpt lat="44.51846" lon="2.78026">
        <ele>334.2</ele>
        <time>2012-08-10T12:37:41Z</time>
      </trkpt>
      <trkpt lat="44.51867" lon="2.77969">
        <ele>334.68</ele>
        <time>2012-08-10T12:37:53Z</time>
      </trkpt>
      <trkpt lat="44.51894" lon="2.7789">
        <ele>331.79</ele>
        <time>2012-08-10T12:38:06Z</time>
      </trkpt>
      <trkpt lat="44.51899" lon="2.77878">
        <ele>331.31</ele>
        <time>2012-08-10T12:38:08Z</time>
      </trkpt>
      <trkpt lat="44.51902" lon="2.77872">
        <ele>331.31</ele>
        <time>2012-08-10T12:38:09Z</time>
      </trkpt>
      <trkpt lat="44.51904" lon="2.77866">
        <ele>331.31</ele>
        <time>2012-08-10T12:38:10Z</time>
      </trkpt>
      <trkpt lat="44.51908" lon="2.77853">
        <ele>331.31</ele>
        <time>2012-08-10T12:38:12Z</time>
      </trkpt>
      <trkpt lat="44.51918" lon="2.77815">
        <ele>332.27</ele>
        <time>2012-08-10T12:38:18Z</time>
      </trkpt>
      <trkpt lat="44.5192" lon="2.77808">
        <ele>332.27</ele>
        <time>2012-08-10T12:38:19Z</time>
      </trkpt>
      <trkpt lat="44.51952" lon="2.77713">
        <ele>332.27</ele>
        <time>2012-08-10T12:38:33Z</time>
      </trkpt>
      <trkpt lat="44.52001" lon="2.77598">
        <ele>333.71</ele>
        <time>2012-08-10T12:38:49Z</time>
      </trkpt>
      <trkpt lat="44.52029" lon="2.77546">
        <ele>334.68</ele>
        <time>2012-08-10T12:38:58Z</time>
      </trkpt>
      <trkpt lat="44.52035" lon="2.77536">
        <ele>335.16</ele>
        <time>2012-08-10T12:39:00Z</time>
      </trkpt>
      <trkpt lat="44.52077" lon="2.77466">
        <ele>334.2</ele>
        <time>2012-08-10T12:39:16Z</time>
      </trkpt>
      <trkpt lat="44.52107" lon="2.77396">
        <ele>337.08</ele>
        <time>2012-08-10T12:39:29Z</time>
      </trkpt>
      <trkpt lat="44.52116" lon="2.77365">
        <ele>338.04</ele>
        <time>2012-08-10T12:39:34Z</time>
      </trkpt>
      <trkpt lat="44.52118" lon="2.77359">
        <ele>337.56</ele>
        <time>2012-08-10T12:39:35Z</time>
      </trkpt>
      <trkpt lat="44.5212" lon="2.77354">
        <ele>337.08</ele>
        <time>2012-08-10T12:39:36Z</time>
      </trkpt>
      <trkpt lat="44.52129" lon="2.77302">
        <ele>336.12</ele>
        <time>2012-08-10T12:39:46Z</time>
      </trkpt>
      <trkpt lat="44.52131" lon="2.77296">
        <ele>336.12</ele>
        <time>2012-08-10T12:39:47Z</time>
      </trkpt>
      <trkpt lat="44.52171" lon="2.77201">
        <ele>338.04</ele>
        <time>2012-08-10T12:40:03Z</time>
      </trkpt>
      <trkpt lat="44.52172" lon="2.77194">
        <ele>338.04</ele>
        <time>2012-08-10T12:40:04Z</time>
      </trkpt>
      <trkpt lat="44.5218" lon="2.77094">
        <ele>336.6</ele>
        <time>2012-08-10T12:40:18Z</time>
      </trkpt>
      <trkpt lat="44.52172" lon="2.76994">
        <ele>336.6</ele>
        <time>2012-08-10T12:40:32Z</time>
      </trkpt>
      <trkpt lat="44.52171" lon="2.76988">
        <ele>336.6</ele>
        <time>2012-08-10T12:40:33Z</time>
      </trkpt>
      <trkpt lat="44.52172" lon="2.76968">
        <ele>336.6</ele>
        <time>2012-08-10T12:40:36Z</time>
      </trkpt>
      <trkpt lat="44.52171" lon="2.76961">
        <ele>336.6</ele>
        <time>2012-08-10T12:40:37Z</time>
      </trkpt>
      <trkpt lat="44.52169" lon="2.76954">
        <ele>336.6</ele>
        <time>2012-08-10T12:40:38Z</time>
      </trkpt>
      <trkpt lat="44.52168" lon="2.76947">
        <ele>336.6</ele>
        <time>2012-08-10T12:40:39Z</time>
      </trkpt>
      <trkpt lat="44.52166" lon="2.76941">
        <ele>337.08</ele>
        <time>2012-08-10T12:40:40Z</time>
      </trkpt>
      <trkpt lat="44.52151" lon="2.76874">
        <ele>336.12</ele>
        <time>2012-08-10T12:40:49Z</time>
      </trkpt>
      <trkpt lat="44.52148" lon="2.76867">
        <ele>336.12</ele>
        <time>2012-08-10T12:40:50Z</time>
      </trkpt>
      <trkpt lat="44.52146" lon="2.76861">
        <ele>336.6</ele>
        <time>2012-08-10T12:40:51Z</time>
      </trkpt>
      <trkpt lat="44.52101" lon="2.76769">
        <ele>336.6</ele>
        <time>2012-08-10T12:41:06Z</time>
      </trkpt>
      <trkpt lat="44.52091" lon="2.7675">
        <ele>336.6</ele>
        <time>2012-08-10T12:41:09Z</time>
      </trkpt>
      <trkpt lat="44.52087" lon="2.76744">
        <ele>336.6</ele>
        <time>2012-08-10T12:41:10Z</time>
      </trkpt>
      <trkpt lat="44.52084" lon="2.76738">
        <ele>336.6</ele>
        <time>2012-08-10T12:41:11Z</time>
      </trkpt>
      <trkpt lat="44.52074" lon="2.76713">
        <ele>336.12</ele>
        <time>2012-08-10T12:41:15Z</time>
      </trkpt>
      <trkpt lat="44.52071" lon="2.76694">
        <ele>335.64</ele>
        <time>2012-08-10T12:41:18Z</time>
      </trkpt>
      <trkpt lat="44.52045" lon="2.76583">
        <ele>335.16</ele>
        <time>2012-08-10T12:41:34Z</time>
      </trkpt>
      <trkpt lat="44.52043" lon="2.76571">
        <ele>335.16</ele>
        <time>2012-08-10T12:41:36Z</time>
      </trkpt>
      <trkpt lat="44.52043" lon="2.76565">
        <ele>335.16</ele>
        <time>2012-08-10T12:41:37Z</time>
      </trkpt>
      <trkpt lat="44.52044" lon="2.76559">
        <ele>335.16</ele>
        <time>2012-08-10T12:41:38Z</time>
      </trkpt>
      <trkpt lat="44.52054" lon="2.76471">
        <ele>334.68</ele>
        <time>2012-08-10T12:41:52Z</time>
      </trkpt>
      <trkpt lat="44.52054" lon="2.76466">
        <ele>334.68</ele>
        <time>2012-08-10T12:41:53Z</time>
      </trkpt>
      <trkpt lat="44.52055" lon="2.7646">
        <ele>334.68</ele>
        <time>2012-08-10T12:41:54Z</time>
      </trkpt>
      <trkpt lat="44.52072" lon="2.76426">
        <ele>332.75</ele>
        <time>2012-08-10T12:42:04Z</time>
      </trkpt>
      <trkpt lat="44.52114" lon="2.76409">
        <ele>333.71</ele>
        <time>2012-08-10T12:42:16Z</time>
      </trkpt>
      <trkpt lat="44.52136" lon="2.76393">
        <ele>335.64</ele>
        <time>2012-08-10T12:42:24Z</time>
      </trkpt>
      <trkpt lat="44.52149" lon="2.76362">
        <ele>336.6</ele>
        <time>2012-08-10T12:42:34Z</time>
      </trkpt>
      <trkpt lat="44.52147" lon="2.76359">
        <ele>337.08</ele>
        <time>2012-08-10T12:42:35Z</time>
      </trkpt>
      <trkpt lat="44.52145" lon="2.76357">
        <ele>337.56</ele>
        <time>2012-08-10T12:42:36Z</time>
      </trkpt>
      <trkpt lat="44.52143" lon="2.76356">
        <ele>338.04</ele>
        <time>2012-08-10T12:42:37Z</time>
      </trkpt>
      <trkpt lat="44.52141" lon="2.76355">
        <ele>338.52</ele>
        <time>2012-08-10T12:42:38Z</time>
      </trkpt>
      <trkpt lat="44.5214" lon="2.76354">
        <ele>338.52</ele>
        <time>2012-08-10T12:42:39Z</time>
      </trkpt>
      <trkpt lat="44.52136" lon="2.7635">
        <ele>339.96</ele>
        <time>2012-08-10T12:42:43Z</time>
      </trkpt>
      <trkpt lat="44.52135" lon="2.76349">
        <ele>339.96</ele>
        <time>2012-08-10T12:42:44Z</time>
      </trkpt>
      <trkpt lat="44.52135" lon="2.76346">
        <ele>339.96</ele>
        <time>2012-08-10T12:42:45Z</time>
      </trkpt>
      <trkpt lat="44.52136" lon="2.76344">
        <ele>339.48</ele>
        <time>2012-08-10T12:42:46Z</time>
      </trkpt>
      <trkpt lat="44.52137" lon="2.76341">
        <ele>339.48</ele>
        <time>2012-08-10T12:42:47Z</time>
      </trkpt>
      <trkpt lat="44.52138" lon="2.76339">
        <ele>339</ele>
        <time>2012-08-10T12:42:48Z</time>
      </trkpt>
      <trkpt lat="44.52138" lon="2.76337">
        <ele>339</ele>
        <time>2012-08-10T12:42:49Z</time>
      </trkpt>
      <trkpt lat="44.52139" lon="2.76335">
        <ele>338.52</ele>
        <time>2012-08-10T12:42:50Z</time>
      </trkpt>
      <trkpt lat="44.52139" lon="2.76332">
        <ele>339</ele>
        <time>2012-08-10T12:42:51Z</time>
      </trkpt>
      <trkpt lat="44.5214" lon="2.76329">
        <ele>339</ele>
        <time>2012-08-10T12:42:52Z</time>
      </trkpt>
      <trkpt lat="44.52141" lon="2.76326">
        <ele>339</ele>
        <time>2012-08-10T12:42:53Z</time>
      </trkpt>
      <trkpt lat="44.52153" lon="2.76304">
        <ele>338.04</ele>
        <time>2012-08-10T12:43:05Z</time>
      </trkpt>
      <trkpt lat="44.52151" lon="2.76298">
        <ele>339.96</ele>
        <time>2012-08-10T12:43:22Z</time>
      </trkpt>
      <trkpt lat="44.52152" lon="2.76297">
        <ele>341.89</ele>
        <time>2012-08-10T12:43:52Z</time>
      </trkpt>
      <trkpt lat="44.52152" lon="2.76296">
        <ele>341.41</ele>
        <time>2012-08-10T12:44:15Z</time>
      </trkpt>
      <trkpt lat="44.52149" lon="2.76293">
        <ele>340.44</ele>
        <time>2012-08-10T12:44:29Z</time>
      </trkpt>
      <trkpt lat="44.52147" lon="2.76298">
        <ele>342.37</ele>
        <time>2012-08-10T12:44:44Z</time>
      </trkpt>
      <trkpt lat="44.5215" lon="2.76309">
        <ele>350.54</ele>
        <time>2012-08-10T12:45:00Z</time>
      </trkpt>
      <trkpt lat="44.52154" lon="2.7631">
        <ele>352.46</ele>
        <time>2012-08-10T12:45:21Z</time>
      </trkpt>
      <trkpt lat="44.52154" lon="2.76312">
        <ele>352.46</ele>
        <time>2012-08-10T12:45:41Z</time>
      </trkpt>
      <trkpt lat="44.52152" lon="2.76316">
        <ele>352.94</ele>
        <time>2012-08-10T12:45:55Z</time>
      </trkpt>
      <trkpt lat="44.52149" lon="2.76318">
        <ele>352.46</ele>
        <time>2012-08-10T12:45:58Z</time>
      </trkpt>
      <trkpt lat="44.52141" lon="2.76317">
        <ele>352.94</ele>
        <time>2012-08-10T12:46:10Z</time>
      </trkpt>
      <trkpt lat="44.52142" lon="2.7632">
        <ele>352.46</ele>
        <time>2012-08-10T12:46:29Z</time>
      </trkpt>
      <trkpt lat="44.5214" lon="2.76319">
        <ele>351.98</ele>
        <time>2012-08-10T12:46:49Z</time>
      </trkpt>
      <trkpt lat="44.52137" lon="2.76312">
        <ele>352.46</ele>
        <time>2012-08-10T12:47:04Z</time>
      </trkpt>
      <trkpt lat="44.52127" lon="2.76305">
        <ele>355.34</ele>
        <time>2012-08-10T12:47:17Z</time>
      </trkpt>
      <trkpt lat="44.52127" lon="2.76296">
        <ele>353.9</ele>
        <time>2012-08-10T12:47:34Z</time>
      </trkpt>
      <trkpt lat="44.5213" lon="2.76291">
        <ele>353.9</ele>
        <time>2012-08-10T12:47:58Z</time>
      </trkpt>
      <trkpt lat="44.52129" lon="2.76289">
        <ele>353.42</ele>
        <time>2012-08-10T12:48:18Z</time>
      </trkpt>
      <trkpt lat="44.52126" lon="2.76295">
        <ele>351.98</ele>
        <time>2012-08-10T12:48:31Z</time>
      </trkpt>
      <trkpt lat="44.52126" lon="2.76295">
        <ele>351.5</ele>
        <time>2012-08-10T12:48:32Z</time>
      </trkpt>
      <trkpt lat="44.52127" lon="2.76296">
        <ele>351.5</ele>
        <time>2012-08-10T12:48:33Z</time>
      </trkpt>
      <trkpt lat="44.52133" lon="2.76307">
        <ele>350.54</ele>
        <time>2012-08-10T12:48:48Z</time>
      </trkpt>
      <trkpt lat="44.52139" lon="2.76315">
        <ele>347.65</ele>
        <time>2012-08-10T12:48:59Z</time>
      </trkpt>
      <trkpt lat="44.52143" lon="2.76301">
        <ele>342.85</ele>
        <time>2012-08-10T12:49:17Z</time>
      </trkpt>
      <trkpt lat="44.52142" lon="2.763">
        <ele>344.29</ele>
        <time>2012-08-10T12:49:42Z</time>
      </trkpt>
      <trkpt lat="44.52137" lon="2.76299">
        <ele>343.33</ele>
        <time>2012-08-10T12:50:06Z</time>
      </trkpt>
      <trkpt lat="44.52138" lon="2.763">
        <ele>342.85</ele>
        <time>2012-08-10T12:50:28Z</time>
      </trkpt>
      <trkpt lat="44.5214" lon="2.76299">
        <ele>343.81</ele>
        <time>2012-08-10T12:50:46Z</time>
      </trkpt>
      <trkpt lat="44.52142" lon="2.76301">
        <ele>344.29</ele>
        <time>2012-08-10T12:51:09Z</time>
      </trkpt>
      <trkpt lat="44.52142" lon="2.76303">
        <ele>344.77</ele>
        <time>2012-08-10T12:51:28Z</time>
      </trkpt>
      <trkpt lat="44.52144" lon="2.76302">
        <ele>346.21</ele>
        <time>2012-08-10T12:51:47Z</time>
      </trkpt>
      <trkpt lat="44.52145" lon="2.76301">
        <ele>346.69</ele>
        <time>2012-08-10T12:52:13Z</time>
      </trkpt>
      <trkpt lat="44.52146" lon="2.76302">
        <ele>346.21</ele>
        <time>2012-08-10T12:52:31Z</time>
      </trkpt>
      <trkpt lat="44.52147" lon="2.76302">
        <ele>345.73</ele>
        <time>2012-08-10T12:52:47Z</time>
      </trkpt>
      <trkpt lat="44.52149" lon="2.76303">
        <ele>346.21</ele>
        <time>2012-08-10T12:53:11Z</time>
      </trkpt>
      <trkpt lat="44.5215" lon="2.76304">
        <ele>345.73</ele>
        <time>2012-08-10T12:53:32Z</time>
      </trkpt>
      <trkpt lat="44.52151" lon="2.76305">
        <ele>346.21</ele>
        <time>2012-08-10T12:53:57Z</time>
      </trkpt>
      <trkpt lat="44.52151" lon="2.76307">
        <ele>346.69</ele>
        <time>2012-08-10T12:54:19Z</time>
      </trkpt>
      <trkpt lat="44.52151" lon="2.76307">
        <ele>346.69</ele>
        <time>2012-08-10T12:54:38Z</time>
      </trkpt>
      <trkpt lat="44.52148" lon="2.76306">
        <ele>348.13</ele>
        <time>2012-08-10T12:55:02Z</time>
      </trkpt>
      <trkpt lat="44.52152" lon="2.76307">
        <ele>350.06</ele>
        <time>2012-08-10T12:55:26Z</time>
      </trkpt>
      <trkpt lat="44.52151" lon="2.76308">
        <ele>349.58</ele>
        <time>2012-08-10T12:55:48Z</time>
      </trkpt>
      <trkpt lat="44.52151" lon="2.76307">
        <ele>350.06</ele>
        <time>2012-08-10T12:56:10Z</time>
      </trkpt>
      <trkpt lat="44.52151" lon="2.76306">
        <ele>350.54</ele>
        <time>2012-08-10T12:56:36Z</time>
      </trkpt>
      <trkpt lat="44.52151" lon="2.76306">
        <ele>351.02</ele>
        <time>2012-08-10T12:56:57Z</time>
      </trkpt>
      <trkpt lat="44.5215" lon="2.76306">
        <ele>351.02</ele>
        <time>2012-08-10T12:57:16Z</time>
      </trkpt>
      <trkpt lat="44.52149" lon="2.76308">
        <ele>350.54</ele>
        <time>2012-08-10T12:57:34Z</time>
      </trkpt>
      <trkpt lat="44.52149" lon="2.7631">
        <ele>351.5</ele>
        <time>2012-08-10T12:57:54Z</time>
      </trkpt>
      <trkpt lat="44.52149" lon="2.76311">
        <ele>351.5</ele>
        <time>2012-08-10T12:57:55Z</time>
      </trkpt>
      <trkpt lat="44.52151" lon="2.76317">
        <ele>351.98</ele>
        <time>2012-08-10T12:58:00Z</time>
      </trkpt>
      <trkpt lat="44.52144" lon="2.76325">
        <ele>351.5</ele>
        <time>2012-08-10T12:58:06Z</time>
      </trkpt>
      <trkpt lat="44.52145" lon="2.76325">
        <ele>351.02</ele>
        <time>2012-08-10T12:58:07Z</time>
      </trkpt>
      <trkpt lat="44.52143" lon="2.76326">
        <ele>346.69</ele>
        <time>2012-08-10T12:58:23Z</time>
      </trkpt>
      <trkpt lat="44.52141" lon="2.76328">
        <ele>342.85</ele>
        <time>2012-08-10T12:58:54Z</time>
      </trkpt>
      <trkpt lat="44.5214" lon="2.76329">
        <ele>342.37</ele>
        <time>2012-08-10T12:59:21Z</time>
      </trkpt>
      <trkpt lat="44.52139" lon="2.7633">
        <ele>341.41</ele>
        <time>2012-08-10T12:59:42Z</time>
      </trkpt>
      <trkpt lat="44.52139" lon="2.7633">
        <ele>341.89</ele>
        <time>2012-08-10T13:00:07Z</time>
      </trkpt>
      <trkpt lat="44.5214" lon="2.7633">
        <ele>341.89</ele>
        <time>2012-08-10T13:00:30Z</time>
      </trkpt>
      <trkpt lat="44.52142" lon="2.76329">
        <ele>341.89</ele>
        <time>2012-08-10T13:00:51Z</time>
      </trkpt>
      <trkpt lat="44.52143" lon="2.76329">
        <ele>342.37</ele>
        <time>2012-08-10T13:01:22Z</time>
      </trkpt>
      <trkpt lat="44.52143" lon="2.76329">
        <ele>343.33</ele>
        <time>2012-08-10T13:01:46Z</time>
      </trkpt>
      <trkpt lat="44.52144" lon="2.76329">
        <ele>344.29</ele>
        <time>2012-08-10T13:02:13Z</time>
      </trkpt>
      <trkpt lat="44.52144" lon="2.76328">
        <ele>344.77</ele>
        <time>2012-08-10T13:02:34Z</time>
      </trkpt>
      <trkpt lat="44.52145" lon="2.76333">
        <ele>345.25</ele>
        <time>2012-08-10T13:02:39Z</time>
      </trkpt>
      <trkpt lat="44.52133" lon="2.76358">
        <ele>345.73</ele>
        <time>2012-08-10T13:02:51Z</time>
      </trkpt>
      <trkpt lat="44.5213" lon="2.76363">
        <ele>346.21</ele>
        <time>2012-08-10T13:03:02Z</time>
      </trkpt>
      <trkpt lat="44.52093" lon="2.76391">
        <ele>344.77</ele>
        <time>2012-08-10T13:03:16Z</time>
      </trkpt>
      <trkpt lat="44.52058" lon="2.76408">
        <ele>344.77</ele>
        <time>2012-08-10T13:03:31Z</time>
      </trkpt>
      <trkpt lat="44.52045" lon="2.76424">
        <ele>346.69</ele>
        <time>2012-08-10T13:03:45Z</time>
      </trkpt>
      <trkpt lat="44.52048" lon="2.76423">
        <ele>347.17</ele>
        <time>2012-08-10T13:03:46Z</time>
      </trkpt>
      <trkpt lat="44.52051" lon="2.76421">
        <ele>347.17</ele>
        <time>2012-08-10T13:03:47Z</time>
      </trkpt>
      <trkpt lat="44.52053" lon="2.76419">
        <ele>347.17</ele>
        <time>2012-08-10T13:03:48Z</time>
      </trkpt>
      <trkpt lat="44.52055" lon="2.76417">
        <ele>347.65</ele>
        <time>2012-08-10T13:03:49Z</time>
      </trkpt>
      <trkpt lat="44.52097" lon="2.76386">
        <ele>346.21</ele>
        <time>2012-08-10T13:04:03Z</time>
      </trkpt>
      <trkpt lat="44.52119" lon="2.76379">
        <ele>345.73</ele>
        <time>2012-08-10T13:04:12Z</time>
      </trkpt>
      <trkpt lat="44.52118" lon="2.76378">
        <ele>346.21</ele>
        <time>2012-08-10T13:04:16Z</time>
      </trkpt>
      <trkpt lat="44.52118" lon="2.76377">
        <ele>346.21</ele>
        <time>2012-08-10T13:04:17Z</time>
      </trkpt>
      <trkpt lat="44.52127" lon="2.76357">
        <ele>345.25</ele>
        <time>2012-08-10T13:04:24Z</time>
      </trkpt>
      <trkpt lat="44.52127" lon="2.76352">
        <ele>344.77</ele>
        <time>2012-08-10T13:04:25Z</time>
      </trkpt>
      <trkpt lat="44.52129" lon="2.76348">
        <ele>344.29</ele>
        <time>2012-08-10T13:04:26Z</time>
      </trkpt>
      <trkpt lat="44.5213" lon="2.76343">
        <ele>343.81</ele>
        <time>2012-08-10T13:04:27Z</time>
      </trkpt>
      <trkpt lat="44.52131" lon="2.76339">
        <ele>343.33</ele>
        <time>2012-08-10T13:04:28Z</time>
      </trkpt>
      <trkpt lat="44.52146" lon="2.76288">
        <ele>338.52</ele>
        <time>2012-08-10T13:04:39Z</time>
      </trkpt>
      <trkpt lat="44.52148" lon="2.76283">
        <ele>338.52</ele>
        <time>2012-08-10T13:04:40Z</time>
      </trkpt>
      <trkpt lat="44.52168" lon="2.76235">
        <ele>338.52</ele>
        <time>2012-08-10T13:04:53Z</time>
      </trkpt>
      <trkpt lat="44.52172" lon="2.76231">
        <ele>338.52</ele>
        <time>2012-08-10T13:04:56Z</time>
      </trkpt>
      <trkpt lat="44.52183" lon="2.76233">
        <ele>339.96</ele>
        <time>2012-08-10T13:05:09Z</time>
      </trkpt>
      <trkpt lat="44.52186" lon="2.76234">
        <ele>342.37</ele>
        <time>2012-08-10T13:05:37Z</time>
      </trkpt>
      <trkpt lat="44.52186" lon="2.76234">
        <ele>342.37</ele>
        <time>2012-08-10T13:05:38Z</time>
      </trkpt>
      <trkpt lat="44.52187" lon="2.76232">
        <ele>342.37</ele>
        <time>2012-08-10T13:05:39Z</time>
      </trkpt>
      <trkpt lat="44.52187" lon="2.7623">
        <ele>342.37</ele>
        <time>2012-08-10T13:05:40Z</time>
      </trkpt>
      <trkpt lat="44.52187" lon="2.76227">
        <ele>342.37</ele>
        <time>2012-08-10T13:05:41Z</time>
      </trkpt>
      <trkpt lat="44.52186" lon="2.76224">
        <ele>342.85</ele>
        <time>2012-08-10T13:05:42Z</time>
      </trkpt>
      <trkpt lat="44.52185" lon="2.76221">
        <ele>342.85</ele>
        <time>2012-08-10T13:05:43Z</time>
      </trkpt>
      <trkpt lat="44.52183" lon="2.76218">
        <ele>342.85</ele>
        <time>2012-08-10T13:05:44Z</time>
      </trkpt>
      <trkpt lat="44.52142" lon="2.76181">
        <ele>347.65</ele>
        <time>2012-08-10T13:05:59Z</time>
      </trkpt>
      <trkpt lat="44.521" lon="2.76148">
        <ele>349.58</ele>
        <time>2012-08-10T13:06:13Z</time>
      </trkpt>
      <trkpt lat="44.52079" lon="2.7613">
        <ele>350.06</ele>
        <time>2012-08-10T13:06:21Z</time>
      </trkpt>
      <trkpt lat="44.52078" lon="2.76128">
        <ele>350.06</ele>
        <time>2012-08-10T13:06:22Z</time>
      </trkpt>
      <trkpt lat="44.52078" lon="2.76124">
        <ele>350.06</ele>
        <time>2012-08-10T13:06:23Z</time>
      </trkpt>
      <trkpt lat="44.52078" lon="2.76118">
        <ele>350.06</ele>
        <time>2012-08-10T13:06:24Z</time>
      </trkpt>
      <trkpt lat="44.52079" lon="2.76114">
        <ele>349.58</ele>
        <time>2012-08-10T13:06:25Z</time>
      </trkpt>
      <trkpt lat="44.52085" lon="2.76053">
        <ele>346.69</ele>
        <time>2012-08-10T13:06:38Z</time>
      </trkpt>
      <trkpt lat="44.52092" lon="2.75995">
        <ele>344.77</ele>
        <time>2012-08-10T13:06:51Z</time>
      </trkpt>
      <trkpt lat="44.52113" lon="2.75944">
        <ele>343.33</ele>
        <time>2012-08-10T13:07:04Z</time>
      </trkpt>
      <trkpt lat="44.52144" lon="2.75894">
        <ele>340.44</ele>
        <time>2012-08-10T13:07:16Z</time>
      </trkpt>
      <trkpt lat="44.52157" lon="2.75878">
        <ele>340.44</ele>
        <time>2012-08-10T13:07:22Z</time>
      </trkpt>
      <trkpt lat="44.5216" lon="2.75878">
        <ele>340.92</ele>
        <time>2012-08-10T13:07:23Z</time>
      </trkpt>
      <trkpt lat="44.52184" lon="2.75879">
        <ele>343.81</ele>
        <time>2012-08-10T13:07:29Z</time>
      </trkpt>
      <trkpt lat="44.52187" lon="2.75876">
        <ele>343.81</ele>
        <time>2012-08-10T13:07:30Z</time>
      </trkpt>
      <trkpt lat="44.52189" lon="2.75872">
        <ele>343.81</ele>
        <time>2012-08-10T13:07:31Z</time>
      </trkpt>
      <trkpt lat="44.52191" lon="2.75867">
        <ele>343.81</ele>
        <time>2012-08-10T13:07:32Z</time>
      </trkpt>
      <trkpt lat="44.52193" lon="2.75862">
        <ele>343.81</ele>
        <time>2012-08-10T13:07:33Z</time>
      </trkpt>
      <trkpt lat="44.52193" lon="2.75857">
        <ele>343.81</ele>
        <time>2012-08-10T13:07:34Z</time>
      </trkpt>
      <trkpt lat="44.52194" lon="2.75852">
        <ele>343.33</ele>
        <time>2012-08-10T13:07:35Z</time>
      </trkpt>
      <trkpt lat="44.52197" lon="2.75788">
        <ele>342.85</ele>
        <time>2012-08-10T13:07:49Z</time>
      </trkpt>
      <trkpt lat="44.52204" lon="2.75751">
        <ele>345.25</ele>
        <time>2012-08-10T13:08:03Z</time>
      </trkpt>
      <trkpt lat="44.52211" lon="2.75725">
        <ele>347.17</ele>
        <time>2012-08-10T13:08:19Z</time>
      </trkpt>
      <trkpt lat="44.52217" lon="2.7571">
        <ele>349.58</ele>
        <time>2012-08-10T13:08:34Z</time>
      </trkpt>
      <trkpt lat="44.52223" lon="2.75702">
        <ele>351.02</ele>
        <time>2012-08-10T13:08:51Z</time>
      </trkpt>
      <trkpt lat="44.52228" lon="2.75691">
        <ele>351.5</ele>
        <time>2012-08-10T13:09:04Z</time>
      </trkpt>
      <trkpt lat="44.52235" lon="2.75676">
        <ele>352.46</ele>
        <time>2012-08-10T13:09:18Z</time>
      </trkpt>
      <trkpt lat="44.52236" lon="2.75663">
        <ele>352.94</ele>
        <time>2012-08-10T13:09:29Z</time>
      </trkpt>
      <trkpt lat="44.52237" lon="2.75661">
        <ele>352.94</ele>
        <time>2012-08-10T13:09:30Z</time>
      </trkpt>
      <trkpt lat="44.52238" lon="2.75659">
        <ele>353.42</ele>
        <time>2012-08-10T13:09:31Z</time>
      </trkpt>
      <trkpt lat="44.52238" lon="2.75657">
        <ele>353.9</ele>
        <time>2012-08-10T13:09:32Z</time>
      </trkpt>
      <trkpt lat="44.52238" lon="2.75654">
        <ele>353.9</ele>
        <time>2012-08-10T13:09:33Z</time>
      </trkpt>
      <trkpt lat="44.52238" lon="2.75652">
        <ele>353.9</ele>
        <time>2012-08-10T13:09:34Z</time>
      </trkpt>
      <trkpt lat="44.52239" lon="2.7565">
        <ele>353.9</ele>
        <time>2012-08-10T13:09:35Z</time>
      </trkpt>
      <trkpt lat="44.52239" lon="2.75648">
        <ele>353.42</ele>
        <time>2012-08-10T13:09:36Z</time>
      </trkpt>
      <trkpt lat="44.5224" lon="2.75645">
        <ele>352.94</ele>
        <time>2012-08-10T13:09:37Z</time>
      </trkpt>
      <trkpt lat="44.52241" lon="2.75643">
        <ele>352.94</ele>
        <time>2012-08-10T13:09:38Z</time>
      </trkpt>
      <trkpt lat="44.52246" lon="2.75605">
        <ele>351.02</ele>
        <time>2012-08-10T13:09:52Z</time>
      </trkpt>
      <trkpt lat="44.52253" lon="2.75552">
        <ele>351.02</ele>
        <time>2012-08-10T13:10:06Z</time>
      </trkpt>
      <trkpt lat="44.52279" lon="2.75493">
        <ele>352.94</ele>
        <time>2012-08-10T13:10:21Z</time>
      </trkpt>
      <trkpt lat="44.52288" lon="2.75449">
        <ele>352.46</ele>
        <time>2012-08-10T13:10:33Z</time>
      </trkpt>
      <trkpt lat="44.52309" lon="2.75382">
        <ele>352.46</ele>
        <time>2012-08-10T13:10:47Z</time>
      </trkpt>
      <trkpt lat="44.52335" lon="2.75288">
        <ele>352.94</ele>
        <time>2012-08-10T13:11:05Z</time>
      </trkpt>
      <trkpt lat="44.52345" lon="2.75194">
        <ele>357.27</ele>
        <time>2012-08-10T13:11:22Z</time>
      </trkpt>
      <trkpt lat="44.52341" lon="2.75132">
        <ele>358.23</ele>
        <time>2012-08-10T13:11:33Z</time>
      </trkpt>
      <trkpt lat="44.52342" lon="2.75097">
        <ele>359.19</ele>
        <time>2012-08-10T13:11:39Z</time>
      </trkpt>
      <trkpt lat="44.52357" lon="2.75006">
        <ele>360.63</ele>
        <time>2012-08-10T13:11:54Z</time>
      </trkpt>
      <trkpt lat="44.52387" lon="2.74912">
        <ele>360.15</ele>
        <time>2012-08-10T13:12:08Z</time>
      </trkpt>
      <trkpt lat="44.52418" lon="2.74788">
        <ele>360.15</ele>
        <time>2012-08-10T13:12:24Z</time>
      </trkpt>
      <trkpt lat="44.52445" lon="2.74664">
        <ele>359.67</ele>
        <time>2012-08-10T13:12:40Z</time>
      </trkpt>
      <trkpt lat="44.52458" lon="2.7453">
        <ele>360.15</ele>
        <time>2012-08-10T13:12:55Z</time>
      </trkpt>
      <trkpt lat="44.52471" lon="2.74453">
        <ele>358.71</ele>
        <time>2012-08-10T13:13:04Z</time>
      </trkpt>
      <trkpt lat="44.5249" lon="2.74364">
        <ele>358.23</ele>
        <time>2012-08-10T13:13:15Z</time>
      </trkpt>
      <trkpt lat="44.52492" lon="2.74357">
        <ele>358.23</ele>
        <time>2012-08-10T13:13:16Z</time>
      </trkpt>
      <trkpt lat="44.52546" lon="2.74272">
        <ele>360.15</ele>
        <time>2012-08-10T13:13:31Z</time>
      </trkpt>
      <trkpt lat="44.52616" lon="2.74187">
        <ele>358.23</ele>
        <time>2012-08-10T13:13:46Z</time>
      </trkpt>
      <trkpt lat="44.52652" lon="2.74135">
        <ele>356.79</ele>
        <time>2012-08-10T13:13:54Z</time>
      </trkpt>
      <trkpt lat="44.52674" lon="2.74068">
        <ele>355.83</ele>
        <time>2012-08-10T13:14:02Z</time>
      </trkpt>
      <trkpt lat="44.52679" lon="2.74059">
        <ele>355.34</ele>
        <time>2012-08-10T13:14:03Z</time>
      </trkpt>
      <trkpt lat="44.52684" lon="2.74051">
        <ele>354.86</ele>
        <time>2012-08-10T13:14:04Z</time>
      </trkpt>
      <trkpt lat="44.5269" lon="2.74044">
        <ele>354.38</ele>
        <time>2012-08-10T13:14:05Z</time>
      </trkpt>
      <trkpt lat="44.52696" lon="2.74037">
        <ele>353.42</ele>
        <time>2012-08-10T13:14:06Z</time>
      </trkpt>
      <trkpt lat="44.52708" lon="2.74023">
        <ele>351.98</ele>
        <time>2012-08-10T13:14:08Z</time>
      </trkpt>
      <trkpt lat="44.52713" lon="2.74014">
        <ele>351.5</ele>
        <time>2012-08-10T13:14:09Z</time>
      </trkpt>
      <trkpt lat="44.52718" lon="2.74005">
        <ele>351.02</ele>
        <time>2012-08-10T13:14:10Z</time>
      </trkpt>
      <trkpt lat="44.52722" lon="2.73995">
        <ele>350.54</ele>
        <time>2012-08-10T13:14:11Z</time>
      </trkpt>
      <trkpt lat="44.52726" lon="2.73985">
        <ele>349.58</ele>
        <time>2012-08-10T13:14:12Z</time>
      </trkpt>
      <trkpt lat="44.52731" lon="2.73974">
        <ele>348.62</ele>
        <time>2012-08-10T13:14:13Z</time>
      </trkpt>
      <trkpt lat="44.52791" lon="2.73821">
        <ele>339.48</ele>
        <time>2012-08-10T13:14:25Z</time>
      </trkpt>
      <trkpt lat="44.52816" lon="2.73687">
        <ele>335.64</ele>
        <time>2012-08-10T13:14:36Z</time>
      </trkpt>
      <trkpt lat="44.52824" lon="2.73647">
        <ele>334.68</ele>
        <time>2012-08-10T13:14:40Z</time>
      </trkpt>
      <trkpt lat="44.52826" lon="2.73638">
        <ele>334.2</ele>
        <time>2012-08-10T13:14:41Z</time>
      </trkpt>
      <trkpt lat="44.52859" lon="2.73489">
        <ele>332.75</ele>
        <time>2012-08-10T13:14:57Z</time>
      </trkpt>
      <trkpt lat="44.52886" lon="2.73361">
        <ele>333.23</ele>
        <time>2012-08-10T13:15:12Z</time>
      </trkpt>
      <trkpt lat="44.52895" lon="2.73283">
        <ele>332.27</ele>
        <time>2012-08-10T13:15:21Z</time>
      </trkpt>
      <trkpt lat="44.52895" lon="2.73274">
        <ele>331.79</ele>
        <time>2012-08-10T13:15:22Z</time>
      </trkpt>
      <trkpt lat="44.52894" lon="2.73265">
        <ele>331.79</ele>
        <time>2012-08-10T13:15:23Z</time>
      </trkpt>
      <trkpt lat="44.52892" lon="2.73256">
        <ele>331.31</ele>
        <time>2012-08-10T13:15:24Z</time>
      </trkpt>
      <trkpt lat="44.5289" lon="2.73248">
        <ele>331.31</ele>
        <time>2012-08-10T13:15:25Z</time>
      </trkpt>
      <trkpt lat="44.52887" lon="2.7324">
        <ele>331.31</ele>
        <time>2012-08-10T13:15:26Z</time>
      </trkpt>
      <trkpt lat="44.52884" lon="2.73232">
        <ele>330.83</ele>
        <time>2012-08-10T13:15:27Z</time>
      </trkpt>
      <trkpt lat="44.5284" lon="2.7314">
        <ele>328.91</ele>
        <time>2012-08-10T13:15:40Z</time>
      </trkpt>
      <trkpt lat="44.52829" lon="2.73114">
        <ele>327.95</ele>
        <time>2012-08-10T13:15:44Z</time>
      </trkpt>
      <trkpt lat="44.52828" lon="2.73107">
        <ele>327.47</ele>
        <time>2012-08-10T13:15:45Z</time>
      </trkpt>
      <trkpt lat="44.52827" lon="2.731">
        <ele>326.99</ele>
        <time>2012-08-10T13:15:46Z</time>
      </trkpt>
      <trkpt lat="44.52827" lon="2.73092">
        <ele>326.99</ele>
        <time>2012-08-10T13:15:47Z</time>
      </trkpt>
      <trkpt lat="44.52828" lon="2.73086">
        <ele>326.5</ele>
        <time>2012-08-10T13:15:48Z</time>
      </trkpt>
      <trkpt lat="44.5283" lon="2.7308">
        <ele>326.5</ele>
        <time>2012-08-10T13:15:49Z</time>
      </trkpt>
      <trkpt lat="44.52833" lon="2.73076">
        <ele>326.5</ele>
        <time>2012-08-10T13:15:50Z</time>
      </trkpt>
      <trkpt lat="44.52838" lon="2.73073">
        <ele>326.5</ele>
        <time>2012-08-10T13:15:51Z</time>
      </trkpt>
      <trkpt lat="44.52843" lon="2.73072">
        <ele>326.5</ele>
        <time>2012-08-10T13:15:52Z</time>
      </trkpt>
      <trkpt lat="44.5285" lon="2.73072">
        <ele>326.5</ele>
        <time>2012-08-10T13:15:53Z</time>
      </trkpt>
      <trkpt lat="44.52856" lon="2.73073">
        <ele>326.99</ele>
        <time>2012-08-10T13:15:54Z</time>
      </trkpt>
      <trkpt lat="44.52911" lon="2.7308">
        <ele>329.39</ele>
        <time>2012-08-10T13:16:06Z</time>
      </trkpt>
      <trkpt lat="44.52951" lon="2.73069">
        <ele>333.23</ele>
        <time>2012-08-10T13:16:18Z</time>
      </trkpt>
      <trkpt lat="44.52982" lon="2.73029">
        <ele>336.12</ele>
        <time>2012-08-10T13:16:31Z</time>
      </trkpt>
      <trkpt lat="44.53011" lon="2.7299">
        <ele>339.48</ele>
        <time>2012-08-10T13:16:45Z</time>
      </trkpt>
      <trkpt lat="44.53045" lon="2.72941">
        <ele>342.37</ele>
        <time>2012-08-10T13:17:00Z</time>
      </trkpt>
      <trkpt lat="44.53078" lon="2.72886">
        <ele>345.73</ele>
        <time>2012-08-10T13:17:16Z</time>
      </trkpt>
      <trkpt lat="44.53109" lon="2.7285">
        <ele>349.1</ele>
        <time>2012-08-10T13:17:28Z</time>
      </trkpt>
      <trkpt lat="44.53113" lon="2.72847">
        <ele>349.58</ele>
        <time>2012-08-10T13:17:29Z</time>
      </trkpt>
      <trkpt lat="44.53177" lon="2.72811">
        <ele>350.54</ele>
        <time>2012-08-10T13:17:42Z</time>
      </trkpt>
      <trkpt lat="44.5323" lon="2.72794">
        <ele>347.17</ele>
        <time>2012-08-10T13:17:50Z</time>
      </trkpt>
      <trkpt lat="44.53317" lon="2.72724">
        <ele>339</ele>
        <time>2012-08-10T13:18:01Z</time>
      </trkpt>
      <trkpt lat="44.53398" lon="2.7265">
        <ele>333.71</ele>
        <time>2012-08-10T13:18:13Z</time>
      </trkpt>
      <trkpt lat="44.53453" lon="2.72564">
        <ele>331.79</ele>
        <time>2012-08-10T13:18:26Z</time>
      </trkpt>
      <trkpt lat="44.53491" lon="2.72468">
        <ele>332.75</ele>
        <time>2012-08-10T13:18:40Z</time>
      </trkpt>
      <trkpt lat="44.53512" lon="2.7236">
        <ele>333.71</ele>
        <time>2012-08-10T13:18:55Z</time>
      </trkpt>
      <trkpt lat="44.53545" lon="2.72298">
        <ele>333.23</ele>
        <time>2012-08-10T13:19:08Z</time>
      </trkpt>
      <trkpt lat="44.53593" lon="2.72221">
        <ele>330.83</ele>
        <time>2012-08-10T13:19:23Z</time>
      </trkpt>
      <trkpt lat="44.53653" lon="2.72136">
        <ele>329.87</ele>
        <time>2012-08-10T13:19:39Z</time>
      </trkpt>
      <trkpt lat="44.53674" lon="2.72045">
        <ele>328.91</ele>
        <time>2012-08-10T13:19:52Z</time>
      </trkpt>
      <trkpt lat="44.53694" lon="2.71966">
        <ele>331.31</ele>
        <time>2012-08-10T13:20:08Z</time>
      </trkpt>
      <trkpt lat="44.53716" lon="2.71887">
        <ele>333.71</ele>
        <time>2012-08-10T13:20:26Z</time>
      </trkpt>
      <trkpt lat="44.53735" lon="2.71794">
        <ele>336.12</ele>
        <time>2012-08-10T13:20:45Z</time>
      </trkpt>
      <trkpt lat="44.53777" lon="2.71714">
        <ele>338.52</ele>
        <time>2012-08-10T13:21:04Z</time>
      </trkpt>
      <trkpt lat="44.53786" lon="2.71705">
        <ele>338.52</ele>
        <time>2012-08-10T13:21:07Z</time>
      </trkpt>
      <trkpt lat="44.5379" lon="2.71703">
        <ele>338.52</ele>
        <time>2012-08-10T13:21:08Z</time>
      </trkpt>
      <trkpt lat="44.53794" lon="2.71702">
        <ele>338.52</ele>
        <time>2012-08-10T13:21:09Z</time>
      </trkpt>
      <trkpt lat="44.53803" lon="2.717">
        <ele>339</ele>
        <time>2012-08-10T13:21:11Z</time>
      </trkpt>
      <trkpt lat="44.53808" lon="2.717">
        <ele>339</ele>
        <time>2012-08-10T13:21:12Z</time>
      </trkpt>
      <trkpt lat="44.53835" lon="2.71701">
        <ele>338.04</ele>
        <time>2012-08-10T13:21:17Z</time>
      </trkpt>
      <trkpt lat="44.5384" lon="2.717">
        <ele>338.04</ele>
        <time>2012-08-10T13:21:18Z</time>
      </trkpt>
      <trkpt lat="44.53868" lon="2.71693">
        <ele>337.08</ele>
        <time>2012-08-10T13:21:22Z</time>
      </trkpt>
      <trkpt lat="44.53968" lon="2.7162">
        <ele>334.2</ele>
        <time>2012-08-10T13:21:36Z</time>
      </trkpt>
      <trkpt lat="44.54046" lon="2.71532">
        <ele>332.27</ele>
        <time>2012-08-10T13:21:50Z</time>
      </trkpt>
      <trkpt lat="44.54065" lon="2.71493">
        <ele>332.27</ele>
        <time>2012-08-10T13:22:02Z</time>
      </trkpt>
      <trkpt lat="44.54077" lon="2.71456">
        <ele>335.64</ele>
        <time>2012-08-10T13:22:18Z</time>
      </trkpt>
      <trkpt lat="44.54082" lon="2.71426">
        <ele>335.16</ele>
        <time>2012-08-10T13:22:33Z</time>
      </trkpt>
      <trkpt lat="44.54094" lon="2.71391">
        <ele>335.64</ele>
        <time>2012-08-10T13:22:50Z</time>
      </trkpt>
      <trkpt lat="44.541" lon="2.71377">
        <ele>337.56</ele>
        <time>2012-08-10T13:22:56Z</time>
      </trkpt>
      <trkpt lat="44.54101" lon="2.71374">
        <ele>337.56</ele>
        <time>2012-08-10T13:22:57Z</time>
      </trkpt>
      <trkpt lat="44.54101" lon="2.71372">
        <ele>337.56</ele>
        <time>2012-08-10T13:22:58Z</time>
      </trkpt>
      <trkpt lat="44.54102" lon="2.7137">
        <ele>337.56</ele>
        <time>2012-08-10T13:22:59Z</time>
      </trkpt>
      <trkpt lat="44.54102" lon="2.71368">
        <ele>337.56</ele>
        <time>2012-08-10T13:23:00Z</time>
      </trkpt>
      <trkpt lat="44.54103" lon="2.71366">
        <ele>337.56</ele>
        <time>2012-08-10T13:23:01Z</time>
      </trkpt>
      <trkpt lat="44.54103" lon="2.71364">
        <ele>337.56</ele>
        <time>2012-08-10T13:23:02Z</time>
      </trkpt>
      <trkpt lat="44.54104" lon="2.71361">
        <ele>337.08</ele>
        <time>2012-08-10T13:23:04Z</time>
      </trkpt>
      <trkpt lat="44.54104" lon="2.71359">
        <ele>337.08</ele>
        <time>2012-08-10T13:23:05Z</time>
      </trkpt>
      <trkpt lat="44.54105" lon="2.71353">
        <ele>336.6</ele>
        <time>2012-08-10T13:23:09Z</time>
      </trkpt>
      <trkpt lat="44.54106" lon="2.71351">
        <ele>337.08</ele>
        <time>2012-08-10T13:23:10Z</time>
      </trkpt>
      <trkpt lat="44.54109" lon="2.71341">
        <ele>338.04</ele>
        <time>2012-08-10T13:23:15Z</time>
      </trkpt>
      <trkpt lat="44.54118" lon="2.71314">
        <ele>335.64</ele>
        <time>2012-08-10T13:23:28Z</time>
      </trkpt>
      <trkpt lat="44.54118" lon="2.71311">
        <ele>335.64</ele>
        <time>2012-08-10T13:23:29Z</time>
      </trkpt>
      <trkpt lat="44.54119" lon="2.71309">
        <ele>335.64</ele>
        <time>2012-08-10T13:23:30Z</time>
      </trkpt>
      <trkpt lat="44.54119" lon="2.71307">
        <ele>336.12</ele>
        <time>2012-08-10T13:23:31Z</time>
      </trkpt>
      <trkpt lat="44.5412" lon="2.71304">
        <ele>336.12</ele>
        <time>2012-08-10T13:23:32Z</time>
      </trkpt>
      <trkpt lat="44.54121" lon="2.71302">
        <ele>336.12</ele>
        <time>2012-08-10T13:23:33Z</time>
      </trkpt>
      <trkpt lat="44.54121" lon="2.71299">
        <ele>336.6</ele>
        <time>2012-08-10T13:23:34Z</time>
      </trkpt>
      <trkpt lat="44.54122" lon="2.71297">
        <ele>336.6</ele>
        <time>2012-08-10T13:23:35Z</time>
      </trkpt>
      <trkpt lat="44.54123" lon="2.71295">
        <ele>336.6</ele>
        <time>2012-08-10T13:23:36Z</time>
      </trkpt>
      <trkpt lat="44.54123" lon="2.71293">
        <ele>336.12</ele>
        <time>2012-08-10T13:23:37Z</time>
      </trkpt>
      <trkpt lat="44.54123" lon="2.71291">
        <ele>336.12</ele>
        <time>2012-08-10T13:23:38Z</time>
      </trkpt>
      <trkpt lat="44.54123" lon="2.71289">
        <ele>335.64</ele>
        <time>2012-08-10T13:23:39Z</time>
      </trkpt>
      <trkpt lat="44.54124" lon="2.71287">
        <ele>335.64</ele>
        <time>2012-08-10T13:23:40Z</time>
      </trkpt>
      <trkpt lat="44.54125" lon="2.71285">
        <ele>335.64</ele>
        <time>2012-08-10T13:23:41Z</time>
      </trkpt>
      <trkpt lat="44.54138" lon="2.71252">
        <ele>341.41</ele>
        <time>2012-08-10T13:23:55Z</time>
      </trkpt>
      <trkpt lat="44.54148" lon="2.71222">
        <ele>348.13</ele>
        <time>2012-08-10T13:24:09Z</time>
      </trkpt>
      <trkpt lat="44.54154" lon="2.71187">
        <ele>349.58</ele>
        <time>2012-08-10T13:24:24Z</time>
      </trkpt>
      <trkpt lat="44.54159" lon="2.71155">
        <ele>352.94</ele>
        <time>2012-08-10T13:24:38Z</time>
      </trkpt>
      <trkpt lat="44.54161" lon="2.71125">
        <ele>355.34</ele>
        <time>2012-08-10T13:24:52Z</time>
      </trkpt>
      <trkpt lat="44.54162" lon="2.71118">
        <ele>356.31</ele>
        <time>2012-08-10T13:24:55Z</time>
      </trkpt>
      <trkpt lat="44.54162" lon="2.71116">
        <ele>356.31</ele>
        <time>2012-08-10T13:24:56Z</time>
      </trkpt>
      <trkpt lat="44.54162" lon="2.71114">
        <ele>356.79</ele>
        <time>2012-08-10T13:24:57Z</time>
      </trkpt>
      <trkpt lat="44.54162" lon="2.71112">
        <ele>356.79</ele>
        <time>2012-08-10T13:24:58Z</time>
      </trkpt>
      <trkpt lat="44.54162" lon="2.7111">
        <ele>357.27</ele>
        <time>2012-08-10T13:24:59Z</time>
      </trkpt>
      <trkpt lat="44.54163" lon="2.71108">
        <ele>357.27</ele>
        <time>2012-08-10T13:25:00Z</time>
      </trkpt>
      <trkpt lat="44.54164" lon="2.71106">
        <ele>357.75</ele>
        <time>2012-08-10T13:25:01Z</time>
      </trkpt>
      <trkpt lat="44.54165" lon="2.71104">
        <ele>358.23</ele>
        <time>2012-08-10T13:25:02Z</time>
      </trkpt>
      <trkpt lat="44.54166" lon="2.71074">
        <ele>362.55</ele>
        <time>2012-08-10T13:25:15Z</time>
      </trkpt>
      <trkpt lat="44.54165" lon="2.71059">
        <ele>363.52</ele>
        <time>2012-08-10T13:25:21Z</time>
      </trkpt>
      <trkpt lat="44.54165" lon="2.71057">
        <ele>363.52</ele>
        <time>2012-08-10T13:25:22Z</time>
      </trkpt>
      <trkpt lat="44.54165" lon="2.71055">
        <ele>364</ele>
        <time>2012-08-10T13:25:23Z</time>
      </trkpt>
      <trkpt lat="44.54165" lon="2.71053">
        <ele>364.48</ele>
        <time>2012-08-10T13:25:24Z</time>
      </trkpt>
      <trkpt lat="44.54166" lon="2.7105">
        <ele>364.96</ele>
        <time>2012-08-10T13:25:25Z</time>
      </trkpt>
      <trkpt lat="44.54167" lon="2.71046">
        <ele>365.92</ele>
        <time>2012-08-10T13:25:27Z</time>
      </trkpt>
      <trkpt lat="44.54166" lon="2.71043">
        <ele>365.92</ele>
        <time>2012-08-10T13:25:28Z</time>
      </trkpt>
      <trkpt lat="44.54167" lon="2.71041">
        <ele>365.92</ele>
        <time>2012-08-10T13:25:29Z</time>
      </trkpt>
      <trkpt lat="44.54167" lon="2.71039">
        <ele>365.92</ele>
        <time>2012-08-10T13:25:30Z</time>
      </trkpt>
      <trkpt lat="44.54168" lon="2.71037">
        <ele>366.4</ele>
        <time>2012-08-10T13:25:31Z</time>
      </trkpt>
      <trkpt lat="44.54169" lon="2.71035">
        <ele>366.88</ele>
        <time>2012-08-10T13:25:32Z</time>
      </trkpt>
      <trkpt lat="44.5417" lon="2.71033">
        <ele>366.88</ele>
        <time>2012-08-10T13:25:33Z</time>
      </trkpt>
      <trkpt lat="44.5417" lon="2.71031">
        <ele>367.36</ele>
        <time>2012-08-10T13:25:34Z</time>
      </trkpt>
      <trkpt lat="44.54171" lon="2.71028">
        <ele>367.84</ele>
        <time>2012-08-10T13:25:35Z</time>
      </trkpt>
      <trkpt lat="44.54171" lon="2.71025">
        <ele>367.84</ele>
        <time>2012-08-10T13:25:36Z</time>
      </trkpt>
      <trkpt lat="44.54171" lon="2.71023">
        <ele>367.84</ele>
        <time>2012-08-10T13:25:37Z</time>
      </trkpt>
      <trkpt lat="44.54171" lon="2.7102">
        <ele>368.32</ele>
        <time>2012-08-10T13:25:38Z</time>
      </trkpt>
      <trkpt lat="44.54171" lon="2.71018">
        <ele>368.32</ele>
        <time>2012-08-10T13:25:39Z</time>
      </trkpt>
      <trkpt lat="44.54171" lon="2.71016">
        <ele>368.32</ele>
        <time>2012-08-10T13:25:40Z</time>
      </trkpt>
      <trkpt lat="44.54172" lon="2.71008">
        <ele>369.28</ele>
        <time>2012-08-10T13:25:43Z</time>
      </trkpt>
      <trkpt lat="44.54172" lon="2.71005">
        <ele>369.28</ele>
        <time>2012-08-10T13:25:44Z</time>
      </trkpt>
      <trkpt lat="44.54173" lon="2.71003">
        <ele>369.28</ele>
        <time>2012-08-10T13:25:45Z</time>
      </trkpt>
      <trkpt lat="44.54173" lon="2.71">
        <ele>369.28</ele>
        <time>2012-08-10T13:25:46Z</time>
      </trkpt>
      <trkpt lat="44.54174" lon="2.70997">
        <ele>368.8</ele>
        <time>2012-08-10T13:25:47Z</time>
      </trkpt>
      <trkpt lat="44.54175" lon="2.70994">
        <ele>369.28</ele>
        <time>2012-08-10T13:25:48Z</time>
      </trkpt>
      <trkpt lat="44.54185" lon="2.70961">
        <ele>369.76</ele>
        <time>2012-08-10T13:26:03Z</time>
      </trkpt>
      <trkpt lat="44.54192" lon="2.70926">
        <ele>371.21</ele>
        <time>2012-08-10T13:26:19Z</time>
      </trkpt>
      <trkpt lat="44.54192" lon="2.70913">
        <ele>372.65</ele>
        <time>2012-08-10T13:26:25Z</time>
      </trkpt>
      <trkpt lat="44.54192" lon="2.70911">
        <ele>372.65</ele>
        <time>2012-08-10T13:26:26Z</time>
      </trkpt>
      <trkpt lat="44.54192" lon="2.70909">
        <ele>372.65</ele>
        <time>2012-08-10T13:26:27Z</time>
      </trkpt>
      <trkpt lat="44.54192" lon="2.70907">
        <ele>373.13</ele>
        <time>2012-08-10T13:26:28Z</time>
      </trkpt>
      <trkpt lat="44.54193" lon="2.70905">
        <ele>373.13</ele>
        <time>2012-08-10T13:26:29Z</time>
      </trkpt>
      <trkpt lat="44.54197" lon="2.70868">
        <ele>375.05</ele>
        <time>2012-08-10T13:26:45Z</time>
      </trkpt>
      <trkpt lat="44.54197" lon="2.70839">
        <ele>376.49</ele>
        <time>2012-08-10T13:26:57Z</time>
      </trkpt>
      <trkpt lat="44.542" lon="2.7081">
        <ele>377.45</ele>
        <time>2012-08-10T13:27:11Z</time>
      </trkpt>
      <trkpt lat="44.54201" lon="2.70775">
        <ele>376.01</ele>
        <time>2012-08-10T13:27:28Z</time>
      </trkpt>
      <trkpt lat="44.54206" lon="2.70741">
        <ele>373.13</ele>
        <time>2012-08-10T13:27:42Z</time>
      </trkpt>
      <trkpt lat="44.54213" lon="2.70698">
        <ele>374.09</ele>
        <time>2012-08-10T13:27:58Z</time>
      </trkpt>
      <trkpt lat="44.54219" lon="2.70662">
        <ele>375.53</ele>
        <time>2012-08-10T13:28:12Z</time>
      </trkpt>
      <trkpt lat="44.54226" lon="2.7062">
        <ele>376.01</ele>
        <time>2012-08-10T13:28:27Z</time>
      </trkpt>
      <trkpt lat="44.54238" lon="2.70556">
        <ele>375.05</ele>
        <time>2012-08-10T13:28:39Z</time>
      </trkpt>
      <trkpt lat="44.54255" lon="2.70472">
        <ele>371.69</ele>
        <time>2012-08-10T13:28:47Z</time>
      </trkpt>
      <trkpt lat="44.54255" lon="2.7046">
        <ele>371.21</ele>
        <time>2012-08-10T13:28:48Z</time>
      </trkpt>
      <trkpt lat="44.54255" lon="2.70448">
        <ele>370.73</ele>
        <time>2012-08-10T13:28:49Z</time>
      </trkpt>
      <trkpt lat="44.54248" lon="2.70345">
        <ele>367.84</ele>
        <time>2012-08-10T13:28:59Z</time>
      </trkpt>
      <trkpt lat="44.54247" lon="2.70339">
        <ele>367.84</ele>
        <time>2012-08-10T13:29:00Z</time>
      </trkpt>
      <trkpt lat="44.54245" lon="2.70335">
        <ele>367.84</ele>
        <time>2012-08-10T13:29:01Z</time>
      </trkpt>
      <trkpt lat="44.54242" lon="2.70333">
        <ele>368.32</ele>
        <time>2012-08-10T13:29:02Z</time>
      </trkpt>
      <trkpt lat="44.5424" lon="2.70332">
        <ele>368.32</ele>
        <time>2012-08-10T13:29:03Z</time>
      </trkpt>
      <trkpt lat="44.54238" lon="2.70331">
        <ele>368.8</ele>
        <time>2012-08-10T13:29:04Z</time>
      </trkpt>
      <trkpt lat="44.54236" lon="2.7033">
        <ele>369.28</ele>
        <time>2012-08-10T13:29:05Z</time>
      </trkpt>
      <trkpt lat="44.54234" lon="2.70329">
        <ele>369.28</ele>
        <time>2012-08-10T13:29:06Z</time>
      </trkpt>
      <trkpt lat="44.54227" lon="2.70326">
        <ele>371.21</ele>
        <time>2012-08-10T13:29:10Z</time>
      </trkpt>
      <trkpt lat="44.54219" lon="2.70323">
        <ele>371.69</ele>
        <time>2012-08-10T13:29:15Z</time>
      </trkpt>
      <trkpt lat="44.54217" lon="2.70323">
        <ele>371.69</ele>
        <time>2012-08-10T13:29:16Z</time>
      </trkpt>
      <trkpt lat="44.54216" lon="2.70323">
        <ele>371.69</ele>
        <time>2012-08-10T13:29:17Z</time>
      </trkpt>
      <trkpt lat="44.54214" lon="2.70323">
        <ele>372.17</ele>
        <time>2012-08-10T13:29:18Z</time>
      </trkpt>
      <trkpt lat="44.54213" lon="2.70323">
        <ele>372.17</ele>
        <time>2012-08-10T13:29:19Z</time>
      </trkpt>
      <trkpt lat="44.54211" lon="2.70323">
        <ele>372.65</ele>
        <time>2012-08-10T13:29:20Z</time>
      </trkpt>
      <trkpt lat="44.54201" lon="2.70325">
        <ele>374.57</ele>
        <time>2012-08-10T13:29:27Z</time>
      </trkpt>
      <trkpt lat="44.54199" lon="2.70326">
        <ele>374.57</ele>
        <time>2012-08-10T13:29:28Z</time>
      </trkpt>
      <trkpt lat="44.54198" lon="2.70326">
        <ele>374.57</ele>
        <time>2012-08-10T13:29:29Z</time>
      </trkpt>
      <trkpt lat="44.54197" lon="2.70326">
        <ele>374.57</ele>
        <time>2012-08-10T13:29:30Z</time>
      </trkpt>
      <trkpt lat="44.54196" lon="2.70326">
        <ele>375.05</ele>
        <time>2012-08-10T13:29:31Z</time>
      </trkpt>
      <trkpt lat="44.54194" lon="2.70327">
        <ele>375.05</ele>
        <time>2012-08-10T13:29:32Z</time>
      </trkpt>
      <trkpt lat="44.54186" lon="2.70335">
        <ele>376.97</ele>
        <time>2012-08-10T13:29:41Z</time>
      </trkpt>
      <trkpt lat="44.54215" lon="2.70322">
        <ele>375.05</ele>
        <time>2012-08-10T13:29:54Z</time>
      </trkpt>
      <trkpt lat="44.5424" lon="2.70335">
        <ele>370.73</ele>
        <time>2012-08-10T13:30:04Z</time>
      </trkpt>
      <trkpt lat="44.54242" lon="2.70336">
        <ele>370.24</ele>
        <time>2012-08-10T13:30:05Z</time>
      </trkpt>
      <trkpt lat="44.54253" lon="2.70324">
        <ele>368.32</ele>
        <time>2012-08-10T13:30:10Z</time>
      </trkpt>
      <trkpt lat="44.54255" lon="2.70318">
        <ele>367.84</ele>
        <time>2012-08-10T13:30:11Z</time>
      </trkpt>
      <trkpt lat="44.54269" lon="2.70276">
        <ele>366.4</ele>
        <time>2012-08-10T13:30:17Z</time>
      </trkpt>
      <trkpt lat="44.54276" lon="2.70237">
        <ele>364.96</ele>
        <time>2012-08-10T13:30:21Z</time>
      </trkpt>
      <trkpt lat="44.54277" lon="2.70225">
        <ele>364.48</ele>
        <time>2012-08-10T13:30:22Z</time>
      </trkpt>
      <trkpt lat="44.54262" lon="2.70085">
        <ele>360.63</ele>
        <time>2012-08-10T13:30:33Z</time>
      </trkpt>
      <trkpt lat="44.54229" lon="2.69978">
        <ele>355.34</ele>
        <time>2012-08-10T13:30:44Z</time>
      </trkpt>
      <trkpt lat="44.54223" lon="2.6997">
        <ele>354.86</ele>
        <time>2012-08-10T13:30:45Z</time>
      </trkpt>
      <trkpt lat="44.54216" lon="2.69963">
        <ele>353.9</ele>
        <time>2012-08-10T13:30:46Z</time>
      </trkpt>
      <trkpt lat="44.54209" lon="2.69957">
        <ele>353.42</ele>
        <time>2012-08-10T13:30:47Z</time>
      </trkpt>
      <trkpt lat="44.54201" lon="2.69951">
        <ele>352.94</ele>
        <time>2012-08-10T13:30:48Z</time>
      </trkpt>
      <trkpt lat="44.54193" lon="2.69946">
        <ele>351.98</ele>
        <time>2012-08-10T13:30:49Z</time>
      </trkpt>
      <trkpt lat="44.54154" lon="2.69926">
        <ele>347.65</ele>
        <time>2012-08-10T13:30:54Z</time>
      </trkpt>
      <trkpt lat="44.54146" lon="2.6992">
        <ele>346.69</ele>
        <time>2012-08-10T13:30:55Z</time>
      </trkpt>
      <trkpt lat="44.5414" lon="2.69911">
        <ele>345.73</ele>
        <time>2012-08-10T13:30:56Z</time>
      </trkpt>
      <trkpt lat="44.54136" lon="2.69901">
        <ele>344.77</ele>
        <time>2012-08-10T13:30:57Z</time>
      </trkpt>
      <trkpt lat="44.54134" lon="2.6989">
        <ele>343.81</ele>
        <time>2012-08-10T13:30:58Z</time>
      </trkpt>
      <trkpt lat="44.54134" lon="2.69881">
        <ele>343.33</ele>
        <time>2012-08-10T13:30:59Z</time>
      </trkpt>
      <trkpt lat="44.54135" lon="2.69872">
        <ele>342.37</ele>
        <time>2012-08-10T13:31:00Z</time>
      </trkpt>
      <trkpt lat="44.54136" lon="2.69864">
        <ele>341.89</ele>
        <time>2012-08-10T13:31:01Z</time>
      </trkpt>
      <trkpt lat="44.54138" lon="2.69857">
        <ele>340.92</ele>
        <time>2012-08-10T13:31:02Z</time>
      </trkpt>
      <trkpt lat="44.5414" lon="2.69851">
        <ele>340.44</ele>
        <time>2012-08-10T13:31:03Z</time>
      </trkpt>
      <trkpt lat="44.54157" lon="2.69814">
        <ele>338.52</ele>
        <time>2012-08-10T13:31:14Z</time>
      </trkpt>
      <trkpt lat="44.54177" lon="2.6977">
        <ele>339.96</ele>
        <time>2012-08-10T13:31:27Z</time>
      </trkpt>
      <trkpt lat="44.54201" lon="2.69717">
        <ele>342.37</ele>
        <time>2012-08-10T13:31:43Z</time>
      </trkpt>
      <trkpt lat="44.54219" lon="2.69663">
        <ele>344.77</ele>
        <time>2012-08-10T13:31:59Z</time>
      </trkpt>
      <trkpt lat="44.5423" lon="2.696">
        <ele>345.25</ele>
        <time>2012-08-10T13:32:15Z</time>
      </trkpt>
      <trkpt lat="44.5424" lon="2.69531">
        <ele>345.73</ele>
        <time>2012-08-10T13:32:32Z</time>
      </trkpt>
      <trkpt lat="44.54254" lon="2.6945">
        <ele>348.13</ele>
        <time>2012-08-10T13:32:54Z</time>
      </trkpt>
      <trkpt lat="44.54249" lon="2.69391">
        <ele>349.1</ele>
        <time>2012-08-10T13:33:08Z</time>
      </trkpt>
      <trkpt lat="44.54241" lon="2.6935">
        <ele>349.1</ele>
        <time>2012-08-10T13:33:16Z</time>
      </trkpt>
      <trkpt lat="44.54218" lon="2.69233">
        <ele>347.17</ele>
        <time>2012-08-10T13:33:33Z</time>
      </trkpt>
      <trkpt lat="44.54216" lon="2.69119">
        <ele>345.73</ele>
        <time>2012-08-10T13:33:47Z</time>
      </trkpt>
      <trkpt lat="44.54212" lon="2.68959">
        <ele>343.33</ele>
        <time>2012-08-10T13:34:04Z</time>
      </trkpt>
      <trkpt lat="44.54197" lon="2.68841">
        <ele>339.48</ele>
        <time>2012-08-10T13:34:16Z</time>
      </trkpt>
      <trkpt lat="44.54197" lon="2.68829">
        <ele>339.48</ele>
        <time>2012-08-10T13:34:17Z</time>
      </trkpt>
      <trkpt lat="44.54197" lon="2.68817">
        <ele>339.48</ele>
        <time>2012-08-10T13:34:18Z</time>
      </trkpt>
      <trkpt lat="44.54199" lon="2.68804">
        <ele>339</ele>
        <time>2012-08-10T13:34:19Z</time>
      </trkpt>
      <trkpt lat="44.54201" lon="2.68791">
        <ele>339</ele>
        <time>2012-08-10T13:34:20Z</time>
      </trkpt>
      <trkpt lat="44.54205" lon="2.68779">
        <ele>338.52</ele>
        <time>2012-08-10T13:34:21Z</time>
      </trkpt>
      <trkpt lat="44.5421" lon="2.68767">
        <ele>338.04</ele>
        <time>2012-08-10T13:34:22Z</time>
      </trkpt>
      <trkpt lat="44.54215" lon="2.68756">
        <ele>338.04</ele>
        <time>2012-08-10T13:34:23Z</time>
      </trkpt>
      <trkpt lat="44.5422" lon="2.68747">
        <ele>338.04</ele>
        <time>2012-08-10T13:34:24Z</time>
      </trkpt>
      <trkpt lat="44.54226" lon="2.68741">
        <ele>338.04</ele>
        <time>2012-08-10T13:34:25Z</time>
      </trkpt>
      <trkpt lat="44.54254" lon="2.68703">
        <ele>339.96</ele>
        <time>2012-08-10T13:34:34Z</time>
      </trkpt>
      <trkpt lat="44.54263" lon="2.68674">
        <ele>340.92</ele>
        <time>2012-08-10T13:34:40Z</time>
      </trkpt>
      <trkpt lat="44.54266" lon="2.68582">
        <ele>339.48</ele>
        <time>2012-08-10T13:34:56Z</time>
      </trkpt>
      <trkpt lat="44.54271" lon="2.68511">
        <ele>338.04</ele>
        <time>2012-08-10T13:35:10Z</time>
      </trkpt>
      <trkpt lat="44.54305" lon="2.68458">
        <ele>337.56</ele>
        <time>2012-08-10T13:35:24Z</time>
      </trkpt>
      <trkpt lat="44.54343" lon="2.68369">
        <ele>334.2</ele>
        <time>2012-08-10T13:35:36Z</time>
      </trkpt>
      <trkpt lat="44.54366" lon="2.683">
        <ele>332.27</ele>
        <time>2012-08-10T13:35:43Z</time>
      </trkpt>
      <trkpt lat="44.54377" lon="2.68244">
        <ele>330.83</ele>
        <time>2012-08-10T13:35:48Z</time>
      </trkpt>
      <trkpt lat="44.54381" lon="2.68233">
        <ele>329.87</ele>
        <time>2012-08-10T13:35:49Z</time>
      </trkpt>
      <trkpt lat="44.54386" lon="2.68222">
        <ele>329.39</ele>
        <time>2012-08-10T13:35:50Z</time>
      </trkpt>
      <trkpt lat="44.54391" lon="2.68213">
        <ele>329.39</ele>
        <time>2012-08-10T13:35:51Z</time>
      </trkpt>
      <trkpt lat="44.54396" lon="2.68204">
        <ele>328.43</ele>
        <time>2012-08-10T13:35:52Z</time>
      </trkpt>
      <trkpt lat="44.54402" lon="2.68197">
        <ele>327.95</ele>
        <time>2012-08-10T13:35:53Z</time>
      </trkpt>
      <trkpt lat="44.54408" lon="2.6819">
        <ele>327.95</ele>
        <time>2012-08-10T13:35:54Z</time>
      </trkpt>
      <trkpt lat="44.54414" lon="2.68185">
        <ele>327.47</ele>
        <time>2012-08-10T13:35:55Z</time>
      </trkpt>
      <trkpt lat="44.5442" lon="2.68181">
        <ele>326.99</ele>
        <time>2012-08-10T13:35:56Z</time>
      </trkpt>
      <trkpt lat="44.54427" lon="2.68179">
        <ele>326.99</ele>
        <time>2012-08-10T13:35:57Z</time>
      </trkpt>
      <trkpt lat="44.54433" lon="2.68178">
        <ele>326.99</ele>
        <time>2012-08-10T13:35:58Z</time>
      </trkpt>
      <trkpt lat="44.54439" lon="2.68178">
        <ele>326.99</ele>
        <time>2012-08-10T13:35:59Z</time>
      </trkpt>
      <trkpt lat="44.54493" lon="2.68173">
        <ele>328.43</ele>
        <time>2012-08-10T13:36:11Z</time>
      </trkpt>
      <trkpt lat="44.54544" lon="2.68162">
        <ele>328.43</ele>
        <time>2012-08-10T13:36:27Z</time>
      </trkpt>
      <trkpt lat="44.54584" lon="2.68171">
        <ele>328.91</ele>
        <time>2012-08-10T13:36:40Z</time>
      </trkpt>
      <trkpt lat="44.54624" lon="2.68192">
        <ele>329.39</ele>
        <time>2012-08-10T13:36:53Z</time>
      </trkpt>
      <trkpt lat="44.54647" lon="2.68255">
        <ele>330.35</ele>
        <time>2012-08-10T13:37:07Z</time>
      </trkpt>
      <trkpt lat="44.54681" lon="2.68323">
        <ele>334.68</ele>
        <time>2012-08-10T13:37:23Z</time>
      </trkpt>
      <trkpt lat="44.54697" lon="2.68348">
        <ele>334.68</ele>
        <time>2012-08-10T13:37:28Z</time>
      </trkpt>
      <trkpt lat="44.54707" lon="2.68374">
        <ele>334.2</ele>
        <time>2012-08-10T13:37:32Z</time>
      </trkpt>
      <trkpt lat="44.54718" lon="2.68422">
        <ele>334.2</ele>
        <time>2012-08-10T13:37:39Z</time>
      </trkpt>
      <trkpt lat="44.54729" lon="2.68475">
        <ele>333.71</ele>
        <time>2012-08-10T13:37:48Z</time>
      </trkpt>
      <trkpt lat="44.54735" lon="2.68499">
        <ele>333.23</ele>
        <time>2012-08-10T13:37:52Z</time>
      </trkpt>
      <trkpt lat="44.54737" lon="2.68505">
        <ele>333.23</ele>
        <time>2012-08-10T13:37:53Z</time>
      </trkpt>
      <trkpt lat="44.54764" lon="2.68592">
        <ele>334.2</ele>
        <time>2012-08-10T13:38:06Z</time>
      </trkpt>
      <trkpt lat="44.54796" lon="2.68679">
        <ele>334.68</ele>
        <time>2012-08-10T13:38:19Z</time>
      </trkpt>
      <trkpt lat="44.54809" lon="2.68702">
        <ele>334.2</ele>
        <time>2012-08-10T13:38:23Z</time>
      </trkpt>
      <trkpt lat="44.54814" lon="2.68713">
        <ele>334.68</ele>
        <time>2012-08-10T13:38:25Z</time>
      </trkpt>
      <trkpt lat="44.54833" lon="2.68738">
        <ele>334.68</ele>
        <time>2012-08-10T13:38:30Z</time>
      </trkpt>
      <trkpt lat="44.54837" lon="2.68742">
        <ele>334.68</ele>
        <time>2012-08-10T13:38:31Z</time>
      </trkpt>
      <trkpt lat="44.54841" lon="2.68746">
        <ele>334.68</ele>
        <time>2012-08-10T13:38:32Z</time>
      </trkpt>
      <trkpt lat="44.54846" lon="2.6875">
        <ele>334.68</ele>
        <time>2012-08-10T13:38:33Z</time>
      </trkpt>
      <trkpt lat="44.5485" lon="2.68753">
        <ele>334.68</ele>
        <time>2012-08-10T13:38:34Z</time>
      </trkpt>
      <trkpt lat="44.54916" lon="2.68783">
        <ele>334.68</ele>
        <time>2012-08-10T13:38:48Z</time>
      </trkpt>
      <trkpt lat="44.54921" lon="2.68782">
        <ele>334.68</ele>
        <time>2012-08-10T13:38:49Z</time>
      </trkpt>
      <trkpt lat="44.54926" lon="2.68779">
        <ele>334.68</ele>
        <time>2012-08-10T13:38:50Z</time>
      </trkpt>
      <trkpt lat="44.54935" lon="2.6877">
        <ele>334.2</ele>
        <time>2012-08-10T13:38:52Z</time>
      </trkpt>
      <trkpt lat="44.54939" lon="2.68765">
        <ele>334.2</ele>
        <time>2012-08-10T13:38:53Z</time>
      </trkpt>
      <trkpt lat="44.54943" lon="2.6876">
        <ele>334.2</ele>
        <time>2012-08-10T13:38:54Z</time>
      </trkpt>
      <trkpt lat="44.54946" lon="2.68754">
        <ele>334.2</ele>
        <time>2012-08-10T13:38:55Z</time>
      </trkpt>
      <trkpt lat="44.54949" lon="2.68748">
        <ele>334.2</ele>
        <time>2012-08-10T13:38:56Z</time>
      </trkpt>
      <trkpt lat="44.54951" lon="2.68741">
        <ele>334.2</ele>
        <time>2012-08-10T13:38:57Z</time>
      </trkpt>
      <trkpt lat="44.54953" lon="2.68734">
        <ele>334.2</ele>
        <time>2012-08-10T13:38:58Z</time>
      </trkpt>
      <trkpt lat="44.54955" lon="2.68727">
        <ele>334.68</ele>
        <time>2012-08-10T13:38:59Z</time>
      </trkpt>
      <trkpt lat="44.54956" lon="2.6872">
        <ele>334.68</ele>
        <time>2012-08-10T13:39:00Z</time>
      </trkpt>
      <trkpt lat="44.54956" lon="2.68713">
        <ele>334.68</ele>
        <time>2012-08-10T13:39:01Z</time>
      </trkpt>
      <trkpt lat="44.54956" lon="2.68704">
        <ele>335.16</ele>
        <time>2012-08-10T13:39:02Z</time>
      </trkpt>
      <trkpt lat="44.54951" lon="2.68664">
        <ele>335.16</ele>
        <time>2012-08-10T13:39:06Z</time>
      </trkpt>
      <trkpt lat="44.54946" lon="2.68637">
        <ele>335.16</ele>
        <time>2012-08-10T13:39:09Z</time>
      </trkpt>
      <trkpt lat="44.54946" lon="2.68628">
        <ele>334.68</ele>
        <time>2012-08-10T13:39:10Z</time>
      </trkpt>
      <trkpt lat="44.54946" lon="2.68612">
        <ele>334.2</ele>
        <time>2012-08-10T13:39:12Z</time>
      </trkpt>
      <trkpt lat="44.54949" lon="2.68566">
        <ele>334.2</ele>
        <time>2012-08-10T13:39:18Z</time>
      </trkpt>
      <trkpt lat="44.54938" lon="2.68462">
        <ele>333.71</ele>
        <time>2012-08-10T13:39:31Z</time>
      </trkpt>
      <trkpt lat="44.54927" lon="2.68369">
        <ele>336.12</ele>
        <time>2012-08-10T13:39:44Z</time>
      </trkpt>
      <trkpt lat="44.54925" lon="2.68318">
        <ele>337.56</ele>
        <time>2012-08-10T13:39:51Z</time>
      </trkpt>
      <trkpt lat="44.54924" lon="2.68312">
        <ele>337.56</ele>
        <time>2012-08-10T13:39:52Z</time>
      </trkpt>
      <trkpt lat="44.54923" lon="2.68299">
        <ele>338.04</ele>
        <time>2012-08-10T13:39:54Z</time>
      </trkpt>
      <trkpt lat="44.54922" lon="2.68293">
        <ele>338.04</ele>
        <time>2012-08-10T13:39:55Z</time>
      </trkpt>
      <trkpt lat="44.54921" lon="2.68287">
        <ele>338.04</ele>
        <time>2012-08-10T13:39:56Z</time>
      </trkpt>
      <trkpt lat="44.54919" lon="2.68281">
        <ele>338.04</ele>
        <time>2012-08-10T13:39:57Z</time>
      </trkpt>
      <trkpt lat="44.54917" lon="2.68275">
        <ele>337.56</ele>
        <time>2012-08-10T13:39:58Z</time>
      </trkpt>
      <trkpt lat="44.54897" lon="2.68227">
        <ele>337.08</ele>
        <time>2012-08-10T13:40:06Z</time>
      </trkpt>
      <trkpt lat="44.54869" lon="2.68122">
        <ele>339</ele>
        <time>2012-08-10T13:40:20Z</time>
      </trkpt>
      <trkpt lat="44.54864" lon="2.68089">
        <ele>339.48</ele>
        <time>2012-08-10T13:40:24Z</time>
      </trkpt>
      <trkpt lat="44.54863" lon="2.68074">
        <ele>339.48</ele>
        <time>2012-08-10T13:40:26Z</time>
      </trkpt>
      <trkpt lat="44.54863" lon="2.68066">
        <ele>339.96</ele>
        <time>2012-08-10T13:40:27Z</time>
      </trkpt>
      <trkpt lat="44.54864" lon="2.68059">
        <ele>339.96</ele>
        <time>2012-08-10T13:40:28Z</time>
      </trkpt>
      <trkpt lat="44.5487" lon="2.6802">
        <ele>340.44</ele>
        <time>2012-08-10T13:40:33Z</time>
      </trkpt>
      <trkpt lat="44.54878" lon="2.67973">
        <ele>339.96</ele>
        <time>2012-08-10T13:40:39Z</time>
      </trkpt>
      <trkpt lat="44.54913" lon="2.67884">
        <ele>338.04</ele>
        <time>2012-08-10T13:40:51Z</time>
      </trkpt>
      <trkpt lat="44.54917" lon="2.67877">
        <ele>337.56</ele>
        <time>2012-08-10T13:40:52Z</time>
      </trkpt>
      <trkpt lat="44.54974" lon="2.67811">
        <ele>330.83</ele>
        <time>2012-08-10T13:41:05Z</time>
      </trkpt>
      <trkpt lat="44.55008" lon="2.6778">
        <ele>328.43</ele>
        <time>2012-08-10T13:41:12Z</time>
      </trkpt>
      <trkpt lat="44.55031" lon="2.6775">
        <ele>327.47</ele>
        <time>2012-08-10T13:41:17Z</time>
      </trkpt>
      <trkpt lat="44.55036" lon="2.67744">
        <ele>327.95</ele>
        <time>2012-08-10T13:41:18Z</time>
      </trkpt>
      <trkpt lat="44.5507" lon="2.67694">
        <ele>328.43</ele>
        <time>2012-08-10T13:41:27Z</time>
      </trkpt>
      <trkpt lat="44.55074" lon="2.67689">
        <ele>328.43</ele>
        <time>2012-08-10T13:41:28Z</time>
      </trkpt>
      <trkpt lat="44.55081" lon="2.67679">
        <ele>328.43</ele>
        <time>2012-08-10T13:41:30Z</time>
      </trkpt>
      <trkpt lat="44.55096" lon="2.67634">
        <ele>326.5</ele>
        <time>2012-08-10T13:41:37Z</time>
      </trkpt>
      <trkpt lat="44.5513" lon="2.67526">
        <ele>327.47</ele>
        <time>2012-08-10T13:41:53Z</time>
      </trkpt>
      <trkpt lat="44.55183" lon="2.67458">
        <ele>326.99</ele>
        <time>2012-08-10T13:42:06Z</time>
      </trkpt>
      <trkpt lat="44.55186" lon="2.67455">
        <ele>326.5</ele>
        <time>2012-08-10T13:42:07Z</time>
      </trkpt>
      <trkpt lat="44.5519" lon="2.67452">
        <ele>326.5</ele>
        <time>2012-08-10T13:42:08Z</time>
      </trkpt>
      <trkpt lat="44.552" lon="2.67441">
        <ele>326.02</ele>
        <time>2012-08-10T13:42:11Z</time>
      </trkpt>
      <trkpt lat="44.55203" lon="2.67437">
        <ele>326.02</ele>
        <time>2012-08-10T13:42:12Z</time>
      </trkpt>
      <trkpt lat="44.55206" lon="2.67432">
        <ele>325.54</ele>
        <time>2012-08-10T13:42:13Z</time>
      </trkpt>
      <trkpt lat="44.55225" lon="2.67402">
        <ele>325.54</ele>
        <time>2012-08-10T13:42:19Z</time>
      </trkpt>
      <trkpt lat="44.55238" lon="2.67374">
        <ele>325.06</ele>
        <time>2012-08-10T13:42:24Z</time>
      </trkpt>
      <trkpt lat="44.55239" lon="2.67368">
        <ele>325.06</ele>
        <time>2012-08-10T13:42:25Z</time>
      </trkpt>
      <trkpt lat="44.55241" lon="2.67362">
        <ele>324.58</ele>
        <time>2012-08-10T13:42:26Z</time>
      </trkpt>
      <trkpt lat="44.55242" lon="2.67355">
        <ele>324.58</ele>
        <time>2012-08-10T13:42:27Z</time>
      </trkpt>
      <trkpt lat="44.55243" lon="2.67349">
        <ele>324.1</ele>
        <time>2012-08-10T13:42:28Z</time>
      </trkpt>
      <trkpt lat="44.55246" lon="2.67306">
        <ele>323.14</ele>
        <time>2012-08-10T13:42:34Z</time>
      </trkpt>
      <trkpt lat="44.55244" lon="2.67223">
        <ele>323.14</ele>
        <time>2012-08-10T13:42:48Z</time>
      </trkpt>
      <trkpt lat="44.55246" lon="2.67216">
        <ele>323.14</ele>
        <time>2012-08-10T13:42:50Z</time>
      </trkpt>
      <trkpt lat="44.55248" lon="2.67213">
        <ele>323.62</ele>
        <time>2012-08-10T13:42:51Z</time>
      </trkpt>
      <trkpt lat="44.5525" lon="2.67211">
        <ele>323.62</ele>
        <time>2012-08-10T13:42:52Z</time>
      </trkpt>
      <trkpt lat="44.55252" lon="2.67208">
        <ele>324.1</ele>
        <time>2012-08-10T13:42:53Z</time>
      </trkpt>
      <trkpt lat="44.55254" lon="2.67206">
        <ele>324.1</ele>
        <time>2012-08-10T13:42:54Z</time>
      </trkpt>
      <trkpt lat="44.55257" lon="2.67203">
        <ele>324.58</ele>
        <time>2012-08-10T13:42:55Z</time>
      </trkpt>
      <trkpt lat="44.5526" lon="2.67201">
        <ele>325.06</ele>
        <time>2012-08-10T13:42:56Z</time>
      </trkpt>
      <trkpt lat="44.55263" lon="2.67201">
        <ele>325.06</ele>
        <time>2012-08-10T13:42:57Z</time>
      </trkpt>
      <trkpt lat="44.55267" lon="2.672">
        <ele>325.54</ele>
        <time>2012-08-10T13:42:58Z</time>
      </trkpt>
      <trkpt lat="44.5527" lon="2.67201">
        <ele>325.06</ele>
        <time>2012-08-10T13:42:59Z</time>
      </trkpt>
      <trkpt lat="44.55274" lon="2.67201">
        <ele>324.58</ele>
        <time>2012-08-10T13:43:00Z</time>
      </trkpt>
      <trkpt lat="44.55314" lon="2.67191">
        <ele>322.18</ele>
        <time>2012-08-10T13:43:11Z</time>
      </trkpt>
      <trkpt lat="44.55342" lon="2.67194">
        <ele>319.78</ele>
        <time>2012-08-10T13:43:22Z</time>
      </trkpt>
      <trkpt lat="44.55345" lon="2.672">
        <ele>320.26</ele>
        <time>2012-08-10T13:43:24Z</time>
      </trkpt>
      <trkpt lat="44.55345" lon="2.67204">
        <ele>320.26</ele>
        <time>2012-08-10T13:43:25Z</time>
      </trkpt>
      <trkpt lat="44.55345" lon="2.67208">
        <ele>320.74</ele>
        <time>2012-08-10T13:43:26Z</time>
      </trkpt>
      <trkpt lat="44.55345" lon="2.67212">
        <ele>320.74</ele>
        <time>2012-08-10T13:43:27Z</time>
      </trkpt>
      <trkpt lat="44.55345" lon="2.67216">
        <ele>321.22</ele>
        <time>2012-08-10T13:43:28Z</time>
      </trkpt>
      <trkpt lat="44.55347" lon="2.67219">
        <ele>321.7</ele>
        <time>2012-08-10T13:43:29Z</time>
      </trkpt>
      <trkpt lat="44.55349" lon="2.67222">
        <ele>321.7</ele>
        <time>2012-08-10T13:43:30Z</time>
      </trkpt>
      <trkpt lat="44.55352" lon="2.67224">
        <ele>321.7</ele>
        <time>2012-08-10T13:43:31Z</time>
      </trkpt>
      <trkpt lat="44.55354" lon="2.67225">
        <ele>321.7</ele>
        <time>2012-08-10T13:43:32Z</time>
      </trkpt>
      <trkpt lat="44.55356" lon="2.67224">
        <ele>321.7</ele>
        <time>2012-08-10T13:43:33Z</time>
      </trkpt>
      <trkpt lat="44.55358" lon="2.67223">
        <ele>321.7</ele>
        <time>2012-08-10T13:43:34Z</time>
      </trkpt>
      <trkpt lat="44.55372" lon="2.67219">
        <ele>321.7</ele>
        <time>2012-08-10T13:43:45Z</time>
      </trkpt>
      <trkpt lat="44.554" lon="2.67212">
        <ele>321.7</ele>
        <time>2012-08-10T13:44:03Z</time>
      </trkpt>
      <trkpt lat="44.55408" lon="2.67222">
        <ele>322.18</ele>
        <time>2012-08-10T13:44:12Z</time>
      </trkpt>
      <trkpt lat="44.55411" lon="2.67221">
        <ele>322.18</ele>
        <time>2012-08-10T13:44:13Z</time>
      </trkpt>
      <trkpt lat="44.55413" lon="2.6722">
        <ele>322.18</ele>
        <time>2012-08-10T13:44:14Z</time>
      </trkpt>
      <trkpt lat="44.55438" lon="2.67215">
        <ele>321.7</ele>
        <time>2012-08-10T13:44:28Z</time>
      </trkpt>
      <trkpt lat="44.5544" lon="2.67214">
        <ele>321.7</ele>
        <time>2012-08-10T13:44:29Z</time>
      </trkpt>
      <trkpt lat="44.55469" lon="2.67199">
        <ele>322.66</ele>
        <time>2012-08-10T13:44:41Z</time>
      </trkpt>
      <trkpt lat="44.55471" lon="2.67203">
        <ele>322.66</ele>
        <time>2012-08-10T13:44:45Z</time>
      </trkpt>
      <trkpt lat="44.55473" lon="2.67208">
        <ele>322.66</ele>
        <time>2012-08-10T13:45:03Z</time>
      </trkpt>
      <trkpt lat="44.55474" lon="2.67202">
        <ele>322.66</ele>
        <time>2012-08-10T13:45:24Z</time>
      </trkpt>
      <trkpt lat="44.55474" lon="2.67199">
        <ele>322.66</ele>
        <time>2012-08-10T13:45:49Z</time>
      </trkpt>
      <trkpt lat="44.55474" lon="2.67194">
        <ele>323.14</ele>
        <time>2012-08-10T13:46:14Z</time>
      </trkpt>
      <trkpt lat="44.55478" lon="2.67188">
        <ele>323.14</ele>
        <time>2012-08-10T13:46:36Z</time>
      </trkpt>
      <trkpt lat="44.55477" lon="2.67192">
        <ele>322.66</ele>
        <time>2012-08-10T13:47:02Z</time>
      </trkpt>
      <trkpt lat="44.5547" lon="2.67196">
        <ele>322.66</ele>
        <time>2012-08-10T13:47:27Z</time>
      </trkpt>
      <trkpt lat="44.55477" lon="2.67208">
        <ele>322.66</ele>
        <time>2012-08-10T13:47:52Z</time>
      </trkpt>
      <trkpt lat="44.55479" lon="2.67211">
        <ele>323.14</ele>
        <time>2012-08-10T13:48:09Z</time>
      </trkpt>
      <trkpt lat="44.5548" lon="2.67221">
        <ele>324.58</ele>
        <time>2012-08-10T13:48:29Z</time>
      </trkpt>
      <trkpt lat="44.55476" lon="2.67231">
        <ele>331.31</ele>
        <time>2012-08-10T13:48:49Z</time>
      </trkpt>
      <trkpt lat="44.55475" lon="2.67239">
        <ele>335.64</ele>
        <time>2012-08-10T13:49:04Z</time>
      </trkpt>
      <trkpt lat="44.55473" lon="2.67243">
        <ele>333.71</ele>
        <time>2012-08-10T13:49:07Z</time>
      </trkpt>
      <trkpt lat="44.55472" lon="2.67243">
        <ele>333.23</ele>
        <time>2012-08-10T13:49:08Z</time>
      </trkpt>
      <trkpt lat="44.55467" lon="2.67241">
        <ele>330.83</ele>
        <time>2012-08-10T13:49:12Z</time>
      </trkpt>
      <trkpt lat="44.55464" lon="2.67241">
        <ele>330.35</ele>
        <time>2012-08-10T13:49:15Z</time>
      </trkpt>
      <trkpt lat="44.55459" lon="2.67249">
        <ele>332.27</ele>
        <time>2012-08-10T13:49:28Z</time>
      </trkpt>
      <trkpt lat="44.55462" lon="2.67245">
        <ele>332.75</ele>
        <time>2012-08-10T13:49:34Z</time>
      </trkpt>
      <trkpt lat="44.55467" lon="2.67241">
        <ele>331.31</ele>
        <time>2012-08-10T13:49:45Z</time>
      </trkpt>
      <trkpt lat="44.5547" lon="2.6724">
        <ele>332.27</ele>
        <time>2012-08-10T13:49:55Z</time>
      </trkpt>
      <trkpt lat="44.55474" lon="2.67238">
        <ele>332.27</ele>
        <time>2012-08-10T13:49:58Z</time>
      </trkpt>
      <trkpt lat="44.55479" lon="2.67229">
        <ele>333.23</ele>
        <time>2012-08-10T13:50:09Z</time>
      </trkpt>
      <trkpt lat="44.55478" lon="2.67223">
        <ele>332.75</ele>
        <time>2012-08-10T13:50:14Z</time>
      </trkpt>
      <trkpt lat="44.55488" lon="2.67216">
        <ele>332.75</ele>
        <time>2012-08-10T13:50:29Z</time>
      </trkpt>
      <trkpt lat="44.55499" lon="2.67221">
        <ele>332.27</ele>
        <time>2012-08-10T13:50:45Z</time>
      </trkpt>
      <trkpt lat="44.55509" lon="2.6722">
        <ele>330.35</ele>
        <time>2012-08-10T13:51:01Z</time>
      </trkpt>
      <trkpt lat="44.55509" lon="2.67218">
        <ele>330.35</ele>
        <time>2012-08-10T13:51:28Z</time>
      </trkpt>
      <trkpt lat="44.55507" lon="2.67213">
        <ele>330.83</ele>
        <time>2012-08-10T13:51:52Z</time>
      </trkpt>
      <trkpt lat="44.55507" lon="2.67212">
        <ele>331.31</ele>
        <time>2012-08-10T13:52:17Z</time>
      </trkpt>
      <trkpt lat="44.55508" lon="2.67208">
        <ele>330.83</ele>
        <time>2012-08-10T13:52:41Z</time>
      </trkpt>
      <trkpt lat="44.55507" lon="2.67204">
        <ele>330.83</ele>
        <time>2012-08-10T13:53:01Z</time>
      </trkpt>
      <trkpt lat="44.55505" lon="2.67194">
        <ele>330.83</ele>
        <time>2012-08-10T13:53:14Z</time>
      </trkpt>
      <trkpt lat="44.55501" lon="2.67182">
        <ele>330.35</ele>
        <time>2012-08-10T13:53:36Z</time>
      </trkpt>
      <trkpt lat="44.55503" lon="2.67192">
        <ele>330.35</ele>
        <time>2012-08-10T13:53:56Z</time>
      </trkpt>
      <trkpt lat="44.55504" lon="2.67194">
        <ele>330.35</ele>
        <time>2012-08-10T13:53:58Z</time>
      </trkpt>
      <trkpt lat="44.55509" lon="2.67213">
        <ele>329.87</ele>
        <time>2012-08-10T13:54:23Z</time>
      </trkpt>
      <trkpt lat="44.55511" lon="2.6722">
        <ele>330.35</ele>
        <time>2012-08-10T13:54:48Z</time>
      </trkpt>
      <trkpt lat="44.67106" lon="3.03861">
        <ele>1213.32</ele>
        <time>2012-08-09T15:19:24Z</time>
      </trkpt>
      <trkpt lat="44.67081" lon="3.03883">
        <ele>1172.95</ele>
        <time>2012-08-09T15:05:02Z</time>
      </trkpt>
      <trkpt lat="44.67081" lon="3.03883">
        <ele>1172.95</ele>
        <time>2012-08-09T15:04:55Z</time>
      </trkpt>
      <trkpt lat="44.6708" lon="3.03883">
        <ele>1172.47</ele>
        <time>2012-08-09T15:04:24Z</time>
      </trkpt>
      <trkpt lat="44.6708" lon="3.03885">
        <ele>1171.5</ele>
        <time>2012-08-09T15:03:53Z</time>
      </trkpt>
      <trkpt lat="44.67079" lon="3.03884">
        <ele>1171.5</ele>
        <time>2012-08-09T15:03:20Z</time>
      </trkpt>
      <trkpt lat="44.6708" lon="3.03883">
        <ele>1172.95</ele>
        <time>2012-08-09T15:02:53Z</time>
      </trkpt>
      <trkpt lat="44.67081" lon="3.03884">
        <ele>1175.83</ele>
        <time>2012-08-09T15:02:20Z</time>
      </trkpt>
      <trkpt lat="44.67079" lon="3.03893">
        <ele>1183.04</ele>
        <time>2012-08-09T15:01:55Z</time>
      </trkpt>
      <trkpt lat="44.66231" lon="3.04641">
        <ele>1179.67</ele>
        <time>2012-08-09T13:52:32Z</time>
      </trkpt>
      <trkpt lat="44.66231" lon="3.04641">
        <ele>1179.67</ele>
        <time>2012-08-09T13:52:26Z</time>
      </trkpt>
      <trkpt lat="44.66231" lon="3.04641">
        <ele>1179.67</ele>
        <time>2012-08-09T13:52:26Z</time>
      </trkpt>
    </trkseg>
  </trk>
</gpx>